<?xml version='1.0' encoding='UTF-8'?><gpx version="1.1" creator="JPX - https://github.com/jenetics/jpx" xmlns="http://www.topografix.com/GPX/1/1"><trk><trkseg><trkpt lat="41.4078525" lon="13.0484781"><ele>6.0</ele><time>2026-04-18T13:20:19.145Z</time></trkpt><trkpt lat="41.4079328" lon="13.0485812"><ele>6.0</ele><time>2026-04-18T13:20:21.145Z</time></trkpt><trkpt lat="41.407983" lon="13.0486448"><ele>6.0</ele><time>2026-04-18T13:20:22.145Z</time></trkpt><trkpt lat="41.4080322" lon="13.0487143"><ele>6.0</ele><time>2026-04-18T13:20:23.145Z</time></trkpt><trkpt lat="41.4080826" lon="13.0487847"><ele>6.0</ele><time>2026-04-18T13:20:24.145Z</time></trkpt><trkpt lat="41.4081388" lon="13.0488669"><ele>6.0</ele><time>2026-04-18T13:20:25.144Z</time></trkpt><trkpt lat="41.4082035" lon="13.0489597"><ele>6.0</ele><time>2026-04-18T13:20:26.144Z</time></trkpt><trkpt lat="41.4082821" lon="13.0490729"><ele>6.0</ele><time>2026-04-18T13:20:27.145Z</time></trkpt><trkpt lat="41.4083627" lon="13.0491848"><ele>6.0</ele><time>2026-04-18T13:20:28.145Z</time></trkpt><trkpt lat="41.4084491" lon="13.0492965"><ele>6.0</ele><time>2026-04-18T13:20:29.145Z</time></trkpt><trkpt lat="41.4085397" lon="13.0494103"><ele>6.0</ele><time>2026-04-18T13:20:30.145Z</time></trkpt><trkpt lat="41.4086378" lon="13.0495408"><ele>6.0</ele><time>2026-04-18T13:20:31.145Z</time></trkpt><trkpt lat="41.4087329" lon="13.0496835"><ele>6.0</ele><time>2026-04-18T13:20:32.145Z</time></trkpt><trkpt lat="41.4088403" lon="13.0498249"><ele>6.0</ele><time>2026-04-18T13:20:33.144Z</time></trkpt><trkpt lat="41.4089502" lon="13.0499751"><ele>7.0</ele><time>2026-04-18T13:20:34.145Z</time></trkpt><trkpt lat="41.4090584" lon="13.0501298"><ele>8.0</ele><time>2026-04-18T13:20:35.145Z</time></trkpt><trkpt lat="41.4091736" lon="13.0502862"><ele>9.0</ele><time>2026-04-18T13:20:36.145Z</time></trkpt><trkpt lat="41.4092967" lon="13.0504486"><ele>9.0</ele><time>2026-04-18T13:20:37.144Z</time></trkpt><trkpt lat="41.4094324" lon="13.0506286"><ele>9.0</ele><time>2026-04-18T13:20:38.145Z</time></trkpt><trkpt lat="41.4095724" lon="13.0508153"><ele>9.0</ele><time>2026-04-18T13:20:39.144Z</time></trkpt><trkpt lat="41.4097039" lon="13.0509998"><ele>8.0</ele><time>2026-04-18T13:20:40.144Z</time></trkpt><trkpt lat="41.4098276" lon="13.0511749"><ele>7.0</ele><time>2026-04-18T13:20:41.145Z</time></trkpt><trkpt lat="41.4099535" lon="13.0513492"><ele>6.0</ele><time>2026-04-18T13:20:42.144Z</time></trkpt><trkpt lat="41.4100789" lon="13.0515287"><ele>6.0</ele><time>2026-04-18T13:20:43.145Z</time></trkpt><trkpt lat="41.4102106" lon="13.0516975"><ele>6.0</ele><time>2026-04-18T13:20:44.144Z</time></trkpt><trkpt lat="41.4103463" lon="13.051867"><ele>6.0</ele><time>2026-04-18T13:20:45.145Z</time></trkpt><trkpt lat="41.4104771" lon="13.0520448"><ele>6.0</ele><time>2026-04-18T13:20:46.145Z</time></trkpt><trkpt lat="41.4106112" lon="13.0522337"><ele>6.0</ele><time>2026-04-18T13:20:47.145Z</time></trkpt><trkpt lat="41.4107404" lon="13.0524256"><ele>6.0</ele><time>2026-04-18T13:20:48.145Z</time></trkpt><trkpt lat="41.4108759" lon="13.0526165"><ele>6.0</ele><time>2026-04-18T13:20:49.145Z</time></trkpt><trkpt lat="41.4110089" lon="13.0528151"><ele>6.0</ele><time>2026-04-18T13:20:50.145Z</time></trkpt><trkpt lat="41.4111481" lon="13.053014"><ele>6.0</ele><time>2026-04-18T13:20:51.145Z</time></trkpt><trkpt lat="41.4112889" lon="13.0532082"><ele>6.333333333333334</ele><time>2026-04-18T13:20:52.145Z</time></trkpt><trkpt lat="41.4114319" lon="13.0534018"><ele>6.666666666666667</ele><time>2026-04-18T13:20:53.145Z</time></trkpt><trkpt lat="41.4115799" lon="13.0536048"><ele>7.0</ele><time>2026-04-18T13:20:54.145Z</time></trkpt><trkpt lat="41.4117287" lon="13.0538068"><ele>7.0</ele><time>2026-04-18T13:20:55.145Z</time></trkpt><trkpt lat="41.4118834" lon="13.0540091"><ele>7.0</ele><time>2026-04-18T13:20:56.144Z</time></trkpt><trkpt lat="41.4120393" lon="13.0542078"><ele>7.0</ele><time>2026-04-18T13:20:57.145Z</time></trkpt><trkpt lat="41.412186" lon="13.0544057"><ele>7.0</ele><time>2026-04-18T13:20:58.145Z</time></trkpt><trkpt lat="41.4123295" lon="13.0546032"><ele>7.0</ele><time>2026-04-18T13:20:59.145Z</time></trkpt><trkpt lat="41.4124755" lon="13.0547982"><ele>7.0</ele><time>2026-04-18T13:21:00.145Z</time></trkpt><trkpt lat="41.4126166" lon="13.0549956"><ele>7.0</ele><time>2026-04-18T13:21:01.145Z</time></trkpt><trkpt lat="41.412758" lon="13.0551922"><ele>7.0</ele><time>2026-04-18T13:21:02.145Z</time></trkpt><trkpt lat="41.4128942" lon="13.0553893"><ele>7.0</ele><time>2026-04-18T13:21:03.145Z</time></trkpt><trkpt lat="41.4130332" lon="13.0555855"><ele>6.0</ele><time>2026-04-18T13:21:04.145Z</time></trkpt><trkpt lat="41.413175" lon="13.0557886"><ele>5.0</ele><time>2026-04-18T13:21:05.145Z</time></trkpt><trkpt lat="41.4133162" lon="13.0559829"><ele>4.0</ele><time>2026-04-18T13:21:06.144Z</time></trkpt><trkpt lat="41.4134584" lon="13.0561795"><ele>4.0</ele><time>2026-04-18T13:21:07.145Z</time></trkpt><trkpt lat="41.4136023" lon="13.056371"><ele>4.0</ele><time>2026-04-18T13:21:08.145Z</time></trkpt><trkpt lat="41.4137449" lon="13.0565649"><ele>4.0</ele><time>2026-04-18T13:21:09.145Z</time></trkpt><trkpt lat="41.4138868" lon="13.0567599"><ele>4.0</ele><time>2026-04-18T13:21:10.145Z</time></trkpt><trkpt lat="41.4140331" lon="13.056961"><ele>4.0</ele><time>2026-04-18T13:21:11.145Z</time></trkpt><trkpt lat="41.4141782" lon="13.0571653"><ele>4.0</ele><time>2026-04-18T13:21:12.145Z</time></trkpt><trkpt lat="41.414327" lon="13.0573732"><ele>4.0</ele><time>2026-04-18T13:21:13.145Z</time></trkpt><trkpt lat="41.4144728" lon="13.0575811"><ele>4.0</ele><time>2026-04-18T13:21:14.145Z</time></trkpt><trkpt lat="41.4146201" lon="13.0577918"><ele>4.0</ele><time>2026-04-18T13:21:15.144Z</time></trkpt><trkpt lat="41.4147722" lon="13.0580021"><ele>4.0</ele><time>2026-04-18T13:21:16.144Z</time></trkpt><trkpt lat="41.4149271" lon="13.0582147"><ele>4.0</ele><time>2026-04-18T13:21:17.145Z</time></trkpt><trkpt lat="41.4150822" lon="13.058425"><ele>4.0</ele><time>2026-04-18T13:21:18.145Z</time></trkpt><trkpt lat="41.4152362" lon="13.0586324"><ele>4.0</ele><time>2026-04-18T13:21:19.145Z</time></trkpt><trkpt lat="41.4153856" lon="13.0588487"><ele>4.0</ele><time>2026-04-18T13:21:20.145Z</time></trkpt><trkpt lat="41.4155416" lon="13.0590713"><ele>4.0</ele><time>2026-04-18T13:21:21.145Z</time></trkpt><trkpt lat="41.4157102" lon="13.0593032"><ele>4.0</ele><time>2026-04-18T13:21:22.145Z</time></trkpt><trkpt lat="41.4158845" lon="13.0595407"><ele>4.0</ele><time>2026-04-18T13:21:23.145Z</time></trkpt><trkpt lat="41.4160629" lon="13.0597716"><ele>4.0</ele><time>2026-04-18T13:21:24.144Z</time></trkpt><trkpt lat="41.4162286" lon="13.060001"><ele>4.0</ele><time>2026-04-18T13:21:25.145Z</time></trkpt><trkpt lat="41.4163875" lon="13.0602235"><ele>4.0</ele><time>2026-04-18T13:21:26.144Z</time></trkpt><trkpt lat="41.4165303" lon="13.0604381"><ele>4.0</ele><time>2026-04-18T13:21:27.145Z</time></trkpt><trkpt lat="41.4166666" lon="13.0606423"><ele>4.0</ele><time>2026-04-18T13:21:28.144Z</time></trkpt><trkpt lat="41.4167965" lon="13.0608229"><ele>4.0</ele><time>2026-04-18T13:21:29.145Z</time></trkpt><trkpt lat="41.4169195" lon="13.060988"><ele>4.0</ele><time>2026-04-18T13:21:30.145Z</time></trkpt><trkpt lat="41.4170252" lon="13.0611315"><ele>4.0</ele><time>2026-04-18T13:21:31.145Z</time></trkpt><trkpt lat="41.4171037" lon="13.0612298"><ele>4.0</ele><time>2026-04-18T13:21:32.145Z</time></trkpt><trkpt lat="41.4171569" lon="13.0613"><ele>3.75</ele><time>2026-04-18T13:21:33.145Z</time></trkpt><trkpt lat="41.4172661" lon="13.0612939"><ele>3.5</ele><time>2026-04-18T13:21:35.144Z</time></trkpt><trkpt lat="41.4173529" lon="13.0612175"><ele>3.25</ele><time>2026-04-18T13:21:36.145Z</time></trkpt><trkpt lat="41.4174447" lon="13.0611037"><ele>3.0</ele><time>2026-04-18T13:21:37.145Z</time></trkpt><trkpt lat="41.4175499" lon="13.0609688"><ele>3.0</ele><time>2026-04-18T13:21:38.145Z</time></trkpt><trkpt lat="41.4176605" lon="13.0608174"><ele>3.0</ele><time>2026-04-18T13:21:39.145Z</time></trkpt><trkpt lat="41.4177945" lon="13.0606517"><ele>3.0</ele><time>2026-04-18T13:21:40.145Z</time></trkpt><trkpt lat="41.4179337" lon="13.0604712"><ele>3.333333333333333</ele><time>2026-04-18T13:21:41.145Z</time></trkpt><trkpt lat="41.4180889" lon="13.0602851"><ele>3.6666666666666665</ele><time>2026-04-18T13:21:42.145Z</time></trkpt><trkpt lat="41.4182496" lon="13.0600789"><ele>4.0</ele><time>2026-04-18T13:21:43.145Z</time></trkpt><trkpt lat="41.4184171" lon="13.0598671"><ele>4.0</ele><time>2026-04-18T13:21:44.145Z</time></trkpt><trkpt lat="41.4185885" lon="13.0596486"><ele>4.0</ele><time>2026-04-18T13:21:45.144Z</time></trkpt><trkpt lat="41.4187623" lon="13.0594172"><ele>4.0</ele><time>2026-04-18T13:21:46.144Z</time></trkpt><trkpt lat="41.4189442" lon="13.0591821"><ele>4.0</ele><time>2026-04-18T13:21:47.145Z</time></trkpt><trkpt lat="41.4191286" lon="13.0589392"><ele>4.0</ele><time>2026-04-18T13:21:48.145Z</time></trkpt><trkpt lat="41.4193228" lon="13.0586915"><ele>4.0</ele><time>2026-04-18T13:21:49.145Z</time></trkpt><trkpt lat="41.4195182" lon="13.0584441"><ele>4.0</ele><time>2026-04-18T13:21:50.145Z</time></trkpt><trkpt lat="41.4197166" lon="13.0581913"><ele>4.0</ele><time>2026-04-18T13:21:51.145Z</time></trkpt><trkpt lat="41.4199209" lon="13.057929"><ele>4.0</ele><time>2026-04-18T13:21:52.145Z</time></trkpt><trkpt lat="41.4201235" lon="13.0576642"><ele>4.0</ele><time>2026-04-18T13:21:53.145Z</time></trkpt><trkpt lat="41.420329" lon="13.0573958"><ele>3.5</ele><time>2026-04-18T13:21:54.145Z</time></trkpt><trkpt lat="41.4205314" lon="13.0571307"><ele>3.0</ele><time>2026-04-18T13:21:55.145Z</time></trkpt><trkpt lat="41.4207318" lon="13.0568682"><ele>2.5</ele><time>2026-04-18T13:21:56.145Z</time></trkpt><trkpt lat="41.4209283" lon="13.0566158"><ele>2.0</ele><time>2026-04-18T13:21:57.145Z</time></trkpt><trkpt lat="41.4211196" lon="13.0563715"><ele>2.0</ele><time>2026-04-18T13:21:58.145Z</time></trkpt><trkpt lat="41.4213013" lon="13.0561327"><ele>2.0</ele><time>2026-04-18T13:21:59.145Z</time></trkpt><trkpt lat="41.4214841" lon="13.0558934"><ele>4.0</ele><time>2026-04-18T13:22:00.145Z</time></trkpt><trkpt lat="41.4216659" lon="13.0556452"><ele>6.0</ele><time>2026-04-18T13:22:01.145Z</time></trkpt><trkpt lat="41.4218538" lon="13.0553844"><ele>6.0</ele><time>2026-04-18T13:22:02.145Z</time></trkpt><trkpt lat="41.4220494" lon="13.0551232"><ele>6.0</ele><time>2026-04-18T13:22:03.145Z</time></trkpt><trkpt lat="41.4222569" lon="13.0548698"><ele>5.5</ele><time>2026-04-18T13:22:04.145Z</time></trkpt><trkpt lat="41.4224702" lon="13.0546081"><ele>5.0</ele><time>2026-04-18T13:22:05.145Z</time></trkpt><trkpt lat="41.4226925" lon="13.0543403"><ele>4.5</ele><time>2026-04-18T13:22:06.145Z</time></trkpt><trkpt lat="41.422916" lon="13.0540597"><ele>4.0</ele><time>2026-04-18T13:22:07.145Z</time></trkpt><trkpt lat="41.4231403" lon="13.0537671"><ele>4.0</ele><time>2026-04-18T13:22:08.145Z</time></trkpt><trkpt lat="41.4233791" lon="13.0534634"><ele>4.0</ele><time>2026-04-18T13:22:09.145Z</time></trkpt><trkpt lat="41.4236228" lon="13.0531475"><ele>5.0</ele><time>2026-04-18T13:22:10.145Z</time></trkpt><trkpt lat="41.4238734" lon="13.0528248"><ele>6.0</ele><time>2026-04-18T13:22:11.145Z</time></trkpt><trkpt lat="41.4241245" lon="13.0525015"><ele>6.5</ele><time>2026-04-18T13:22:12.145Z</time></trkpt><trkpt lat="41.4243723" lon="13.0521793"><ele>7.0</ele><time>2026-04-18T13:22:13.145Z</time></trkpt><trkpt lat="41.4246082" lon="13.0518747"><ele>5.5</ele><time>2026-04-18T13:22:14.145Z</time></trkpt><trkpt lat="41.4248263" lon="13.0515961"><ele>4.0</ele><time>2026-04-18T13:22:15.145Z</time></trkpt><trkpt lat="41.4250289" lon="13.0513485"><ele>4.0</ele><time>2026-04-18T13:22:16.144Z</time></trkpt><trkpt lat="41.4252136" lon="13.0511111"><ele>4.0</ele><time>2026-04-18T13:22:17.145Z</time></trkpt><trkpt lat="41.4253899" lon="13.0508886"><ele>4.0</ele><time>2026-04-18T13:22:18.144Z</time></trkpt><trkpt lat="41.4255515" lon="13.0506916"><ele>4.0</ele><time>2026-04-18T13:22:19.145Z</time></trkpt><trkpt lat="41.4257003" lon="13.0505073"><ele>4.0</ele><time>2026-04-18T13:22:20.145Z</time></trkpt><trkpt lat="41.425834" lon="13.0503421"><ele>4.0</ele><time>2026-04-18T13:22:21.144Z</time></trkpt><trkpt lat="41.4259575" lon="13.0501872"><ele>4.0</ele><time>2026-04-18T13:22:22.145Z</time></trkpt><trkpt lat="41.4260703" lon="13.0500451"><ele>4.0</ele><time>2026-04-18T13:22:23.145Z</time></trkpt><trkpt lat="41.4261722" lon="13.049912"><ele>4.2</ele><time>2026-04-18T13:22:24.145Z</time></trkpt><trkpt lat="41.4262606" lon="13.0497971"><ele>4.4</ele><time>2026-04-18T13:22:25.144Z</time></trkpt><trkpt lat="41.4263346" lon="13.0496999"><ele>4.6</ele><time>2026-04-18T13:22:26.145Z</time></trkpt><trkpt lat="41.4263985" lon="13.0496206"><ele>4.8</ele><time>2026-04-18T13:22:27.145Z</time></trkpt><trkpt lat="41.4264482" lon="13.0495557"><ele>5.0</ele><time>2026-04-18T13:22:28.145Z</time></trkpt><trkpt lat="41.4265166" lon="13.0494707"><ele>5.166666666666667</ele><time>2026-04-18T13:22:30.145Z</time></trkpt><trkpt lat="41.4265867" lon="13.0493678"><ele>5.333333333333334</ele><time>2026-04-18T13:23:16.145Z</time></trkpt><trkpt lat="41.4266289" lon="13.0493049"><ele>5.5</ele><time>2026-04-18T13:23:17.145Z</time></trkpt><trkpt lat="41.4266829" lon="13.0492513"><ele>5.666666666666667</ele><time>2026-04-18T13:23:18.145Z</time></trkpt><trkpt lat="41.4267436" lon="13.0492249"><ele>5.833333333333333</ele><time>2026-04-18T13:23:19.145Z</time></trkpt><trkpt lat="41.4268103" lon="13.0492697"><ele>6.0</ele><time>2026-04-18T13:23:20.145Z</time></trkpt><trkpt lat="41.4268881" lon="13.0493485"><ele>6.0</ele><time>2026-04-18T13:23:21.145Z</time></trkpt><trkpt lat="41.4269639" lon="13.0494125"><ele>6.0</ele><time>2026-04-18T13:23:22.144Z</time></trkpt><trkpt lat="41.4270466" lon="13.0495316"><ele>6.0</ele><time>2026-04-18T13:23:23.145Z</time></trkpt><trkpt lat="41.4271359" lon="13.0496684"><ele>6.0</ele><time>2026-04-18T13:23:24.145Z</time></trkpt><trkpt lat="41.427233" lon="13.0498149"><ele>5.333333333333333</ele><time>2026-04-18T13:23:25.144Z</time></trkpt><trkpt lat="41.4273377" lon="13.0499653"><ele>4.666666666666666</ele><time>2026-04-18T13:23:26.145Z</time></trkpt><trkpt lat="41.42746" lon="13.0501346"><ele>4.0</ele><time>2026-04-18T13:23:27.144Z</time></trkpt><trkpt lat="41.4275863" lon="13.050309"><ele>4.0</ele><time>2026-04-18T13:23:28.145Z</time></trkpt><trkpt lat="41.4277138" lon="13.0504839"><ele>4.0</ele><time>2026-04-18T13:23:29.145Z</time></trkpt><trkpt lat="41.4278444" lon="13.0506697"><ele>4.0</ele><time>2026-04-18T13:23:30.145Z</time></trkpt><trkpt lat="41.4279953" lon="13.0508625"><ele>4.0</ele><time>2026-04-18T13:23:31.144Z</time></trkpt><trkpt lat="41.428141" lon="13.0510698"><ele>4.0</ele><time>2026-04-18T13:23:32.145Z</time></trkpt><trkpt lat="41.428295" lon="13.0512784"><ele>4.0</ele><time>2026-04-18T13:23:33.145Z</time></trkpt><trkpt lat="41.4284358" lon="13.0514717"><ele>4.333333333333333</ele><time>2026-04-18T13:23:34.145Z</time></trkpt><trkpt lat="41.4285782" lon="13.0516707"><ele>4.666666666666667</ele><time>2026-04-18T13:23:35.145Z</time></trkpt><trkpt lat="41.4287139" lon="13.0518813"><ele>5.0</ele><time>2026-04-18T13:23:36.145Z</time></trkpt><trkpt lat="41.4288382" lon="13.0521043"><ele>4.666666666666667</ele><time>2026-04-18T13:23:37.145Z</time></trkpt><trkpt lat="41.4289559" lon="13.0523124"><ele>4.333333333333333</ele><time>2026-04-18T13:23:38.145Z</time></trkpt><trkpt lat="41.4290562" lon="13.0525199"><ele>4.0</ele><time>2026-04-18T13:23:39.145Z</time></trkpt><trkpt lat="41.4291646" lon="13.0527253"><ele>4.0</ele><time>2026-04-18T13:23:40.145Z</time></trkpt><trkpt lat="41.4292849" lon="13.0529404"><ele>4.0</ele><time>2026-04-18T13:23:41.145Z</time></trkpt><trkpt lat="41.4294213" lon="13.0531636"><ele>4.0</ele><time>2026-04-18T13:23:42.145Z</time></trkpt><trkpt lat="41.4295824" lon="13.0533966"><ele>4.0</ele><time>2026-04-18T13:23:43.145Z</time></trkpt><trkpt lat="41.4297729" lon="13.0536432"><ele>4.0</ele><time>2026-04-18T13:23:44.145Z</time></trkpt><trkpt lat="41.4300567" lon="13.0539239"><ele>4.0</ele><time>2026-04-18T13:23:45.144Z</time></trkpt><trkpt lat="41.4302554" lon="13.0541748"><ele>4.0</ele><time>2026-04-18T13:23:46.145Z</time></trkpt><trkpt lat="41.4304419" lon="13.0544196"><ele>3.5</ele><time>2026-04-18T13:23:47.145Z</time></trkpt><trkpt lat="41.4306209" lon="13.0546621"><ele>3.0</ele><time>2026-04-18T13:23:48.144Z</time></trkpt><trkpt lat="41.4308026" lon="13.0548937"><ele>4.0</ele><time>2026-04-18T13:23:49.144Z</time></trkpt><trkpt lat="41.4309817" lon="13.0551246"><ele>5.0</ele><time>2026-04-18T13:23:50.145Z</time></trkpt><trkpt lat="41.4311592" lon="13.0553577"><ele>4.5</ele><time>2026-04-18T13:23:51.145Z</time></trkpt><trkpt lat="41.431337" lon="13.0555898"><ele>4.0</ele><time>2026-04-18T13:23:52.145Z</time></trkpt><trkpt lat="41.4315057" lon="13.0558163"><ele>4.0</ele><time>2026-04-18T13:23:53.145Z</time></trkpt><trkpt lat="41.4316659" lon="13.0560424"><ele>4.0</ele><time>2026-04-18T13:23:54.145Z</time></trkpt><trkpt lat="41.4318149" lon="13.0562588"><ele>4.0</ele><time>2026-04-18T13:23:55.145Z</time></trkpt><trkpt lat="41.431947" lon="13.0564612"><ele>4.0</ele><time>2026-04-18T13:23:56.145Z</time></trkpt><trkpt lat="41.4320591" lon="13.0566533"><ele>4.0</ele><time>2026-04-18T13:23:57.145Z</time></trkpt><trkpt lat="41.4321617" lon="13.0568332"><ele>3.75</ele><time>2026-04-18T13:23:58.145Z</time></trkpt><trkpt lat="41.4322503" lon="13.0569926"><ele>3.5</ele><time>2026-04-18T13:23:59.145Z</time></trkpt><trkpt lat="41.4323377" lon="13.057153"><ele>3.25</ele><time>2026-04-18T13:24:00.144Z</time></trkpt><trkpt lat="41.4324121" lon="13.0572918"><ele>3.0</ele><time>2026-04-18T13:24:01.145Z</time></trkpt><trkpt lat="41.432488" lon="13.0574325"><ele>3.25</ele><time>2026-04-18T13:24:02.145Z</time></trkpt><trkpt lat="41.4325541" lon="13.0575604"><ele>3.5</ele><time>2026-04-18T13:24:03.145Z</time></trkpt><trkpt lat="41.4326489" lon="13.0577168"><ele>3.75</ele><time>2026-04-18T13:24:04.144Z</time></trkpt><trkpt lat="41.4327354" lon="13.0578671"><ele>4.0</ele><time>2026-04-18T13:24:05.145Z</time></trkpt><trkpt lat="41.432815" lon="13.0580097"><ele>4.0</ele><time>2026-04-18T13:24:06.145Z</time></trkpt><trkpt lat="41.4328908" lon="13.0581442"><ele>4.0</ele><time>2026-04-18T13:24:07.145Z</time></trkpt><trkpt lat="41.4329646" lon="13.0582875"><ele>4.0</ele><time>2026-04-18T13:24:08.145Z</time></trkpt><trkpt lat="41.4330234" lon="13.0584036"><ele>4.0</ele><time>2026-04-18T13:24:09.145Z</time></trkpt><trkpt lat="41.4344401" lon="13.0598059"><ele>4.0</ele><time>2026-04-18T13:24:10.145Z</time></trkpt><trkpt lat="41.4346121" lon="13.0600376"><ele>4.0</ele><time>2026-04-18T13:24:11.144Z</time></trkpt><trkpt lat="41.4347751" lon="13.0602639"><ele>4.0</ele><time>2026-04-18T13:24:12.145Z</time></trkpt><trkpt lat="41.4349314" lon="13.060478"><ele>4.0</ele><time>2026-04-18T13:24:13.145Z</time></trkpt><trkpt lat="41.435075" lon="13.0606754"><ele>4.0</ele><time>2026-04-18T13:24:14.144Z</time></trkpt><trkpt lat="41.4352086" lon="13.0608567"><ele>3.333333333333333</ele><time>2026-04-18T13:24:15.145Z</time></trkpt><trkpt lat="41.4353358" lon="13.0610227"><ele>2.6666666666666665</ele><time>2026-04-18T13:24:16.145Z</time></trkpt><trkpt lat="41.435449" lon="13.061179"><ele>2.0</ele><time>2026-04-18T13:24:17.145Z</time></trkpt><trkpt lat="41.4355531" lon="13.0613304"><ele>2.0</ele><time>2026-04-18T13:24:18.145Z</time></trkpt><trkpt lat="41.4356491" lon="13.0614739"><ele>2.0</ele><time>2026-04-18T13:24:19.145Z</time></trkpt><trkpt lat="41.4357455" lon="13.0616108"><ele>2.0</ele><time>2026-04-18T13:24:20.145Z</time></trkpt><trkpt lat="41.4358419" lon="13.0617455"><ele>2.0</ele><time>2026-04-18T13:24:21.145Z</time></trkpt><trkpt lat="41.4359405" lon="13.0618791"><ele>2.0</ele><time>2026-04-18T13:24:22.145Z</time></trkpt><trkpt lat="41.4360362" lon="13.0620149"><ele>2.0</ele><time>2026-04-18T13:24:23.145Z</time></trkpt><trkpt lat="41.4361379" lon="13.0621554"><ele>2.0</ele><time>2026-04-18T13:24:24.145Z</time></trkpt><trkpt lat="41.4362557" lon="13.0623099"><ele>2.0</ele><time>2026-04-18T13:24:25.145Z</time></trkpt><trkpt lat="41.43639" lon="13.062481"><ele>2.0</ele><time>2026-04-18T13:24:26.145Z</time></trkpt><trkpt lat="41.4365384" lon="13.0626753"><ele>2.0</ele><time>2026-04-18T13:24:27.145Z</time></trkpt><trkpt lat="41.4366945" lon="13.0628854"><ele>2.0</ele><time>2026-04-18T13:24:28.144Z</time></trkpt><trkpt lat="41.4368482" lon="13.0631074"><ele>2.0</ele><time>2026-04-18T13:24:29.145Z</time></trkpt><trkpt lat="41.4369999" lon="13.0633314"><ele>2.0</ele><time>2026-04-18T13:24:30.145Z</time></trkpt><trkpt lat="41.4371459" lon="13.0635486"><ele>2.0</ele><time>2026-04-18T13:24:31.145Z</time></trkpt><trkpt lat="41.4372941" lon="13.0637585"><ele>2.0</ele><time>2026-04-18T13:24:32.145Z</time></trkpt><trkpt lat="41.437442" lon="13.0639717"><ele>2.0</ele><time>2026-04-18T13:24:33.145Z</time></trkpt><trkpt lat="41.4375955" lon="13.0641852"><ele>2.0</ele><time>2026-04-18T13:24:34.145Z</time></trkpt><trkpt lat="41.4377531" lon="13.0644051"><ele>2.0</ele><time>2026-04-18T13:24:35.145Z</time></trkpt><trkpt lat="41.4379145" lon="13.0646276"><ele>2.0</ele><time>2026-04-18T13:24:36.144Z</time></trkpt><trkpt lat="41.4380845" lon="13.0648524"><ele>2.0</ele><time>2026-04-18T13:24:37.145Z</time></trkpt><trkpt lat="41.4382451" lon="13.065078"><ele>2.0</ele><time>2026-04-18T13:24:38.145Z</time></trkpt><trkpt lat="41.4384099" lon="13.0653013"><ele>2.0</ele><time>2026-04-18T13:24:39.145Z</time></trkpt><trkpt lat="41.4385728" lon="13.0655264"><ele>2.0</ele><time>2026-04-18T13:24:40.145Z</time></trkpt><trkpt lat="41.4387343" lon="13.0657553"><ele>2.5</ele><time>2026-04-18T13:24:41.145Z</time></trkpt><trkpt lat="41.4388968" lon="13.0659833"><ele>3.0</ele><time>2026-04-18T13:24:42.144Z</time></trkpt><trkpt lat="41.4390624" lon="13.0662112"><ele>3.0</ele><time>2026-04-18T13:24:43.144Z</time></trkpt><trkpt lat="41.4392308" lon="13.0664378"><ele>3.0</ele><time>2026-04-18T13:24:44.145Z</time></trkpt><trkpt lat="41.4393957" lon="13.0666661"><ele>3.0</ele><time>2026-04-18T13:24:45.145Z</time></trkpt><trkpt lat="41.4395588" lon="13.0668884"><ele>3.0</ele><time>2026-04-18T13:24:46.145Z</time></trkpt><trkpt lat="41.4397182" lon="13.0671067"><ele>3.0</ele><time>2026-04-18T13:24:47.146Z</time></trkpt><trkpt lat="41.4398817" lon="13.0673277"><ele>3.0</ele><time>2026-04-18T13:24:48.146Z</time></trkpt><trkpt lat="41.4400428" lon="13.0675574"><ele>3.0</ele><time>2026-04-18T13:24:49.146Z</time></trkpt><trkpt lat="41.4402053" lon="13.0677906"><ele>3.0</ele><time>2026-04-18T13:24:50.146Z</time></trkpt><trkpt lat="41.4403727" lon="13.06802"><ele>2.5</ele><time>2026-04-18T13:24:51.146Z</time></trkpt><trkpt lat="41.4405452" lon="13.0682583"><ele>2.0</ele><time>2026-04-18T13:24:52.146Z</time></trkpt><trkpt lat="41.4407169" lon="13.0684983"><ele>2.0</ele><time>2026-04-18T13:24:53.146Z</time></trkpt><trkpt lat="41.4408906" lon="13.0687398"><ele>2.0</ele><time>2026-04-18T13:24:54.146Z</time></trkpt><trkpt lat="41.4410642" lon="13.0689874"><ele>2.5</ele><time>2026-04-18T13:24:55.146Z</time></trkpt><trkpt lat="41.441244" lon="13.0692284"><ele>3.0</ele><time>2026-04-18T13:24:56.146Z</time></trkpt><trkpt lat="41.4414271" lon="13.0694749"><ele>3.5</ele><time>2026-04-18T13:24:57.146Z</time></trkpt><trkpt lat="41.4416098" lon="13.0697206"><ele>4.0</ele><time>2026-04-18T13:24:58.146Z</time></trkpt><trkpt lat="41.4417931" lon="13.0699657"><ele>3.0</ele><time>2026-04-18T13:24:59.146Z</time></trkpt><trkpt lat="41.4419719" lon="13.0702181"><ele>2.0</ele><time>2026-04-18T13:25:00.146Z</time></trkpt><trkpt lat="41.4421547" lon="13.0704676"><ele>2.0</ele><time>2026-04-18T13:25:01.145Z</time></trkpt><trkpt lat="41.442332" lon="13.070722"><ele>2.0</ele><time>2026-04-18T13:25:02.146Z</time></trkpt><trkpt lat="41.4425151" lon="13.070976"><ele>2.0</ele><time>2026-04-18T13:25:03.146Z</time></trkpt><trkpt lat="41.4427001" lon="13.0712327"><ele>2.0</ele><time>2026-04-18T13:25:04.146Z</time></trkpt><trkpt lat="41.442883" lon="13.0714862"><ele>3.0</ele><time>2026-04-18T13:25:05.146Z</time></trkpt><trkpt lat="41.4430645" lon="13.071744"><ele>4.0</ele><time>2026-04-18T13:25:06.146Z</time></trkpt><trkpt lat="41.4432469" lon="13.0720038"><ele>4.0</ele><time>2026-04-18T13:25:07.146Z</time></trkpt><trkpt lat="41.4434325" lon="13.0722658"><ele>4.0</ele><time>2026-04-18T13:25:08.146Z</time></trkpt><trkpt lat="41.4436205" lon="13.0725265"><ele>2.5</ele><time>2026-04-18T13:25:09.146Z</time></trkpt><trkpt lat="41.443811" lon="13.072789"><ele>1.0</ele><time>2026-04-18T13:25:10.146Z</time></trkpt><trkpt lat="41.4440026" lon="13.0730523"><ele>1.5</ele><time>2026-04-18T13:25:11.146Z</time></trkpt><trkpt lat="41.444198" lon="13.0733161"><ele>2.0</ele><time>2026-04-18T13:25:12.146Z</time></trkpt><trkpt lat="41.4443902" lon="13.0735828"><ele>2.0</ele><time>2026-04-18T13:25:13.146Z</time></trkpt><trkpt lat="41.4445841" lon="13.073844"><ele>2.0</ele><time>2026-04-18T13:25:14.146Z</time></trkpt><trkpt lat="41.4447743" lon="13.0741086"><ele>1.5</ele><time>2026-04-18T13:25:15.146Z</time></trkpt><trkpt lat="41.4449682" lon="13.0743741"><ele>1.0</ele><time>2026-04-18T13:25:16.146Z</time></trkpt><trkpt lat="41.4451606" lon="13.0746407"><ele>1.0</ele><time>2026-04-18T13:25:17.146Z</time></trkpt><trkpt lat="41.4453508" lon="13.0749106"><ele>1.0</ele><time>2026-04-18T13:25:18.146Z</time></trkpt><trkpt lat="41.445546" lon="13.07518"><ele>2.0</ele><time>2026-04-18T13:25:19.145Z</time></trkpt><trkpt lat="41.4457427" lon="13.0754547"><ele>3.0</ele><time>2026-04-18T13:25:20.145Z</time></trkpt><trkpt lat="41.4459412" lon="13.0757272"><ele>3.0</ele><time>2026-04-18T13:25:21.146Z</time></trkpt><trkpt lat="41.4461385" lon="13.0760072"><ele>3.0</ele><time>2026-04-18T13:25:22.146Z</time></trkpt><trkpt lat="41.4463432" lon="13.07628"><ele>3.0</ele><time>2026-04-18T13:25:23.145Z</time></trkpt><trkpt lat="41.4465414" lon="13.0765632"><ele>3.0</ele><time>2026-04-18T13:25:24.146Z</time></trkpt><trkpt lat="41.4467452" lon="13.0768454"><ele>2.5</ele><time>2026-04-18T13:25:25.146Z</time></trkpt><trkpt lat="41.4469541" lon="13.0771307"><ele>2.0</ele><time>2026-04-18T13:25:26.146Z</time></trkpt><trkpt lat="41.4471622" lon="13.0774134"><ele>1.5</ele><time>2026-04-18T13:25:27.146Z</time></trkpt><trkpt lat="41.4473694" lon="13.0776984"><ele>1.0</ele><time>2026-04-18T13:25:28.146Z</time></trkpt><trkpt lat="41.4475804" lon="13.0779829"><ele>1.0</ele><time>2026-04-18T13:25:29.146Z</time></trkpt><trkpt lat="41.4477879" lon="13.0782739"><ele>1.0</ele><time>2026-04-18T13:25:30.146Z</time></trkpt><trkpt lat="41.4479922" lon="13.0785665"><ele>0.5</ele><time>2026-04-18T13:25:31.146Z</time></trkpt><trkpt lat="41.4481948" lon="13.0788594"><ele>0.0</ele><time>2026-04-18T13:25:32.145Z</time></trkpt><trkpt lat="41.4484019" lon="13.0791478"><ele>0.0</ele><time>2026-04-18T13:25:33.146Z</time></trkpt><trkpt lat="41.4486098" lon="13.0794363"><ele>0.0</ele><time>2026-04-18T13:25:34.145Z</time></trkpt><trkpt lat="41.4488154" lon="13.0797244"><ele>-1.5</ele><time>2026-04-18T13:25:35.146Z</time></trkpt><trkpt lat="41.4490214" lon="13.080012"><ele>-3.0</ele><time>2026-04-18T13:25:36.145Z</time></trkpt><trkpt lat="41.4492302" lon="13.0802987"><ele>-3.0</ele><time>2026-04-18T13:25:37.146Z</time></trkpt><trkpt lat="41.449437" lon="13.0805881"><ele>-3.0</ele><time>2026-04-18T13:25:38.145Z</time></trkpt><trkpt lat="41.4496424" lon="13.080872"><ele>-2.0</ele><time>2026-04-18T13:25:39.146Z</time></trkpt><trkpt lat="41.4498418" lon="13.0811509"><ele>-1.0</ele><time>2026-04-18T13:25:40.146Z</time></trkpt><trkpt lat="41.450035" lon="13.081423"><ele>-1.0</ele><time>2026-04-18T13:25:41.146Z</time></trkpt><trkpt lat="41.4502132" lon="13.0816727"><ele>-1.0</ele><time>2026-04-18T13:25:42.146Z</time></trkpt><trkpt lat="41.4503791" lon="13.0819041"><ele>0.0</ele><time>2026-04-18T13:25:43.146Z</time></trkpt><trkpt lat="41.4505465" lon="13.0821299"><ele>1.0</ele><time>2026-04-18T13:25:44.146Z</time></trkpt><trkpt lat="41.4507077" lon="13.0823557"><ele>0.5</ele><time>2026-04-18T13:25:45.146Z</time></trkpt><trkpt lat="41.4508712" lon="13.0825833"><ele>0.0</ele><time>2026-04-18T13:25:46.146Z</time></trkpt><trkpt lat="41.4510351" lon="13.082809"><ele>0.0</ele><time>2026-04-18T13:25:47.146Z</time></trkpt><trkpt lat="41.4512025" lon="13.0830352"><ele>0.0</ele><time>2026-04-18T13:25:48.146Z</time></trkpt><trkpt lat="41.4513697" lon="13.083265"><ele>0.0</ele><time>2026-04-18T13:25:49.146Z</time></trkpt><trkpt lat="41.451537" lon="13.0835004"><ele>0.0</ele><time>2026-04-18T13:25:50.146Z</time></trkpt><trkpt lat="41.4517057" lon="13.0837374"><ele>0.0</ele><time>2026-04-18T13:25:51.146Z</time></trkpt><trkpt lat="41.4518735" lon="13.0839756"><ele>0.0</ele><time>2026-04-18T13:25:52.146Z</time></trkpt><trkpt lat="41.4520431" lon="13.0842134"><ele>0.0</ele><time>2026-04-18T13:25:53.146Z</time></trkpt><trkpt lat="41.4522128" lon="13.084453"><ele>0.0</ele><time>2026-04-18T13:25:54.146Z</time></trkpt><trkpt lat="41.452384" lon="13.0846929"><ele>-1.0</ele><time>2026-04-18T13:25:55.146Z</time></trkpt><trkpt lat="41.4525565" lon="13.0849328"><ele>-2.0</ele><time>2026-04-18T13:25:56.146Z</time></trkpt><trkpt lat="41.4527298" lon="13.0851712"><ele>-2.0</ele><time>2026-04-18T13:25:57.145Z</time></trkpt><trkpt lat="41.4529045" lon="13.0854126"><ele>-2.0</ele><time>2026-04-18T13:25:58.146Z</time></trkpt><trkpt lat="41.4530771" lon="13.0856519"><ele>-1.5</ele><time>2026-04-18T13:25:59.145Z</time></trkpt><trkpt lat="41.4532526" lon="13.0858928"><ele>-1.0</ele><time>2026-04-18T13:26:00.146Z</time></trkpt><trkpt lat="41.4534255" lon="13.0861337"><ele>-1.0</ele><time>2026-04-18T13:26:01.146Z</time></trkpt><trkpt lat="41.4535977" lon="13.0863755"><ele>-1.0</ele><time>2026-04-18T13:26:02.146Z</time></trkpt><trkpt lat="41.453772" lon="13.0866204"><ele>0.0</ele><time>2026-04-18T13:26:03.146Z</time></trkpt><trkpt lat="41.4539494" lon="13.0868594"><ele>1.0</ele><time>2026-04-18T13:26:04.146Z</time></trkpt><trkpt lat="41.4541253" lon="13.0871001"><ele>1.0</ele><time>2026-04-18T13:26:05.146Z</time></trkpt><trkpt lat="41.4543001" lon="13.0873433"><ele>1.0</ele><time>2026-04-18T13:26:06.146Z</time></trkpt><trkpt lat="41.454478" lon="13.0875858"><ele>0.5</ele><time>2026-04-18T13:26:07.146Z</time></trkpt><trkpt lat="41.4546495" lon="13.0878289"><ele>0.0</ele><time>2026-04-18T13:26:08.146Z</time></trkpt><trkpt lat="41.4548207" lon="13.0880725"><ele>-1.0</ele><time>2026-04-18T13:26:09.145Z</time></trkpt><trkpt lat="41.4549976" lon="13.088312"><ele>-2.0</ele><time>2026-04-18T13:26:10.146Z</time></trkpt><trkpt lat="41.4551699" lon="13.088558"><ele>-2.0</ele><time>2026-04-18T13:26:11.146Z</time></trkpt><trkpt lat="41.4553429" lon="13.0887959"><ele>-2.0</ele><time>2026-04-18T13:26:12.146Z</time></trkpt><trkpt lat="41.4555185" lon="13.0890363"><ele>-1.5</ele><time>2026-04-18T13:26:13.145Z</time></trkpt><trkpt lat="41.4556928" lon="13.0892745"><ele>-1.0</ele><time>2026-04-18T13:26:14.146Z</time></trkpt><trkpt lat="41.4558676" lon="13.0895143"><ele>-1.0</ele><time>2026-04-18T13:26:15.146Z</time></trkpt><trkpt lat="41.4560396" lon="13.0897568"><ele>-1.0</ele><time>2026-04-18T13:26:16.146Z</time></trkpt><trkpt lat="41.4562118" lon="13.0900019"><ele>-1.0</ele><time>2026-04-18T13:26:17.145Z</time></trkpt><trkpt lat="41.4563909" lon="13.0902487"><ele>-1.0</ele><time>2026-04-18T13:26:18.146Z</time></trkpt><trkpt lat="41.4565676" lon="13.0904976"><ele>-1.0</ele><time>2026-04-18T13:26:19.146Z</time></trkpt><trkpt lat="41.4567497" lon="13.0907443"><ele>-1.0</ele><time>2026-04-18T13:26:20.146Z</time></trkpt><trkpt lat="41.4569287" lon="13.0909942"><ele>-1.0</ele><time>2026-04-18T13:26:21.146Z</time></trkpt><trkpt lat="41.457108" lon="13.0912405"><ele>-1.0</ele><time>2026-04-18T13:26:22.146Z</time></trkpt><trkpt lat="41.457287" lon="13.0914893"><ele>-0.5</ele><time>2026-04-18T13:26:23.146Z</time></trkpt><trkpt lat="41.4574633" lon="13.0917392"><ele>0.0</ele><time>2026-04-18T13:26:24.146Z</time></trkpt><trkpt lat="41.4576406" lon="13.0919865"><ele>0.0</ele><time>2026-04-18T13:26:25.146Z</time></trkpt><trkpt lat="41.4578179" lon="13.0922308"><ele>0.0</ele><time>2026-04-18T13:26:26.145Z</time></trkpt><trkpt lat="41.4579939" lon="13.0924726"><ele>-0.5</ele><time>2026-04-18T13:26:27.146Z</time></trkpt><trkpt lat="41.4581678" lon="13.0927151"><ele>-1.0</ele><time>2026-04-18T13:26:28.146Z</time></trkpt><trkpt lat="41.4583449" lon="13.0929579"><ele>-1.0</ele><time>2026-04-18T13:26:29.146Z</time></trkpt><trkpt lat="41.4585199" lon="13.0932037"><ele>-1.0</ele><time>2026-04-18T13:26:30.145Z</time></trkpt><trkpt lat="41.4586953" lon="13.0934454"><ele>-0.5</ele><time>2026-04-18T13:26:31.145Z</time></trkpt><trkpt lat="41.4588706" lon="13.0936918"><ele>0.0</ele><time>2026-04-18T13:26:32.146Z</time></trkpt><trkpt lat="41.4590448" lon="13.0939376"><ele>-0.5</ele><time>2026-04-18T13:26:33.146Z</time></trkpt><trkpt lat="41.459222" lon="13.094185"><ele>-1.0</ele><time>2026-04-18T13:26:34.146Z</time></trkpt><trkpt lat="41.4593999" lon="13.0944272"><ele>-1.0</ele><time>2026-04-18T13:26:35.146Z</time></trkpt><trkpt lat="41.4595737" lon="13.0946612"><ele>-1.0</ele><time>2026-04-18T13:26:36.146Z</time></trkpt><trkpt lat="41.4597331" lon="13.0948906"><ele>-1.5</ele><time>2026-04-18T13:26:37.146Z</time></trkpt><trkpt lat="41.4598931" lon="13.0951103"><ele>-2.0</ele><time>2026-04-18T13:26:38.146Z</time></trkpt><trkpt lat="41.4600527" lon="13.0953329"><ele>-2.0</ele><time>2026-04-18T13:26:39.146Z</time></trkpt><trkpt lat="41.4602183" lon="13.0955548"><ele>-2.0</ele><time>2026-04-18T13:26:40.146Z</time></trkpt><trkpt lat="41.4603903" lon="13.0957834"><ele>-2.0</ele><time>2026-04-18T13:26:41.146Z</time></trkpt><trkpt lat="41.4605613" lon="13.0960102"><ele>-2.0</ele><time>2026-04-18T13:26:42.146Z</time></trkpt><trkpt lat="41.4607247" lon="13.0962419"><ele>-2.0</ele><time>2026-04-18T13:26:43.145Z</time></trkpt><trkpt lat="41.4608835" lon="13.0964675"><ele>-2.0</ele><time>2026-04-18T13:26:44.145Z</time></trkpt><trkpt lat="41.4610357" lon="13.0966803"><ele>-1.6666666666666665</ele><time>2026-04-18T13:26:45.146Z</time></trkpt><trkpt lat="41.4611809" lon="13.0968781"><ele>-1.3333333333333333</ele><time>2026-04-18T13:26:46.145Z</time></trkpt><trkpt lat="41.4613171" lon="13.0970705"><ele>-1.0</ele><time>2026-04-18T13:26:47.146Z</time></trkpt><trkpt lat="41.4614458" lon="13.0972548"><ele>-0.6666666666666666</ele><time>2026-04-18T13:26:48.145Z</time></trkpt><trkpt lat="41.4615706" lon="13.0974337"><ele>-0.3333333333333333</ele><time>2026-04-18T13:26:49.145Z</time></trkpt><trkpt lat="41.4616917" lon="13.0976039"><ele>0.0</ele><time>2026-04-18T13:26:50.146Z</time></trkpt><trkpt lat="41.4618142" lon="13.0977671"><ele>0.0</ele><time>2026-04-18T13:26:51.146Z</time></trkpt><trkpt lat="41.4619303" lon="13.0979224"><ele>0.0</ele><time>2026-04-18T13:26:52.146Z</time></trkpt><trkpt lat="41.4620457" lon="13.0980624"><ele>0.0</ele><time>2026-04-18T13:26:53.146Z</time></trkpt><trkpt lat="41.4621587" lon="13.0981885"><ele>0.75</ele><time>2026-04-18T13:26:54.146Z</time></trkpt><trkpt lat="41.46227" lon="13.0982813"><ele>1.5</ele><time>2026-04-18T13:26:55.145Z</time></trkpt><trkpt lat="41.4623846" lon="13.0983526"><ele>2.25</ele><time>2026-04-18T13:26:56.145Z</time></trkpt><trkpt lat="41.4624954" lon="13.098415"><ele>3.0</ele><time>2026-04-18T13:26:57.146Z</time></trkpt><trkpt lat="41.4625918" lon="13.0984654"><ele>3.0</ele><time>2026-04-18T13:26:58.146Z</time></trkpt><trkpt lat="41.4626836" lon="13.0985219"><ele>3.0</ele><time>2026-04-18T13:26:59.146Z</time></trkpt><trkpt lat="41.4627744" lon="13.0985888"><ele>3.0</ele><time>2026-04-18T13:27:00.145Z</time></trkpt><trkpt lat="41.4628652" lon="13.098674"><ele>3.0</ele><time>2026-04-18T13:27:01.146Z</time></trkpt><trkpt lat="41.4629595" lon="13.0987857"><ele>3.0</ele><time>2026-04-18T13:27:02.146Z</time></trkpt><trkpt lat="41.4630702" lon="13.0989105"><ele>3.333333333333333</ele><time>2026-04-18T13:27:03.146Z</time></trkpt><trkpt lat="41.4631842" lon="13.0990539"><ele>3.6666666666666665</ele><time>2026-04-18T13:27:04.146Z</time></trkpt><trkpt lat="41.4633259" lon="13.0992031"><ele>4.0</ele><time>2026-04-18T13:27:05.146Z</time></trkpt><trkpt lat="41.4634734" lon="13.099367"><ele>4.333333333333333</ele><time>2026-04-18T13:27:06.146Z</time></trkpt><trkpt lat="41.4636336" lon="13.0995539"><ele>4.666666666666667</ele><time>2026-04-18T13:27:07.145Z</time></trkpt><trkpt lat="41.4638028" lon="13.0997539"><ele>5.0</ele><time>2026-04-18T13:27:08.146Z</time></trkpt><trkpt lat="41.463973" lon="13.0999567"><ele>5.0</ele><time>2026-04-18T13:27:09.145Z</time></trkpt><trkpt lat="41.4641448" lon="13.1001609"><ele>5.0</ele><time>2026-04-18T13:27:10.146Z</time></trkpt><trkpt lat="41.4643221" lon="13.1003713"><ele>5.0</ele><time>2026-04-18T13:27:11.146Z</time></trkpt><trkpt lat="41.4645051" lon="13.100578"><ele>5.0</ele><time>2026-04-18T13:27:12.146Z</time></trkpt><trkpt lat="41.464685" lon="13.1007854"><ele>5.5</ele><time>2026-04-18T13:27:13.146Z</time></trkpt><trkpt lat="41.4648693" lon="13.1009953"><ele>6.0</ele><time>2026-04-18T13:27:14.145Z</time></trkpt><trkpt lat="41.4650514" lon="13.1012037"><ele>6.0</ele><time>2026-04-18T13:27:15.146Z</time></trkpt><trkpt lat="41.4652367" lon="13.1014169"><ele>6.0</ele><time>2026-04-18T13:27:16.146Z</time></trkpt><trkpt lat="41.4654228" lon="13.1016287"><ele>6.5</ele><time>2026-04-18T13:27:17.146Z</time></trkpt><trkpt lat="41.4656097" lon="13.1018393"><ele>7.0</ele><time>2026-04-18T13:27:18.146Z</time></trkpt><trkpt lat="41.4657962" lon="13.1020559"><ele>7.0</ele><time>2026-04-18T13:27:19.146Z</time></trkpt><trkpt lat="41.4659879" lon="13.1022765"><ele>7.0</ele><time>2026-04-18T13:27:20.146Z</time></trkpt><trkpt lat="41.4661768" lon="13.1024945"><ele>7.5</ele><time>2026-04-18T13:27:21.146Z</time></trkpt><trkpt lat="41.4663663" lon="13.1027022"><ele>8.0</ele><time>2026-04-18T13:27:22.145Z</time></trkpt><trkpt lat="41.4665637" lon="13.1028846"><ele>8.0</ele><time>2026-04-18T13:27:23.145Z</time></trkpt><trkpt lat="41.4667658" lon="13.1030489"><ele>8.0</ele><time>2026-04-18T13:27:24.146Z</time></trkpt><trkpt lat="41.4669764" lon="13.1031956"><ele>9.0</ele><time>2026-04-18T13:27:25.146Z</time></trkpt><trkpt lat="41.4671947" lon="13.1033354"><ele>10.0</ele><time>2026-04-18T13:27:26.145Z</time></trkpt><trkpt lat="41.4674186" lon="13.1034767"><ele>10.0</ele><time>2026-04-18T13:27:27.145Z</time></trkpt><trkpt lat="41.4676384" lon="13.1036286"><ele>10.0</ele><time>2026-04-18T13:27:28.146Z</time></trkpt><trkpt lat="41.4678578" lon="13.1037914"><ele>9.5</ele><time>2026-04-18T13:27:29.145Z</time></trkpt><trkpt lat="41.4680705" lon="13.1039646"><ele>9.0</ele><time>2026-04-18T13:27:30.145Z</time></trkpt><trkpt lat="41.4682781" lon="13.1041468"><ele>10.5</ele><time>2026-04-18T13:27:31.145Z</time></trkpt><trkpt lat="41.468488" lon="13.1043292"><ele>12.0</ele><time>2026-04-18T13:27:32.146Z</time></trkpt><trkpt lat="41.4686938" lon="13.1045146"><ele>12.5</ele><time>2026-04-18T13:27:33.146Z</time></trkpt><trkpt lat="41.4688983" lon="13.1047013"><ele>13.0</ele><time>2026-04-18T13:27:34.146Z</time></trkpt><trkpt lat="41.469107" lon="13.1048791"><ele>12.5</ele><time>2026-04-18T13:27:35.146Z</time></trkpt><trkpt lat="41.4693177" lon="13.1050544"><ele>12.0</ele><time>2026-04-18T13:27:36.146Z</time></trkpt><trkpt lat="41.4695235" lon="13.1052308"><ele>12.0</ele><time>2026-04-18T13:27:37.145Z</time></trkpt><trkpt lat="41.4697232" lon="13.1054121"><ele>12.0</ele><time>2026-04-18T13:27:38.146Z</time></trkpt><trkpt lat="41.4699093" lon="13.1055926"><ele>12.666666666666668</ele><time>2026-04-18T13:27:39.146Z</time></trkpt><trkpt lat="41.4700803" lon="13.105776"><ele>13.333333333333334</ele><time>2026-04-18T13:27:40.146Z</time></trkpt><trkpt lat="41.4702392" lon="13.1059447"><ele>14.0</ele><time>2026-04-18T13:27:41.146Z</time></trkpt><trkpt lat="41.4703806" lon="13.1060995"><ele>13.666666666666668</ele><time>2026-04-18T13:27:42.146Z</time></trkpt><trkpt lat="41.4705149" lon="13.1062473"><ele>13.333333333333332</ele><time>2026-04-18T13:27:43.146Z</time></trkpt><trkpt lat="41.4706425" lon="13.1063895"><ele>13.0</ele><time>2026-04-18T13:27:44.146Z</time></trkpt><trkpt lat="41.470765" lon="13.1065094"><ele>13.75</ele><time>2026-04-18T13:27:45.146Z</time></trkpt><trkpt lat="41.4708837" lon="13.1066184"><ele>14.5</ele><time>2026-04-18T13:27:46.145Z</time></trkpt><trkpt lat="41.471" lon="13.1067106"><ele>15.25</ele><time>2026-04-18T13:27:47.146Z</time></trkpt><trkpt lat="41.4711074" lon="13.1068045"><ele>16.0</ele><time>2026-04-18T13:27:48.146Z</time></trkpt><trkpt lat="41.4711944" lon="13.1069077"><ele>15.600000000000001</ele><time>2026-04-18T13:27:49.146Z</time></trkpt><trkpt lat="41.4712765" lon="13.1069968"><ele>15.200000000000001</ele><time>2026-04-18T13:27:50.146Z</time></trkpt><trkpt lat="41.471366" lon="13.1070554"><ele>14.799999999999999</ele><time>2026-04-18T13:27:51.146Z</time></trkpt><trkpt lat="41.4714683" lon="13.1070609"><ele>14.399999999999999</ele><time>2026-04-18T13:27:52.146Z</time></trkpt><trkpt lat="41.4715819" lon="13.1070559"><ele>14.0</ele><time>2026-04-18T13:27:53.146Z</time></trkpt><trkpt lat="41.4717037" lon="13.1070609"><ele>14.0</ele><time>2026-04-18T13:27:54.146Z</time></trkpt><trkpt lat="41.4718398" lon="13.1071001"><ele>14.0</ele><time>2026-04-18T13:27:55.146Z</time></trkpt><trkpt lat="41.4719869" lon="13.1071579"><ele>14.0</ele><time>2026-04-18T13:27:56.146Z</time></trkpt><trkpt lat="41.4721467" lon="13.1072291"><ele>13.666666666666668</ele><time>2026-04-18T13:27:57.146Z</time></trkpt><trkpt lat="41.4723142" lon="13.1073009"><ele>13.333333333333332</ele><time>2026-04-18T13:27:58.145Z</time></trkpt><trkpt lat="41.4724889" lon="13.107378"><ele>13.0</ele><time>2026-04-18T13:27:59.145Z</time></trkpt><trkpt lat="41.4726665" lon="13.1074559"><ele>15.0</ele><time>2026-04-18T13:28:00.146Z</time></trkpt><trkpt lat="41.4728511" lon="13.1075311"><ele>17.0</ele><time>2026-04-18T13:28:01.146Z</time></trkpt><trkpt lat="41.4730347" lon="13.1076068"><ele>19.0</ele><time>2026-04-18T13:28:02.146Z</time></trkpt><trkpt lat="41.4732196" lon="13.107687"><ele>21.0</ele><time>2026-04-18T13:28:03.146Z</time></trkpt><trkpt lat="41.4734059" lon="13.1077714"><ele>23.0</ele><time>2026-04-18T13:28:04.145Z</time></trkpt><trkpt lat="41.4735828" lon="13.1078527"><ele>25.0</ele><time>2026-04-18T13:28:05.146Z</time></trkpt><trkpt lat="41.4737499" lon="13.1079276"><ele>25.666666666666668</ele><time>2026-04-18T13:28:06.146Z</time></trkpt><trkpt lat="41.4739101" lon="13.1080057"><ele>26.333333333333336</ele><time>2026-04-18T13:28:07.146Z</time></trkpt><trkpt lat="41.4740538" lon="13.1080806"><ele>27.0</ele><time>2026-04-18T13:28:08.146Z</time></trkpt><trkpt lat="41.4741805" lon="13.1081454"><ele>27.0</ele><time>2026-04-18T13:28:09.146Z</time></trkpt><trkpt lat="41.4742923" lon="13.1082068"><ele>27.000000000000004</ele><time>2026-04-18T13:28:10.146Z</time></trkpt><trkpt lat="41.4743821" lon="13.1082574"><ele>27.000000000000004</ele><time>2026-04-18T13:28:11.146Z</time></trkpt><trkpt lat="41.4744642" lon="13.108298"><ele>27.0</ele><time>2026-04-18T13:28:12.146Z</time></trkpt><trkpt lat="41.4745359" lon="13.1083323"><ele>27.0</ele><time>2026-04-18T13:28:13.146Z</time></trkpt><trkpt lat="41.4746065" lon="13.1083672"><ele>28.200000000000003</ele><time>2026-04-18T13:28:14.146Z</time></trkpt><trkpt lat="41.4746875" lon="13.1084098"><ele>29.400000000000002</ele><time>2026-04-18T13:28:15.145Z</time></trkpt><trkpt lat="41.4747785" lon="13.1084693"><ele>30.599999999999998</ele><time>2026-04-18T13:28:16.146Z</time></trkpt><trkpt lat="41.4748794" lon="13.10855"><ele>31.799999999999997</ele><time>2026-04-18T13:28:17.146Z</time></trkpt><trkpt lat="41.4749751" lon="13.1086501"><ele>33.0</ele><time>2026-04-18T13:28:18.146Z</time></trkpt><trkpt lat="41.4750806" lon="13.1087584"><ele>33.0</ele><time>2026-04-18T13:28:19.145Z</time></trkpt><trkpt lat="41.4751871" lon="13.1088785"><ele>33.0</ele><time>2026-04-18T13:28:20.145Z</time></trkpt><trkpt lat="41.4752977" lon="13.109021"><ele>33.0</ele><time>2026-04-18T13:28:21.145Z</time></trkpt><trkpt lat="41.4754146" lon="13.1091699"><ele>34.666666666666664</ele><time>2026-04-18T13:28:22.146Z</time></trkpt><trkpt lat="41.4755357" lon="13.1093272"><ele>36.33333333333333</ele><time>2026-04-18T13:28:23.146Z</time></trkpt><trkpt lat="41.4756661" lon="13.109478"><ele>38.0</ele><time>2026-04-18T13:28:24.146Z</time></trkpt><trkpt lat="41.4757996" lon="13.1096387"><ele>38.0</ele><time>2026-04-18T13:28:25.146Z</time></trkpt><trkpt lat="41.4759409" lon="13.1098072"><ele>38.0</ele><time>2026-04-18T13:28:26.146Z</time></trkpt><trkpt lat="41.476088" lon="13.1099782"><ele>38.0</ele><time>2026-04-18T13:28:27.146Z</time></trkpt><trkpt lat="41.4762271" lon="13.1101377"><ele>39.33333333333333</ele><time>2026-04-18T13:28:28.146Z</time></trkpt><trkpt lat="41.4763603" lon="13.1102843"><ele>40.666666666666664</ele><time>2026-04-18T13:28:29.146Z</time></trkpt><trkpt lat="41.4764788" lon="13.1104101"><ele>42.0</ele><time>2026-04-18T13:28:30.146Z</time></trkpt><trkpt lat="41.4765868" lon="13.1105236"><ele>42.0</ele><time>2026-04-18T13:28:31.146Z</time></trkpt><trkpt lat="41.4766774" lon="13.1106034"><ele>42.0</ele><time>2026-04-18T13:28:32.146Z</time></trkpt><trkpt lat="41.4767519" lon="13.1106585"><ele>42.0</ele><time>2026-04-18T13:28:33.146Z</time></trkpt><trkpt lat="41.4768725" lon="13.1106302"><ele>42.0</ele><time>2026-04-18T13:28:35.146Z</time></trkpt><trkpt lat="41.4769632" lon="13.110587"><ele>42.0</ele><time>2026-04-18T13:28:36.146Z</time></trkpt><trkpt lat="41.4770722" lon="13.110564"><ele>43.0</ele><time>2026-04-18T13:28:37.145Z</time></trkpt><trkpt lat="41.4772001" lon="13.1105748"><ele>44.0</ele><time>2026-04-18T13:28:38.146Z</time></trkpt><trkpt lat="41.4773414" lon="13.1105963"><ele>45.0</ele><time>2026-04-18T13:28:39.146Z</time></trkpt><trkpt lat="41.4774943" lon="13.1106196"><ele>46.0</ele><time>2026-04-18T13:28:40.146Z</time></trkpt><trkpt lat="41.477661" lon="13.1106424"><ele>46.0</ele><time>2026-04-18T13:28:41.146Z</time></trkpt><trkpt lat="41.4778355" lon="13.1106699"><ele>46.0</ele><time>2026-04-18T13:28:42.146Z</time></trkpt><trkpt lat="41.4780221" lon="13.1106944"><ele>46.0</ele><time>2026-04-18T13:28:43.146Z</time></trkpt><trkpt lat="41.4782052" lon="13.1107336"><ele>46.66666666666667</ele><time>2026-04-18T13:28:44.146Z</time></trkpt><trkpt lat="41.4783961" lon="13.1108214"><ele>47.333333333333336</ele><time>2026-04-18T13:28:45.146Z</time></trkpt><trkpt lat="41.4785755" lon="13.1109261"><ele>48.0</ele><time>2026-04-18T13:28:46.146Z</time></trkpt><trkpt lat="41.4787475" lon="13.1110434"><ele>49.0</ele><time>2026-04-18T13:28:47.146Z</time></trkpt><trkpt lat="41.4789287" lon="13.1111479"><ele>50.0</ele><time>2026-04-18T13:28:48.146Z</time></trkpt><trkpt lat="41.4791193" lon="13.1112354"><ele>51.0</ele><time>2026-04-18T13:28:49.146Z</time></trkpt><trkpt lat="41.4793185" lon="13.1112936"><ele>51.0</ele><time>2026-04-18T13:28:50.146Z</time></trkpt><trkpt lat="41.4795412" lon="13.1113395"><ele>51.0</ele><time>2026-04-18T13:28:51.146Z</time></trkpt><trkpt lat="41.4797588" lon="13.1113412"><ele>51.0</ele><time>2026-04-18T13:28:52.145Z</time></trkpt><trkpt lat="41.479981" lon="13.1113368"><ele>54.5</ele><time>2026-04-18T13:28:53.145Z</time></trkpt><trkpt lat="41.4802067" lon="13.1113085"><ele>58.0</ele><time>2026-04-18T13:28:54.146Z</time></trkpt><trkpt lat="41.4804386" lon="13.1112792"><ele>60.0</ele><time>2026-04-18T13:28:55.146Z</time></trkpt><trkpt lat="41.4806691" lon="13.1112511"><ele>62.0</ele><time>2026-04-18T13:28:56.146Z</time></trkpt><trkpt lat="41.4808979" lon="13.1112244"><ele>62.0</ele><time>2026-04-18T13:28:57.146Z</time></trkpt><trkpt lat="41.4811307" lon="13.1112"><ele>62.0</ele><time>2026-04-18T13:28:58.146Z</time></trkpt><trkpt lat="41.4813615" lon="13.1111741"><ele>65.5</ele><time>2026-04-18T13:28:59.146Z</time></trkpt><trkpt lat="41.481604" lon="13.1111353"><ele>69.0</ele><time>2026-04-18T13:29:00.146Z</time></trkpt><trkpt lat="41.4818415" lon="13.1110846"><ele>69.0</ele><time>2026-04-18T13:29:01.145Z</time></trkpt><trkpt lat="41.4820814" lon="13.1110098"><ele>69.0</ele><time>2026-04-18T13:29:02.146Z</time></trkpt><trkpt lat="41.4823197" lon="13.110921"><ele>70.5</ele><time>2026-04-18T13:29:03.146Z</time></trkpt><trkpt lat="41.4825554" lon="13.1108323"><ele>72.0</ele><time>2026-04-18T13:29:04.146Z</time></trkpt><trkpt lat="41.4827954" lon="13.1107372"><ele>74.5</ele><time>2026-04-18T13:29:05.146Z</time></trkpt><trkpt lat="41.48303" lon="13.1106397"><ele>77.0</ele><time>2026-04-18T13:29:06.146Z</time></trkpt><trkpt lat="41.4832699" lon="13.1105471"><ele>77.0</ele><time>2026-04-18T13:29:07.146Z</time></trkpt><trkpt lat="41.4835048" lon="13.1104561"><ele>77.0</ele><time>2026-04-18T13:29:08.146Z</time></trkpt><trkpt lat="41.4837428" lon="13.1103648"><ele>78.0</ele><time>2026-04-18T13:29:09.146Z</time></trkpt><trkpt lat="41.4839831" lon="13.11027"><ele>79.0</ele><time>2026-04-18T13:29:10.146Z</time></trkpt><trkpt lat="41.4842184" lon="13.1101709"><ele>79.0</ele><time>2026-04-18T13:29:11.146Z</time></trkpt><trkpt lat="41.4844528" lon="13.110073"><ele>79.0</ele><time>2026-04-18T13:29:12.145Z</time></trkpt><trkpt lat="41.484687" lon="13.1099723"><ele>82.0</ele><time>2026-04-18T13:29:13.146Z</time></trkpt><trkpt lat="41.4849186" lon="13.1098705"><ele>85.0</ele><time>2026-04-18T13:29:14.146Z</time></trkpt><trkpt lat="41.4851476" lon="13.1097571"><ele>85.0</ele><time>2026-04-18T13:29:15.146Z</time></trkpt><trkpt lat="41.4853692" lon="13.1096405"><ele>85.0</ele><time>2026-04-18T13:29:16.146Z</time></trkpt><trkpt lat="41.4855798" lon="13.1095006"><ele>87.0</ele><time>2026-04-18T13:29:17.146Z</time></trkpt><trkpt lat="41.4857777" lon="13.1093426"><ele>89.0</ele><time>2026-04-18T13:29:18.146Z</time></trkpt><trkpt lat="41.4859586" lon="13.1091526"><ele>88.0</ele><time>2026-04-18T13:29:19.146Z</time></trkpt><trkpt lat="41.4861375" lon="13.1089547"><ele>87.0</ele><time>2026-04-18T13:29:20.146Z</time></trkpt><trkpt lat="41.4863118" lon="13.1087527"><ele>88.66666666666667</ele><time>2026-04-18T13:29:21.146Z</time></trkpt><trkpt lat="41.4864908" lon="13.1085746"><ele>90.33333333333334</ele><time>2026-04-18T13:29:22.146Z</time></trkpt><trkpt lat="41.4866835" lon="13.1084172"><ele>92.0</ele><time>2026-04-18T13:29:23.146Z</time></trkpt><trkpt lat="41.486884" lon="13.1082787"><ele>93.5</ele><time>2026-04-18T13:29:24.146Z</time></trkpt><trkpt lat="41.4870982" lon="13.1081637"><ele>95.0</ele><time>2026-04-18T13:29:25.146Z</time></trkpt><trkpt lat="41.4873299" lon="13.1080751"><ele>95.0</ele><time>2026-04-18T13:29:26.146Z</time></trkpt><trkpt lat="41.4875701" lon="13.1080195"><ele>95.0</ele><time>2026-04-18T13:29:27.146Z</time></trkpt><trkpt lat="41.4878168" lon="13.107972"><ele>98.0</ele><time>2026-04-18T13:29:28.146Z</time></trkpt><trkpt lat="41.4880616" lon="13.10792"><ele>101.0</ele><time>2026-04-18T13:29:29.146Z</time></trkpt><trkpt lat="41.4882968" lon="13.1078477"><ele>101.0</ele><time>2026-04-18T13:29:30.146Z</time></trkpt><trkpt lat="41.488526" lon="13.1077628"><ele>101.0</ele><time>2026-04-18T13:29:31.146Z</time></trkpt><trkpt lat="41.4887471" lon="13.1076689"><ele>101.66666666666666</ele><time>2026-04-18T13:29:32.146Z</time></trkpt><trkpt lat="41.4889551" lon="13.1075833"><ele>102.33333333333334</ele><time>2026-04-18T13:29:33.145Z</time></trkpt><trkpt lat="41.4891464" lon="13.1075073"><ele>103.0</ele><time>2026-04-18T13:29:34.146Z</time></trkpt><trkpt lat="41.4893297" lon="13.1074405"><ele>103.0</ele><time>2026-04-18T13:29:35.146Z</time></trkpt><trkpt lat="41.4895061" lon="13.1073661"><ele>103.0</ele><time>2026-04-18T13:29:36.146Z</time></trkpt><trkpt lat="41.4896689" lon="13.1072556"><ele>103.0</ele><time>2026-04-18T13:29:37.145Z</time></trkpt><trkpt lat="41.4898146" lon="13.1071334"><ele>104.0</ele><time>2026-04-18T13:29:38.146Z</time></trkpt><trkpt lat="41.4899448" lon="13.1070108"><ele>105.0</ele><time>2026-04-18T13:29:39.146Z</time></trkpt><trkpt lat="41.4900705" lon="13.1068985"><ele>106.0</ele><time>2026-04-18T13:29:40.146Z</time></trkpt><trkpt lat="41.4902" lon="13.1068055"><ele>106.0</ele><time>2026-04-18T13:29:41.146Z</time></trkpt><trkpt lat="41.4903294" lon="13.1067443"><ele>106.0</ele><time>2026-04-18T13:29:42.146Z</time></trkpt><trkpt lat="41.4904532" lon="13.1066935"><ele>106.0</ele><time>2026-04-18T13:29:43.145Z</time></trkpt><trkpt lat="41.4905789" lon="13.10667"><ele>106.0</ele><time>2026-04-18T13:29:44.146Z</time></trkpt><trkpt lat="41.490706" lon="13.1066785"><ele>108.25</ele><time>2026-04-18T13:29:45.146Z</time></trkpt><trkpt lat="41.4908317" lon="13.1067024"><ele>110.5</ele><time>2026-04-18T13:29:46.146Z</time></trkpt><trkpt lat="41.4909514" lon="13.1067311"><ele>112.75</ele><time>2026-04-18T13:29:47.146Z</time></trkpt><trkpt lat="41.4910563" lon="13.1067472"><ele>115.0</ele><time>2026-04-18T13:29:48.146Z</time></trkpt><trkpt lat="41.4911529" lon="13.1067363"><ele>115.0</ele><time>2026-04-18T13:29:49.146Z</time></trkpt><trkpt lat="41.4912372" lon="13.1067003"><ele>115.0</ele><time>2026-04-18T13:29:50.146Z</time></trkpt><trkpt lat="41.4913039" lon="13.1066584"><ele>115.0</ele><time>2026-04-18T13:29:51.146Z</time></trkpt><trkpt lat="41.4913962" lon="13.1066276"><ele>115.0</ele><time>2026-04-18T13:29:53.146Z</time></trkpt><trkpt lat="41.4915057" lon="13.1066996"><ele>115.0</ele><time>2026-04-18T13:29:55.146Z</time></trkpt><trkpt lat="41.4915642" lon="13.1067793"><ele>117.0</ele><time>2026-04-18T13:29:56.146Z</time></trkpt><trkpt lat="41.4916437" lon="13.1068651"><ele>119.0</ele><time>2026-04-18T13:29:57.146Z</time></trkpt><trkpt lat="41.4917269" lon="13.1069444"><ele>121.0</ele><time>2026-04-18T13:29:58.146Z</time></trkpt><trkpt lat="41.4918181" lon="13.1070186"><ele>123.0</ele><time>2026-04-18T13:29:59.146Z</time></trkpt><trkpt lat="41.4919146" lon="13.1070875"><ele>125.0</ele><time>2026-04-18T13:30:00.146Z</time></trkpt><trkpt lat="41.4920196" lon="13.1071572"><ele>128.25</ele><time>2026-04-18T13:30:01.146Z</time></trkpt><trkpt lat="41.4921311" lon="13.107212"><ele>131.5</ele><time>2026-04-18T13:30:02.146Z</time></trkpt><trkpt lat="41.4922431" lon="13.1072533"><ele>134.75</ele><time>2026-04-18T13:30:03.146Z</time></trkpt><trkpt lat="41.4923565" lon="13.1072861"><ele>138.0</ele><time>2026-04-18T13:30:04.146Z</time></trkpt><trkpt lat="41.4924751" lon="13.1072964"><ele>138.0</ele><time>2026-04-18T13:30:05.146Z</time></trkpt><trkpt lat="41.4926023" lon="13.1072859"><ele>138.0</ele><time>2026-04-18T13:30:06.146Z</time></trkpt><trkpt lat="41.4927426" lon="13.1072603"><ele>138.0</ele><time>2026-04-18T13:30:07.145Z</time></trkpt><trkpt lat="41.4928925" lon="13.1072212"><ele>138.0</ele><time>2026-04-18T13:30:08.146Z</time></trkpt><trkpt lat="41.4930659" lon="13.1071754"><ele>142.0</ele><time>2026-04-18T13:30:09.145Z</time></trkpt><trkpt lat="41.4932539" lon="13.1071272"><ele>146.0</ele><time>2026-04-18T13:30:10.146Z</time></trkpt><trkpt lat="41.4934538" lon="13.1070721"><ele>150.0</ele><time>2026-04-18T13:30:11.146Z</time></trkpt><trkpt lat="41.4936545" lon="13.1070179"><ele>151.33333333333334</ele><time>2026-04-18T13:30:12.146Z</time></trkpt><trkpt lat="41.4938573" lon="13.1069682"><ele>152.66666666666669</ele><time>2026-04-18T13:30:13.145Z</time></trkpt><trkpt lat="41.4940632" lon="13.1069319"><ele>154.0</ele><time>2026-04-18T13:30:14.146Z</time></trkpt><trkpt lat="41.4942727" lon="13.1069164"><ele>154.0</ele><time>2026-04-18T13:30:15.146Z</time></trkpt><trkpt lat="41.4944815" lon="13.1069219"><ele>154.0</ele><time>2026-04-18T13:30:16.145Z</time></trkpt><trkpt lat="41.4946916" lon="13.1069482"><ele>154.0</ele><time>2026-04-18T13:30:17.146Z</time></trkpt><trkpt lat="41.4949039" lon="13.1069987"><ele>156.0</ele><time>2026-04-18T13:30:18.146Z</time></trkpt><trkpt lat="41.4951201" lon="13.1070534"><ele>158.0</ele><time>2026-04-18T13:30:19.146Z</time></trkpt><trkpt lat="41.4953418" lon="13.1071088"><ele>160.0</ele><time>2026-04-18T13:30:20.146Z</time></trkpt><trkpt lat="41.495561" lon="13.1071536"><ele>164.66666666666669</ele><time>2026-04-18T13:30:21.146Z</time></trkpt><trkpt lat="41.4957826" lon="13.1071925"><ele>169.33333333333334</ele><time>2026-04-18T13:30:22.146Z</time></trkpt><trkpt lat="41.4960001" lon="13.1072127"><ele>174.0</ele><time>2026-04-18T13:30:23.146Z</time></trkpt><trkpt lat="41.4962121" lon="13.1072168"><ele>177.66666666666666</ele><time>2026-04-18T13:30:24.145Z</time></trkpt><trkpt lat="41.4964116" lon="13.1072139"><ele>181.33333333333331</ele><time>2026-04-18T13:30:25.146Z</time></trkpt><trkpt lat="41.4966047" lon="13.1072321"><ele>185.0</ele><time>2026-04-18T13:30:26.146Z</time></trkpt><trkpt lat="41.4967943" lon="13.1072659"><ele>185.0</ele><time>2026-04-18T13:30:27.146Z</time></trkpt><trkpt lat="41.4969888" lon="13.1073229"><ele>185.0</ele><time>2026-04-18T13:30:28.146Z</time></trkpt><trkpt lat="41.4971782" lon="13.107373"><ele>185.0</ele><time>2026-04-18T13:30:29.146Z</time></trkpt><trkpt lat="41.4973549" lon="13.1074363"><ele>178.5</ele><time>2026-04-18T13:30:30.146Z</time></trkpt><trkpt lat="41.497519" lon="13.1074938"><ele>172.0</ele><time>2026-04-18T13:30:31.146Z</time></trkpt><trkpt lat="41.4976597" lon="13.1075442"><ele>165.5</ele><time>2026-04-18T13:30:32.146Z</time></trkpt><trkpt lat="41.4977808" lon="13.1075732"><ele>159.0</ele><time>2026-04-18T13:30:33.146Z</time></trkpt><trkpt lat="41.4978855" lon="13.1075767"><ele>161.0</ele><time>2026-04-18T13:30:34.146Z</time></trkpt><trkpt lat="41.4979732" lon="13.1075981"><ele>163.0</ele><time>2026-04-18T13:30:35.146Z</time></trkpt><trkpt lat="41.4980489" lon="13.107666"><ele>165.0</ele><time>2026-04-18T13:30:36.145Z</time></trkpt><trkpt lat="41.4981127" lon="13.1077875"><ele>167.0</ele><time>2026-04-18T13:30:37.146Z</time></trkpt><trkpt lat="41.4981678" lon="13.1079417"><ele>169.0</ele><time>2026-04-18T13:30:38.146Z</time></trkpt><trkpt lat="41.4982229" lon="13.1081107"><ele>164.66666666666669</ele><time>2026-04-18T13:30:39.146Z</time></trkpt><trkpt lat="41.4982793" lon="13.108298"><ele>160.33333333333334</ele><time>2026-04-18T13:30:40.145Z</time></trkpt><trkpt lat="41.4983545" lon="13.1084829"><ele>156.0</ele><time>2026-04-18T13:30:41.146Z</time></trkpt><trkpt lat="41.4984373" lon="13.1086598"><ele>156.0</ele><time>2026-04-18T13:30:42.145Z</time></trkpt><trkpt lat="41.4985428" lon="13.1088205"><ele>156.0</ele><time>2026-04-18T13:30:43.145Z</time></trkpt><trkpt lat="41.4986754" lon="13.1089644"><ele>156.0</ele><time>2026-04-18T13:30:44.146Z</time></trkpt><trkpt lat="41.4988326" lon="13.1090948"><ele>158.33333333333334</ele><time>2026-04-18T13:30:45.146Z</time></trkpt><trkpt lat="41.4990031" lon="13.1092149"><ele>160.66666666666669</ele><time>2026-04-18T13:30:46.146Z</time></trkpt><trkpt lat="41.4991832" lon="13.1093579"><ele>163.0</ele><time>2026-04-18T13:30:47.146Z</time></trkpt><trkpt lat="41.4993537" lon="13.1095033"><ele>163.0</ele><time>2026-04-18T13:30:48.146Z</time></trkpt><trkpt lat="41.4995019" lon="13.1096847"><ele>163.0</ele><time>2026-04-18T13:30:49.146Z</time></trkpt><trkpt lat="41.4996419" lon="13.1098579"><ele>163.0</ele><time>2026-04-18T13:30:50.146Z</time></trkpt><trkpt lat="41.4997571" lon="13.1100375"><ele>166.0</ele><time>2026-04-18T13:30:51.146Z</time></trkpt><trkpt lat="41.4998502" lon="13.1102282"><ele>169.0</ele><time>2026-04-18T13:30:52.146Z</time></trkpt><trkpt lat="41.4999382" lon="13.1104404"><ele>172.0</ele><time>2026-04-18T13:30:53.146Z</time></trkpt><trkpt lat="41.5000291" lon="13.1106727"><ele>168.33333333333334</ele><time>2026-04-18T13:30:54.146Z</time></trkpt><trkpt lat="41.5001239" lon="13.1109154"><ele>164.66666666666666</ele><time>2026-04-18T13:30:55.146Z</time></trkpt><trkpt lat="41.5002258" lon="13.1111509"><ele>161.0</ele><time>2026-04-18T13:30:56.146Z</time></trkpt><trkpt lat="41.5003356" lon="13.1113769"><ele>164.33333333333331</ele><time>2026-04-18T13:30:57.146Z</time></trkpt><trkpt lat="41.5004559" lon="13.11159"><ele>167.66666666666666</ele><time>2026-04-18T13:30:58.146Z</time></trkpt><trkpt lat="41.5005827" lon="13.1117913"><ele>171.0</ele><time>2026-04-18T13:30:59.146Z</time></trkpt><trkpt lat="41.5007129" lon="13.11197"><ele>171.0</ele><time>2026-04-18T13:31:00.146Z</time></trkpt><trkpt lat="41.5008278" lon="13.112146"><ele>171.0</ele><time>2026-04-18T13:31:01.145Z</time></trkpt><trkpt lat="41.5009189" lon="13.112324"><ele>171.0</ele><time>2026-04-18T13:31:02.146Z</time></trkpt><trkpt lat="41.5009892" lon="13.112529"><ele>169.66666666666666</ele><time>2026-04-18T13:31:03.145Z</time></trkpt><trkpt lat="41.5010515" lon="13.1127592"><ele>168.33333333333331</ele><time>2026-04-18T13:31:04.146Z</time></trkpt><trkpt lat="41.5011239" lon="13.1130033"><ele>167.0</ele><time>2026-04-18T13:31:05.146Z</time></trkpt><trkpt lat="41.5012043" lon="13.1132551"><ele>166.66666666666666</ele><time>2026-04-18T13:31:06.146Z</time></trkpt><trkpt lat="41.5012836" lon="13.1135146"><ele>166.33333333333334</ele><time>2026-04-18T13:31:07.146Z</time></trkpt><trkpt lat="41.5013677" lon="13.1137843"><ele>166.0</ele><time>2026-04-18T13:31:08.146Z</time></trkpt><trkpt lat="41.5014574" lon="13.1140514"><ele>167.33333333333334</ele><time>2026-04-18T13:31:09.146Z</time></trkpt><trkpt lat="41.5015589" lon="13.1143153"><ele>168.66666666666666</ele><time>2026-04-18T13:31:10.145Z</time></trkpt><trkpt lat="41.5016642" lon="13.1145758"><ele>170.0</ele><time>2026-04-18T13:31:11.146Z</time></trkpt><trkpt lat="41.5017651" lon="13.1148311"><ele>171.33333333333331</ele><time>2026-04-18T13:31:12.146Z</time></trkpt><trkpt lat="41.5018583" lon="13.1150894"><ele>172.66666666666666</ele><time>2026-04-18T13:31:13.146Z</time></trkpt><trkpt lat="41.5019374" lon="13.1153495"><ele>174.0</ele><time>2026-04-18T13:31:14.146Z</time></trkpt><trkpt lat="41.5020157" lon="13.1156174"><ele>175.33333333333334</ele><time>2026-04-18T13:31:15.146Z</time></trkpt><trkpt lat="41.5020943" lon="13.115893"><ele>176.66666666666669</ele><time>2026-04-18T13:31:16.146Z</time></trkpt><trkpt lat="41.5021623" lon="13.1161799"><ele>178.0</ele><time>2026-04-18T13:31:17.146Z</time></trkpt><trkpt lat="41.502221" lon="13.1164697"><ele>180.0</ele><time>2026-04-18T13:31:18.145Z</time></trkpt><trkpt lat="41.5022857" lon="13.1167601"><ele>182.0</ele><time>2026-04-18T13:31:19.146Z</time></trkpt><trkpt lat="41.502352" lon="13.1170528"><ele>182.0</ele><time>2026-04-18T13:31:20.146Z</time></trkpt><trkpt lat="41.5024124" lon="13.1173504"><ele>182.0</ele><time>2026-04-18T13:31:21.145Z</time></trkpt><trkpt lat="41.5024716" lon="13.1176482"><ele>183.0</ele><time>2026-04-18T13:31:22.146Z</time></trkpt><trkpt lat="41.502529" lon="13.1179493"><ele>184.0</ele><time>2026-04-18T13:31:23.146Z</time></trkpt><trkpt lat="41.5025885" lon="13.1182498"><ele>186.0</ele><time>2026-04-18T13:31:24.145Z</time></trkpt><trkpt lat="41.5026495" lon="13.1185276"><ele>188.0</ele><time>2026-04-18T13:31:25.146Z</time></trkpt><trkpt lat="41.5027112" lon="13.1187822"><ele>190.0</ele><time>2026-04-18T13:31:26.144Z</time></trkpt><trkpt lat="41.5027743" lon="13.1190234"><ele>191.0</ele><time>2026-04-18T13:31:27.144Z</time></trkpt><trkpt lat="41.5028444" lon="13.1192548"><ele>192.0</ele><time>2026-04-18T13:31:28.143Z</time></trkpt><trkpt lat="41.5029191" lon="13.1194445"><ele>193.0</ele><time>2026-04-18T13:31:29.144Z</time></trkpt><trkpt lat="41.503019" lon="13.1195895"><ele>193.0</ele><time>2026-04-18T13:31:30.144Z</time></trkpt><trkpt lat="41.5031532" lon="13.1197168"><ele>193.0</ele><time>2026-04-18T13:31:31.144Z</time></trkpt><trkpt lat="41.5033131" lon="13.1198263"><ele>193.0</ele><time>2026-04-18T13:31:32.144Z</time></trkpt><trkpt lat="41.5034881" lon="13.1199179"><ele>194.33333333333331</ele><time>2026-04-18T13:31:33.144Z</time></trkpt><trkpt lat="41.5036787" lon="13.119969"><ele>195.66666666666669</ele><time>2026-04-18T13:31:34.144Z</time></trkpt><trkpt lat="41.5038843" lon="13.1200329"><ele>197.0</ele><time>2026-04-18T13:31:35.144Z</time></trkpt><trkpt lat="41.5040956" lon="13.1200891"><ele>197.0</ele><time>2026-04-18T13:31:36.144Z</time></trkpt><trkpt lat="41.5042851" lon="13.1201608"><ele>197.0</ele><time>2026-04-18T13:31:37.144Z</time></trkpt><trkpt lat="41.504453" lon="13.120233"><ele>197.0</ele><time>2026-04-18T13:31:38.144Z</time></trkpt><trkpt lat="41.5046027" lon="13.1203059"><ele>197.5</ele><time>2026-04-18T13:31:39.144Z</time></trkpt><trkpt lat="41.5047301" lon="13.12036"><ele>198.0</ele><time>2026-04-18T13:31:40.144Z</time></trkpt><trkpt lat="41.5048447" lon="13.1203739"><ele>198.5</ele><time>2026-04-18T13:31:41.144Z</time></trkpt><trkpt lat="41.5049588" lon="13.1203439"><ele>199.0</ele><time>2026-04-18T13:31:42.144Z</time></trkpt><trkpt lat="41.5050643" lon="13.1203056"><ele>199.0</ele><time>2026-04-18T13:31:43.144Z</time></trkpt><trkpt lat="41.5051741" lon="13.1202669"><ele>199.0</ele><time>2026-04-18T13:31:44.144Z</time></trkpt><trkpt lat="41.5052939" lon="13.1202509"><ele>199.0</ele><time>2026-04-18T13:31:45.144Z</time></trkpt><trkpt lat="41.5054332" lon="13.1202857"><ele>199.0</ele><time>2026-04-18T13:31:46.144Z</time></trkpt><trkpt lat="41.5055771" lon="13.1203516"><ele>199.66666666666666</ele><time>2026-04-18T13:31:47.144Z</time></trkpt><trkpt lat="41.5057388" lon="13.1204257"><ele>200.33333333333331</ele><time>2026-04-18T13:31:48.144Z</time></trkpt><trkpt lat="41.5059039" lon="13.1205348"><ele>201.0</ele><time>2026-04-18T13:31:49.144Z</time></trkpt><trkpt lat="41.5060774" lon="13.120677"><ele>204.33333333333331</ele><time>2026-04-18T13:31:50.144Z</time></trkpt><trkpt lat="41.5062567" lon="13.1208099"><ele>207.66666666666666</ele><time>2026-04-18T13:31:51.144Z</time></trkpt><trkpt lat="41.5064325" lon="13.1209477"><ele>211.0</ele><time>2026-04-18T13:31:52.144Z</time></trkpt><trkpt lat="41.5066035" lon="13.1210779"><ele>211.0</ele><time>2026-04-18T13:31:53.144Z</time></trkpt><trkpt lat="41.5067673" lon="13.1212058"><ele>211.0</ele><time>2026-04-18T13:31:54.144Z</time></trkpt><trkpt lat="41.5069302" lon="13.121313"><ele>211.0</ele><time>2026-04-18T13:31:55.143Z</time></trkpt><trkpt lat="41.5070941" lon="13.1214046"><ele>213.0</ele><time>2026-04-18T13:31:56.144Z</time></trkpt><trkpt lat="41.5072573" lon="13.1215015"><ele>215.0</ele><time>2026-04-18T13:31:57.144Z</time></trkpt><trkpt lat="41.5074175" lon="13.1216198"><ele>217.0</ele><time>2026-04-18T13:31:58.143Z</time></trkpt><trkpt lat="41.5075687" lon="13.1217532"><ele>217.0</ele><time>2026-04-18T13:31:59.143Z</time></trkpt><trkpt lat="41.5077023" lon="13.1219118"><ele>217.0</ele><time>2026-04-18T13:32:00.144Z</time></trkpt><trkpt lat="41.5078332" lon="13.1220856"><ele>217.0</ele><time>2026-04-18T13:32:01.143Z</time></trkpt><trkpt lat="41.5079522" lon="13.1222784"><ele>218.33333333333331</ele><time>2026-04-18T13:32:02.144Z</time></trkpt><trkpt lat="41.5080734" lon="13.1224949"><ele>219.66666666666669</ele><time>2026-04-18T13:32:03.144Z</time></trkpt><trkpt lat="41.5082086" lon="13.1226821"><ele>221.0</ele><time>2026-04-18T13:32:04.144Z</time></trkpt><trkpt lat="41.5083704" lon="13.1228676"><ele>221.0</ele><time>2026-04-18T13:32:05.144Z</time></trkpt><trkpt lat="41.5085427" lon="13.1230502"><ele>221.0</ele><time>2026-04-18T13:32:06.144Z</time></trkpt><trkpt lat="41.5087287" lon="13.1232194"><ele>221.0</ele><time>2026-04-18T13:32:07.144Z</time></trkpt><trkpt lat="41.5089117" lon="13.1233787"><ele>220.66666666666669</ele><time>2026-04-18T13:32:08.144Z</time></trkpt><trkpt lat="41.5091019" lon="13.1235302"><ele>220.33333333333331</ele><time>2026-04-18T13:32:09.144Z</time></trkpt><trkpt lat="41.5092931" lon="13.1236792"><ele>220.0</ele><time>2026-04-18T13:32:10.144Z</time></trkpt><trkpt lat="41.5094884" lon="13.1238269"><ele>220.0</ele><time>2026-04-18T13:32:11.143Z</time></trkpt><trkpt lat="41.5096855" lon="13.1239648"><ele>220.0</ele><time>2026-04-18T13:32:12.144Z</time></trkpt><trkpt lat="41.5098794" lon="13.1241003"><ele>220.0</ele><time>2026-04-18T13:32:13.143Z</time></trkpt><trkpt lat="41.5100644" lon="13.1242323"><ele>220.0</ele><time>2026-04-18T13:32:14.144Z</time></trkpt><trkpt lat="41.5102418" lon="13.1243537"><ele>220.0</ele><time>2026-04-18T13:32:15.144Z</time></trkpt><trkpt lat="41.5104008" lon="13.1244796"><ele>220.0</ele><time>2026-04-18T13:32:16.144Z</time></trkpt><trkpt lat="41.5105596" lon="13.1245918"><ele>219.33333333333331</ele><time>2026-04-18T13:32:17.144Z</time></trkpt><trkpt lat="41.5107175" lon="13.1247038"><ele>218.66666666666669</ele><time>2026-04-18T13:32:18.144Z</time></trkpt><trkpt lat="41.5108678" lon="13.1248146"><ele>218.0</ele><time>2026-04-18T13:32:19.144Z</time></trkpt><trkpt lat="41.5110216" lon="13.124929"><ele>218.0</ele><time>2026-04-18T13:32:20.144Z</time></trkpt><trkpt lat="41.5111621" lon="13.1250542"><ele>218.0</ele><time>2026-04-18T13:32:21.144Z</time></trkpt><trkpt lat="41.5112903" lon="13.1251897"><ele>218.0</ele><time>2026-04-18T13:32:22.144Z</time></trkpt><trkpt lat="41.5113923" lon="13.1253372"><ele>218.25</ele><time>2026-04-18T13:32:23.144Z</time></trkpt><trkpt lat="41.511489" lon="13.125492"><ele>218.5</ele><time>2026-04-18T13:32:24.144Z</time></trkpt><trkpt lat="41.5115608" lon="13.1256636"><ele>218.75</ele><time>2026-04-18T13:32:25.144Z</time></trkpt><trkpt lat="41.5116195" lon="13.1258455"><ele>219.0</ele><time>2026-04-18T13:32:26.143Z</time></trkpt><trkpt lat="41.5116721" lon="13.1260403"><ele>219.0</ele><time>2026-04-18T13:32:27.144Z</time></trkpt><trkpt lat="41.5117252" lon="13.1262309"><ele>219.0</ele><time>2026-04-18T13:32:28.143Z</time></trkpt><trkpt lat="41.5117919" lon="13.1264059"><ele>219.0</ele><time>2026-04-18T13:32:29.143Z</time></trkpt><trkpt lat="41.5118818" lon="13.1265686"><ele>219.0</ele><time>2026-04-18T13:32:30.144Z</time></trkpt><trkpt lat="41.5119976" lon="13.1267073"><ele>219.0</ele><time>2026-04-18T13:32:31.144Z</time></trkpt><trkpt lat="41.5121346" lon="13.1268338"><ele>219.0</ele><time>2026-04-18T13:32:32.144Z</time></trkpt><trkpt lat="41.5122947" lon="13.1269494"><ele>219.0</ele><time>2026-04-18T13:32:33.144Z</time></trkpt><trkpt lat="41.5124582" lon="13.1270592"><ele>219.0</ele><time>2026-04-18T13:32:34.144Z</time></trkpt><trkpt lat="41.5126416" lon="13.1271467"><ele>219.0</ele><time>2026-04-18T13:32:35.144Z</time></trkpt><trkpt lat="41.5128367" lon="13.1272332"><ele>219.33333333333331</ele><time>2026-04-18T13:32:36.143Z</time></trkpt><trkpt lat="41.5130323" lon="13.1273141"><ele>219.66666666666666</ele><time>2026-04-18T13:32:37.144Z</time></trkpt><trkpt lat="41.5132096" lon="13.1273932"><ele>220.0</ele><time>2026-04-18T13:32:38.144Z</time></trkpt><trkpt lat="41.513381" lon="13.1274657"><ele>220.0</ele><time>2026-04-18T13:32:39.144Z</time></trkpt><trkpt lat="41.5135428" lon="13.1275293"><ele>220.0</ele><time>2026-04-18T13:32:40.143Z</time></trkpt><trkpt lat="41.513699" lon="13.1275783"><ele>220.0</ele><time>2026-04-18T13:32:41.144Z</time></trkpt><trkpt lat="41.5138674" lon="13.1275995"><ele>220.0</ele><time>2026-04-18T13:32:42.144Z</time></trkpt><trkpt lat="41.5140363" lon="13.1275875"><ele>220.0</ele><time>2026-04-18T13:32:43.143Z</time></trkpt><trkpt lat="41.5142106" lon="13.1275649"><ele>220.0</ele><time>2026-04-18T13:32:44.144Z</time></trkpt><trkpt lat="41.5143814" lon="13.1275389"><ele>220.0</ele><time>2026-04-18T13:32:45.144Z</time></trkpt><trkpt lat="41.514541" lon="13.1275313"><ele>220.0</ele><time>2026-04-18T13:32:46.143Z</time></trkpt><trkpt lat="41.5146985" lon="13.1275476"><ele>220.0</ele><time>2026-04-18T13:32:47.144Z</time></trkpt><trkpt lat="41.514856" lon="13.1275935"><ele>221.0</ele><time>2026-04-18T13:32:48.144Z</time></trkpt><trkpt lat="41.5150031" lon="13.1276729"><ele>222.0</ele><time>2026-04-18T13:32:49.144Z</time></trkpt><trkpt lat="41.5151448" lon="13.1277504"><ele>223.0</ele><time>2026-04-18T13:32:50.144Z</time></trkpt><trkpt lat="41.5152799" lon="13.1278285"><ele>223.5</ele><time>2026-04-18T13:32:51.144Z</time></trkpt><trkpt lat="41.5154067" lon="13.1279137"><ele>224.0</ele><time>2026-04-18T13:32:52.144Z</time></trkpt><trkpt lat="41.5155211" lon="13.1280013"><ele>224.5</ele><time>2026-04-18T13:32:53.144Z</time></trkpt><trkpt lat="41.5156286" lon="13.1280884"><ele>225.0</ele><time>2026-04-18T13:32:54.144Z</time></trkpt><trkpt lat="41.5157282" lon="13.1281615"><ele>225.0</ele><time>2026-04-18T13:32:55.144Z</time></trkpt><trkpt lat="41.5158182" lon="13.1282145"><ele>225.0</ele><time>2026-04-18T13:32:56.144Z</time></trkpt><trkpt lat="41.5158983" lon="13.1282326"><ele>225.0</ele><time>2026-04-18T13:32:57.143Z</time></trkpt><trkpt lat="41.5159771" lon="13.1282302"><ele>225.0</ele><time>2026-04-18T13:32:58.144Z</time></trkpt><trkpt lat="41.5160627" lon="13.1282089"><ele>225.0</ele><time>2026-04-18T13:32:59.144Z</time></trkpt><trkpt lat="41.5161456" lon="13.1281791"><ele>225.0</ele><time>2026-04-18T13:33:00.144Z</time></trkpt><trkpt lat="41.5162168" lon="13.1281522"><ele>225.5</ele><time>2026-04-18T13:33:01.144Z</time></trkpt><trkpt lat="41.5162855" lon="13.1281218"><ele>226.0</ele><time>2026-04-18T13:33:02.144Z</time></trkpt><trkpt lat="41.5163512" lon="13.1280929"><ele>226.5</ele><time>2026-04-18T13:33:03.144Z</time></trkpt><trkpt lat="41.5164133" lon="13.12806"><ele>227.0</ele><time>2026-04-18T13:33:04.144Z</time></trkpt><trkpt lat="41.5165142" lon="13.1280044"><ele>227.5</ele><time>2026-04-18T13:33:06.143Z</time></trkpt><trkpt lat="41.5165841" lon="13.12798"><ele>228.0</ele><time>2026-04-18T13:33:08.144Z</time></trkpt><trkpt lat="41.5166497" lon="13.1279525"><ele>228.0</ele><time>2026-04-18T13:33:11.144Z</time></trkpt><trkpt lat="41.5167713" lon="13.1279291"><ele>228.0</ele><time>2026-04-18T13:33:21.143Z</time></trkpt><trkpt lat="41.5168295" lon="13.1279615"><ele>228.0</ele><time>2026-04-18T13:33:23.144Z</time></trkpt><trkpt lat="41.5168876" lon="13.1280984"><ele>228.0</ele><time>2026-04-18T13:33:25.144Z</time></trkpt><trkpt lat="41.516919" lon="13.1282024"><ele>228.0</ele><time>2026-04-18T13:33:26.143Z</time></trkpt><trkpt lat="41.5169472" lon="13.1283049"><ele>227.60000000000002</ele><time>2026-04-18T13:33:27.144Z</time></trkpt><trkpt lat="41.5169791" lon="13.1284248"><ele>227.20000000000002</ele><time>2026-04-18T13:33:28.144Z</time></trkpt><trkpt lat="41.5170271" lon="13.1285656"><ele>226.8</ele><time>2026-04-18T13:33:29.144Z</time></trkpt><trkpt lat="41.5170777" lon="13.1287044"><ele>226.4</ele><time>2026-04-18T13:33:30.144Z</time></trkpt><trkpt lat="41.5171225" lon="13.1288409"><ele>226.0</ele><time>2026-04-18T13:33:31.144Z</time></trkpt><trkpt lat="41.5171679" lon="13.1289648"><ele>226.0</ele><time>2026-04-18T13:33:32.144Z</time></trkpt><trkpt lat="41.5172124" lon="13.1290897"><ele>226.00000000000003</ele><time>2026-04-18T13:33:33.144Z</time></trkpt><trkpt lat="41.5172503" lon="13.1292084"><ele>226.00000000000003</ele><time>2026-04-18T13:33:34.144Z</time></trkpt><trkpt lat="41.5172869" lon="13.1293282"><ele>226.0</ele><time>2026-04-18T13:33:35.144Z</time></trkpt><trkpt lat="41.5173335" lon="13.1294381"><ele>226.0</ele><time>2026-04-18T13:33:36.143Z</time></trkpt><trkpt lat="41.517369" lon="13.1295431"><ele>225.99999999999997</ele><time>2026-04-18T13:33:37.144Z</time></trkpt><trkpt lat="41.5174064" lon="13.1296433"><ele>226.0</ele><time>2026-04-18T13:33:38.144Z</time></trkpt><trkpt lat="41.5174406" lon="13.1297419"><ele>226.0</ele><time>2026-04-18T13:33:39.144Z</time></trkpt><trkpt lat="41.5174772" lon="13.1298466"><ele>226.0</ele><time>2026-04-18T13:33:40.144Z</time></trkpt><trkpt lat="41.5175111" lon="13.1299468"><ele>225.99999999999997</ele><time>2026-04-18T13:33:41.143Z</time></trkpt><trkpt lat="41.5175437" lon="13.1300543"><ele>226.0</ele><time>2026-04-18T13:33:42.144Z</time></trkpt><trkpt lat="41.5175839" lon="13.1301747"><ele>226.16666666666666</ele><time>2026-04-18T13:33:43.144Z</time></trkpt><trkpt lat="41.5176234" lon="13.1302892"><ele>226.33333333333331</ele><time>2026-04-18T13:33:44.143Z</time></trkpt><trkpt lat="41.5176598" lon="13.1303993"><ele>226.5</ele><time>2026-04-18T13:33:45.144Z</time></trkpt><trkpt lat="41.5176828" lon="13.130478"><ele>226.66666666666669</ele><time>2026-04-18T13:33:46.143Z</time></trkpt><trkpt lat="41.5177215" lon="13.130584"><ele>226.83333333333334</ele><time>2026-04-18T13:33:48.144Z</time></trkpt><trkpt lat="41.5177613" lon="13.130693"><ele>227.0</ele><time>2026-04-18T13:33:50.144Z</time></trkpt><trkpt lat="41.5178183" lon="13.1308567"><ele>227.0</ele><time>2026-04-18T13:33:52.144Z</time></trkpt><trkpt lat="41.5178641" lon="13.1309905"><ele>227.0</ele><time>2026-04-18T13:33:53.143Z</time></trkpt><trkpt lat="41.5179228" lon="13.131153"><ele>227.0</ele><time>2026-04-18T13:33:54.144Z</time></trkpt><trkpt lat="41.517976" lon="13.131322"><ele>227.0</ele><time>2026-04-18T13:33:55.144Z</time></trkpt><trkpt lat="41.5180216" lon="13.1314832"><ele>227.75</ele><time>2026-04-18T13:33:56.144Z</time></trkpt><trkpt lat="41.5180666" lon="13.1316385"><ele>228.5</ele><time>2026-04-18T13:33:57.144Z</time></trkpt><trkpt lat="41.5181153" lon="13.1317975"><ele>229.25</ele><time>2026-04-18T13:33:58.144Z</time></trkpt><trkpt lat="41.518176" lon="13.131965"><ele>230.0</ele><time>2026-04-18T13:33:59.144Z</time></trkpt><trkpt lat="41.5182477" lon="13.1321599"><ele>230.0</ele><time>2026-04-18T13:34:00.143Z</time></trkpt><trkpt lat="41.5183193" lon="13.1323798"><ele>230.0</ele><time>2026-04-18T13:34:01.144Z</time></trkpt><trkpt lat="41.5183875" lon="13.1326125"><ele>230.0</ele><time>2026-04-18T13:34:02.144Z</time></trkpt><trkpt lat="41.5184562" lon="13.1328422"><ele>230.0</ele><time>2026-04-18T13:34:03.143Z</time></trkpt><trkpt lat="41.5185289" lon="13.1330842"><ele>230.0</ele><time>2026-04-18T13:34:04.144Z</time></trkpt><trkpt lat="41.5186041" lon="13.1333142"><ele>230.0</ele><time>2026-04-18T13:34:05.144Z</time></trkpt><trkpt lat="41.5186712" lon="13.1335282"><ele>230.0</ele><time>2026-04-18T13:34:06.144Z</time></trkpt><trkpt lat="41.518724" lon="13.1337327"><ele>230.0</ele><time>2026-04-18T13:34:07.144Z</time></trkpt><trkpt lat="41.5187713" lon="13.1339388"><ele>230.0</ele><time>2026-04-18T13:34:08.144Z</time></trkpt><trkpt lat="41.5188206" lon="13.1341468"><ele>230.0</ele><time>2026-04-18T13:34:09.144Z</time></trkpt><trkpt lat="41.5188751" lon="13.1343469"><ele>230.0</ele><time>2026-04-18T13:34:10.144Z</time></trkpt><trkpt lat="41.5189464" lon="13.1345506"><ele>230.0</ele><time>2026-04-18T13:34:11.144Z</time></trkpt><trkpt lat="41.5190384" lon="13.134748"><ele>228.0</ele><time>2026-04-18T13:34:12.143Z</time></trkpt><trkpt lat="41.5191438" lon="13.1349583"><ele>226.0</ele><time>2026-04-18T13:34:13.143Z</time></trkpt><trkpt lat="41.5192524" lon="13.1351838"><ele>224.0</ele><time>2026-04-18T13:34:14.144Z</time></trkpt><trkpt lat="41.519358" lon="13.1353861"><ele>224.0</ele><time>2026-04-18T13:34:15.143Z</time></trkpt><trkpt lat="41.5194526" lon="13.1355785"><ele>224.0</ele><time>2026-04-18T13:34:16.144Z</time></trkpt><trkpt lat="41.519553" lon="13.1357617"><ele>224.0</ele><time>2026-04-18T13:34:17.144Z</time></trkpt><trkpt lat="41.5196432" lon="13.1359194"><ele>222.39999999999998</ele><time>2026-04-18T13:34:18.144Z</time></trkpt><trkpt lat="41.5197233" lon="13.136054"><ele>220.79999999999998</ele><time>2026-04-18T13:34:19.144Z</time></trkpt><trkpt lat="41.5197836" lon="13.1361537"><ele>219.20000000000002</ele><time>2026-04-18T13:34:20.144Z</time></trkpt><trkpt lat="41.5198478" lon="13.1362119"><ele>217.60000000000002</ele><time>2026-04-18T13:34:21.144Z</time></trkpt><trkpt lat="41.5199209" lon="13.136241"><ele>216.0</ele><time>2026-04-18T13:34:22.144Z</time></trkpt><trkpt lat="41.5200162" lon="13.1362296"><ele>216.0</ele><time>2026-04-18T13:34:23.144Z</time></trkpt><trkpt lat="41.5201273" lon="13.1361654"><ele>216.0</ele><time>2026-04-18T13:34:24.144Z</time></trkpt><trkpt lat="41.5202599" lon="13.1360953"><ele>216.0</ele><time>2026-04-18T13:34:25.144Z</time></trkpt><trkpt lat="41.5203757" lon="13.1360581"><ele>216.0</ele><time>2026-04-18T13:34:26.143Z</time></trkpt><trkpt lat="41.5204878" lon="13.1360919"><ele>216.5</ele><time>2026-04-18T13:34:27.144Z</time></trkpt><trkpt lat="41.5205701" lon="13.1361942"><ele>217.0</ele><time>2026-04-18T13:34:28.144Z</time></trkpt><trkpt lat="41.5206384" lon="13.1363358"><ele>217.5</ele><time>2026-04-18T13:34:29.144Z</time></trkpt><trkpt lat="41.5207038" lon="13.1364998"><ele>218.0</ele><time>2026-04-18T13:34:30.144Z</time></trkpt><trkpt lat="41.5207831" lon="13.1366781"><ele>216.66666666666669</ele><time>2026-04-18T13:34:31.144Z</time></trkpt><trkpt lat="41.5208742" lon="13.1368714"><ele>215.33333333333331</ele><time>2026-04-18T13:34:32.144Z</time></trkpt><trkpt lat="41.5209694" lon="13.1370837"><ele>214.0</ele><time>2026-04-18T13:34:33.144Z</time></trkpt><trkpt lat="41.521062" lon="13.1372895"><ele>213.66666666666666</ele><time>2026-04-18T13:34:34.143Z</time></trkpt><trkpt lat="41.5211476" lon="13.1374892"><ele>213.33333333333331</ele><time>2026-04-18T13:34:35.144Z</time></trkpt><trkpt lat="41.5212385" lon="13.1376857"><ele>213.0</ele><time>2026-04-18T13:34:36.144Z</time></trkpt><trkpt lat="41.5213253" lon="13.1378914"><ele>212.0</ele><time>2026-04-18T13:34:37.144Z</time></trkpt><trkpt lat="41.5214056" lon="13.138087"><ele>211.0</ele><time>2026-04-18T13:34:38.144Z</time></trkpt><trkpt lat="41.5214851" lon="13.1382751"><ele>210.0</ele><time>2026-04-18T13:34:39.143Z</time></trkpt><trkpt lat="41.5215588" lon="13.1384587"><ele>210.0</ele><time>2026-04-18T13:34:40.144Z</time></trkpt><trkpt lat="41.5216354" lon="13.1386351"><ele>210.0</ele><time>2026-04-18T13:34:41.144Z</time></trkpt><trkpt lat="41.5217077" lon="13.1387985"><ele>210.0</ele><time>2026-04-18T13:34:42.144Z</time></trkpt><trkpt lat="41.5217843" lon="13.1389468"><ele>210.0</ele><time>2026-04-18T13:34:43.144Z</time></trkpt><trkpt lat="41.5218628" lon="13.1390568"><ele>208.5</ele><time>2026-04-18T13:34:44.144Z</time></trkpt><trkpt lat="41.5219644" lon="13.1391121"><ele>207.0</ele><time>2026-04-18T13:34:45.144Z</time></trkpt><trkpt lat="41.5220895" lon="13.1391129"><ele>205.5</ele><time>2026-04-18T13:34:46.144Z</time></trkpt><trkpt lat="41.5222364" lon="13.1390988"><ele>204.0</ele><time>2026-04-18T13:34:47.144Z</time></trkpt><trkpt lat="41.5223752" lon="13.139084"><ele>202.75</ele><time>2026-04-18T13:34:48.144Z</time></trkpt><trkpt lat="41.5225082" lon="13.1390942"><ele>201.5</ele><time>2026-04-18T13:34:49.143Z</time></trkpt><trkpt lat="41.5226272" lon="13.1391493"><ele>200.25</ele><time>2026-04-18T13:34:50.144Z</time></trkpt><trkpt lat="41.5227315" lon="13.1392522"><ele>199.0</ele><time>2026-04-18T13:34:51.144Z</time></trkpt><trkpt lat="41.5227974" lon="13.1393878"><ele>199.0</ele><time>2026-04-18T13:34:52.144Z</time></trkpt><trkpt lat="41.5228381" lon="13.1395659"><ele>199.0</ele><time>2026-04-18T13:34:53.144Z</time></trkpt><trkpt lat="41.5228511" lon="13.1397816"><ele>199.0</ele><time>2026-04-18T13:34:54.144Z</time></trkpt><trkpt lat="41.5228457" lon="13.1400114"><ele>198.33333333333331</ele><time>2026-04-18T13:34:55.144Z</time></trkpt><trkpt lat="41.5228114" lon="13.1402524"><ele>197.66666666666669</ele><time>2026-04-18T13:34:56.144Z</time></trkpt><trkpt lat="41.5227862" lon="13.140514"><ele>197.0</ele><time>2026-04-18T13:34:57.144Z</time></trkpt><trkpt lat="41.5227716" lon="13.1407752"><ele>196.66666666666669</ele><time>2026-04-18T13:34:58.144Z</time></trkpt><trkpt lat="41.5227564" lon="13.1410372"><ele>196.33333333333331</ele><time>2026-04-18T13:34:59.144Z</time></trkpt><trkpt lat="41.5227453" lon="13.1413076"><ele>196.0</ele><time>2026-04-18T13:35:00.143Z</time></trkpt><trkpt lat="41.5227353" lon="13.1415767"><ele>196.0</ele><time>2026-04-18T13:35:01.144Z</time></trkpt><trkpt lat="41.5227272" lon="13.1418292"><ele>196.0</ele><time>2026-04-18T13:35:02.144Z</time></trkpt><trkpt lat="41.5227133" lon="13.1420702"><ele>196.0</ele><time>2026-04-18T13:35:03.144Z</time></trkpt><trkpt lat="41.5227035" lon="13.1422922"><ele>197.5</ele><time>2026-04-18T13:35:04.144Z</time></trkpt><trkpt lat="41.5227073" lon="13.1424885"><ele>199.0</ele><time>2026-04-18T13:35:05.144Z</time></trkpt><trkpt lat="41.5227225" lon="13.1426731"><ele>200.5</ele><time>2026-04-18T13:35:06.144Z</time></trkpt><trkpt lat="41.5227627" lon="13.1428295"><ele>202.0</ele><time>2026-04-18T13:35:07.144Z</time></trkpt><trkpt lat="41.5228482" lon="13.1429662"><ele>202.5</ele><time>2026-04-18T13:35:08.144Z</time></trkpt><trkpt lat="41.5229541" lon="13.1430481"><ele>203.0</ele><time>2026-04-18T13:35:09.144Z</time></trkpt><trkpt lat="41.5230918" lon="13.1431361"><ele>203.5</ele><time>2026-04-18T13:35:10.144Z</time></trkpt><trkpt lat="41.5232335" lon="13.1432287"><ele>204.0</ele><time>2026-04-18T13:35:11.144Z</time></trkpt><trkpt lat="41.5233724" lon="13.1433361"><ele>204.0</ele><time>2026-04-18T13:35:12.144Z</time></trkpt><trkpt lat="41.5235036" lon="13.1434357"><ele>204.0</ele><time>2026-04-18T13:35:13.143Z</time></trkpt><trkpt lat="41.5236318" lon="13.1435267"><ele>204.0</ele><time>2026-04-18T13:35:14.144Z</time></trkpt><trkpt lat="41.5237424" lon="13.1436336"><ele>204.0</ele><time>2026-04-18T13:35:15.144Z</time></trkpt><trkpt lat="41.5238281" lon="13.1437464"><ele>203.5</ele><time>2026-04-18T13:35:16.144Z</time></trkpt><trkpt lat="41.5238826" lon="13.1438974"><ele>203.0</ele><time>2026-04-18T13:35:17.144Z</time></trkpt><trkpt lat="41.5239133" lon="13.1440579"><ele>202.5</ele><time>2026-04-18T13:35:18.143Z</time></trkpt><trkpt lat="41.5239465" lon="13.1442301"><ele>202.0</ele><time>2026-04-18T13:35:19.144Z</time></trkpt><trkpt lat="41.5239758" lon="13.1444223"><ele>202.0</ele><time>2026-04-18T13:35:20.144Z</time></trkpt><trkpt lat="41.5240046" lon="13.1446339"><ele>202.0</ele><time>2026-04-18T13:35:21.144Z</time></trkpt><trkpt lat="41.5240334" lon="13.1448633"><ele>202.0</ele><time>2026-04-18T13:35:22.144Z</time></trkpt><trkpt lat="41.5240614" lon="13.1451059"><ele>201.66666666666666</ele><time>2026-04-18T13:35:23.144Z</time></trkpt><trkpt lat="41.5240818" lon="13.1453594"><ele>201.33333333333331</ele><time>2026-04-18T13:35:24.144Z</time></trkpt><trkpt lat="41.5240926" lon="13.1456175"><ele>201.0</ele><time>2026-04-18T13:35:25.143Z</time></trkpt><trkpt lat="41.5240812" lon="13.1458749"><ele>201.0</ele><time>2026-04-18T13:35:26.144Z</time></trkpt><trkpt lat="41.5240496" lon="13.1461074"><ele>201.0</ele><time>2026-04-18T13:35:27.144Z</time></trkpt><trkpt lat="41.524028" lon="13.1463266"><ele>201.0</ele><time>2026-04-18T13:35:28.144Z</time></trkpt><trkpt lat="41.5240177" lon="13.1465325"><ele>201.0</ele><time>2026-04-18T13:35:29.143Z</time></trkpt><trkpt lat="41.5240314" lon="13.1467229"><ele>201.0</ele><time>2026-04-18T13:35:30.143Z</time></trkpt><trkpt lat="41.5240718" lon="13.1469268"><ele>201.0</ele><time>2026-04-18T13:35:31.144Z</time></trkpt><trkpt lat="41.5241258" lon="13.1471527"><ele>198.33333333333331</ele><time>2026-04-18T13:35:32.143Z</time></trkpt><trkpt lat="41.5241894" lon="13.1474104"><ele>195.66666666666666</ele><time>2026-04-18T13:35:33.144Z</time></trkpt><trkpt lat="41.5242507" lon="13.1476706"><ele>193.0</ele><time>2026-04-18T13:35:34.144Z</time></trkpt><trkpt lat="41.5243098" lon="13.1479401"><ele>191.0</ele><time>2026-04-18T13:35:35.144Z</time></trkpt><trkpt lat="41.5243701" lon="13.1482131"><ele>189.0</ele><time>2026-04-18T13:35:36.144Z</time></trkpt><trkpt lat="41.5244296" lon="13.148491"><ele>187.0</ele><time>2026-04-18T13:35:37.144Z</time></trkpt><trkpt lat="41.5244874" lon="13.1487638"><ele>187.0</ele><time>2026-04-18T13:35:38.144Z</time></trkpt><trkpt lat="41.524534" lon="13.149016"><ele>187.0</ele><time>2026-04-18T13:35:39.143Z</time></trkpt><trkpt lat="41.524566" lon="13.1492521"><ele>187.0</ele><time>2026-04-18T13:35:40.144Z</time></trkpt><trkpt lat="41.5245793" lon="13.1494834"><ele>185.66666666666669</ele><time>2026-04-18T13:35:41.144Z</time></trkpt><trkpt lat="41.5245681" lon="13.1497268"><ele>184.33333333333334</ele><time>2026-04-18T13:35:42.144Z</time></trkpt><trkpt lat="41.5245411" lon="13.1499786"><ele>183.0</ele><time>2026-04-18T13:35:43.143Z</time></trkpt><trkpt lat="41.5245066" lon="13.1502388"><ele>183.0</ele><time>2026-04-18T13:35:44.144Z</time></trkpt><trkpt lat="41.5244649" lon="13.1505045"><ele>183.0</ele><time>2026-04-18T13:35:45.144Z</time></trkpt><trkpt lat="41.5244035" lon="13.1507723"><ele>183.0</ele><time>2026-04-18T13:35:46.144Z</time></trkpt><trkpt lat="41.5243275" lon="13.1510353"><ele>185.0</ele><time>2026-04-18T13:35:47.143Z</time></trkpt><trkpt lat="41.5242408" lon="13.1512987"><ele>187.0</ele><time>2026-04-18T13:35:48.144Z</time></trkpt><trkpt lat="41.5241466" lon="13.1515691"><ele>189.0</ele><time>2026-04-18T13:35:49.144Z</time></trkpt><trkpt lat="41.524039" lon="13.1518291"><ele>187.66666666666666</ele><time>2026-04-18T13:35:50.144Z</time></trkpt><trkpt lat="41.5239188" lon="13.1520758"><ele>186.33333333333331</ele><time>2026-04-18T13:35:51.144Z</time></trkpt><trkpt lat="41.5237935" lon="13.152325"><ele>185.0</ele><time>2026-04-18T13:35:52.144Z</time></trkpt><trkpt lat="41.5236692" lon="13.1525644"><ele>185.0</ele><time>2026-04-18T13:35:53.144Z</time></trkpt><trkpt lat="41.5235525" lon="13.1527843"><ele>185.0</ele><time>2026-04-18T13:35:54.144Z</time></trkpt><trkpt lat="41.5234482" lon="13.1529884"><ele>185.0</ele><time>2026-04-18T13:35:55.144Z</time></trkpt><trkpt lat="41.5233467" lon="13.1531798"><ele>189.33333333333331</ele><time>2026-04-18T13:35:56.144Z</time></trkpt><trkpt lat="41.5232417" lon="13.1533514"><ele>193.66666666666666</ele><time>2026-04-18T13:35:57.144Z</time></trkpt><trkpt lat="41.5231514" lon="13.1535201"><ele>198.0</ele><time>2026-04-18T13:35:58.144Z</time></trkpt><trkpt lat="41.523086" lon="13.1537012"><ele>198.0</ele><time>2026-04-18T13:35:59.144Z</time></trkpt><trkpt lat="41.5230514" lon="13.1538958"><ele>198.0</ele><time>2026-04-18T13:36:00.144Z</time></trkpt><trkpt lat="41.5230446" lon="13.1541149"><ele>198.0</ele><time>2026-04-18T13:36:01.143Z</time></trkpt><trkpt lat="41.5230472" lon="13.1543501"><ele>202.33333333333331</ele><time>2026-04-18T13:36:02.144Z</time></trkpt><trkpt lat="41.5230433" lon="13.1545935"><ele>206.66666666666666</ele><time>2026-04-18T13:36:03.144Z</time></trkpt><trkpt lat="41.5230245" lon="13.1548281"><ele>211.0</ele><time>2026-04-18T13:36:04.144Z</time></trkpt><trkpt lat="41.5229859" lon="13.1550512"><ele>212.66666666666666</ele><time>2026-04-18T13:36:05.144Z</time></trkpt><trkpt lat="41.5229289" lon="13.155258"><ele>214.33333333333331</ele><time>2026-04-18T13:36:06.144Z</time></trkpt><trkpt lat="41.5228726" lon="13.1554699"><ele>216.0</ele><time>2026-04-18T13:36:07.144Z</time></trkpt><trkpt lat="41.5228267" lon="13.155682"><ele>206.33333333333334</ele><time>2026-04-18T13:36:08.144Z</time></trkpt><trkpt lat="41.5227914" lon="13.1558995"><ele>196.66666666666669</ele><time>2026-04-18T13:36:09.144Z</time></trkpt><trkpt lat="41.522774" lon="13.1561268"><ele>187.0</ele><time>2026-04-18T13:36:10.144Z</time></trkpt><trkpt lat="41.5227737" lon="13.1563626"><ele>187.33333333333334</ele><time>2026-04-18T13:36:11.144Z</time></trkpt><trkpt lat="41.5227722" lon="13.1565927"><ele>187.66666666666666</ele><time>2026-04-18T13:36:12.144Z</time></trkpt><trkpt lat="41.522772" lon="13.1568075"><ele>188.0</ele><time>2026-04-18T13:36:13.144Z</time></trkpt><trkpt lat="41.5227735" lon="13.1569981"><ele>188.0</ele><time>2026-04-18T13:36:14.144Z</time></trkpt><trkpt lat="41.522778" lon="13.1571653"><ele>188.0</ele><time>2026-04-18T13:36:15.144Z</time></trkpt><trkpt lat="41.5227933" lon="13.1573094"><ele>188.0</ele><time>2026-04-18T13:36:16.143Z</time></trkpt><trkpt lat="41.5228035" lon="13.1574482"><ele>188.0</ele><time>2026-04-18T13:36:17.144Z</time></trkpt><trkpt lat="41.5228038" lon="13.1575879"><ele>188.0</ele><time>2026-04-18T13:36:18.144Z</time></trkpt><trkpt lat="41.5227841" lon="13.1577325"><ele>186.75</ele><time>2026-04-18T13:36:19.144Z</time></trkpt><trkpt lat="41.5227567" lon="13.1578808"><ele>185.5</ele><time>2026-04-18T13:36:20.144Z</time></trkpt><trkpt lat="41.5227475" lon="13.1580385"><ele>184.25</ele><time>2026-04-18T13:36:21.144Z</time></trkpt><trkpt lat="41.5227625" lon="13.158217"><ele>183.0</ele><time>2026-04-18T13:36:22.144Z</time></trkpt><trkpt lat="41.522796" lon="13.1584005"><ele>181.25</ele><time>2026-04-18T13:36:23.143Z</time></trkpt><trkpt lat="41.5228319" lon="13.1585933"><ele>179.5</ele><time>2026-04-18T13:36:24.144Z</time></trkpt><trkpt lat="41.5228647" lon="13.1587676"><ele>177.75</ele><time>2026-04-18T13:36:25.144Z</time></trkpt><trkpt lat="41.5228847" lon="13.1589312"><ele>176.0</ele><time>2026-04-18T13:36:26.144Z</time></trkpt><trkpt lat="41.5228712" lon="13.1590972"><ele>174.75</ele><time>2026-04-18T13:36:27.144Z</time></trkpt><trkpt lat="41.5228242" lon="13.1592617"><ele>173.5</ele><time>2026-04-18T13:36:28.144Z</time></trkpt><trkpt lat="41.5227637" lon="13.1594236"><ele>172.25</ele><time>2026-04-18T13:36:29.144Z</time></trkpt><trkpt lat="41.5227044" lon="13.1596109"><ele>171.0</ele><time>2026-04-18T13:36:30.144Z</time></trkpt><trkpt lat="41.5226624" lon="13.159815"><ele>171.0</ele><time>2026-04-18T13:36:31.144Z</time></trkpt><trkpt lat="41.5226475" lon="13.1600269"><ele>171.0</ele><time>2026-04-18T13:36:32.144Z</time></trkpt><trkpt lat="41.5226694" lon="13.1602289"><ele>171.0</ele><time>2026-04-18T13:36:33.144Z</time></trkpt><trkpt lat="41.5227238" lon="13.160448"><ele>171.0</ele><time>2026-04-18T13:36:34.144Z</time></trkpt><trkpt lat="41.5228066" lon="13.1606542"><ele>171.0</ele><time>2026-04-18T13:36:35.144Z</time></trkpt><trkpt lat="41.5229246" lon="13.1608429"><ele>171.0</ele><time>2026-04-18T13:36:36.144Z</time></trkpt><trkpt lat="41.5230549" lon="13.1610356"><ele>175.33333333333334</ele><time>2026-04-18T13:36:37.144Z</time></trkpt><trkpt lat="41.5232053" lon="13.1612155"><ele>179.66666666666669</ele><time>2026-04-18T13:36:38.143Z</time></trkpt><trkpt lat="41.5233732" lon="13.1613614"><ele>184.0</ele><time>2026-04-18T13:36:39.144Z</time></trkpt><trkpt lat="41.5235369" lon="13.1615087"><ele>180.66666666666669</ele><time>2026-04-18T13:36:40.144Z</time></trkpt><trkpt lat="41.523702" lon="13.1616351"><ele>177.33333333333334</ele><time>2026-04-18T13:36:41.144Z</time></trkpt><trkpt lat="41.5238577" lon="13.1617632"><ele>174.0</ele><time>2026-04-18T13:36:42.144Z</time></trkpt><trkpt lat="41.523999" lon="13.161888"><ele>174.0</ele><time>2026-04-18T13:36:43.143Z</time></trkpt><trkpt lat="41.5241322" lon="13.1620147"><ele>174.0</ele><time>2026-04-18T13:36:44.144Z</time></trkpt><trkpt lat="41.5242625" lon="13.1621433"><ele>174.0</ele><time>2026-04-18T13:36:45.144Z</time></trkpt><trkpt lat="41.5243798" lon="13.1622564"><ele>174.0</ele><time>2026-04-18T13:36:46.143Z</time></trkpt><trkpt lat="41.5244959" lon="13.1623309"><ele>174.0</ele><time>2026-04-18T13:36:47.144Z</time></trkpt><trkpt lat="41.5246199" lon="13.1623641"><ele>174.0</ele><time>2026-04-18T13:36:48.144Z</time></trkpt><trkpt lat="41.5247345" lon="13.1623673"><ele>174.0</ele><time>2026-04-18T13:36:49.144Z</time></trkpt><trkpt lat="41.5248296" lon="13.1623489"><ele>174.16666666666666</ele><time>2026-04-18T13:36:50.144Z</time></trkpt><trkpt lat="41.524913" lon="13.1623373"><ele>174.33333333333334</ele><time>2026-04-18T13:36:51.143Z</time></trkpt><trkpt lat="41.5249772" lon="13.1623625"><ele>174.5</ele><time>2026-04-18T13:36:52.144Z</time></trkpt><trkpt lat="41.5250319" lon="13.1624268"><ele>174.66666666666669</ele><time>2026-04-18T13:36:53.144Z</time></trkpt><trkpt lat="41.5250845" lon="13.1625662"><ele>174.83333333333334</ele><time>2026-04-18T13:36:55.144Z</time></trkpt><trkpt lat="41.5251125" lon="13.1626452"><ele>175.0</ele><time>2026-04-18T13:36:56.144Z</time></trkpt><trkpt lat="41.5251571" lon="13.1627334"><ele>172.2</ele><time>2026-04-18T13:36:57.144Z</time></trkpt><trkpt lat="41.5252062" lon="13.1628262"><ele>169.4</ele><time>2026-04-18T13:36:58.144Z</time></trkpt><trkpt lat="41.5252437" lon="13.1629315"><ele>166.60000000000002</ele><time>2026-04-18T13:36:59.144Z</time></trkpt><trkpt lat="41.5252688" lon="13.1630441"><ele>163.8</ele><time>2026-04-18T13:37:00.144Z</time></trkpt><trkpt lat="41.5252875" lon="13.1631708"><ele>161.0</ele><time>2026-04-18T13:37:01.144Z</time></trkpt><trkpt lat="41.5252903" lon="13.1633076"><ele>159.0</ele><time>2026-04-18T13:37:02.144Z</time></trkpt><trkpt lat="41.52527" lon="13.1634543"><ele>157.0</ele><time>2026-04-18T13:37:03.143Z</time></trkpt><trkpt lat="41.5252199" lon="13.1635985"><ele>155.0</ele><time>2026-04-18T13:37:04.144Z</time></trkpt><trkpt lat="41.5251472" lon="13.1637418"><ele>153.0</ele><time>2026-04-18T13:37:05.144Z</time></trkpt><trkpt lat="41.5250642" lon="13.1639021"><ele>153.0</ele><time>2026-04-18T13:37:06.144Z</time></trkpt><trkpt lat="41.5249621" lon="13.1640887"><ele>153.0</ele><time>2026-04-18T13:37:07.143Z</time></trkpt><trkpt lat="41.5248419" lon="13.1642994"><ele>153.0</ele><time>2026-04-18T13:37:08.143Z</time></trkpt><trkpt lat="41.5247148" lon="13.1645167"><ele>153.0</ele><time>2026-04-18T13:37:09.144Z</time></trkpt><trkpt lat="41.5245855" lon="13.1647594"><ele>153.0</ele><time>2026-04-18T13:37:10.144Z</time></trkpt><trkpt lat="41.5244632" lon="13.1650133"><ele>153.0</ele><time>2026-04-18T13:37:11.144Z</time></trkpt><trkpt lat="41.5243497" lon="13.1652736"><ele>153.33333333333334</ele><time>2026-04-18T13:37:12.144Z</time></trkpt><trkpt lat="41.5242195" lon="13.1655224"><ele>153.66666666666669</ele><time>2026-04-18T13:37:13.144Z</time></trkpt><trkpt lat="41.5240997" lon="13.1657492"><ele>154.0</ele><time>2026-04-18T13:37:14.144Z</time></trkpt><trkpt lat="41.5239872" lon="13.1659742"><ele>154.0</ele><time>2026-04-18T13:37:15.144Z</time></trkpt><trkpt lat="41.5238934" lon="13.1661521"><ele>154.0</ele><time>2026-04-18T13:37:16.144Z</time></trkpt><trkpt lat="41.5238033" lon="13.1663414"><ele>154.0</ele><time>2026-04-18T13:37:17.144Z</time></trkpt><trkpt lat="41.5237141" lon="13.1665148"><ele>152.5</ele><time>2026-04-18T13:37:18.144Z</time></trkpt><trkpt lat="41.5236333" lon="13.1666662"><ele>151.0</ele><time>2026-04-18T13:37:19.144Z</time></trkpt><trkpt lat="41.5235759" lon="13.1668256"><ele>149.5</ele><time>2026-04-18T13:37:20.144Z</time></trkpt><trkpt lat="41.5235448" lon="13.166997"><ele>148.0</ele><time>2026-04-18T13:37:21.144Z</time></trkpt><trkpt lat="41.5235504" lon="13.1671913"><ele>148.0</ele><time>2026-04-18T13:37:22.143Z</time></trkpt><trkpt lat="41.5235724" lon="13.1674019"><ele>148.0</ele><time>2026-04-18T13:37:23.144Z</time></trkpt><trkpt lat="41.5236049" lon="13.1676341"><ele>148.0</ele><time>2026-04-18T13:37:24.144Z</time></trkpt><trkpt lat="41.5236407" lon="13.1678696"><ele>148.0</ele><time>2026-04-18T13:37:25.143Z</time></trkpt><trkpt lat="41.5236772" lon="13.168097"><ele>148.0</ele><time>2026-04-18T13:37:26.144Z</time></trkpt><trkpt lat="41.523714" lon="13.1683028"><ele>148.0</ele><time>2026-04-18T13:37:27.143Z</time></trkpt><trkpt lat="41.5237452" lon="13.1684808"><ele>147.8</ele><time>2026-04-18T13:37:28.144Z</time></trkpt><trkpt lat="41.523754" lon="13.1686274"><ele>147.60000000000002</ele><time>2026-04-18T13:37:29.144Z</time></trkpt><trkpt lat="41.5237396" lon="13.1687484"><ele>147.39999999999998</ele><time>2026-04-18T13:37:30.144Z</time></trkpt><trkpt lat="41.5236653" lon="13.168862"><ele>147.2</ele><time>2026-04-18T13:37:31.144Z</time></trkpt><trkpt lat="41.5235621" lon="13.1689496"><ele>147.0</ele><time>2026-04-18T13:37:32.144Z</time></trkpt><trkpt lat="41.5234318" lon="13.1690116"><ele>148.33333333333334</ele><time>2026-04-18T13:37:33.143Z</time></trkpt><trkpt lat="41.5232937" lon="13.1690852"><ele>149.66666666666669</ele><time>2026-04-18T13:37:34.144Z</time></trkpt><trkpt lat="41.5231423" lon="13.1691692"><ele>151.0</ele><time>2026-04-18T13:37:35.144Z</time></trkpt><trkpt lat="41.5229844" lon="13.1692674"><ele>148.33333333333334</ele><time>2026-04-18T13:37:36.144Z</time></trkpt><trkpt lat="41.5228105" lon="13.1693843"><ele>145.66666666666666</ele><time>2026-04-18T13:37:37.144Z</time></trkpt><trkpt lat="41.5226305" lon="13.1694997"><ele>143.0</ele><time>2026-04-18T13:37:38.144Z</time></trkpt><trkpt lat="41.5224487" lon="13.1696348"><ele>143.0</ele><time>2026-04-18T13:37:39.144Z</time></trkpt><trkpt lat="41.522266" lon="13.1697866"><ele>143.0</ele><time>2026-04-18T13:37:40.144Z</time></trkpt><trkpt lat="41.5220988" lon="13.1699255"><ele>143.0</ele><time>2026-04-18T13:37:41.144Z</time></trkpt><trkpt lat="41.5219436" lon="13.1700696"><ele>140.66666666666666</ele><time>2026-04-18T13:37:42.143Z</time></trkpt><trkpt lat="41.5217908" lon="13.1702253"><ele>138.33333333333334</ele><time>2026-04-18T13:37:43.144Z</time></trkpt><trkpt lat="41.5216518" lon="13.1703638"><ele>136.0</ele><time>2026-04-18T13:37:44.144Z</time></trkpt><trkpt lat="41.5215073" lon="13.1704952"><ele>136.0</ele><time>2026-04-18T13:37:45.144Z</time></trkpt><trkpt lat="41.5213692" lon="13.1706418"><ele>136.0</ele><time>2026-04-18T13:37:46.144Z</time></trkpt><trkpt lat="41.5212193" lon="13.170759"><ele>136.0</ele><time>2026-04-18T13:37:47.144Z</time></trkpt><trkpt lat="41.5210953" lon="13.1708748"><ele>134.0</ele><time>2026-04-18T13:37:48.144Z</time></trkpt><trkpt lat="41.5209793" lon="13.170991"><ele>132.0</ele><time>2026-04-18T13:37:49.144Z</time></trkpt><trkpt lat="41.5208781" lon="13.1711221"><ele>130.0</ele><time>2026-04-18T13:37:50.144Z</time></trkpt><trkpt lat="41.5207854" lon="13.1712521"><ele>128.0</ele><time>2026-04-18T13:37:51.144Z</time></trkpt><trkpt lat="41.5207026" lon="13.1713927"><ele>127.25</ele><time>2026-04-18T13:37:52.143Z</time></trkpt><trkpt lat="41.5206263" lon="13.1715433"><ele>126.5</ele><time>2026-04-18T13:37:53.143Z</time></trkpt><trkpt lat="41.5205536" lon="13.1717042"><ele>125.75</ele><time>2026-04-18T13:37:54.144Z</time></trkpt><trkpt lat="41.5204821" lon="13.1718587"><ele>125.0</ele><time>2026-04-18T13:37:55.144Z</time></trkpt><trkpt lat="41.5204158" lon="13.1719994"><ele>124.49999999999999</ele><time>2026-04-18T13:37:56.144Z</time></trkpt><trkpt lat="41.5203588" lon="13.1721181"><ele>124.0</ele><time>2026-04-18T13:37:57.144Z</time></trkpt><trkpt lat="41.5203138" lon="13.1722044"><ele>123.5</ele><time>2026-04-18T13:37:58.144Z</time></trkpt><trkpt lat="41.5202633" lon="13.1723231"><ele>123.0</ele><time>2026-04-18T13:38:00.144Z</time></trkpt><trkpt lat="41.5202196" lon="13.1724054"><ele>122.49999999999999</ele><time>2026-04-18T13:38:03.144Z</time></trkpt><trkpt lat="41.5201654" lon="13.1724855"><ele>122.0</ele><time>2026-04-18T13:38:11.145Z</time></trkpt><trkpt lat="41.5201653" lon="13.1725763"><ele>121.66666666666666</ele><time>2026-04-18T13:38:16.145Z</time></trkpt><trkpt lat="41.520217" lon="13.1726314"><ele>121.33333333333333</ele><time>2026-04-18T13:38:18.145Z</time></trkpt><trkpt lat="41.5202762" lon="13.1726656"><ele>121.0</ele><time>2026-04-18T13:38:19.145Z</time></trkpt><trkpt lat="41.5203626" lon="13.1727027"><ele>120.66666666666666</ele><time>2026-04-18T13:38:20.144Z</time></trkpt><trkpt lat="41.5204629" lon="13.1727421"><ele>120.33333333333333</ele><time>2026-04-18T13:38:21.145Z</time></trkpt><trkpt lat="41.5205777" lon="13.1727874"><ele>120.0</ele><time>2026-04-18T13:38:22.145Z</time></trkpt><trkpt lat="41.5206922" lon="13.1728413"><ele>120.0</ele><time>2026-04-18T13:38:23.145Z</time></trkpt><trkpt lat="41.5208058" lon="13.172911"><ele>120.0</ele><time>2026-04-18T13:38:24.145Z</time></trkpt><trkpt lat="41.5209271" lon="13.1730064"><ele>120.0</ele><time>2026-04-18T13:38:25.145Z</time></trkpt><trkpt lat="41.5210364" lon="13.1731196"><ele>120.0</ele><time>2026-04-18T13:38:26.145Z</time></trkpt><trkpt lat="41.5211343" lon="13.1732497"><ele>119.66666666666666</ele><time>2026-04-18T13:38:27.144Z</time></trkpt><trkpt lat="41.521228" lon="13.1733865"><ele>119.33333333333333</ele><time>2026-04-18T13:38:28.145Z</time></trkpt><trkpt lat="41.5213544" lon="13.1734984"><ele>119.0</ele><time>2026-04-18T13:38:29.145Z</time></trkpt><trkpt lat="41.5215135" lon="13.1735991"><ele>119.0</ele><time>2026-04-18T13:38:30.145Z</time></trkpt><trkpt lat="41.5216963" lon="13.1736925"><ele>119.0</ele><time>2026-04-18T13:38:31.145Z</time></trkpt><trkpt lat="41.5218928" lon="13.1737789"><ele>119.0</ele><time>2026-04-18T13:38:32.144Z</time></trkpt><trkpt lat="41.5221019" lon="13.1738679"><ele>119.66666666666666</ele><time>2026-04-18T13:38:33.145Z</time></trkpt><trkpt lat="41.522301" lon="13.1739519"><ele>120.33333333333334</ele><time>2026-04-18T13:38:34.145Z</time></trkpt><trkpt lat="41.5224973" lon="13.1740494"><ele>121.0</ele><time>2026-04-18T13:38:35.145Z</time></trkpt><trkpt lat="41.5226964" lon="13.174137"><ele>122.33333333333334</ele><time>2026-04-18T13:38:36.145Z</time></trkpt><trkpt lat="41.5228853" lon="13.1742188"><ele>123.66666666666666</ele><time>2026-04-18T13:38:37.145Z</time></trkpt><trkpt lat="41.523063" lon="13.1742986"><ele>125.0</ele><time>2026-04-18T13:38:38.145Z</time></trkpt><trkpt lat="41.5232298" lon="13.1743726"><ele>126.0</ele><time>2026-04-18T13:38:39.145Z</time></trkpt><trkpt lat="41.5233874" lon="13.1744429"><ele>127.0</ele><time>2026-04-18T13:38:40.144Z</time></trkpt><trkpt lat="41.5235479" lon="13.1745104"><ele>128.0</ele><time>2026-04-18T13:38:41.145Z</time></trkpt><trkpt lat="41.5237061" lon="13.1745742"><ele>130.0</ele><time>2026-04-18T13:38:42.145Z</time></trkpt><trkpt lat="41.5238597" lon="13.1746452"><ele>132.0</ele><time>2026-04-18T13:38:43.145Z</time></trkpt><trkpt lat="41.5240108" lon="13.1747064"><ele>134.0</ele><time>2026-04-18T13:38:44.145Z</time></trkpt><trkpt lat="41.5241585" lon="13.1747797"><ele>135.66666666666666</ele><time>2026-04-18T13:38:45.145Z</time></trkpt><trkpt lat="41.5243053" lon="13.1748637"><ele>137.33333333333334</ele><time>2026-04-18T13:38:46.144Z</time></trkpt><trkpt lat="41.5244426" lon="13.1749621"><ele>139.0</ele><time>2026-04-18T13:38:47.144Z</time></trkpt><trkpt lat="41.5245834" lon="13.1750659"><ele>139.0</ele><time>2026-04-18T13:38:48.145Z</time></trkpt><trkpt lat="41.5247159" lon="13.1751833"><ele>139.0</ele><time>2026-04-18T13:38:49.145Z</time></trkpt><trkpt lat="41.5248457" lon="13.1753026"><ele>139.0</ele><time>2026-04-18T13:38:50.145Z</time></trkpt><trkpt lat="41.5249765" lon="13.1754061"><ele>139.0</ele><time>2026-04-18T13:38:51.145Z</time></trkpt><trkpt lat="41.5251054" lon="13.1755023"><ele>139.0</ele><time>2026-04-18T13:38:52.145Z</time></trkpt><trkpt lat="41.5252418" lon="13.1755847"><ele>139.0</ele><time>2026-04-18T13:38:53.145Z</time></trkpt><trkpt lat="41.5253735" lon="13.1756601"><ele>139.0</ele><time>2026-04-18T13:38:54.145Z</time></trkpt><trkpt lat="41.5255179" lon="13.1757288"><ele>142.0</ele><time>2026-04-18T13:38:55.145Z</time></trkpt><trkpt lat="41.525647" lon="13.1757927"><ele>145.0</ele><time>2026-04-18T13:38:56.144Z</time></trkpt><trkpt lat="41.5257808" lon="13.1758674"><ele>148.0</ele><time>2026-04-18T13:38:57.145Z</time></trkpt><trkpt lat="41.5259109" lon="13.1759578"><ele>151.0</ele><time>2026-04-18T13:38:58.145Z</time></trkpt><trkpt lat="41.5260415" lon="13.1760539"><ele>151.0</ele><time>2026-04-18T13:38:59.145Z</time></trkpt><trkpt lat="41.5261571" lon="13.1761623"><ele>151.0</ele><time>2026-04-18T13:39:00.145Z</time></trkpt><trkpt lat="41.5262809" lon="13.1763019"><ele>151.0</ele><time>2026-04-18T13:39:01.145Z</time></trkpt><trkpt lat="41.5263926" lon="13.176419"><ele>151.0</ele><time>2026-04-18T13:39:02.145Z</time></trkpt><trkpt lat="41.5265023" lon="13.1765408"><ele>152.5</ele><time>2026-04-18T13:39:03.144Z</time></trkpt><trkpt lat="41.5266149" lon="13.1766488"><ele>154.0</ele><time>2026-04-18T13:39:04.145Z</time></trkpt><trkpt lat="41.5267174" lon="13.1767543"><ele>155.5</ele><time>2026-04-18T13:39:05.145Z</time></trkpt><trkpt lat="41.5268148" lon="13.1768567"><ele>157.0</ele><time>2026-04-18T13:39:06.145Z</time></trkpt><trkpt lat="41.5269062" lon="13.1769586"><ele>157.0</ele><time>2026-04-18T13:39:07.145Z</time></trkpt><trkpt lat="41.5269924" lon="13.1770539"><ele>157.0</ele><time>2026-04-18T13:39:08.145Z</time></trkpt><trkpt lat="41.527074" lon="13.1771388"><ele>157.0</ele><time>2026-04-18T13:39:09.145Z</time></trkpt><trkpt lat="41.5271488" lon="13.177218"><ele>157.0</ele><time>2026-04-18T13:39:10.145Z</time></trkpt><trkpt lat="41.5272182" lon="13.1772848"><ele>157.0</ele><time>2026-04-18T13:39:11.145Z</time></trkpt><trkpt lat="41.5272762" lon="13.1773295"><ele>157.14285714285714</ele><time>2026-04-18T13:39:12.145Z</time></trkpt><trkpt lat="41.5273408" lon="13.1773636"><ele>157.28571428571428</ele><time>2026-04-18T13:39:13.144Z</time></trkpt><trkpt lat="41.527406" lon="13.1773758"><ele>157.42857142857144</ele><time>2026-04-18T13:39:14.144Z</time></trkpt><trkpt lat="41.5274764" lon="13.1773611"><ele>157.57142857142856</ele><time>2026-04-18T13:39:15.144Z</time></trkpt><trkpt lat="41.5275482" lon="13.1773143"><ele>157.71428571428572</ele><time>2026-04-18T13:39:16.145Z</time></trkpt><trkpt lat="41.5276141" lon="13.1772589"><ele>157.85714285714286</ele><time>2026-04-18T13:39:17.144Z</time></trkpt><trkpt lat="41.5276703" lon="13.1771957"><ele>158.0</ele><time>2026-04-18T13:39:18.145Z</time></trkpt><trkpt lat="41.5277179" lon="13.1771372"><ele>158.0</ele><time>2026-04-18T13:39:19.144Z</time></trkpt><trkpt lat="41.5277635" lon="13.1770744"><ele>158.0</ele><time>2026-04-18T13:39:20.145Z</time></trkpt><trkpt lat="41.5278765" lon="13.1770647"><ele>158.0</ele><time>2026-04-18T13:39:22.144Z</time></trkpt><trkpt lat="41.5279324" lon="13.1771359"><ele>158.0</ele><time>2026-04-18T13:39:23.145Z</time></trkpt><trkpt lat="41.527966" lon="13.1772288"><ele>158.0</ele><time>2026-04-18T13:39:24.145Z</time></trkpt><trkpt lat="41.5279947" lon="13.1773378"><ele>158.0</ele><time>2026-04-18T13:39:25.145Z</time></trkpt><trkpt lat="41.528015" lon="13.177455"><ele>161.0</ele><time>2026-04-18T13:39:26.145Z</time></trkpt><trkpt lat="41.528034" lon="13.1775771"><ele>164.0</ele><time>2026-04-18T13:39:27.145Z</time></trkpt><trkpt lat="41.5280579" lon="13.177702"><ele>167.0</ele><time>2026-04-18T13:39:28.145Z</time></trkpt><trkpt lat="41.5280867" lon="13.1778309"><ele>170.0</ele><time>2026-04-18T13:39:29.144Z</time></trkpt><trkpt lat="41.5281285" lon="13.1779621"><ele>173.0</ele><time>2026-04-18T13:39:30.145Z</time></trkpt><trkpt lat="41.5281812" lon="13.1780885"><ele>174.4</ele><time>2026-04-18T13:39:31.145Z</time></trkpt><trkpt lat="41.5282463" lon="13.1782147"><ele>175.8</ele><time>2026-04-18T13:39:32.145Z</time></trkpt><trkpt lat="41.5283168" lon="13.1783375"><ele>177.2</ele><time>2026-04-18T13:39:33.145Z</time></trkpt><trkpt lat="41.5283844" lon="13.1784526"><ele>178.6</ele><time>2026-04-18T13:39:34.144Z</time></trkpt><trkpt lat="41.5284423" lon="13.1785462"><ele>180.0</ele><time>2026-04-18T13:39:35.145Z</time></trkpt><trkpt lat="41.5284859" lon="13.1786304"><ele>180.0</ele><time>2026-04-18T13:39:36.145Z</time></trkpt><trkpt lat="41.5285258" lon="13.178708"><ele>180.0</ele><time>2026-04-18T13:39:37.145Z</time></trkpt><trkpt lat="41.5285703" lon="13.1787788"><ele>180.0</ele><time>2026-04-18T13:39:38.144Z</time></trkpt><trkpt lat="41.5286113" lon="13.1788536"><ele>180.0</ele><time>2026-04-18T13:39:39.145Z</time></trkpt><trkpt lat="41.5286486" lon="13.1789243"><ele>180.0</ele><time>2026-04-18T13:39:40.144Z</time></trkpt><trkpt lat="41.5287019" lon="13.1790291"><ele>180.0</ele><time>2026-04-18T13:39:42.144Z</time></trkpt><trkpt lat="41.528751" lon="13.1790989"><ele>180.0</ele><time>2026-04-18T13:39:44.144Z</time></trkpt><trkpt lat="41.5288247" lon="13.1790988"><ele>182.33333333333334</ele><time>2026-04-18T13:39:46.144Z</time></trkpt><trkpt lat="41.5288718" lon="13.1789821"><ele>184.66666666666669</ele><time>2026-04-18T13:39:48.143Z</time></trkpt><trkpt lat="41.5288363" lon="13.1788265"><ele>187.0</ele><time>2026-04-18T13:39:50.144Z</time></trkpt><trkpt lat="41.5288102" lon="13.178749"><ele>189.33333333333334</ele><time>2026-04-18T13:39:51.144Z</time></trkpt><trkpt lat="41.52879" lon="13.178667"><ele>191.66666666666669</ele><time>2026-04-18T13:39:52.144Z</time></trkpt><trkpt lat="41.5287811" lon="13.1785697"><ele>194.0</ele><time>2026-04-18T13:39:53.144Z</time></trkpt><trkpt lat="41.528787" lon="13.1784686"><ele>194.0</ele><time>2026-04-18T13:39:54.144Z</time></trkpt><trkpt lat="41.5288108" lon="13.1783862"><ele>194.0</ele><time>2026-04-18T13:39:55.143Z</time></trkpt><trkpt lat="41.5289078" lon="13.1783142"><ele>194.0</ele><time>2026-04-18T13:39:57.144Z</time></trkpt><trkpt lat="41.5290079" lon="13.17836"><ele>194.0</ele><time>2026-04-18T13:39:59.144Z</time></trkpt><trkpt lat="41.5290451" lon="13.1784292"><ele>194.0</ele><time>2026-04-18T13:40:00.143Z</time></trkpt><trkpt lat="41.5290633" lon="13.1785789"><ele>194.00000000000003</ele><time>2026-04-18T13:40:02.144Z</time></trkpt><trkpt lat="41.5290764" lon="13.1786735"><ele>194.0</ele><time>2026-04-18T13:40:03.144Z</time></trkpt><trkpt lat="41.5290993" lon="13.1787758"><ele>194.0</ele><time>2026-04-18T13:40:04.144Z</time></trkpt><trkpt lat="41.529133" lon="13.1788747"><ele>194.0</ele><time>2026-04-18T13:40:05.144Z</time></trkpt><trkpt lat="41.5291762" lon="13.1789707"><ele>194.00000000000003</ele><time>2026-04-18T13:40:06.144Z</time></trkpt><trkpt lat="41.5292209" lon="13.1790539"><ele>194.0</ele><time>2026-04-18T13:40:07.144Z</time></trkpt><trkpt lat="41.5292737" lon="13.1791333"><ele>194.39999999999998</ele><time>2026-04-18T13:40:08.144Z</time></trkpt><trkpt lat="41.5293316" lon="13.1792131"><ele>194.8</ele><time>2026-04-18T13:40:09.144Z</time></trkpt><trkpt lat="41.5293919" lon="13.1792891"><ele>195.2</ele><time>2026-04-18T13:40:10.144Z</time></trkpt><trkpt lat="41.5294497" lon="13.1793608"><ele>195.60000000000002</ele><time>2026-04-18T13:40:11.144Z</time></trkpt><trkpt lat="41.5294954" lon="13.1794197"><ele>196.0</ele><time>2026-04-18T13:40:12.144Z</time></trkpt><trkpt lat="41.5295067" lon="13.1796107"><ele>196.0</ele><time>2026-04-18T13:40:14.144Z</time></trkpt><trkpt lat="41.5294743" lon="13.1797711"><ele>196.0</ele><time>2026-04-18T13:40:15.144Z</time></trkpt><trkpt lat="41.5294152" lon="13.1799195"><ele>196.0</ele><time>2026-04-18T13:40:16.144Z</time></trkpt><trkpt lat="41.5293485" lon="13.1800749"><ele>196.0</ele><time>2026-04-18T13:40:17.144Z</time></trkpt><trkpt lat="41.5292794" lon="13.180227"><ele>197.25</ele><time>2026-04-18T13:40:18.143Z</time></trkpt><trkpt lat="41.5292225" lon="13.180372"><ele>198.5</ele><time>2026-04-18T13:40:19.144Z</time></trkpt><trkpt lat="41.5291616" lon="13.1805177"><ele>199.75</ele><time>2026-04-18T13:40:20.144Z</time></trkpt><trkpt lat="41.5290924" lon="13.180664"><ele>201.0</ele><time>2026-04-18T13:40:21.144Z</time></trkpt><trkpt lat="41.5290144" lon="13.1808165"><ele>200.5</ele><time>2026-04-18T13:40:22.143Z</time></trkpt><trkpt lat="41.5289316" lon="13.1809752"><ele>200.0</ele><time>2026-04-18T13:40:23.143Z</time></trkpt><trkpt lat="41.5288475" lon="13.1811306"><ele>199.5</ele><time>2026-04-18T13:40:24.144Z</time></trkpt><trkpt lat="41.5287657" lon="13.1812991"><ele>199.0</ele><time>2026-04-18T13:40:25.144Z</time></trkpt><trkpt lat="41.5286775" lon="13.1814671"><ele>204.75</ele><time>2026-04-18T13:40:26.144Z</time></trkpt><trkpt lat="41.5285913" lon="13.181631"><ele>210.5</ele><time>2026-04-18T13:40:27.144Z</time></trkpt><trkpt lat="41.5285035" lon="13.1817738"><ele>216.25</ele><time>2026-04-18T13:40:28.144Z</time></trkpt><trkpt lat="41.5284185" lon="13.1818955"><ele>222.0</ele><time>2026-04-18T13:40:29.143Z</time></trkpt><trkpt lat="41.5283303" lon="13.1819894"><ele>222.0</ele><time>2026-04-18T13:40:30.144Z</time></trkpt><trkpt lat="41.5282444" lon="13.1820688"><ele>222.0</ele><time>2026-04-18T13:40:31.144Z</time></trkpt><trkpt lat="41.528175" lon="13.1821346"><ele>222.0</ele><time>2026-04-18T13:40:32.144Z</time></trkpt><trkpt lat="41.5281241" lon="13.1822085"><ele>222.0</ele><time>2026-04-18T13:40:33.144Z</time></trkpt><trkpt lat="41.5281527" lon="13.182323"><ele>222.0</ele><time>2026-04-18T13:40:35.144Z</time></trkpt><trkpt lat="41.5282188" lon="13.18234"><ele>222.0</ele><time>2026-04-18T13:40:36.144Z</time></trkpt><trkpt lat="41.528316" lon="13.1823074"><ele>222.0</ele><time>2026-04-18T13:40:37.143Z</time></trkpt><trkpt lat="41.5284318" lon="13.1822245"><ele>222.0</ele><time>2026-04-18T13:40:38.144Z</time></trkpt><trkpt lat="41.5285424" lon="13.1821601"><ele>222.0</ele><time>2026-04-18T13:40:39.144Z</time></trkpt><trkpt lat="41.5286374" lon="13.1820944"><ele>222.0</ele><time>2026-04-18T13:40:40.144Z</time></trkpt><trkpt lat="41.5287137" lon="13.1820421"><ele>222.0</ele><time>2026-04-18T13:40:41.144Z</time></trkpt><trkpt lat="41.5287751" lon="13.1820123"><ele>222.0</ele><time>2026-04-18T13:40:42.143Z</time></trkpt><trkpt lat="41.528826" lon="13.1821224"><ele>222.0</ele><time>2026-04-18T13:40:44.144Z</time></trkpt><trkpt lat="41.5288016" lon="13.1822102"><ele>222.0</ele><time>2026-04-18T13:40:45.144Z</time></trkpt><trkpt lat="41.5287253" lon="13.1822631"><ele>222.0</ele><time>2026-04-18T13:40:46.144Z</time></trkpt><trkpt lat="41.528639" lon="13.1823274"><ele>222.0</ele><time>2026-04-18T13:40:47.144Z</time></trkpt><trkpt lat="41.528553" lon="13.1824174"><ele>227.5</ele><time>2026-04-18T13:40:48.143Z</time></trkpt><trkpt lat="41.5284633" lon="13.1825173"><ele>233.0</ele><time>2026-04-18T13:40:49.144Z</time></trkpt><trkpt lat="41.5283489" lon="13.1826282"><ele>238.5</ele><time>2026-04-18T13:40:50.144Z</time></trkpt><trkpt lat="41.5282292" lon="13.1827438"><ele>244.0</ele><time>2026-04-18T13:40:51.144Z</time></trkpt><trkpt lat="41.5281004" lon="13.182867"><ele>244.0</ele><time>2026-04-18T13:40:52.144Z</time></trkpt><trkpt lat="41.5279638" lon="13.1830046"><ele>244.0</ele><time>2026-04-18T13:40:53.144Z</time></trkpt><trkpt lat="41.5278339" lon="13.1831532"><ele>244.0</ele><time>2026-04-18T13:40:54.144Z</time></trkpt><trkpt lat="41.5277032" lon="13.1832897"><ele>248.0</ele><time>2026-04-18T13:40:55.144Z</time></trkpt><trkpt lat="41.5275623" lon="13.1834062"><ele>252.0</ele><time>2026-04-18T13:40:56.144Z</time></trkpt><trkpt lat="41.5274118" lon="13.1834935"><ele>256.0</ele><time>2026-04-18T13:40:57.144Z</time></trkpt><trkpt lat="41.5272569" lon="13.1835626"><ele>256.0</ele><time>2026-04-18T13:40:58.144Z</time></trkpt><trkpt lat="41.5270936" lon="13.1836071"><ele>256.0</ele><time>2026-04-18T13:40:59.144Z</time></trkpt><trkpt lat="41.52693" lon="13.1836351"><ele>256.0</ele><time>2026-04-18T13:41:00.143Z</time></trkpt><trkpt lat="41.5267682" lon="13.1836597"><ele>257.0</ele><time>2026-04-18T13:41:01.144Z</time></trkpt><trkpt lat="41.5265995" lon="13.183675"><ele>258.0</ele><time>2026-04-18T13:41:02.144Z</time></trkpt><trkpt lat="41.526435" lon="13.1836739"><ele>259.0</ele><time>2026-04-18T13:41:03.144Z</time></trkpt><trkpt lat="41.526266" lon="13.183675"><ele>266.3333333333333</ele><time>2026-04-18T13:41:04.144Z</time></trkpt><trkpt lat="41.5261006" lon="13.1836837"><ele>273.6666666666667</ele><time>2026-04-18T13:41:05.144Z</time></trkpt><trkpt lat="41.5259383" lon="13.1836968"><ele>281.0</ele><time>2026-04-18T13:41:06.144Z</time></trkpt><trkpt lat="41.5257818" lon="13.1837174"><ele>281.0</ele><time>2026-04-18T13:41:07.144Z</time></trkpt><trkpt lat="41.5256323" lon="13.1837431"><ele>281.0</ele><time>2026-04-18T13:41:08.144Z</time></trkpt><trkpt lat="41.5254857" lon="13.1837658"><ele>281.0</ele><time>2026-04-18T13:41:09.143Z</time></trkpt><trkpt lat="41.525347" lon="13.18378"><ele>281.0</ele><time>2026-04-18T13:41:10.144Z</time></trkpt><trkpt lat="41.5252199" lon="13.1837846"><ele>284.6</ele><time>2026-04-18T13:41:11.144Z</time></trkpt><trkpt lat="41.5251053" lon="13.1837789"><ele>288.20000000000005</ele><time>2026-04-18T13:41:12.144Z</time></trkpt><trkpt lat="41.5250052" lon="13.1837545"><ele>291.79999999999995</ele><time>2026-04-18T13:41:13.144Z</time></trkpt><trkpt lat="41.5249113" lon="13.1837265"><ele>295.4</ele><time>2026-04-18T13:41:14.143Z</time></trkpt><trkpt lat="41.5248289" lon="13.1836761"><ele>299.0</ele><time>2026-04-18T13:41:15.144Z</time></trkpt><trkpt lat="41.5247451" lon="13.1836259"><ele>299.0</ele><time>2026-04-18T13:41:16.144Z</time></trkpt><trkpt lat="41.5246572" lon="13.1835718"><ele>299.0</ele><time>2026-04-18T13:41:17.144Z</time></trkpt><trkpt lat="41.524569" lon="13.1835122"><ele>299.0</ele><time>2026-04-18T13:41:18.144Z</time></trkpt><trkpt lat="41.5244743" lon="13.1834425"><ele>299.0</ele><time>2026-04-18T13:41:19.144Z</time></trkpt><trkpt lat="41.5243808" lon="13.1833506"><ele>299.0</ele><time>2026-04-18T13:41:20.144Z</time></trkpt><trkpt lat="41.5242698" lon="13.183258"><ele>305.75</ele><time>2026-04-18T13:41:21.144Z</time></trkpt><trkpt lat="41.5241532" lon="13.1831473"><ele>312.5</ele><time>2026-04-18T13:41:22.144Z</time></trkpt><trkpt lat="41.524034" lon="13.1830429"><ele>319.25</ele><time>2026-04-18T13:41:23.144Z</time></trkpt><trkpt lat="41.5239181" lon="13.1829305"><ele>326.0</ele><time>2026-04-18T13:41:24.143Z</time></trkpt><trkpt lat="41.5238064" lon="13.1828304"><ele>325.75</ele><time>2026-04-18T13:41:25.144Z</time></trkpt><trkpt lat="41.5236969" lon="13.182736"><ele>325.5</ele><time>2026-04-18T13:41:26.144Z</time></trkpt><trkpt lat="41.5235987" lon="13.1826466"><ele>325.25</ele><time>2026-04-18T13:41:27.143Z</time></trkpt><trkpt lat="41.5235122" lon="13.1825603"><ele>325.0</ele><time>2026-04-18T13:41:28.144Z</time></trkpt><trkpt lat="41.523414" lon="13.1824906"><ele>325.0</ele><time>2026-04-18T13:41:29.144Z</time></trkpt><trkpt lat="41.5233206" lon="13.1824236"><ele>325.0</ele><time>2026-04-18T13:41:30.144Z</time></trkpt><trkpt lat="41.5232406" lon="13.1823654"><ele>325.0</ele><time>2026-04-18T13:41:31.144Z</time></trkpt><trkpt lat="41.5231838" lon="13.1823238"><ele>325.0</ele><time>2026-04-18T13:41:32.144Z</time></trkpt><trkpt lat="41.523127" lon="13.1822498"><ele>325.0</ele><time>2026-04-18T13:41:34.144Z</time></trkpt><trkpt lat="41.5230397" lon="13.182185"><ele>325.0</ele><time>2026-04-18T13:41:37.144Z</time></trkpt><trkpt lat="41.5229553" lon="13.182149"><ele>325.0</ele><time>2026-04-18T13:41:39.144Z</time></trkpt><trkpt lat="41.5228815" lon="13.1822091"><ele>325.0</ele><time>2026-04-18T13:41:41.144Z</time></trkpt><trkpt lat="41.5229037" lon="13.1823306"><ele>325.0</ele><time>2026-04-18T13:41:43.144Z</time></trkpt><trkpt lat="41.5230035" lon="13.1824155"><ele>325.0</ele><time>2026-04-18T13:41:45.144Z</time></trkpt><trkpt lat="41.523073" lon="13.1824791"><ele>325.0</ele><time>2026-04-18T13:41:46.144Z</time></trkpt><trkpt lat="41.5231538" lon="13.1825742"><ele>325.0</ele><time>2026-04-18T13:41:47.144Z</time></trkpt><trkpt lat="41.5232355" lon="13.1826794"><ele>325.0</ele><time>2026-04-18T13:41:48.144Z</time></trkpt><trkpt lat="41.5233287" lon="13.1828004"><ele>325.0</ele><time>2026-04-18T13:41:49.144Z</time></trkpt><trkpt lat="41.5234178" lon="13.18294"><ele>325.0</ele><time>2026-04-18T13:41:50.144Z</time></trkpt><trkpt lat="41.5235061" lon="13.183082"><ele>326.66666666666663</ele><time>2026-04-18T13:41:51.143Z</time></trkpt><trkpt lat="41.5235964" lon="13.1832435"><ele>328.3333333333333</ele><time>2026-04-18T13:41:52.144Z</time></trkpt><trkpt lat="41.5236904" lon="13.183427"><ele>330.0</ele><time>2026-04-18T13:41:53.144Z</time></trkpt><trkpt lat="41.5237888" lon="13.1835852"><ele>327.3333333333333</ele><time>2026-04-18T13:41:54.144Z</time></trkpt><trkpt lat="41.5238874" lon="13.1837529"><ele>324.66666666666663</ele><time>2026-04-18T13:41:55.144Z</time></trkpt><trkpt lat="41.5239824" lon="13.1839073"><ele>322.0</ele><time>2026-04-18T13:41:56.144Z</time></trkpt><trkpt lat="41.5240754" lon="13.1840579"><ele>322.0</ele><time>2026-04-18T13:41:57.144Z</time></trkpt><trkpt lat="41.5241722" lon="13.1842221"><ele>322.0</ele><time>2026-04-18T13:41:58.144Z</time></trkpt><trkpt lat="41.5242657" lon="13.1843838"><ele>322.0</ele><time>2026-04-18T13:41:59.144Z</time></trkpt><trkpt lat="41.5243653" lon="13.1845315"><ele>322.0</ele><time>2026-04-18T13:42:00.144Z</time></trkpt><trkpt lat="41.5244481" lon="13.1847037"><ele>322.0</ele><time>2026-04-18T13:42:01.144Z</time></trkpt><trkpt lat="41.5245319" lon="13.1848504"><ele>322.0</ele><time>2026-04-18T13:42:02.144Z</time></trkpt><trkpt lat="41.5246167" lon="13.1849921"><ele>322.0</ele><time>2026-04-18T13:42:03.144Z</time></trkpt><trkpt lat="41.5247029" lon="13.1851306"><ele>319.5</ele><time>2026-04-18T13:42:04.144Z</time></trkpt><trkpt lat="41.5247794" lon="13.1852665"><ele>317.0</ele><time>2026-04-18T13:42:05.144Z</time></trkpt><trkpt lat="41.5248546" lon="13.1853986"><ele>314.5</ele><time>2026-04-18T13:42:06.144Z</time></trkpt><trkpt lat="41.5249287" lon="13.1855244"><ele>312.0</ele><time>2026-04-18T13:42:07.144Z</time></trkpt><trkpt lat="41.5249948" lon="13.1856539"><ele>315.4</ele><time>2026-04-18T13:42:08.144Z</time></trkpt><trkpt lat="41.5250603" lon="13.185781"><ele>318.79999999999995</ele><time>2026-04-18T13:42:09.144Z</time></trkpt><trkpt lat="41.5251225" lon="13.1859108"><ele>322.2</ele><time>2026-04-18T13:42:10.143Z</time></trkpt><trkpt lat="41.5251778" lon="13.1860336"><ele>325.59999999999997</ele><time>2026-04-18T13:42:11.144Z</time></trkpt><trkpt lat="41.5252302" lon="13.186149"><ele>329.0</ele><time>2026-04-18T13:42:12.144Z</time></trkpt><trkpt lat="41.5252877" lon="13.186247"><ele>329.0</ele><time>2026-04-18T13:42:13.144Z</time></trkpt><trkpt lat="41.5253408" lon="13.1863294"><ele>329.0</ele><time>2026-04-18T13:42:14.144Z</time></trkpt><trkpt lat="41.5253856" lon="13.1863997"><ele>329.0</ele><time>2026-04-18T13:42:15.144Z</time></trkpt><trkpt lat="41.5254023" lon="13.1865213"><ele>329.0</ele><time>2026-04-18T13:42:17.143Z</time></trkpt><trkpt lat="41.5253093" lon="13.1865457"><ele>329.0</ele><time>2026-04-18T13:42:19.144Z</time></trkpt><trkpt lat="41.5251991" lon="13.1864974"><ele>329.0</ele><time>2026-04-18T13:42:21.144Z</time></trkpt><trkpt lat="41.5250679" lon="13.1864847"><ele>329.0</ele><time>2026-04-18T13:42:23.143Z</time></trkpt><trkpt lat="41.5249916" lon="13.1864873"><ele>329.0</ele><time>2026-04-18T13:42:24.144Z</time></trkpt><trkpt lat="41.5249096" lon="13.1864802"><ele>329.0</ele><time>2026-04-18T13:42:25.144Z</time></trkpt><trkpt lat="41.5248356" lon="13.1864766"><ele>329.0</ele><time>2026-04-18T13:42:26.144Z</time></trkpt><trkpt lat="41.5247832" lon="13.1865781"><ele>330.5</ele><time>2026-04-18T13:42:28.144Z</time></trkpt><trkpt lat="41.5248885" lon="13.1867157"><ele>332.0</ele><time>2026-04-18T13:42:30.144Z</time></trkpt><trkpt lat="41.5249781" lon="13.186781"><ele>333.5</ele><time>2026-04-18T13:42:31.144Z</time></trkpt><trkpt lat="41.5250789" lon="13.1868473"><ele>335.0</ele><time>2026-04-18T13:42:32.144Z</time></trkpt><trkpt lat="41.525176" lon="13.1869169"><ele>335.0</ele><time>2026-04-18T13:42:33.143Z</time></trkpt><trkpt lat="41.5252691" lon="13.1870033"><ele>335.0</ele><time>2026-04-18T13:42:34.144Z</time></trkpt><trkpt lat="41.5253496" lon="13.1871084"><ele>335.0</ele><time>2026-04-18T13:42:35.144Z</time></trkpt><trkpt lat="41.5254292" lon="13.1872291"><ele>335.0</ele><time>2026-04-18T13:42:36.144Z</time></trkpt><trkpt lat="41.5254881" lon="13.1873602"><ele>338.4</ele><time>2026-04-18T13:42:37.144Z</time></trkpt><trkpt lat="41.5255342" lon="13.1874865"><ele>341.8</ele><time>2026-04-18T13:42:38.143Z</time></trkpt><trkpt lat="41.5255814" lon="13.1875906"><ele>345.20000000000005</ele><time>2026-04-18T13:42:39.144Z</time></trkpt><trkpt lat="41.5256312" lon="13.187657"><ele>348.6</ele><time>2026-04-18T13:42:40.144Z</time></trkpt><trkpt lat="41.5257006" lon="13.187673"><ele>352.0</ele><time>2026-04-18T13:42:41.144Z</time></trkpt><trkpt lat="41.5258263" lon="13.1876301"><ele>352.0</ele><time>2026-04-18T13:42:43.144Z</time></trkpt><trkpt lat="41.5258921" lon="13.1875772"><ele>352.0</ele><time>2026-04-18T13:42:44.144Z</time></trkpt><trkpt lat="41.525966" lon="13.1875117"><ele>352.0</ele><time>2026-04-18T13:42:45.144Z</time></trkpt><trkpt lat="41.5260484" lon="13.1874575"><ele>352.0</ele><time>2026-04-18T13:42:46.144Z</time></trkpt><trkpt lat="41.5261429" lon="13.1873936"><ele>352.0</ele><time>2026-04-18T13:42:47.144Z</time></trkpt><trkpt lat="41.5262385" lon="13.1873313"><ele>351.6</ele><time>2026-04-18T13:42:48.144Z</time></trkpt><trkpt lat="41.5263353" lon="13.1872753"><ele>351.20000000000005</ele><time>2026-04-18T13:42:49.144Z</time></trkpt><trkpt lat="41.5264405" lon="13.1872341"><ele>350.8</ele><time>2026-04-18T13:42:50.144Z</time></trkpt><trkpt lat="41.5265475" lon="13.1872009"><ele>350.4</ele><time>2026-04-18T13:42:51.144Z</time></trkpt><trkpt lat="41.5266529" lon="13.1871836"><ele>350.0</ele><time>2026-04-18T13:42:52.144Z</time></trkpt><trkpt lat="41.5267493" lon="13.1871645"><ele>350.0</ele><time>2026-04-18T13:42:53.144Z</time></trkpt><trkpt lat="41.5268269" lon="13.1871284"><ele>350.0</ele><time>2026-04-18T13:42:54.144Z</time></trkpt><trkpt lat="41.5269036" lon="13.1870776"><ele>350.0</ele><time>2026-04-18T13:42:55.144Z</time></trkpt><trkpt lat="41.526973" lon="13.1870062"><ele>350.0</ele><time>2026-04-18T13:42:56.144Z</time></trkpt><trkpt lat="41.5270396" lon="13.1869277"><ele>350.0</ele><time>2026-04-18T13:42:57.144Z</time></trkpt><trkpt lat="41.527102" lon="13.1868427"><ele>350.0</ele><time>2026-04-18T13:42:58.144Z</time></trkpt><trkpt lat="41.5271595" lon="13.1867599"><ele>353.5</ele><time>2026-04-18T13:42:59.144Z</time></trkpt><trkpt lat="41.5272112" lon="13.1866899"><ele>357.0</ele><time>2026-04-18T13:43:00.144Z</time></trkpt><trkpt lat="41.5272614" lon="13.186622"><ele>360.5</ele><time>2026-04-18T13:43:01.143Z</time></trkpt><trkpt lat="41.5273406" lon="13.1865318"><ele>364.0</ele><time>2026-04-18T13:43:03.143Z</time></trkpt><trkpt lat="41.5273989" lon="13.1865888"><ele>367.5</ele><time>2026-04-18T13:43:05.143Z</time></trkpt><trkpt lat="41.5273718" lon="13.1867381"><ele>371.0</ele><time>2026-04-18T13:43:07.144Z</time></trkpt><trkpt lat="41.5273288" lon="13.1868344"><ele>371.0</ele><time>2026-04-18T13:43:08.144Z</time></trkpt><trkpt lat="41.5272675" lon="13.1869746"><ele>371.0</ele><time>2026-04-18T13:43:09.144Z</time></trkpt><trkpt lat="41.5272055" lon="13.1871435"><ele>371.0</ele><time>2026-04-18T13:43:10.144Z</time></trkpt><trkpt lat="41.5271498" lon="13.1873206"><ele>371.0</ele><time>2026-04-18T13:43:11.144Z</time></trkpt><trkpt lat="41.5270945" lon="13.1874694"><ele>370.0</ele><time>2026-04-18T13:43:12.144Z</time></trkpt><trkpt lat="41.5270266" lon="13.1876195"><ele>369.0</ele><time>2026-04-18T13:43:13.144Z</time></trkpt><trkpt lat="41.5269301" lon="13.1877665"><ele>368.0</ele><time>2026-04-18T13:43:14.144Z</time></trkpt><trkpt lat="41.5268297" lon="13.1879186"><ele>367.0</ele><time>2026-04-18T13:43:15.144Z</time></trkpt><trkpt lat="41.5267314" lon="13.188063"><ele>372.25</ele><time>2026-04-18T13:43:16.144Z</time></trkpt><trkpt lat="41.5266417" lon="13.1882041"><ele>377.5</ele><time>2026-04-18T13:43:17.143Z</time></trkpt><trkpt lat="41.5265652" lon="13.1883442"><ele>382.75</ele><time>2026-04-18T13:43:18.144Z</time></trkpt><trkpt lat="41.5265051" lon="13.1884694"><ele>388.0</ele><time>2026-04-18T13:43:19.144Z</time></trkpt><trkpt lat="41.5264628" lon="13.1885934"><ele>388.0</ele><time>2026-04-18T13:43:20.144Z</time></trkpt><trkpt lat="41.5264373" lon="13.1887298"><ele>388.0</ele><time>2026-04-18T13:43:21.143Z</time></trkpt><trkpt lat="41.5264197" lon="13.1888834"><ele>388.0</ele><time>2026-04-18T13:43:22.143Z</time></trkpt><trkpt lat="41.5264206" lon="13.1890427"><ele>388.0</ele><time>2026-04-18T13:43:23.144Z</time></trkpt><trkpt lat="41.5264328" lon="13.1892067"><ele>390.0</ele><time>2026-04-18T13:43:24.144Z</time></trkpt><trkpt lat="41.5264622" lon="13.1893756"><ele>392.0</ele><time>2026-04-18T13:43:25.143Z</time></trkpt><trkpt lat="41.5264928" lon="13.18955"><ele>394.0</ele><time>2026-04-18T13:43:26.144Z</time></trkpt><trkpt lat="41.5265182" lon="13.1897315"><ele>396.0</ele><time>2026-04-18T13:43:27.144Z</time></trkpt><trkpt lat="41.5265459" lon="13.1899107"><ele>396.5</ele><time>2026-04-18T13:43:28.144Z</time></trkpt><trkpt lat="41.5265715" lon="13.1900825"><ele>397.0</ele><time>2026-04-18T13:43:29.143Z</time></trkpt><trkpt lat="41.5266013" lon="13.1902377"><ele>397.5</ele><time>2026-04-18T13:43:30.144Z</time></trkpt><trkpt lat="41.5266443" lon="13.1903838"><ele>398.0</ele><time>2026-04-18T13:43:31.144Z</time></trkpt><trkpt lat="41.526703" lon="13.1905311"><ele>396.75</ele><time>2026-04-18T13:43:32.144Z</time></trkpt><trkpt lat="41.5267747" lon="13.1906864"><ele>395.5</ele><time>2026-04-18T13:43:33.144Z</time></trkpt><trkpt lat="41.5268596" lon="13.1908522"><ele>394.25</ele><time>2026-04-18T13:43:34.144Z</time></trkpt><trkpt lat="41.5269399" lon="13.1910288"><ele>393.0</ele><time>2026-04-18T13:43:35.144Z</time></trkpt><trkpt lat="41.5270172" lon="13.1912075"><ele>401.5</ele><time>2026-04-18T13:43:36.144Z</time></trkpt><trkpt lat="41.527088" lon="13.1913798"><ele>410.0</ele><time>2026-04-18T13:43:37.144Z</time></trkpt><trkpt lat="41.5271486" lon="13.1915471"><ele>418.5</ele><time>2026-04-18T13:43:38.144Z</time></trkpt><trkpt lat="41.5272104" lon="13.191706"><ele>427.0</ele><time>2026-04-18T13:43:39.144Z</time></trkpt><trkpt lat="41.5272841" lon="13.1918524"><ele>427.0</ele><time>2026-04-18T13:43:40.144Z</time></trkpt><trkpt lat="41.5273723" lon="13.1919964"><ele>427.0</ele><time>2026-04-18T13:43:41.144Z</time></trkpt><trkpt lat="41.5274654" lon="13.1921629"><ele>427.0</ele><time>2026-04-18T13:43:42.144Z</time></trkpt><trkpt lat="41.5275497" lon="13.1923496"><ele>422.0</ele><time>2026-04-18T13:43:43.144Z</time></trkpt><trkpt lat="41.5276387" lon="13.1925408"><ele>417.0</ele><time>2026-04-18T13:43:44.144Z</time></trkpt><trkpt lat="41.5277319" lon="13.1927304"><ele>412.0</ele><time>2026-04-18T13:43:45.144Z</time></trkpt><trkpt lat="41.5278233" lon="13.1929098"><ele>420.5</ele><time>2026-04-18T13:43:46.144Z</time></trkpt><trkpt lat="41.5279105" lon="13.193082"><ele>429.0</ele><time>2026-04-18T13:43:47.143Z</time></trkpt><trkpt lat="41.5279981" lon="13.1932267"><ele>437.5</ele><time>2026-04-18T13:43:48.144Z</time></trkpt><trkpt lat="41.5280843" lon="13.1933473"><ele>446.0</ele><time>2026-04-18T13:43:49.144Z</time></trkpt><trkpt lat="41.5281613" lon="13.1934484"><ele>445.99999999999994</ele><time>2026-04-18T13:43:50.144Z</time></trkpt><trkpt lat="41.5282284" lon="13.1935301"><ele>446.0</ele><time>2026-04-18T13:43:51.144Z</time></trkpt><trkpt lat="41.5282965" lon="13.1935987"><ele>446.0</ele><time>2026-04-18T13:43:52.144Z</time></trkpt><trkpt lat="41.52835" lon="13.1936731"><ele>446.0</ele><time>2026-04-18T13:43:53.143Z</time></trkpt><trkpt lat="41.5283832" lon="13.1937679"><ele>445.99999999999994</ele><time>2026-04-18T13:43:54.144Z</time></trkpt><trkpt lat="41.5284041" lon="13.1938751"><ele>446.0</ele><time>2026-04-18T13:43:55.144Z</time></trkpt><trkpt lat="41.5284023" lon="13.1939831"><ele>445.25</ele><time>2026-04-18T13:43:56.144Z</time></trkpt><trkpt lat="41.5283834" lon="13.194084"><ele>444.5</ele><time>2026-04-18T13:43:57.144Z</time></trkpt><trkpt lat="41.5283381" lon="13.1942062"><ele>443.75</ele><time>2026-04-18T13:43:58.144Z</time></trkpt><trkpt lat="41.5282811" lon="13.1943615"><ele>443.0</ele><time>2026-04-18T13:43:59.144Z</time></trkpt><trkpt lat="41.5282288" lon="13.1945524"><ele>443.0</ele><time>2026-04-18T13:44:00.143Z</time></trkpt><trkpt lat="41.5281736" lon="13.1947321"><ele>443.0</ele><time>2026-04-18T13:44:01.143Z</time></trkpt><trkpt lat="41.5281306" lon="13.1949007"><ele>443.0</ele><time>2026-04-18T13:44:02.144Z</time></trkpt><trkpt lat="41.5280889" lon="13.1950427"><ele>443.0</ele><time>2026-04-18T13:44:03.144Z</time></trkpt><trkpt lat="41.5280628" lon="13.1951783"><ele>445.2</ele><time>2026-04-18T13:44:04.143Z</time></trkpt><trkpt lat="41.5280543" lon="13.1953174"><ele>447.4</ele><time>2026-04-18T13:44:05.144Z</time></trkpt><trkpt lat="41.528068" lon="13.1954537"><ele>449.59999999999997</ele><time>2026-04-18T13:44:06.144Z</time></trkpt><trkpt lat="41.5281031" lon="13.1955864"><ele>451.79999999999995</ele><time>2026-04-18T13:44:07.144Z</time></trkpt><trkpt lat="41.528135" lon="13.1957056"><ele>454.0</ele><time>2026-04-18T13:44:08.144Z</time></trkpt><trkpt lat="41.5281843" lon="13.1958101"><ele>454.0</ele><time>2026-04-18T13:44:09.144Z</time></trkpt><trkpt lat="41.5282411" lon="13.1959159"><ele>454.0</ele><time>2026-04-18T13:44:10.144Z</time></trkpt><trkpt lat="41.5283012" lon="13.1960131"><ele>454.0</ele><time>2026-04-18T13:44:11.144Z</time></trkpt><trkpt lat="41.5283549" lon="13.1961077"><ele>454.0</ele><time>2026-04-18T13:44:12.144Z</time></trkpt><trkpt lat="41.528395" lon="13.1962252"><ele>454.0</ele><time>2026-04-18T13:44:13.144Z</time></trkpt><trkpt lat="41.5284294" lon="13.1963621"><ele>452.0</ele><time>2026-04-18T13:44:14.144Z</time></trkpt><trkpt lat="41.5284464" lon="13.1965176"><ele>450.0</ele><time>2026-04-18T13:44:15.144Z</time></trkpt><trkpt lat="41.5284629" lon="13.1966823"><ele>448.0</ele><time>2026-04-18T13:44:16.144Z</time></trkpt><trkpt lat="41.5284792" lon="13.1968836"><ele>446.0</ele><time>2026-04-18T13:44:17.144Z</time></trkpt><trkpt lat="41.5284917" lon="13.1970929"><ele>446.0</ele><time>2026-04-18T13:44:18.143Z</time></trkpt><trkpt lat="41.5284948" lon="13.1972936"><ele>446.0</ele><time>2026-04-18T13:44:19.144Z</time></trkpt><trkpt lat="41.52849" lon="13.1974949"><ele>446.0</ele><time>2026-04-18T13:44:20.143Z</time></trkpt><trkpt lat="41.5284689" lon="13.1976787"><ele>446.0</ele><time>2026-04-18T13:44:21.144Z</time></trkpt><trkpt lat="41.5284341" lon="13.1978543"><ele>446.25</ele><time>2026-04-18T13:44:22.144Z</time></trkpt><trkpt lat="41.5283897" lon="13.1980324"><ele>446.5</ele><time>2026-04-18T13:44:23.142Z</time></trkpt><trkpt lat="41.5283431" lon="13.1982116"><ele>446.75</ele><time>2026-04-18T13:44:24.144Z</time></trkpt><trkpt lat="41.5282981" lon="13.1983723"><ele>447.0</ele><time>2026-04-18T13:44:25.144Z</time></trkpt><trkpt lat="41.5282661" lon="13.1985222"><ele>448.0</ele><time>2026-04-18T13:44:26.144Z</time></trkpt><trkpt lat="41.5282539" lon="13.1986466"><ele>449.00000000000006</ele><time>2026-04-18T13:44:27.144Z</time></trkpt><trkpt lat="41.5282721" lon="13.1987592"><ele>450.00000000000006</ele><time>2026-04-18T13:44:28.143Z</time></trkpt><trkpt lat="41.5283009" lon="13.1988973"><ele>451.0</ele><time>2026-04-18T13:44:29.144Z</time></trkpt><trkpt lat="41.5283452" lon="13.1990486"><ele>452.0</ele><time>2026-04-18T13:44:30.144Z</time></trkpt><trkpt lat="41.528398" lon="13.1992148"><ele>452.0</ele><time>2026-04-18T13:44:31.144Z</time></trkpt><trkpt lat="41.528471" lon="13.1993825"><ele>452.0</ele><time>2026-04-18T13:44:32.144Z</time></trkpt><trkpt lat="41.5285525" lon="13.1995462"><ele>452.0</ele><time>2026-04-18T13:44:33.144Z</time></trkpt><trkpt lat="41.5286414" lon="13.1997127"><ele>452.0</ele><time>2026-04-18T13:44:34.144Z</time></trkpt><trkpt lat="41.5287345" lon="13.1998798"><ele>464.0</ele><time>2026-04-18T13:44:35.143Z</time></trkpt><trkpt lat="41.5288405" lon="13.2000523"><ele>476.0</ele><time>2026-04-18T13:44:36.144Z</time></trkpt><trkpt lat="41.5289516" lon="13.2002202"><ele>488.0</ele><time>2026-04-18T13:44:37.144Z</time></trkpt><trkpt lat="41.5290653" lon="13.2003887"><ele>488.0</ele><time>2026-04-18T13:44:38.144Z</time></trkpt><trkpt lat="41.5291723" lon="13.2005523"><ele>488.0</ele><time>2026-04-18T13:44:39.144Z</time></trkpt><trkpt lat="41.5292733" lon="13.200707"><ele>488.0</ele><time>2026-04-18T13:44:40.143Z</time></trkpt><trkpt lat="41.5293716" lon="13.2008596"><ele>482.75</ele><time>2026-04-18T13:44:41.144Z</time></trkpt><trkpt lat="41.5294687" lon="13.200992"><ele>477.5</ele><time>2026-04-18T13:44:42.144Z</time></trkpt><trkpt lat="41.5295634" lon="13.2010979"><ele>472.25</ele><time>2026-04-18T13:44:43.144Z</time></trkpt><trkpt lat="41.5296458" lon="13.2011874"><ele>467.0</ele><time>2026-04-18T13:44:44.144Z</time></trkpt><trkpt lat="41.5297181" lon="13.2012574"><ele>467.16666666666663</ele><time>2026-04-18T13:44:45.144Z</time></trkpt><trkpt lat="41.5297605" lon="13.2013362"><ele>467.3333333333333</ele><time>2026-04-18T13:44:46.144Z</time></trkpt><trkpt lat="41.5297739" lon="13.2014195"><ele>467.5</ele><time>2026-04-18T13:44:47.143Z</time></trkpt><trkpt lat="41.5297643" lon="13.2015076"><ele>467.66666666666663</ele><time>2026-04-18T13:44:48.143Z</time></trkpt><trkpt lat="41.5297249" lon="13.2015894"><ele>467.8333333333333</ele><time>2026-04-18T13:44:49.144Z</time></trkpt><trkpt lat="41.529658" lon="13.2016947"><ele>468.0</ele><time>2026-04-18T13:44:50.144Z</time></trkpt><trkpt lat="41.5295587" lon="13.2018304"><ele>468.0</ele><time>2026-04-18T13:44:51.144Z</time></trkpt><trkpt lat="41.5294288" lon="13.20198"><ele>468.0</ele><time>2026-04-18T13:44:52.144Z</time></trkpt><trkpt lat="41.5292924" lon="13.2021213"><ele>468.0</ele><time>2026-04-18T13:44:53.144Z</time></trkpt><trkpt lat="41.5291492" lon="13.2022633"><ele>483.0</ele><time>2026-04-18T13:44:54.144Z</time></trkpt><trkpt lat="41.5290059" lon="13.2024101"><ele>498.0</ele><time>2026-04-18T13:44:55.144Z</time></trkpt><trkpt lat="41.5288737" lon="13.2025451"><ele>513.0</ele><time>2026-04-18T13:44:56.144Z</time></trkpt><trkpt lat="41.5287348" lon="13.2026644"><ele>506.33333333333337</ele><time>2026-04-18T13:44:57.144Z</time></trkpt><trkpt lat="41.5285964" lon="13.2027768"><ele>499.6666666666667</ele><time>2026-04-18T13:44:58.144Z</time></trkpt><trkpt lat="41.5284524" lon="13.2028416"><ele>493.0</ele><time>2026-04-18T13:44:59.144Z</time></trkpt><trkpt lat="41.5283183" lon="13.2029111"><ele>493.0</ele><time>2026-04-18T13:45:00.144Z</time></trkpt><trkpt lat="41.5281825" lon="13.2029787"><ele>493.0</ele><time>2026-04-18T13:45:01.144Z</time></trkpt><trkpt lat="41.5280365" lon="13.2030412"><ele>493.0</ele><time>2026-04-18T13:45:02.144Z</time></trkpt><trkpt lat="41.5278719" lon="13.2031201"><ele>501.25</ele><time>2026-04-18T13:45:03.144Z</time></trkpt><trkpt lat="41.5277216" lon="13.2031669"><ele>509.5</ele><time>2026-04-18T13:45:04.144Z</time></trkpt><trkpt lat="41.5275882" lon="13.2032131"><ele>517.75</ele><time>2026-04-18T13:45:05.143Z</time></trkpt><trkpt lat="41.5274755" lon="13.2032537"><ele>526.0</ele><time>2026-04-18T13:45:06.144Z</time></trkpt><trkpt lat="41.5273777" lon="13.2032832"><ele>526.0</ele><time>2026-04-18T13:45:07.144Z</time></trkpt><trkpt lat="41.5272841" lon="13.2032953"><ele>526.0</ele><time>2026-04-18T13:45:08.144Z</time></trkpt><trkpt lat="41.5271979" lon="13.2032984"><ele>526.0</ele><time>2026-04-18T13:45:09.144Z</time></trkpt><trkpt lat="41.5271166" lon="13.203303"><ele>526.0</ele><time>2026-04-18T13:45:10.144Z</time></trkpt><trkpt lat="41.5270373" lon="13.2032991"><ele>526.0</ele><time>2026-04-18T13:45:11.144Z</time></trkpt><trkpt lat="41.5269523" lon="13.2032854"><ele>526.0</ele><time>2026-04-18T13:45:12.144Z</time></trkpt><trkpt lat="41.5268668" lon="13.2032673"><ele>527.0</ele><time>2026-04-18T13:45:13.144Z</time></trkpt><trkpt lat="41.5267862" lon="13.203262"><ele>528.0</ele><time>2026-04-18T13:45:14.144Z</time></trkpt><trkpt lat="41.5267085" lon="13.2032639"><ele>529.0</ele><time>2026-04-18T13:45:15.144Z</time></trkpt><trkpt lat="41.5266245" lon="13.2032757"><ele>530.0</ele><time>2026-04-18T13:45:16.144Z</time></trkpt><trkpt lat="41.5265446" lon="13.203286"><ele>531.0</ele><time>2026-04-18T13:45:17.144Z</time></trkpt><trkpt lat="41.5264653" lon="13.2032988"><ele>532.0</ele><time>2026-04-18T13:45:18.144Z</time></trkpt><trkpt lat="41.5263836" lon="13.2033073"><ele>532.0</ele><time>2026-04-18T13:45:19.144Z</time></trkpt><trkpt lat="41.5263101" lon="13.2033191"><ele>532.0</ele><time>2026-04-18T13:45:20.144Z</time></trkpt><trkpt lat="41.5262007" lon="13.2033355"><ele>532.0</ele><time>2026-04-18T13:45:22.144Z</time></trkpt><trkpt lat="41.5261439" lon="13.2034233"><ele>532.0</ele><time>2026-04-18T13:45:25.144Z</time></trkpt><trkpt lat="41.52619" lon="13.203484"><ele>532.0</ele><time>2026-04-18T13:45:28.143Z</time></trkpt><trkpt lat="41.5262692" lon="13.2034665"><ele>532.0</ele><time>2026-04-18T13:45:30.144Z</time></trkpt><trkpt lat="41.5263488" lon="13.2034436"><ele>532.0</ele><time>2026-04-18T13:45:31.144Z</time></trkpt><trkpt lat="41.5264361" lon="13.203448"><ele>532.0</ele><time>2026-04-18T13:45:32.144Z</time></trkpt><trkpt lat="41.526527" lon="13.2034664"><ele>532.0</ele><time>2026-04-18T13:45:33.144Z</time></trkpt><trkpt lat="41.5266304" lon="13.2035171"><ele>532.0</ele><time>2026-04-18T13:45:34.144Z</time></trkpt><trkpt lat="41.5267397" lon="13.2035637"><ele>532.0</ele><time>2026-04-18T13:45:35.143Z</time></trkpt><trkpt lat="41.5268482" lon="13.203593"><ele>532.0</ele><time>2026-04-18T13:45:36.144Z</time></trkpt><trkpt lat="41.5269451" lon="13.2036208"><ele>532.0</ele><time>2026-04-18T13:45:37.144Z</time></trkpt><trkpt lat="41.5270431" lon="13.2036573"><ele>532.0</ele><time>2026-04-18T13:45:38.144Z</time></trkpt><trkpt lat="41.5271271" lon="13.2037235"><ele>532.0</ele><time>2026-04-18T13:45:39.144Z</time></trkpt><trkpt lat="41.5272066" lon="13.203778"><ele>532.0</ele><time>2026-04-18T13:45:40.144Z</time></trkpt><trkpt lat="41.5272786" lon="13.2038355"><ele>531.0</ele><time>2026-04-18T13:45:41.144Z</time></trkpt><trkpt lat="41.5273595" lon="13.2038876"><ele>530.0</ele><time>2026-04-18T13:45:42.144Z</time></trkpt><trkpt lat="41.527434" lon="13.2039421"><ele>529.0</ele><time>2026-04-18T13:45:43.143Z</time></trkpt><trkpt lat="41.5275112" lon="13.2039956"><ele>528.0</ele><time>2026-04-18T13:45:44.144Z</time></trkpt><trkpt lat="41.5275864" lon="13.2040436"><ele>527.0</ele><time>2026-04-18T13:45:45.144Z</time></trkpt><trkpt lat="41.5276537" lon="13.2040748"><ele>526.0</ele><time>2026-04-18T13:45:46.144Z</time></trkpt><trkpt lat="41.5277282" lon="13.2041121"><ele>529.0</ele><time>2026-04-18T13:45:47.144Z</time></trkpt><trkpt lat="41.5278048" lon="13.2041606"><ele>532.0</ele><time>2026-04-18T13:45:48.143Z</time></trkpt><trkpt lat="41.5278614" lon="13.2042109"><ele>535.0</ele><time>2026-04-18T13:45:49.144Z</time></trkpt><trkpt lat="41.5279045" lon="13.2042818"><ele>538.0</ele><time>2026-04-18T13:45:50.144Z</time></trkpt><trkpt lat="41.5279363" lon="13.2043636"><ele>541.0</ele><time>2026-04-18T13:45:51.144Z</time></trkpt><trkpt lat="41.5279701" lon="13.2044532"><ele>544.0</ele><time>2026-04-18T13:45:52.144Z</time></trkpt><trkpt lat="41.5279991" lon="13.2045643"><ele>546.6</ele><time>2026-04-18T13:45:53.144Z</time></trkpt><trkpt lat="41.5280294" lon="13.2046844"><ele>549.2</ele><time>2026-04-18T13:45:54.144Z</time></trkpt><trkpt lat="41.5280586" lon="13.2048083"><ele>551.8000000000001</ele><time>2026-04-18T13:45:55.144Z</time></trkpt><trkpt lat="41.5280871" lon="13.2049453"><ele>554.4</ele><time>2026-04-18T13:45:56.144Z</time></trkpt><trkpt lat="41.5281155" lon="13.2050849"><ele>557.0</ele><time>2026-04-18T13:45:57.144Z</time></trkpt><trkpt lat="41.5281424" lon="13.2052265"><ele>558.0</ele><time>2026-04-18T13:45:58.144Z</time></trkpt><trkpt lat="41.5281624" lon="13.2053807"><ele>559.0</ele><time>2026-04-18T13:45:59.144Z</time></trkpt><trkpt lat="41.5281724" lon="13.2055345"><ele>560.0</ele><time>2026-04-18T13:46:00.144Z</time></trkpt><trkpt lat="41.5281803" lon="13.2056628"><ele>561.0</ele><time>2026-04-18T13:46:01.144Z</time></trkpt><trkpt lat="41.5282012" lon="13.2058128"><ele>562.0</ele><time>2026-04-18T13:46:02.144Z</time></trkpt><trkpt lat="41.528251" lon="13.2059658"><ele>562.0</ele><time>2026-04-18T13:46:03.143Z</time></trkpt><trkpt lat="41.5283033" lon="13.2061249"><ele>562.0</ele><time>2026-04-18T13:46:04.144Z</time></trkpt><trkpt lat="41.528373" lon="13.2062875"><ele>562.0</ele><time>2026-04-18T13:46:05.144Z</time></trkpt><trkpt lat="41.5284412" lon="13.2064384"><ele>562.0</ele><time>2026-04-18T13:46:06.144Z</time></trkpt><trkpt lat="41.5284967" lon="13.2065688"><ele>561.0</ele><time>2026-04-18T13:46:07.144Z</time></trkpt><trkpt lat="41.5285571" lon="13.2066844"><ele>560.0</ele><time>2026-04-18T13:46:08.144Z</time></trkpt><trkpt lat="41.5286145" lon="13.2067791"><ele>559.0</ele><time>2026-04-18T13:46:09.144Z</time></trkpt><trkpt lat="41.5286748" lon="13.2068565"><ele>558.0</ele><time>2026-04-18T13:46:10.143Z</time></trkpt><trkpt lat="41.5287488" lon="13.2069078"><ele>557.0</ele><time>2026-04-18T13:46:11.144Z</time></trkpt><trkpt lat="41.5288451" lon="13.2069708"><ele>564.5</ele><time>2026-04-18T13:46:12.143Z</time></trkpt><trkpt lat="41.5289484" lon="13.2070377"><ele>572.0</ele><time>2026-04-18T13:46:13.144Z</time></trkpt><trkpt lat="41.5290748" lon="13.2071219"><ele>579.5</ele><time>2026-04-18T13:46:14.143Z</time></trkpt><trkpt lat="41.5292168" lon="13.20722"><ele>587.0</ele><time>2026-04-18T13:46:15.144Z</time></trkpt><trkpt lat="41.5293692" lon="13.207323"><ele>590.6666666666666</ele><time>2026-04-18T13:46:16.144Z</time></trkpt><trkpt lat="41.5295279" lon="13.2074396"><ele>594.3333333333334</ele><time>2026-04-18T13:46:17.144Z</time></trkpt><trkpt lat="41.5296813" lon="13.2075427"><ele>598.0</ele><time>2026-04-18T13:46:18.144Z</time></trkpt><trkpt lat="41.5298139" lon="13.2076505"><ele>598.0</ele><time>2026-04-18T13:46:19.143Z</time></trkpt><trkpt lat="41.5299388" lon="13.2077454"><ele>598.0</ele><time>2026-04-18T13:46:20.144Z</time></trkpt><trkpt lat="41.5300583" lon="13.2078367"><ele>598.0</ele><time>2026-04-18T13:46:21.144Z</time></trkpt><trkpt lat="41.53016" lon="13.2079215"><ele>598.0</ele><time>2026-04-18T13:46:22.144Z</time></trkpt><trkpt lat="41.5302651" lon="13.2080366"><ele>592.5</ele><time>2026-04-18T13:46:23.144Z</time></trkpt><trkpt lat="41.5303673" lon="13.2081705"><ele>587.0</ele><time>2026-04-18T13:46:24.144Z</time></trkpt><trkpt lat="41.5304691" lon="13.2083061"><ele>581.5</ele><time>2026-04-18T13:46:25.144Z</time></trkpt><trkpt lat="41.530548" lon="13.2084361"><ele>576.0</ele><time>2026-04-18T13:46:26.144Z</time></trkpt><trkpt lat="41.5306113" lon="13.2085602"><ele>584.0</ele><time>2026-04-18T13:46:27.144Z</time></trkpt><trkpt lat="41.5306735" lon="13.2086855"><ele>592.0</ele><time>2026-04-18T13:46:28.144Z</time></trkpt><trkpt lat="41.5307219" lon="13.2088118"><ele>600.0</ele><time>2026-04-18T13:46:29.144Z</time></trkpt><trkpt lat="41.5307555" lon="13.2089278"><ele>608.0</ele><time>2026-04-18T13:46:30.144Z</time></trkpt><trkpt lat="41.5307783" lon="13.209034"><ele>616.0</ele><time>2026-04-18T13:46:31.144Z</time></trkpt><trkpt lat="41.5307894" lon="13.2091384"><ele>616.0</ele><time>2026-04-18T13:46:32.144Z</time></trkpt><trkpt lat="41.5307877" lon="13.2092606"><ele>616.0</ele><time>2026-04-18T13:46:33.144Z</time></trkpt><trkpt lat="41.5307737" lon="13.2094079"><ele>616.0</ele><time>2026-04-18T13:46:34.144Z</time></trkpt><trkpt lat="41.5307512" lon="13.2095687"><ele>616.0</ele><time>2026-04-18T13:46:35.144Z</time></trkpt><trkpt lat="41.5307171" lon="13.2097383"><ele>620.6666666666667</ele><time>2026-04-18T13:46:36.144Z</time></trkpt><trkpt lat="41.5306783" lon="13.2099294"><ele>625.3333333333334</ele><time>2026-04-18T13:46:37.143Z</time></trkpt><trkpt lat="41.5306302" lon="13.2101191"><ele>630.0</ele><time>2026-04-18T13:46:38.144Z</time></trkpt><trkpt lat="41.5305822" lon="13.2103145"><ele>630.0</ele><time>2026-04-18T13:46:39.144Z</time></trkpt><trkpt lat="41.5305369" lon="13.2104962"><ele>630.0</ele><time>2026-04-18T13:46:40.144Z</time></trkpt><trkpt lat="41.5304883" lon="13.2106491"><ele>630.0</ele><time>2026-04-18T13:46:41.143Z</time></trkpt><trkpt lat="41.5304531" lon="13.210795"><ele>630.0</ele><time>2026-04-18T13:46:42.144Z</time></trkpt><trkpt lat="41.5304258" lon="13.2109339"><ele>631.6666666666666</ele><time>2026-04-18T13:46:43.144Z</time></trkpt><trkpt lat="41.5303944" lon="13.2110602"><ele>633.3333333333334</ele><time>2026-04-18T13:46:44.144Z</time></trkpt><trkpt lat="41.5303756" lon="13.2111649"><ele>635.0</ele><time>2026-04-18T13:46:45.143Z</time></trkpt><trkpt lat="41.5303723" lon="13.211279"><ele>636.6666666666667</ele><time>2026-04-18T13:46:46.144Z</time></trkpt><trkpt lat="41.5303821" lon="13.2113869"><ele>638.3333333333334</ele><time>2026-04-18T13:46:47.144Z</time></trkpt><trkpt lat="41.530379" lon="13.2114739"><ele>640.0</ele><time>2026-04-18T13:46:48.144Z</time></trkpt><trkpt lat="41.5303852" lon="13.2115741"><ele>640.1666666666667</ele><time>2026-04-18T13:46:49.144Z</time></trkpt><trkpt lat="41.530401" lon="13.2116592"><ele>640.3333333333334</ele><time>2026-04-18T13:46:50.144Z</time></trkpt><trkpt lat="41.5304186" lon="13.2117403"><ele>640.5</ele><time>2026-04-18T13:46:51.144Z</time></trkpt><trkpt lat="41.5304503" lon="13.2118842"><ele>640.6666666666666</ele><time>2026-04-18T13:46:53.144Z</time></trkpt><trkpt lat="41.5304663" lon="13.2119683"><ele>640.8333333333333</ele><time>2026-04-18T13:46:54.143Z</time></trkpt><trkpt lat="41.5304799" lon="13.2120631"><ele>641.0</ele><time>2026-04-18T13:46:55.144Z</time></trkpt><trkpt lat="41.5304891" lon="13.2121579"><ele>641.0</ele><time>2026-04-18T13:46:56.143Z</time></trkpt><trkpt lat="41.5304933" lon="13.2122513"><ele>641.0</ele><time>2026-04-18T13:46:57.144Z</time></trkpt><trkpt lat="41.5304843" lon="13.2124163"><ele>641.0</ele><time>2026-04-18T13:46:59.143Z</time></trkpt><trkpt lat="41.5304504" lon="13.2125501"><ele>641.0</ele><time>2026-04-18T13:47:01.144Z</time></trkpt><trkpt lat="41.5304103" lon="13.2126363"><ele>641.0</ele><time>2026-04-18T13:47:02.144Z</time></trkpt><trkpt lat="41.5303669" lon="13.212717"><ele>638.5</ele><time>2026-04-18T13:47:03.144Z</time></trkpt><trkpt lat="41.5303309" lon="13.2128018"><ele>636.0</ele><time>2026-04-18T13:47:04.144Z</time></trkpt><trkpt lat="41.530292" lon="13.2128928"><ele>633.5</ele><time>2026-04-18T13:47:05.144Z</time></trkpt><trkpt lat="41.5302524" lon="13.2129823"><ele>631.0</ele><time>2026-04-18T13:47:06.144Z</time></trkpt><trkpt lat="41.530203" lon="13.213064"><ele>628.5</ele><time>2026-04-18T13:47:07.144Z</time></trkpt><trkpt lat="41.5301482" lon="13.213145"><ele>626.0</ele><time>2026-04-18T13:47:08.144Z</time></trkpt><trkpt lat="41.5300954" lon="13.2132229"><ele>626.0</ele><time>2026-04-18T13:47:09.144Z</time></trkpt><trkpt lat="41.530041" lon="13.2132982"><ele>626.0</ele><time>2026-04-18T13:47:10.144Z</time></trkpt><trkpt lat="41.5299838" lon="13.2133669"><ele>626.0</ele><time>2026-04-18T13:47:11.143Z</time></trkpt><trkpt lat="41.5299269" lon="13.2134327"><ele>626.0</ele><time>2026-04-18T13:47:12.144Z</time></trkpt><trkpt lat="41.5298775" lon="13.2135127"><ele>626.0</ele><time>2026-04-18T13:47:13.144Z</time></trkpt><trkpt lat="41.5298268" lon="13.2136016"><ele>626.0</ele><time>2026-04-18T13:47:14.144Z</time></trkpt><trkpt lat="41.529774" lon="13.2137026"><ele>626.0</ele><time>2026-04-18T13:47:15.144Z</time></trkpt><trkpt lat="41.5297132" lon="13.2137966"><ele>626.0</ele><time>2026-04-18T13:47:16.144Z</time></trkpt><trkpt lat="41.5296608" lon="13.2138821"><ele>626.0</ele><time>2026-04-18T13:47:17.144Z</time></trkpt><trkpt lat="41.5296162" lon="13.2139569"><ele>626.0</ele><time>2026-04-18T13:47:18.144Z</time></trkpt><trkpt lat="41.5295605" lon="13.2140294"><ele>626.0</ele><time>2026-04-18T13:47:19.144Z</time></trkpt><trkpt lat="41.5295146" lon="13.2140931"><ele>626.0</ele><time>2026-04-18T13:47:20.144Z</time></trkpt><trkpt lat="41.5294343" lon="13.2141722"><ele>627.3333333333333</ele><time>2026-04-18T13:47:22.144Z</time></trkpt><trkpt lat="41.5293417" lon="13.2142822"><ele>628.6666666666666</ele><time>2026-04-18T14:18:06.143Z</time></trkpt><trkpt lat="41.5292729" lon="13.2143113"><ele>630.0</ele><time>2026-04-18T14:18:09.143Z</time></trkpt><trkpt lat="41.5292219" lon="13.2143993"><ele>631.3333333333334</ele><time>2026-04-18T14:19:19.143Z</time></trkpt><trkpt lat="41.5291889" lon="13.214484"><ele>632.6666666666667</ele><time>2026-04-18T14:19:28.181Z</time></trkpt><trkpt lat="41.5291429" lon="13.2145439"><ele>634.0</ele><time>2026-04-18T14:19:35.236Z</time></trkpt><trkpt lat="41.5291235" lon="13.2146281"><ele>634.0</ele><time>2026-04-18T14:19:44.196Z</time></trkpt><trkpt lat="41.5290647" lon="13.214667"><ele>634.0</ele><time>2026-04-18T14:19:51.143Z</time></trkpt><trkpt lat="41.5290149" lon="13.2147329"><ele>634.0</ele><time>2026-04-18T14:20:00.215Z</time></trkpt><trkpt lat="41.5289519" lon="13.2147521"><ele>634.0</ele><time>2026-04-18T14:20:06.634Z</time></trkpt><trkpt lat="41.5288868" lon="13.2147928"><ele>634.0</ele><time>2026-04-18T14:20:14.213Z</time></trkpt><trkpt lat="41.5288837" lon="13.2148834"><ele>634.0</ele><time>2026-04-18T14:20:20.493Z</time></trkpt><trkpt lat="41.5288925" lon="13.2149796"><ele>634.0</ele><time>2026-04-18T14:20:28.21Z</time></trkpt><trkpt lat="41.5289476" lon="13.2150407"><ele>634.1428571428571</ele><time>2026-04-18T14:20:35.266Z</time></trkpt><trkpt lat="41.5289838" lon="13.215116"><ele>634.2857142857142</ele><time>2026-04-18T14:20:42.21Z</time></trkpt><trkpt lat="41.5290056" lon="13.215209"><ele>634.4285714285713</ele><time>2026-04-18T14:20:50.294Z</time></trkpt><trkpt lat="41.5290373" lon="13.2152867"><ele>634.5714285714286</ele><time>2026-04-18T14:21:00.27Z</time></trkpt><trkpt lat="41.5289908" lon="13.2153643"><ele>634.7142857142857</ele><time>2026-04-18T14:21:07.268Z</time></trkpt><trkpt lat="41.5289217" lon="13.2153891"><ele>634.8571428571428</ele><time>2026-04-18T14:21:14.253Z</time></trkpt><trkpt lat="41.5288641" lon="13.2154401"><ele>635.0</ele><time>2026-04-18T14:21:20.3Z</time></trkpt><trkpt lat="41.5288169" lon="13.2155077"><ele>634.9999999999999</ele><time>2026-04-18T14:21:26.227Z</time></trkpt><trkpt lat="41.5287945" lon="13.2155871"><ele>635.0</ele><time>2026-04-18T14:21:33.283Z</time></trkpt><trkpt lat="41.5287319" lon="13.2156421"><ele>635.0</ele><time>2026-04-18T14:21:39.133Z</time></trkpt><trkpt lat="41.5286725" lon="13.2156796"><ele>635.0</ele><time>2026-04-18T14:21:46.074Z</time></trkpt><trkpt lat="41.528633" lon="13.215755"><ele>635.0</ele><time>2026-04-18T14:21:54.224Z</time></trkpt><trkpt lat="41.5286353" lon="13.2158459"><ele>634.9999999999999</ele><time>2026-04-18T14:21:59.51Z</time></trkpt><trkpt lat="41.5286005" lon="13.2159218"><ele>635.0</ele><time>2026-04-18T14:22:08.171Z</time></trkpt><trkpt lat="41.52858" lon="13.2160203"><ele>633.2857142857142</ele><time>2026-04-18T14:22:25.236Z</time></trkpt><trkpt lat="41.5285598" lon="13.2161109"><ele>631.5714285714286</ele><time>2026-04-18T14:22:34.576Z</time></trkpt><trkpt lat="41.5285486" lon="13.2161982"><ele>629.8571428571429</ele><time>2026-04-18T14:22:44.272Z</time></trkpt><trkpt lat="41.5285519" lon="13.2162871"><ele>628.1428571428571</ele><time>2026-04-18T14:22:51.314Z</time></trkpt><trkpt lat="41.528506" lon="13.2163447"><ele>626.4285714285714</ele><time>2026-04-18T14:23:06.225Z</time></trkpt><trkpt lat="41.5284726" lon="13.2164237"><ele>624.7142857142857</ele><time>2026-04-18T14:23:13.184Z</time></trkpt><trkpt lat="41.528409" lon="13.216463"><ele>623.0</ele><time>2026-04-18T14:23:21.249Z</time></trkpt><trkpt lat="41.5284022" lon="13.2165485"><ele>621.5714285714286</ele><time>2026-04-18T14:23:27.012Z</time></trkpt><trkpt lat="41.5283531" lon="13.2166187"><ele>620.1428571428571</ele><time>2026-04-18T14:23:38.271Z</time></trkpt><trkpt lat="41.5283356" lon="13.2167063"><ele>618.7142857142858</ele><time>2026-04-18T14:23:48.237Z</time></trkpt><trkpt lat="41.5283605" lon="13.2167848"><ele>617.2857142857142</ele><time>2026-04-18T14:23:57.195Z</time></trkpt><trkpt lat="41.5283545" lon="13.2168747"><ele>615.8571428571429</ele><time>2026-04-18T14:24:10.233Z</time></trkpt><trkpt lat="41.5283259" lon="13.2169497"><ele>614.4285714285714</ele><time>2026-04-18T14:25:20.158Z</time></trkpt><trkpt lat="41.5283072" lon="13.2170378"><ele>613.0</ele><time>2026-04-18T14:26:19.073Z</time></trkpt><trkpt lat="41.528277" lon="13.2171131"><ele>613.0</ele><time>2026-04-18T14:26:25.226Z</time></trkpt><trkpt lat="41.5282403" lon="13.2171863"><ele>613.0</ele><time>2026-04-18T14:26:31.193Z</time></trkpt><trkpt lat="41.5282327" lon="13.2172743"><ele>613.0</ele><time>2026-04-18T14:26:40.23Z</time></trkpt><trkpt lat="41.5282674" lon="13.2173454"><ele>613.0</ele><time>2026-04-18T14:26:49.187Z</time></trkpt><trkpt lat="41.5282438" lon="13.217438"><ele>613.0</ele><time>2026-04-18T14:26:56.192Z</time></trkpt><trkpt lat="41.5282326" lon="13.2175379"><ele>613.0</ele><time>2026-04-18T14:27:28.312Z</time></trkpt><trkpt lat="41.5282649" lon="13.2176182"><ele>613.0</ele><time>2026-04-18T14:27:35.174Z</time></trkpt><trkpt lat="41.5283319" lon="13.2176524"><ele>613.4285714285714</ele><time>2026-04-18T14:27:46.168Z</time></trkpt><trkpt lat="41.5284013" lon="13.2176557"><ele>613.8571428571429</ele><time>2026-04-18T14:28:02.178Z</time></trkpt><trkpt lat="41.5284678" lon="13.2176321"><ele>614.2857142857142</ele><time>2026-04-18T14:28:08.223Z</time></trkpt><trkpt lat="41.5285311" lon="13.2176279"><ele>614.7142857142858</ele><time>2026-04-18T14:28:14.154Z</time></trkpt><trkpt lat="41.5286052" lon="13.2176233"><ele>615.1428571428571</ele><time>2026-04-18T14:28:22.215Z</time></trkpt><trkpt lat="41.5286777" lon="13.2176039"><ele>615.5714285714286</ele><time>2026-04-18T14:28:30.166Z</time></trkpt><trkpt lat="41.5287478" lon="13.2176152"><ele>616.0</ele><time>2026-04-18T14:28:41.252Z</time></trkpt><trkpt lat="41.5288122" lon="13.2176372"><ele>618.1428571428571</ele><time>2026-04-18T14:28:47.187Z</time></trkpt><trkpt lat="41.5288778" lon="13.2176625"><ele>620.2857142857142</ele><time>2026-04-18T14:28:54.274Z</time></trkpt><trkpt lat="41.5289406" lon="13.2176424"><ele>622.4285714285714</ele><time>2026-04-18T14:29:00.154Z</time></trkpt><trkpt lat="41.5290047" lon="13.2176363"><ele>624.5714285714286</ele><time>2026-04-18T14:29:07.247Z</time></trkpt><trkpt lat="41.5290726" lon="13.2176513"><ele>626.7142857142857</ele><time>2026-04-18T14:29:14.3Z</time></trkpt><trkpt lat="41.5291341" lon="13.2176279"><ele>628.8571428571429</ele><time>2026-04-18T14:29:23.258Z</time></trkpt><trkpt lat="41.5292001" lon="13.217666"><ele>631.0</ele><time>2026-04-18T14:29:30.171Z</time></trkpt><trkpt lat="41.5292476" lon="13.2177285"><ele>631.0</ele><time>2026-04-18T14:29:39.271Z</time></trkpt><trkpt lat="41.5293115" lon="13.2177388"><ele>631.0</ele><time>2026-04-18T14:30:25.176Z</time></trkpt><trkpt lat="41.5293293" lon="13.2176551"><ele>631.0</ele><time>2026-04-18T14:30:42.191Z</time></trkpt><trkpt lat="41.529316" lon="13.2175689"><ele>631.0</ele><time>2026-04-18T14:30:47.231Z</time></trkpt><trkpt lat="41.5292925" lon="13.2174851"><ele>631.0</ele><time>2026-04-18T14:30:54.176Z</time></trkpt><trkpt lat="41.5292268" lon="13.2174577"><ele>631.0</ele><time>2026-04-18T14:31:04.407Z</time></trkpt><trkpt lat="41.5291746" lon="13.2175172"><ele>631.0</ele><time>2026-04-18T14:31:12.172Z</time></trkpt><trkpt lat="41.5291313" lon="13.2175945"><ele>631.0</ele><time>2026-04-18T14:31:18.249Z</time></trkpt><trkpt lat="41.5290894" lon="13.2176652"><ele>631.0</ele><time>2026-04-18T14:31:24.183Z</time></trkpt><trkpt lat="41.5290668" lon="13.2177451"><ele>631.0</ele><time>2026-04-18T14:31:31.24Z</time></trkpt><trkpt lat="41.529053" lon="13.2178345"><ele>631.0</ele><time>2026-04-18T14:31:36.71Z</time></trkpt><trkpt lat="41.5290232" lon="13.2179154"><ele>631.0</ele><time>2026-04-18T14:31:44.272Z</time></trkpt><trkpt lat="41.5290098" lon="13.218009"><ele>631.0</ele><time>2026-04-18T14:31:51.51Z</time></trkpt><trkpt lat="41.5289632" lon="13.2180665"><ele>631.0</ele><time>2026-04-18T14:32:02.253Z</time></trkpt><trkpt lat="41.5289347" lon="13.2181645"><ele>631.7142857142858</ele><time>2026-04-18T14:32:09.871Z</time></trkpt><trkpt lat="41.5289032" lon="13.2182484"><ele>632.4285714285713</ele><time>2026-04-18T14:32:15.241Z</time></trkpt><trkpt lat="41.5288852" lon="13.2183358"><ele>633.1428571428571</ele><time>2026-04-18T14:32:28.227Z</time></trkpt><trkpt lat="41.528858" lon="13.2184121"><ele>633.8571428571429</ele><time>2026-04-18T14:32:44.07Z</time></trkpt><trkpt lat="41.5288378" lon="13.2184956"><ele>634.5714285714287</ele><time>2026-04-18T14:32:51.177Z</time></trkpt><trkpt lat="41.5288363" lon="13.218582"><ele>635.2857142857142</ele><time>2026-04-18T14:33:01.25Z</time></trkpt><trkpt lat="41.5288229" lon="13.2186772"><ele>636.0</ele><time>2026-04-18T14:33:20.167Z</time></trkpt><trkpt lat="41.5287735" lon="13.2187577"><ele>636.0</ele><time>2026-04-18T14:37:42.251Z</time></trkpt><trkpt lat="41.5287072" lon="13.2188075"><ele>636.0</ele><time>2026-04-18T14:37:49.187Z</time></trkpt><trkpt lat="41.528685" lon="13.2188875"><ele>636.0</ele><time>2026-04-18T14:37:57.244Z</time></trkpt><trkpt lat="41.5287113" lon="13.2187934"><ele>636.0</ele><time>2026-04-18T14:38:16.676Z</time></trkpt><trkpt lat="41.5287249" lon="13.2186961"><ele>636.0</ele><time>2026-04-18T14:38:23.229Z</time></trkpt><trkpt lat="41.5287424" lon="13.2186099"><ele>636.0</ele><time>2026-04-18T14:38:29.238Z</time></trkpt><trkpt lat="41.5288015" lon="13.2185387"><ele>636.0</ele><time>2026-04-18T14:38:36.291Z</time></trkpt><trkpt lat="41.5288293" lon="13.2184589"><ele>636.0</ele><time>2026-04-18T14:38:44.169Z</time></trkpt><trkpt lat="41.5288659" lon="13.2183814"><ele>636.0</ele><time>2026-04-18T14:38:51.373Z</time></trkpt><trkpt lat="41.5288871" lon="13.2182992"><ele>636.0</ele><time>2026-04-18T14:38:57.568Z</time></trkpt><trkpt lat="41.5289178" lon="13.2182131"><ele>636.0</ele><time>2026-04-18T14:39:04.17Z</time></trkpt><trkpt lat="41.5289574" lon="13.2181202"><ele>636.0</ele><time>2026-04-18T14:39:11.913Z</time></trkpt><trkpt lat="41.5289837" lon="13.2180288"><ele>636.0</ele><time>2026-04-18T14:39:19.273Z</time></trkpt><trkpt lat="41.5290329" lon="13.2179528"><ele>636.0</ele><time>2026-04-18T14:39:24.974Z</time></trkpt><trkpt lat="41.5290518" lon="13.217862"><ele>635.2857142857142</ele><time>2026-04-18T14:39:32.231Z</time></trkpt><trkpt lat="41.5290754" lon="13.2177785"><ele>634.5714285714287</ele><time>2026-04-18T14:39:46.247Z</time></trkpt><trkpt lat="41.5291098" lon="13.2176862"><ele>633.8571428571429</ele><time>2026-04-18T14:41:51.14Z</time></trkpt><trkpt lat="41.5291378" lon="13.2176091"><ele>633.1428571428571</ele><time>2026-04-18T14:42:03.141Z</time></trkpt><trkpt lat="41.5291317" lon="13.2175129"><ele>632.4285714285713</ele><time>2026-04-18T14:42:11.091Z</time></trkpt><trkpt lat="41.5291458" lon="13.2174253"><ele>631.7142857142858</ele><time>2026-04-18T14:42:23.174Z</time></trkpt><trkpt lat="41.5291271" lon="13.2173388"><ele>631.0</ele><time>2026-04-18T14:42:29.219Z</time></trkpt><trkpt lat="41.5291009" lon="13.2172559"><ele>630.4285714285714</ele><time>2026-04-18T14:42:44.215Z</time></trkpt><trkpt lat="41.5290922" lon="13.2171661"><ele>629.8571428571428</ele><time>2026-04-18T14:42:50.146Z</time></trkpt><trkpt lat="41.5290657" lon="13.217086"><ele>629.2857142857142</ele><time>2026-04-18T14:42:57.197Z</time></trkpt><trkpt lat="41.5290029" lon="13.2170458"><ele>628.7142857142858</ele><time>2026-04-18T14:43:04.14Z</time></trkpt><trkpt lat="41.528956" lon="13.216983"><ele>628.1428571428571</ele><time>2026-04-18T14:43:10.18Z</time></trkpt><trkpt lat="41.5289029" lon="13.2169328"><ele>627.5714285714286</ele><time>2026-04-18T14:43:16.225Z</time></trkpt><trkpt lat="41.5288577" lon="13.2168676"><ele>627.0</ele><time>2026-04-18T14:43:23.166Z</time></trkpt><trkpt lat="41.5287954" lon="13.2168342"><ele>625.0</ele><time>2026-04-18T14:43:31.228Z</time></trkpt><trkpt lat="41.5287212" lon="13.2167992"><ele>623.0</ele><time>2026-04-18T14:43:39.269Z</time></trkpt><trkpt lat="41.5286593" lon="13.2167539"><ele>621.0</ele><time>2026-04-18T14:43:52.189Z</time></trkpt><trkpt lat="41.5285942" lon="13.2167435"><ele>619.0</ele><time>2026-04-18T14:44:00.227Z</time></trkpt><trkpt lat="41.5285222" lon="13.2167507"><ele>617.0</ele><time>2026-04-18T14:44:08.572Z</time></trkpt><trkpt lat="41.5284547" lon="13.2167561"><ele>615.0</ele><time>2026-04-18T14:44:16.24Z</time></trkpt><trkpt lat="41.5283921" lon="13.2167456"><ele>613.0</ele><time>2026-04-18T14:44:25.198Z</time></trkpt><trkpt lat="41.5283526" lon="13.2166731"><ele>613.0</ele><time>2026-04-18T14:44:35.973Z</time></trkpt><trkpt lat="41.5283681" lon="13.2165827"><ele>613.0</ele><time>2026-04-18T14:44:46.247Z</time></trkpt><trkpt lat="41.5284131" lon="13.2165172"><ele>613.0</ele><time>2026-04-18T14:44:54.197Z</time></trkpt><trkpt lat="41.5284597" lon="13.2164497"><ele>613.0</ele><time>2026-04-18T14:45:02.371Z</time></trkpt><trkpt lat="41.5285155" lon="13.2163833"><ele>613.0</ele><time>2026-04-18T14:45:08.194Z</time></trkpt><trkpt lat="41.5285599" lon="13.2163207"><ele>613.0</ele><time>2026-04-18T14:45:15.249Z</time></trkpt><trkpt lat="41.5285902" lon="13.2162452"><ele>613.0</ele><time>2026-04-18T14:45:24.194Z</time></trkpt><trkpt lat="41.5286086" lon="13.2161572"><ele>614.4285714285714</ele><time>2026-04-18T14:45:34.179Z</time></trkpt><trkpt lat="41.5286342" lon="13.2160686"><ele>615.8571428571429</ele><time>2026-04-18T14:45:44.734Z</time></trkpt><trkpt lat="41.5286074" lon="13.2159896"><ele>617.2857142857142</ele><time>2026-04-18T14:45:54.226Z</time></trkpt><trkpt lat="41.5286204" lon="13.2159036"><ele>618.7142857142858</ele><time>2026-04-18T14:46:06.215Z</time></trkpt><trkpt lat="41.5286501" lon="13.2158174"><ele>620.1428571428571</ele><time>2026-04-18T14:46:15.989Z</time></trkpt><trkpt lat="41.5286795" lon="13.2157414"><ele>621.5714285714286</ele><time>2026-04-18T14:46:24.251Z</time></trkpt><trkpt lat="41.5287147" lon="13.2156679"><ele>623.0</ele><time>2026-04-18T14:46:31.196Z</time></trkpt><trkpt lat="41.5287734" lon="13.2156208"><ele>624.7142857142857</ele><time>2026-04-18T14:46:38.254Z</time></trkpt><trkpt lat="41.5288271" lon="13.2155601"><ele>626.4285714285714</ele><time>2026-04-18T14:46:45.2Z</time></trkpt><trkpt lat="41.5288738" lon="13.2154961"><ele>628.1428571428571</ele><time>2026-04-18T14:46:54.27Z</time></trkpt><trkpt lat="41.5289374" lon="13.2154472"><ele>629.8571428571429</ele><time>2026-04-18T14:47:02.253Z</time></trkpt><trkpt lat="41.5290006" lon="13.2153953"><ele>631.5714285714286</ele><time>2026-04-18T14:47:10.182Z</time></trkpt><trkpt lat="41.5290409" lon="13.2153267"><ele>633.2857142857142</ele><time>2026-04-18T14:47:22.166Z</time></trkpt><trkpt lat="41.5290672" lon="13.2152398"><ele>635.0</ele><time>2026-04-18T14:47:30.233Z</time></trkpt><trkpt lat="41.5290611" lon="13.2151468"><ele>634.9999999999999</ele><time>2026-04-18T14:47:37.268Z</time></trkpt><trkpt lat="41.5290451" lon="13.2150514"><ele>635.0</ele><time>2026-04-18T14:47:45.244Z</time></trkpt><trkpt lat="41.5290217" lon="13.2149674"><ele>635.0</ele><time>2026-04-18T14:47:51.18Z</time></trkpt><trkpt lat="41.5289698" lon="13.2149065"><ele>635.0</ele><time>2026-04-18T14:48:00.268Z</time></trkpt><trkpt lat="41.5289521" lon="13.2148249"><ele>635.0</ele><time>2026-04-18T14:48:15.254Z</time></trkpt><trkpt lat="41.5289742" lon="13.2147352"><ele>634.9999999999999</ele><time>2026-04-18T14:48:22.197Z</time></trkpt><trkpt lat="41.5290044" lon="13.2146612"><ele>635.0</ele><time>2026-04-18T14:48:32.16Z</time></trkpt><trkpt lat="41.5290415" lon="13.2145825"><ele>634.8571428571428</ele><time>2026-04-18T14:48:43.242Z</time></trkpt><trkpt lat="41.5290835" lon="13.2145186"><ele>634.7142857142857</ele><time>2026-04-18T14:48:47.869Z</time></trkpt><trkpt lat="41.5291298" lon="13.2144545"><ele>634.5714285714286</ele><time>2026-04-18T14:48:55.228Z</time></trkpt><trkpt lat="41.5291941" lon="13.2144244"><ele>634.4285714285713</ele><time>2026-04-18T14:49:03.177Z</time></trkpt><trkpt lat="41.5292397" lon="13.2143542"><ele>634.2857142857142</ele><time>2026-04-18T14:49:09.248Z</time></trkpt><trkpt lat="41.5292916" lon="13.2143049"><ele>634.1428571428571</ele><time>2026-04-18T14:49:15.156Z</time></trkpt><trkpt lat="41.5293594" lon="13.2142797"><ele>634.0</ele><time>2026-04-18T14:58:54.139Z</time></trkpt><trkpt lat="41.5294207" lon="13.2142235"><ele>634.0</ele><time>2026-04-18T14:58:56.139Z</time></trkpt><trkpt lat="41.5294912" lon="13.2141525"><ele>634.0</ele><time>2026-04-18T14:58:58.138Z</time></trkpt><trkpt lat="41.5295748" lon="13.2140758"><ele>634.0</ele><time>2026-04-18T14:59:00.139Z</time></trkpt><trkpt lat="41.5296464" lon="13.2139564"><ele>634.0</ele><time>2026-04-18T14:59:02.139Z</time></trkpt><trkpt lat="41.5297169" lon="13.2138194"><ele>634.0</ele><time>2026-04-18T14:59:04.139Z</time></trkpt><trkpt lat="41.5297539" lon="13.2137492"><ele>632.4</ele><time>2026-04-18T14:59:05.139Z</time></trkpt><trkpt lat="41.5298291" lon="13.2136212"><ele>630.8</ele><time>2026-04-18T14:59:07.139Z</time></trkpt><trkpt lat="41.5299013" lon="13.2134859"><ele>629.2</ele><time>2026-04-18T14:59:09.139Z</time></trkpt><trkpt lat="41.5299448" lon="13.2134249"><ele>627.6</ele><time>2026-04-18T14:59:10.139Z</time></trkpt><trkpt lat="41.5300369" lon="13.2133201"><ele>626.0</ele><time>2026-04-18T14:59:12.139Z</time></trkpt><trkpt lat="41.530127" lon="13.2132015"><ele>624.3333333333333</ele><time>2026-04-18T14:59:14.139Z</time></trkpt><trkpt lat="41.5302194" lon="13.2130843"><ele>622.6666666666666</ele><time>2026-04-18T14:59:16.139Z</time></trkpt><trkpt lat="41.5302627" lon="13.2130229"><ele>621.0</ele><time>2026-04-18T14:59:17.138Z</time></trkpt><trkpt lat="41.5303032" lon="13.2129504"><ele>619.3333333333334</ele><time>2026-04-18T14:59:18.139Z</time></trkpt><trkpt lat="41.5303321" lon="13.2128712"><ele>617.6666666666667</ele><time>2026-04-18T14:59:19.139Z</time></trkpt><trkpt lat="41.5303656" lon="13.2127899"><ele>616.0</ele><time>2026-04-18T14:59:20.139Z</time></trkpt><trkpt lat="41.5304181" lon="13.2126445"><ele>620.8</ele><time>2026-04-18T14:59:22.138Z</time></trkpt><trkpt lat="41.5304693" lon="13.2125096"><ele>625.6</ele><time>2026-04-18T14:59:24.139Z</time></trkpt><trkpt lat="41.5305114" lon="13.2123801"><ele>630.4</ele><time>2026-04-18T14:59:26.138Z</time></trkpt><trkpt lat="41.5305198" lon="13.2122183"><ele>635.2</ele><time>2026-04-18T14:59:28.138Z</time></trkpt><trkpt lat="41.5305134" lon="13.2121309"><ele>640.0</ele><time>2026-04-18T14:59:29.139Z</time></trkpt><trkpt lat="41.5304951" lon="13.2120457"><ele>640.0</ele><time>2026-04-18T14:59:30.138Z</time></trkpt><trkpt lat="41.5304792" lon="13.2119567"><ele>640.0</ele><time>2026-04-18T14:59:31.138Z</time></trkpt><trkpt lat="41.5304688" lon="13.211861"><ele>640.0</ele><time>2026-04-18T14:59:32.138Z</time></trkpt><trkpt lat="41.5304585" lon="13.2117579"><ele>640.0</ele><time>2026-04-18T14:59:33.139Z</time></trkpt><trkpt lat="41.5304402" lon="13.2116586"><ele>640.0</ele><time>2026-04-18T14:59:34.139Z</time></trkpt><trkpt lat="41.5304283" lon="13.2115705"><ele>640.0</ele><time>2026-04-18T14:59:35.139Z</time></trkpt><trkpt lat="41.5304043" lon="13.2114104"><ele>640.0</ele><time>2026-04-18T14:59:37.139Z</time></trkpt><trkpt lat="41.530391" lon="13.2112422"><ele>640.0</ele><time>2026-04-18T14:59:39.139Z</time></trkpt><trkpt lat="41.5303905" lon="13.2111525"><ele>640.0</ele><time>2026-04-18T14:59:40.138Z</time></trkpt><trkpt lat="41.530403" lon="13.2110617"><ele>640.0</ele><time>2026-04-18T14:59:41.139Z</time></trkpt><trkpt lat="41.5304196" lon="13.2109613"><ele>640.0</ele><time>2026-04-18T14:59:42.139Z</time></trkpt><trkpt lat="41.5304432" lon="13.2108632"><ele>640.0</ele><time>2026-04-18T14:59:43.139Z</time></trkpt><trkpt lat="41.5304671" lon="13.2107725"><ele>640.0</ele><time>2026-04-18T14:59:44.139Z</time></trkpt><trkpt lat="41.5304914" lon="13.2106749"><ele>640.0</ele><time>2026-04-18T14:59:45.139Z</time></trkpt><trkpt lat="41.5305178" lon="13.2105776"><ele>640.0</ele><time>2026-04-18T14:59:46.139Z</time></trkpt><trkpt lat="41.5305564" lon="13.2104723"><ele>640.0</ele><time>2026-04-18T14:59:47.139Z</time></trkpt><trkpt lat="41.5305739" lon="13.2103686"><ele>640.0</ele><time>2026-04-18T14:59:48.139Z</time></trkpt><trkpt lat="41.5305925" lon="13.2102677"><ele>640.0</ele><time>2026-04-18T14:59:49.139Z</time></trkpt><trkpt lat="41.5306105" lon="13.2101713"><ele>638.3333333333334</ele><time>2026-04-18T14:59:50.139Z</time></trkpt><trkpt lat="41.5306301" lon="13.2100796"><ele>636.6666666666667</ele><time>2026-04-18T14:59:51.139Z</time></trkpt><trkpt lat="41.5306507" lon="13.2099833"><ele>635.0</ele><time>2026-04-18T14:59:52.138Z</time></trkpt><trkpt lat="41.5306807" lon="13.2098557"><ele>633.3333333333334</ele><time>2026-04-18T14:59:53.139Z</time></trkpt><trkpt lat="41.5307075" lon="13.2097326"><ele>631.6666666666666</ele><time>2026-04-18T14:59:54.139Z</time></trkpt><trkpt lat="41.5307312" lon="13.2096205"><ele>630.0</ele><time>2026-04-18T14:59:55.139Z</time></trkpt><trkpt lat="41.5307483" lon="13.2095186"><ele>628.8571428571429</ele><time>2026-04-18T14:59:56.138Z</time></trkpt><trkpt lat="41.5307656" lon="13.2094165"><ele>627.7142857142858</ele><time>2026-04-18T14:59:57.138Z</time></trkpt><trkpt lat="41.5307757" lon="13.209314"><ele>626.5714285714286</ele><time>2026-04-18T14:59:58.139Z</time></trkpt><trkpt lat="41.5307823" lon="13.2092155"><ele>625.4285714285714</ele><time>2026-04-18T14:59:59.139Z</time></trkpt><trkpt lat="41.5307848" lon="13.2091222"><ele>624.2857142857143</ele><time>2026-04-18T15:00:00.139Z</time></trkpt><trkpt lat="41.5307854" lon="13.2090286"><ele>623.1428571428571</ele><time>2026-04-18T15:00:01.138Z</time></trkpt><trkpt lat="41.5307791" lon="13.20894"><ele>622.0</ele><time>2026-04-18T15:00:02.138Z</time></trkpt><trkpt lat="41.5307659" lon="13.2088562"><ele>622.0</ele><time>2026-04-18T15:00:03.139Z</time></trkpt><trkpt lat="41.5307452" lon="13.2087713"><ele>622.0</ele><time>2026-04-18T15:00:04.139Z</time></trkpt><trkpt lat="41.530715" lon="13.2086856"><ele>622.0</ele><time>2026-04-18T15:00:05.139Z</time></trkpt><trkpt lat="41.5306755" lon="13.2085993"><ele>622.0</ele><time>2026-04-18T15:00:06.139Z</time></trkpt><trkpt lat="41.5306305" lon="13.2085145"><ele>622.0</ele><time>2026-04-18T15:00:07.139Z</time></trkpt><trkpt lat="41.5305794" lon="13.2084301"><ele>622.0</ele><time>2026-04-18T15:00:08.139Z</time></trkpt><trkpt lat="41.5305222" lon="13.2083458"><ele>622.0</ele><time>2026-04-18T15:00:09.139Z</time></trkpt><trkpt lat="41.5304583" lon="13.208266"><ele>622.0</ele><time>2026-04-18T15:00:10.139Z</time></trkpt><trkpt lat="41.5303995" lon="13.2081797"><ele>622.0</ele><time>2026-04-18T15:00:11.139Z</time></trkpt><trkpt lat="41.5303381" lon="13.2080991"><ele>622.0</ele><time>2026-04-18T15:00:12.139Z</time></trkpt><trkpt lat="41.5302741" lon="13.2080221"><ele>622.0</ele><time>2026-04-18T15:00:13.139Z</time></trkpt><trkpt lat="41.5302055" lon="13.2079467"><ele>622.0</ele><time>2026-04-18T15:00:14.139Z</time></trkpt><trkpt lat="41.5301374" lon="13.2078758"><ele>617.2</ele><time>2026-04-18T15:00:15.139Z</time></trkpt><trkpt lat="41.5300702" lon="13.2078092"><ele>612.4000000000001</ele><time>2026-04-18T15:00:16.139Z</time></trkpt><trkpt lat="41.5299952" lon="13.2077476"><ele>607.5999999999999</ele><time>2026-04-18T15:00:17.139Z</time></trkpt><trkpt lat="41.529908" lon="13.2076862"><ele>602.8</ele><time>2026-04-18T15:00:18.139Z</time></trkpt><trkpt lat="41.529808" lon="13.2076209"><ele>598.0</ele><time>2026-04-18T15:00:19.139Z</time></trkpt><trkpt lat="41.5296951" lon="13.2075472"><ele>598.0</ele><time>2026-04-18T15:00:20.139Z</time></trkpt><trkpt lat="41.5295693" lon="13.2074745"><ele>598.0</ele><time>2026-04-18T15:00:21.139Z</time></trkpt><trkpt lat="41.5294532" lon="13.2074009"><ele>598.0</ele><time>2026-04-18T15:00:22.139Z</time></trkpt><trkpt lat="41.529345" lon="13.207322"><ele>598.0</ele><time>2026-04-18T15:00:23.139Z</time></trkpt><trkpt lat="41.5292383" lon="13.2072429"><ele>595.8</ele><time>2026-04-18T15:00:24.139Z</time></trkpt><trkpt lat="41.5291338" lon="13.207164"><ele>593.5999999999999</ele><time>2026-04-18T15:00:25.139Z</time></trkpt><trkpt lat="41.5290361" lon="13.2070935"><ele>591.4000000000001</ele><time>2026-04-18T15:00:26.138Z</time></trkpt><trkpt lat="41.5289466" lon="13.207029"><ele>589.2</ele><time>2026-04-18T15:00:27.139Z</time></trkpt><trkpt lat="41.5288656" lon="13.206978"><ele>587.0</ele><time>2026-04-18T15:00:28.139Z</time></trkpt><trkpt lat="41.5287908" lon="13.2069353"><ele>582.8333333333333</ele><time>2026-04-18T15:00:29.139Z</time></trkpt><trkpt lat="41.5287211" lon="13.2068912"><ele>578.6666666666666</ele><time>2026-04-18T15:00:30.139Z</time></trkpt><trkpt lat="41.5286581" lon="13.2068347"><ele>574.5</ele><time>2026-04-18T15:00:31.139Z</time></trkpt><trkpt lat="41.5286057" lon="13.2067675"><ele>570.3333333333334</ele><time>2026-04-18T15:00:32.139Z</time></trkpt><trkpt lat="41.528554" lon="13.2066804"><ele>566.1666666666667</ele><time>2026-04-18T15:00:33.139Z</time></trkpt><trkpt lat="41.5285066" lon="13.2065757"><ele>562.0</ele><time>2026-04-18T15:00:34.138Z</time></trkpt><trkpt lat="41.5284621" lon="13.2064637"><ele>562.0</ele><time>2026-04-18T15:00:35.139Z</time></trkpt><trkpt lat="41.5284109" lon="13.2063536"><ele>562.0</ele><time>2026-04-18T15:00:36.139Z</time></trkpt><trkpt lat="41.5283597" lon="13.206242"><ele>562.0</ele><time>2026-04-18T15:00:37.139Z</time></trkpt><trkpt lat="41.5283121" lon="13.2061255"><ele>562.0</ele><time>2026-04-18T15:00:38.139Z</time></trkpt><trkpt lat="41.5282661" lon="13.2060054"><ele>562.0</ele><time>2026-04-18T15:00:39.139Z</time></trkpt><trkpt lat="41.5282261" lon="13.2058849"><ele>562.0</ele><time>2026-04-18T15:00:40.139Z</time></trkpt><trkpt lat="41.5281934" lon="13.2057538"><ele>562.0</ele><time>2026-04-18T15:00:41.138Z</time></trkpt><trkpt lat="41.5281747" lon="13.2056087"><ele>562.0</ele><time>2026-04-18T15:00:42.139Z</time></trkpt><trkpt lat="41.5281608" lon="13.2054613"><ele>562.0</ele><time>2026-04-18T15:00:43.139Z</time></trkpt><trkpt lat="41.528158" lon="13.2053207"><ele>562.0</ele><time>2026-04-18T15:00:44.139Z</time></trkpt><trkpt lat="41.5281499" lon="13.2051897"><ele>562.1666666666667</ele><time>2026-04-18T15:00:45.138Z</time></trkpt><trkpt lat="41.5281378" lon="13.2050685"><ele>562.3333333333334</ele><time>2026-04-18T15:00:46.139Z</time></trkpt><trkpt lat="41.5281095" lon="13.2049599"><ele>562.5</ele><time>2026-04-18T15:00:47.139Z</time></trkpt><trkpt lat="41.5280792" lon="13.2048536"><ele>562.6666666666666</ele><time>2026-04-18T15:00:48.139Z</time></trkpt><trkpt lat="41.5280529" lon="13.2047328"><ele>562.8333333333333</ele><time>2026-04-18T15:00:49.139Z</time></trkpt><trkpt lat="41.5280259" lon="13.2046235"><ele>563.0</ele><time>2026-04-18T15:00:50.139Z</time></trkpt><trkpt lat="41.5280049" lon="13.2045276"><ele>562.0</ele><time>2026-04-18T15:00:51.139Z</time></trkpt><trkpt lat="41.527979" lon="13.2044445"><ele>561.0</ele><time>2026-04-18T15:00:52.139Z</time></trkpt><trkpt lat="41.5279482" lon="13.2043631"><ele>560.0</ele><time>2026-04-18T15:00:53.139Z</time></trkpt><trkpt lat="41.5278882" lon="13.2042321"><ele>559.0</ele><time>2026-04-18T15:00:55.139Z</time></trkpt><trkpt lat="41.5278366" lon="13.2041515"><ele>558.0</ele><time>2026-04-18T15:00:57.139Z</time></trkpt><trkpt lat="41.5277339" lon="13.2040862"><ele>557.0</ele><time>2026-04-18T15:00:59.139Z</time></trkpt><trkpt lat="41.5276705" lon="13.2040526"><ele>554.4</ele><time>2026-04-18T15:01:00.138Z</time></trkpt><trkpt lat="41.5275966" lon="13.2040198"><ele>551.8000000000001</ele><time>2026-04-18T15:01:01.139Z</time></trkpt><trkpt lat="41.527519" lon="13.2039607"><ele>549.2</ele><time>2026-04-18T15:01:02.138Z</time></trkpt><trkpt lat="41.5274121" lon="13.2038864"><ele>546.6</ele><time>2026-04-18T15:01:03.139Z</time></trkpt><trkpt lat="41.5272914" lon="13.203798"><ele>544.0</ele><time>2026-04-18T15:01:04.139Z</time></trkpt><trkpt lat="41.5271593" lon="13.20372"><ele>541.0</ele><time>2026-04-18T15:01:05.139Z</time></trkpt><trkpt lat="41.5270414" lon="13.203647"><ele>538.0</ele><time>2026-04-18T15:01:06.139Z</time></trkpt><trkpt lat="41.5269395" lon="13.2035834"><ele>535.0</ele><time>2026-04-18T15:01:07.139Z</time></trkpt><trkpt lat="41.5268402" lon="13.20353"><ele>532.0</ele><time>2026-04-18T15:01:08.138Z</time></trkpt><trkpt lat="41.52673" lon="13.203486"><ele>532.0</ele><time>2026-04-18T15:01:09.139Z</time></trkpt><trkpt lat="41.5266218" lon="13.2034615"><ele>532.0</ele><time>2026-04-18T15:01:10.139Z</time></trkpt><trkpt lat="41.5265286" lon="13.2034447"><ele>532.0</ele><time>2026-04-18T15:01:11.138Z</time></trkpt><trkpt lat="41.5264495" lon="13.203433"><ele>532.0</ele><time>2026-04-18T15:01:12.139Z</time></trkpt><trkpt lat="41.5263789" lon="13.2034284"><ele>532.0</ele><time>2026-04-18T15:01:13.139Z</time></trkpt><trkpt lat="41.5262833" lon="13.2034363"><ele>532.0</ele><time>2026-04-18T15:01:15.139Z</time></trkpt><trkpt lat="41.5261944" lon="13.2034574"><ele>532.0</ele><time>2026-04-18T15:01:17.139Z</time></trkpt><trkpt lat="41.5262729" lon="13.2033499"><ele>532.0</ele><time>2026-04-18T15:01:22.139Z</time></trkpt><trkpt lat="41.5263452" lon="13.2033292"><ele>532.0</ele><time>2026-04-18T15:01:23.139Z</time></trkpt><trkpt lat="41.5264342" lon="13.203313"><ele>532.0</ele><time>2026-04-18T15:01:24.139Z</time></trkpt><trkpt lat="41.5265529" lon="13.203292"><ele>532.0</ele><time>2026-04-18T15:01:25.139Z</time></trkpt><trkpt lat="41.526684" lon="13.2032683"><ele>532.0</ele><time>2026-04-18T15:01:26.138Z</time></trkpt><trkpt lat="41.5268215" lon="13.203256"><ele>532.0</ele><time>2026-04-18T15:01:27.139Z</time></trkpt><trkpt lat="41.5269557" lon="13.20326"><ele>532.0</ele><time>2026-04-18T15:01:28.139Z</time></trkpt><trkpt lat="41.5270774" lon="13.203273"><ele>530.8000000000001</ele><time>2026-04-18T15:01:29.139Z</time></trkpt><trkpt lat="41.527183" lon="13.2032716"><ele>529.6</ele><time>2026-04-18T15:01:30.138Z</time></trkpt><trkpt lat="41.5272779" lon="13.2032701"><ele>528.4000000000001</ele><time>2026-04-18T15:01:31.139Z</time></trkpt><trkpt lat="41.5273699" lon="13.2032517"><ele>527.2</ele><time>2026-04-18T15:01:32.139Z</time></trkpt><trkpt lat="41.5274658" lon="13.2032385"><ele>526.0</ele><time>2026-04-18T15:01:33.139Z</time></trkpt><trkpt lat="41.5275615" lon="13.2032217"><ele>526.0</ele><time>2026-04-18T15:01:34.139Z</time></trkpt><trkpt lat="41.5276632" lon="13.2031729"><ele>526.0</ele><time>2026-04-18T15:01:35.139Z</time></trkpt><trkpt lat="41.5277579" lon="13.2031332"><ele>526.0</ele><time>2026-04-18T15:01:36.138Z</time></trkpt><trkpt lat="41.5278573" lon="13.2030961"><ele>526.0</ele><time>2026-04-18T15:01:37.139Z</time></trkpt><trkpt lat="41.5279559" lon="13.2030589"><ele>526.0</ele><time>2026-04-18T15:01:38.139Z</time></trkpt><trkpt lat="41.5280565" lon="13.2030178"><ele>519.4</ele><time>2026-04-18T15:01:39.139Z</time></trkpt><trkpt lat="41.5281583" lon="13.2029662"><ele>512.8</ele><time>2026-04-18T15:01:40.139Z</time></trkpt><trkpt lat="41.5282618" lon="13.2029263"><ele>506.19999999999993</ele><time>2026-04-18T15:01:41.139Z</time></trkpt><trkpt lat="41.5283593" lon="13.202881"><ele>499.59999999999997</ele><time>2026-04-18T15:01:42.139Z</time></trkpt><trkpt lat="41.5284532" lon="13.2028368"><ele>493.0</ele><time>2026-04-18T15:01:43.139Z</time></trkpt><trkpt lat="41.5285392" lon="13.2027871"><ele>493.0</ele><time>2026-04-18T15:01:44.139Z</time></trkpt><trkpt lat="41.5286224" lon="13.2027281"><ele>492.99999999999994</ele><time>2026-04-18T15:01:45.139Z</time></trkpt><trkpt lat="41.5287033" lon="13.2026669"><ele>492.99999999999994</ele><time>2026-04-18T15:01:46.138Z</time></trkpt><trkpt lat="41.5287801" lon="13.2025994"><ele>493.0</ele><time>2026-04-18T15:01:47.139Z</time></trkpt><trkpt lat="41.5288582" lon="13.2025322"><ele>493.0</ele><time>2026-04-18T15:01:48.139Z</time></trkpt><trkpt lat="41.5289333" lon="13.2024659"><ele>496.33333333333337</ele><time>2026-04-18T15:01:49.139Z</time></trkpt><trkpt lat="41.529008" lon="13.202398"><ele>499.6666666666667</ele><time>2026-04-18T15:01:50.139Z</time></trkpt><trkpt lat="41.5290763" lon="13.2023269"><ele>503.0</ele><time>2026-04-18T15:01:51.139Z</time></trkpt><trkpt lat="41.5291431" lon="13.2022497"><ele>506.33333333333337</ele><time>2026-04-18T15:01:52.139Z</time></trkpt><trkpt lat="41.5292108" lon="13.2021758"><ele>509.6666666666667</ele><time>2026-04-18T15:01:53.139Z</time></trkpt><trkpt lat="41.5292804" lon="13.2021061"><ele>513.0</ele><time>2026-04-18T15:01:54.138Z</time></trkpt><trkpt lat="41.5293524" lon="13.2020256"><ele>512.1999999999999</ele><time>2026-04-18T15:01:55.138Z</time></trkpt><trkpt lat="41.529425" lon="13.2019406"><ele>511.4</ele><time>2026-04-18T15:01:56.138Z</time></trkpt><trkpt lat="41.5294963" lon="13.2018636"><ele>510.59999999999997</ele><time>2026-04-18T15:01:57.138Z</time></trkpt><trkpt lat="41.5295653" lon="13.2017803"><ele>509.79999999999995</ele><time>2026-04-18T15:01:58.138Z</time></trkpt><trkpt lat="41.5296305" lon="13.2016922"><ele>509.0</ele><time>2026-04-18T15:01:59.138Z</time></trkpt><trkpt lat="41.5296945" lon="13.2016069"><ele>509.0</ele><time>2026-04-18T15:02:00.137Z</time></trkpt><trkpt lat="41.5297397" lon="13.2015253"><ele>509.0</ele><time>2026-04-18T15:02:01.138Z</time></trkpt><trkpt lat="41.5297749" lon="13.2013672"><ele>509.0</ele><time>2026-04-18T15:02:03.138Z</time></trkpt><trkpt lat="41.5297208" lon="13.2012075"><ele>509.0</ele><time>2026-04-18T15:02:05.138Z</time></trkpt><trkpt lat="41.529663" lon="13.2011531"><ele>509.0</ele><time>2026-04-18T15:02:06.137Z</time></trkpt><trkpt lat="41.5295813" lon="13.201076"><ele>503.75</ele><time>2026-04-18T15:02:07.138Z</time></trkpt><trkpt lat="41.5294956" lon="13.2009894"><ele>498.5</ele><time>2026-04-18T15:02:08.138Z</time></trkpt><trkpt lat="41.52941" lon="13.2008898"><ele>493.25</ele><time>2026-04-18T15:02:09.138Z</time></trkpt><trkpt lat="41.5293229" lon="13.2007695"><ele>488.0</ele><time>2026-04-18T15:02:10.137Z</time></trkpt><trkpt lat="41.5292338" lon="13.200629"><ele>488.0</ele><time>2026-04-18T15:02:11.138Z</time></trkpt><trkpt lat="41.5291401" lon="13.20047"><ele>488.0</ele><time>2026-04-18T15:02:12.138Z</time></trkpt><trkpt lat="41.5290415" lon="13.2003116"><ele>488.0</ele><time>2026-04-18T15:02:13.137Z</time></trkpt><trkpt lat="41.5289426" lon="13.200157"><ele>488.0</ele><time>2026-04-18T15:02:14.138Z</time></trkpt><trkpt lat="41.5288432" lon="13.2000122"><ele>488.0</ele><time>2026-04-18T15:02:15.137Z</time></trkpt><trkpt lat="41.528753" lon="13.1998673"><ele>488.0</ele><time>2026-04-18T15:02:16.138Z</time></trkpt><trkpt lat="41.5286683" lon="13.1997246"><ele>488.0</ele><time>2026-04-18T15:02:17.138Z</time></trkpt><trkpt lat="41.5285876" lon="13.1995811"><ele>480.5</ele><time>2026-04-18T15:02:18.138Z</time></trkpt><trkpt lat="41.5285158" lon="13.1994344"><ele>473.0</ele><time>2026-04-18T15:02:19.138Z</time></trkpt><trkpt lat="41.528452" lon="13.1992905"><ele>465.5</ele><time>2026-04-18T15:02:20.138Z</time></trkpt><trkpt lat="41.5283939" lon="13.1991389"><ele>458.0</ele><time>2026-04-18T15:02:21.138Z</time></trkpt><trkpt lat="41.5283425" lon="13.1989957"><ele>458.0</ele><time>2026-04-18T15:02:22.138Z</time></trkpt><trkpt lat="41.5283053" lon="13.1988611"><ele>457.99999999999994</ele><time>2026-04-18T15:02:23.138Z</time></trkpt><trkpt lat="41.5282794" lon="13.1987359"><ele>457.99999999999994</ele><time>2026-04-18T15:02:24.138Z</time></trkpt><trkpt lat="41.5282662" lon="13.1986164"><ele>458.0</ele><time>2026-04-18T15:02:25.138Z</time></trkpt><trkpt lat="41.5282715" lon="13.1984925"><ele>458.0</ele><time>2026-04-18T15:02:26.138Z</time></trkpt><trkpt lat="41.5282897" lon="13.1983684"><ele>458.0</ele><time>2026-04-18T15:02:27.138Z</time></trkpt><trkpt lat="41.5283163" lon="13.1982636"><ele>457.99999999999994</ele><time>2026-04-18T15:02:28.138Z</time></trkpt><trkpt lat="41.5283516" lon="13.1981314"><ele>457.99999999999994</ele><time>2026-04-18T15:02:30.138Z</time></trkpt><trkpt lat="41.5283865" lon="13.1980151"><ele>458.0</ele><time>2026-04-18T15:02:33.138Z</time></trkpt><trkpt lat="41.5284099" lon="13.1978708"><ele>458.0</ele><time>2026-04-18T15:02:35.138Z</time></trkpt><trkpt lat="41.5284353" lon="13.1977696"><ele>455.25</ele><time>2026-04-18T15:02:36.138Z</time></trkpt><trkpt lat="41.5284614" lon="13.197646"><ele>452.5</ele><time>2026-04-18T15:02:37.138Z</time></trkpt><trkpt lat="41.5284818" lon="13.1974966"><ele>449.75</ele><time>2026-04-18T15:02:38.138Z</time></trkpt><trkpt lat="41.528496" lon="13.1973295"><ele>447.0</ele><time>2026-04-18T15:02:39.138Z</time></trkpt><trkpt lat="41.5284989" lon="13.1971496"><ele>446.75</ele><time>2026-04-18T15:02:40.138Z</time></trkpt><trkpt lat="41.5284937" lon="13.1969755"><ele>446.5</ele><time>2026-04-18T15:02:41.138Z</time></trkpt><trkpt lat="41.5284823" lon="13.1968038"><ele>446.25</ele><time>2026-04-18T15:02:42.138Z</time></trkpt><trkpt lat="41.5284678" lon="13.1966284"><ele>446.0</ele><time>2026-04-18T15:02:43.138Z</time></trkpt><trkpt lat="41.5284491" lon="13.1964568"><ele>447.6</ele><time>2026-04-18T15:02:44.138Z</time></trkpt><trkpt lat="41.5284216" lon="13.1962909"><ele>449.20000000000005</ele><time>2026-04-18T15:02:45.138Z</time></trkpt><trkpt lat="41.5283979" lon="13.1961506"><ele>450.79999999999995</ele><time>2026-04-18T15:02:46.138Z</time></trkpt><trkpt lat="41.528367" lon="13.1960319"><ele>452.4</ele><time>2026-04-18T15:02:47.138Z</time></trkpt><trkpt lat="41.5283252" lon="13.1959379"><ele>454.0</ele><time>2026-04-18T15:02:48.138Z</time></trkpt><trkpt lat="41.5282652" lon="13.1958516"><ele>454.0</ele><time>2026-04-18T15:02:49.138Z</time></trkpt><trkpt lat="41.5282057" lon="13.1957576"><ele>454.0</ele><time>2026-04-18T15:02:50.138Z</time></trkpt><trkpt lat="41.5281509" lon="13.1956533"><ele>454.0</ele><time>2026-04-18T15:02:51.137Z</time></trkpt><trkpt lat="41.5281044" lon="13.1955404"><ele>454.0</ele><time>2026-04-18T15:02:52.138Z</time></trkpt><trkpt lat="41.5280772" lon="13.1954156"><ele>454.0</ele><time>2026-04-18T15:02:53.138Z</time></trkpt><trkpt lat="41.5280833" lon="13.1952791"><ele>454.0</ele><time>2026-04-18T15:02:54.138Z</time></trkpt><trkpt lat="41.528083" lon="13.1951542"><ele>454.0</ele><time>2026-04-18T15:02:55.138Z</time></trkpt><trkpt lat="41.5280945" lon="13.1950296"><ele>454.0</ele><time>2026-04-18T15:02:56.138Z</time></trkpt><trkpt lat="41.5281204" lon="13.1948988"><ele>454.0</ele><time>2026-04-18T15:02:57.138Z</time></trkpt><trkpt lat="41.528152" lon="13.1947608"><ele>454.0</ele><time>2026-04-18T15:02:58.137Z</time></trkpt><trkpt lat="41.5281908" lon="13.1946239"><ele>451.79999999999995</ele><time>2026-04-18T15:02:59.138Z</time></trkpt><trkpt lat="41.5282318" lon="13.1944878"><ele>449.59999999999997</ele><time>2026-04-18T15:03:00.138Z</time></trkpt><trkpt lat="41.5282746" lon="13.1943544"><ele>447.4</ele><time>2026-04-18T15:03:01.138Z</time></trkpt><trkpt lat="41.5283189" lon="13.194238"><ele>445.2</ele><time>2026-04-18T15:03:02.138Z</time></trkpt><trkpt lat="41.5283657" lon="13.1941235"><ele>443.0</ele><time>2026-04-18T15:03:03.138Z</time></trkpt><trkpt lat="41.5284" lon="13.194013"><ele>443.49999999999994</ele><time>2026-04-18T15:03:04.138Z</time></trkpt><trkpt lat="41.5284027" lon="13.1939001"><ele>444.0</ele><time>2026-04-18T15:03:05.138Z</time></trkpt><trkpt lat="41.5283942" lon="13.1937965"><ele>444.5</ele><time>2026-04-18T15:03:06.138Z</time></trkpt><trkpt lat="41.5283744" lon="13.1936939"><ele>445.0</ele><time>2026-04-18T15:03:07.138Z</time></trkpt><trkpt lat="41.5283339" lon="13.1936047"><ele>445.49999999999994</ele><time>2026-04-18T15:03:08.138Z</time></trkpt><trkpt lat="41.5282739" lon="13.193523"><ele>446.0</ele><time>2026-04-18T15:03:09.138Z</time></trkpt><trkpt lat="41.5281992" lon="13.1934376"><ele>446.0</ele><time>2026-04-18T15:03:10.138Z</time></trkpt><trkpt lat="41.5281286" lon="13.193344"><ele>446.0</ele><time>2026-04-18T15:03:11.138Z</time></trkpt><trkpt lat="41.5280555" lon="13.1932503"><ele>446.0</ele><time>2026-04-18T15:03:12.138Z</time></trkpt><trkpt lat="41.5279891" lon="13.1931345"><ele>446.0</ele><time>2026-04-18T15:03:13.138Z</time></trkpt><trkpt lat="41.5279246" lon="13.1929931"><ele>446.0</ele><time>2026-04-18T15:03:14.138Z</time></trkpt><trkpt lat="41.5278495" lon="13.1928342"><ele>439.66666666666663</ele><time>2026-04-18T15:03:15.138Z</time></trkpt><trkpt lat="41.5277604" lon="13.1926605"><ele>433.33333333333337</ele><time>2026-04-18T15:03:16.138Z</time></trkpt><trkpt lat="41.5276712" lon="13.1924789"><ele>427.0</ele><time>2026-04-18T15:03:17.138Z</time></trkpt><trkpt lat="41.527584" lon="13.192295"><ele>427.0</ele><time>2026-04-18T15:03:18.138Z</time></trkpt><trkpt lat="41.5274943" lon="13.1921169"><ele>427.0</ele><time>2026-04-18T15:03:19.138Z</time></trkpt><trkpt lat="41.5274078" lon="13.1919555"><ele>427.0</ele><time>2026-04-18T15:03:20.138Z</time></trkpt><trkpt lat="41.5273199" lon="13.1918156"><ele>427.0</ele><time>2026-04-18T15:03:21.138Z</time></trkpt><trkpt lat="41.5272427" lon="13.1916763"><ele>427.0</ele><time>2026-04-18T15:03:22.138Z</time></trkpt><trkpt lat="41.527174" lon="13.1915157"><ele>427.0</ele><time>2026-04-18T15:03:23.138Z</time></trkpt><trkpt lat="41.5271033" lon="13.1913433"><ele>427.0</ele><time>2026-04-18T15:03:24.138Z</time></trkpt><trkpt lat="41.5270364" lon="13.1911706"><ele>427.0</ele><time>2026-04-18T15:03:25.137Z</time></trkpt><trkpt lat="41.5269698" lon="13.1909961"><ele>419.75</ele><time>2026-04-18T15:03:26.138Z</time></trkpt><trkpt lat="41.5268971" lon="13.1908301"><ele>412.5</ele><time>2026-04-18T15:03:27.138Z</time></trkpt><trkpt lat="41.5268177" lon="13.1906801"><ele>405.25</ele><time>2026-04-18T15:03:28.138Z</time></trkpt><trkpt lat="41.5267468" lon="13.1905299"><ele>398.0</ele><time>2026-04-18T15:03:29.138Z</time></trkpt><trkpt lat="41.5266814" lon="13.190396"><ele>398.0</ele><time>2026-04-18T15:03:30.138Z</time></trkpt><trkpt lat="41.5266198" lon="13.1902264"><ele>398.0</ele><time>2026-04-18T15:03:31.138Z</time></trkpt><trkpt lat="41.5265817" lon="13.1900876"><ele>398.0</ele><time>2026-04-18T15:03:32.138Z</time></trkpt><trkpt lat="41.5265531" lon="13.1899338"><ele>398.0</ele><time>2026-04-18T15:03:33.138Z</time></trkpt><trkpt lat="41.5265312" lon="13.1897754"><ele>397.5</ele><time>2026-04-18T15:03:34.138Z</time></trkpt><trkpt lat="41.5265096" lon="13.18962"><ele>397.0</ele><time>2026-04-18T15:03:35.138Z</time></trkpt><trkpt lat="41.5264889" lon="13.1894666"><ele>396.5</ele><time>2026-04-18T15:03:36.138Z</time></trkpt><trkpt lat="41.5264656" lon="13.1893155"><ele>396.0</ele><time>2026-04-18T15:03:37.138Z</time></trkpt><trkpt lat="41.5264467" lon="13.1891709"><ele>396.0</ele><time>2026-04-18T15:03:38.138Z</time></trkpt><trkpt lat="41.5264379" lon="13.1890255"><ele>396.0</ele><time>2026-04-18T15:03:39.137Z</time></trkpt><trkpt lat="41.5264421" lon="13.1888842"><ele>396.0</ele><time>2026-04-18T15:03:40.138Z</time></trkpt><trkpt lat="41.5264553" lon="13.1887465"><ele>396.0</ele><time>2026-04-18T15:03:41.138Z</time></trkpt><trkpt lat="41.5264822" lon="13.1886132"><ele>396.0</ele><time>2026-04-18T15:03:42.138Z</time></trkpt><trkpt lat="41.5265206" lon="13.1884888"><ele>394.0</ele><time>2026-04-18T15:03:43.138Z</time></trkpt><trkpt lat="41.5265795" lon="13.1883641"><ele>392.0</ele><time>2026-04-18T15:03:44.138Z</time></trkpt><trkpt lat="41.5266498" lon="13.188231"><ele>390.0</ele><time>2026-04-18T15:03:45.138Z</time></trkpt><trkpt lat="41.5267331" lon="13.1880963"><ele>388.0</ele><time>2026-04-18T15:03:46.138Z</time></trkpt><trkpt lat="41.5268158" lon="13.1879641"><ele>388.25</ele><time>2026-04-18T15:03:47.138Z</time></trkpt><trkpt lat="41.5268963" lon="13.1878374"><ele>388.5</ele><time>2026-04-18T15:03:48.138Z</time></trkpt><trkpt lat="41.526974" lon="13.1877135"><ele>388.75</ele><time>2026-04-18T15:03:49.138Z</time></trkpt><trkpt lat="41.5270438" lon="13.1875762"><ele>389.0</ele><time>2026-04-18T15:03:50.137Z</time></trkpt><trkpt lat="41.5271132" lon="13.1874241"><ele>384.5</ele><time>2026-04-18T15:03:51.138Z</time></trkpt><trkpt lat="41.5271736" lon="13.1872633"><ele>380.0</ele><time>2026-04-18T15:03:52.138Z</time></trkpt><trkpt lat="41.5272313" lon="13.1871026"><ele>375.5</ele><time>2026-04-18T15:03:53.138Z</time></trkpt><trkpt lat="41.5272796" lon="13.1869557"><ele>371.0</ele><time>2026-04-18T15:03:54.137Z</time></trkpt><trkpt lat="41.5273226" lon="13.1868285"><ele>371.0</ele><time>2026-04-18T15:03:55.137Z</time></trkpt><trkpt lat="41.5273595" lon="13.1867254"><ele>371.0</ele><time>2026-04-18T15:03:56.138Z</time></trkpt><trkpt lat="41.5273822" lon="13.186644"><ele>371.0</ele><time>2026-04-18T15:03:57.138Z</time></trkpt><trkpt lat="41.5273711" lon="13.1865496"><ele>371.0</ele><time>2026-04-18T15:03:59.138Z</time></trkpt><trkpt lat="41.5273088" lon="13.1865832"><ele>371.0</ele><time>2026-04-18T15:04:01.138Z</time></trkpt><trkpt lat="41.5271958" lon="13.1867104"><ele>371.0</ele><time>2026-04-18T15:04:03.138Z</time></trkpt><trkpt lat="41.5271251" lon="13.1868002"><ele>367.5</ele><time>2026-04-18T15:04:04.138Z</time></trkpt><trkpt lat="41.5270556" lon="13.1868939"><ele>364.0</ele><time>2026-04-18T15:04:05.138Z</time></trkpt><trkpt lat="41.5269925" lon="13.1869802"><ele>360.5</ele><time>2026-04-18T15:04:06.138Z</time></trkpt><trkpt lat="41.5269349" lon="13.1870437"><ele>357.0</ele><time>2026-04-18T15:04:07.138Z</time></trkpt><trkpt lat="41.5268692" lon="13.1870957"><ele>353.5</ele><time>2026-04-18T15:04:08.137Z</time></trkpt><trkpt lat="41.5268078" lon="13.1871363"><ele>350.0</ele><time>2026-04-18T15:04:09.138Z</time></trkpt><trkpt lat="41.5267366" lon="13.1871592"><ele>350.0</ele><time>2026-04-18T15:04:10.138Z</time></trkpt><trkpt lat="41.5266514" lon="13.1871751"><ele>350.0</ele><time>2026-04-18T15:04:11.138Z</time></trkpt><trkpt lat="41.5265652" lon="13.1871917"><ele>350.0</ele><time>2026-04-18T15:04:12.138Z</time></trkpt><trkpt lat="41.5264794" lon="13.1872145"><ele>350.0</ele><time>2026-04-18T15:04:13.138Z</time></trkpt><trkpt lat="41.5263909" lon="13.1872486"><ele>350.0</ele><time>2026-04-18T15:04:14.138Z</time></trkpt><trkpt lat="41.5263036" lon="13.1872936"><ele>350.0</ele><time>2026-04-18T15:04:15.138Z</time></trkpt><trkpt lat="41.5262165" lon="13.1873441"><ele>350.33333333333337</ele><time>2026-04-18T15:04:16.138Z</time></trkpt><trkpt lat="41.526133" lon="13.1873982"><ele>350.6666666666667</ele><time>2026-04-18T15:04:17.138Z</time></trkpt><trkpt lat="41.5260515" lon="13.1874551"><ele>351.0</ele><time>2026-04-18T15:04:18.138Z</time></trkpt><trkpt lat="41.5259769" lon="13.1875134"><ele>351.3333333333333</ele><time>2026-04-18T15:04:19.138Z</time></trkpt><trkpt lat="41.5259041" lon="13.1875654"><ele>351.66666666666663</ele><time>2026-04-18T15:04:20.138Z</time></trkpt><trkpt lat="41.5258306" lon="13.1876059"><ele>352.0</ele><time>2026-04-18T15:04:21.138Z</time></trkpt><trkpt lat="41.5257668" lon="13.1876562"><ele>352.0</ele><time>2026-04-18T15:04:22.138Z</time></trkpt><trkpt lat="41.5257008" lon="13.1876821"><ele>352.0</ele><time>2026-04-18T15:04:23.138Z</time></trkpt><trkpt lat="41.525637" lon="13.1876746"><ele>352.0</ele><time>2026-04-18T15:04:24.138Z</time></trkpt><trkpt lat="41.5255827" lon="13.1876249"><ele>352.0</ele><time>2026-04-18T15:04:25.138Z</time></trkpt><trkpt lat="41.5255407" lon="13.1875398"><ele>352.0</ele><time>2026-04-18T15:04:26.137Z</time></trkpt><trkpt lat="41.5254973" lon="13.1874278"><ele>352.0</ele><time>2026-04-18T15:04:27.138Z</time></trkpt><trkpt lat="41.5254499" lon="13.1873052"><ele>348.6</ele><time>2026-04-18T15:04:28.138Z</time></trkpt><trkpt lat="41.5253869" lon="13.1871824"><ele>345.20000000000005</ele><time>2026-04-18T15:04:29.138Z</time></trkpt><trkpt lat="41.5253182" lon="13.1870836"><ele>341.8</ele><time>2026-04-18T15:04:30.138Z</time></trkpt><trkpt lat="41.5252604" lon="13.1869804"><ele>338.4</ele><time>2026-04-18T15:04:31.138Z</time></trkpt><trkpt lat="41.5251939" lon="13.1868233"><ele>335.0</ele><time>2026-04-18T15:04:32.138Z</time></trkpt><trkpt lat="41.5251579" lon="13.1867283"><ele>335.0</ele><time>2026-04-18T15:04:33.138Z</time></trkpt><trkpt lat="41.5251287" lon="13.186649"><ele>335.0</ele><time>2026-04-18T15:04:34.138Z</time></trkpt><trkpt lat="41.5251167" lon="13.1865433"><ele>335.0</ele><time>2026-04-18T15:04:36.138Z</time></trkpt><trkpt lat="41.5251835" lon="13.1865149"><ele>335.0</ele><time>2026-04-18T15:04:38.138Z</time></trkpt><trkpt lat="41.5252454" lon="13.1865418"><ele>335.0</ele><time>2026-04-18T15:04:39.138Z</time></trkpt><trkpt lat="41.5253615" lon="13.1865512"><ele>335.0</ele><time>2026-04-18T15:04:41.138Z</time></trkpt><trkpt lat="41.5254112" lon="13.1864367"><ele>333.5</ele><time>2026-04-18T15:04:43.138Z</time></trkpt><trkpt lat="41.5253247" lon="13.1862791"><ele>332.0</ele><time>2026-04-18T15:04:45.138Z</time></trkpt><trkpt lat="41.5252443" lon="13.1861667"><ele>330.5</ele><time>2026-04-18T15:04:46.138Z</time></trkpt><trkpt lat="41.5251529" lon="13.1860262"><ele>329.0</ele><time>2026-04-18T15:04:47.138Z</time></trkpt><trkpt lat="41.5250674" lon="13.1858753"><ele>329.0</ele><time>2026-04-18T15:04:48.138Z</time></trkpt><trkpt lat="41.5249871" lon="13.1857243"><ele>329.0</ele><time>2026-04-18T15:04:49.138Z</time></trkpt><trkpt lat="41.5249061" lon="13.1855803"><ele>329.0</ele><time>2026-04-18T15:04:50.138Z</time></trkpt><trkpt lat="41.5248281" lon="13.185434"><ele>329.0</ele><time>2026-04-18T15:04:51.138Z</time></trkpt><trkpt lat="41.5247484" lon="13.1852953"><ele>327.25</ele><time>2026-04-18T15:04:52.138Z</time></trkpt><trkpt lat="41.5246643" lon="13.1851484"><ele>325.5</ele><time>2026-04-18T15:04:53.138Z</time></trkpt><trkpt lat="41.5245808" lon="13.1849948"><ele>323.75</ele><time>2026-04-18T15:04:54.138Z</time></trkpt><trkpt lat="41.5244932" lon="13.1848342"><ele>322.0</ele><time>2026-04-18T15:04:55.138Z</time></trkpt><trkpt lat="41.524405" lon="13.1846788"><ele>322.0</ele><time>2026-04-18T15:04:56.137Z</time></trkpt><trkpt lat="41.524314" lon="13.1845384"><ele>322.0</ele><time>2026-04-18T15:04:57.138Z</time></trkpt><trkpt lat="41.5242328" lon="13.1844056"><ele>322.0</ele><time>2026-04-18T15:04:58.138Z</time></trkpt><trkpt lat="41.5241558" lon="13.1842788"><ele>322.0</ele><time>2026-04-18T15:04:59.137Z</time></trkpt><trkpt lat="41.5240864" lon="13.1841594"><ele>322.0</ele><time>2026-04-18T15:05:00.138Z</time></trkpt><trkpt lat="41.5240199" lon="13.1840457"><ele>322.0</ele><time>2026-04-18T15:05:01.138Z</time></trkpt><trkpt lat="41.5239495" lon="13.1839387"><ele>322.0</ele><time>2026-04-18T15:05:02.138Z</time></trkpt><trkpt lat="41.5238935" lon="13.183831"><ele>322.0</ele><time>2026-04-18T15:05:03.138Z</time></trkpt><trkpt lat="41.5238299" lon="13.1837508"><ele>322.0</ele><time>2026-04-18T15:05:04.138Z</time></trkpt><trkpt lat="41.5237802" lon="13.1836588"><ele>322.5</ele><time>2026-04-18T15:05:05.138Z</time></trkpt><trkpt lat="41.5237282" lon="13.1835699"><ele>323.0</ele><time>2026-04-18T15:05:06.138Z</time></trkpt><trkpt lat="41.5236808" lon="13.1834826"><ele>323.5</ele><time>2026-04-18T15:05:07.138Z</time></trkpt><trkpt lat="41.5236438" lon="13.1834101"><ele>324.0</ele><time>2026-04-18T15:05:08.137Z</time></trkpt><trkpt lat="41.5235949" lon="13.1833449"><ele>324.5</ele><time>2026-04-18T15:05:09.138Z</time></trkpt><trkpt lat="41.523529" lon="13.183226"><ele>325.0</ele><time>2026-04-18T15:05:11.137Z</time></trkpt><trkpt lat="41.5234842" lon="13.1831355"><ele>325.0</ele><time>2026-04-18T15:05:13.138Z</time></trkpt><trkpt lat="41.5234113" lon="13.1829858"><ele>325.0</ele><time>2026-04-18T15:05:15.138Z</time></trkpt><trkpt lat="41.5233667" lon="13.1829015"><ele>325.0</ele><time>2026-04-18T15:05:16.138Z</time></trkpt><trkpt lat="41.5233188" lon="13.1828145"><ele>325.0</ele><time>2026-04-18T15:05:17.138Z</time></trkpt><trkpt lat="41.5232784" lon="13.1827334"><ele>325.0</ele><time>2026-04-18T15:05:18.137Z</time></trkpt><trkpt lat="41.5232117" lon="13.1826053"><ele>325.0</ele><time>2026-04-18T15:05:20.138Z</time></trkpt><trkpt lat="41.5231396" lon="13.1825033"><ele>325.0</ele><time>2026-04-18T15:05:22.138Z</time></trkpt><trkpt lat="41.5230913" lon="13.182448"><ele>325.0</ele><time>2026-04-18T15:05:24.138Z</time></trkpt><trkpt lat="41.5230716" lon="13.1823479"><ele>325.0</ele><time>2026-04-18T15:05:34.138Z</time></trkpt><trkpt lat="41.5231174" lon="13.1822793"><ele>325.0</ele><time>2026-04-18T15:05:37.138Z</time></trkpt><trkpt lat="41.5232177" lon="13.1823127"><ele>325.0</ele><time>2026-04-18T15:05:43.138Z</time></trkpt><trkpt lat="41.523325" lon="13.1823997"><ele>325.0</ele><time>2026-04-18T15:05:45.138Z</time></trkpt><trkpt lat="41.5234096" lon="13.1824617"><ele>325.0</ele><time>2026-04-18T15:05:46.138Z</time></trkpt><trkpt lat="41.5235109" lon="13.1825355"><ele>325.0</ele><time>2026-04-18T15:05:47.138Z</time></trkpt><trkpt lat="41.523619" lon="13.182624"><ele>325.0</ele><time>2026-04-18T15:05:48.138Z</time></trkpt><trkpt lat="41.5237381" lon="13.1827302"><ele>325.25</ele><time>2026-04-18T15:05:49.138Z</time></trkpt><trkpt lat="41.5238498" lon="13.1828498"><ele>325.5</ele><time>2026-04-18T15:05:50.137Z</time></trkpt><trkpt lat="41.5239699" lon="13.1829504"><ele>325.75</ele><time>2026-04-18T15:05:51.138Z</time></trkpt><trkpt lat="41.5240919" lon="13.1830578"><ele>326.0</ele><time>2026-04-18T15:05:52.138Z</time></trkpt><trkpt lat="41.5242155" lon="13.1831623"><ele>323.0</ele><time>2026-04-18T15:05:53.138Z</time></trkpt><trkpt lat="41.5243407" lon="13.1832645"><ele>320.0</ele><time>2026-04-18T15:05:54.137Z</time></trkpt><trkpt lat="41.5244697" lon="13.1833734"><ele>317.0</ele><time>2026-04-18T15:05:55.138Z</time></trkpt><trkpt lat="41.5245967" lon="13.183478"><ele>314.0</ele><time>2026-04-18T15:05:56.138Z</time></trkpt><trkpt lat="41.524718" lon="13.1835749"><ele>310.25</ele><time>2026-04-18T15:05:57.138Z</time></trkpt><trkpt lat="41.5248329" lon="13.1836552"><ele>306.5</ele><time>2026-04-18T15:05:58.138Z</time></trkpt><trkpt lat="41.5249438" lon="13.1837112"><ele>302.75</ele><time>2026-04-18T15:05:59.138Z</time></trkpt><trkpt lat="41.5250438" lon="13.1837705"><ele>299.0</ele><time>2026-04-18T15:06:00.138Z</time></trkpt><trkpt lat="41.5251435" lon="13.1838105"><ele>299.0</ele><time>2026-04-18T15:06:01.138Z</time></trkpt><trkpt lat="41.5252476" lon="13.1838239"><ele>299.0</ele><time>2026-04-18T15:06:02.137Z</time></trkpt><trkpt lat="41.5253682" lon="13.1838114"><ele>299.0</ele><time>2026-04-18T15:06:03.138Z</time></trkpt><trkpt lat="41.5255086" lon="13.1837875"><ele>299.0</ele><time>2026-04-18T15:06:04.138Z</time></trkpt><trkpt lat="41.5256636" lon="13.1837585"><ele>294.5</ele><time>2026-04-18T15:06:05.138Z</time></trkpt><trkpt lat="41.525809" lon="13.183737"><ele>290.0</ele><time>2026-04-18T15:06:06.138Z</time></trkpt><trkpt lat="41.5259466" lon="13.1837207"><ele>285.5</ele><time>2026-04-18T15:06:07.138Z</time></trkpt><trkpt lat="41.5260835" lon="13.1837086"><ele>281.0</ele><time>2026-04-18T15:06:08.138Z</time></trkpt><trkpt lat="41.5262118" lon="13.18369"><ele>275.5</ele><time>2026-04-18T15:06:09.138Z</time></trkpt><trkpt lat="41.5263358" lon="13.1836779"><ele>270.0</ele><time>2026-04-18T15:06:10.138Z</time></trkpt><trkpt lat="41.5264583" lon="13.1836649"><ele>264.5</ele><time>2026-04-18T15:06:11.138Z</time></trkpt><trkpt lat="41.5265808" lon="13.1836579"><ele>259.0</ele><time>2026-04-18T15:06:12.138Z</time></trkpt><trkpt lat="41.5267014" lon="13.1836484"><ele>259.0</ele><time>2026-04-18T15:06:13.138Z</time></trkpt><trkpt lat="41.5268203" lon="13.1836399"><ele>259.0</ele><time>2026-04-18T15:06:14.138Z</time></trkpt><trkpt lat="41.5269368" lon="13.1836308"><ele>259.0</ele><time>2026-04-18T15:06:15.138Z</time></trkpt><trkpt lat="41.5270504" lon="13.1836152"><ele>259.0</ele><time>2026-04-18T15:06:16.138Z</time></trkpt><trkpt lat="41.5271617" lon="13.1835971"><ele>258.4</ele><time>2026-04-18T15:06:17.138Z</time></trkpt><trkpt lat="41.5272687" lon="13.1835728"><ele>257.79999999999995</ele><time>2026-04-18T15:06:18.138Z</time></trkpt><trkpt lat="41.5273773" lon="13.1835414"><ele>257.20000000000005</ele><time>2026-04-18T15:06:19.138Z</time></trkpt><trkpt lat="41.527482" lon="13.1834947"><ele>256.6</ele><time>2026-04-18T15:06:20.137Z</time></trkpt><trkpt lat="41.5275819" lon="13.1834361"><ele>256.0</ele><time>2026-04-18T15:06:21.138Z</time></trkpt><trkpt lat="41.5276745" lon="13.1833627"><ele>256.0</ele><time>2026-04-18T15:06:22.138Z</time></trkpt><trkpt lat="41.5277658" lon="13.1832811"><ele>256.0</ele><time>2026-04-18T15:06:23.137Z</time></trkpt><trkpt lat="41.5278471" lon="13.1831916"><ele>256.0</ele><time>2026-04-18T15:06:24.138Z</time></trkpt><trkpt lat="41.5279231" lon="13.1830972"><ele>256.0</ele><time>2026-04-18T15:06:25.138Z</time></trkpt><trkpt lat="41.5280006" lon="13.1830029"><ele>256.0</ele><time>2026-04-18T15:06:26.138Z</time></trkpt><trkpt lat="41.5280777" lon="13.182911"><ele>253.0</ele><time>2026-04-18T15:06:27.138Z</time></trkpt><trkpt lat="41.5281587" lon="13.1828293"><ele>250.0</ele><time>2026-04-18T15:06:28.137Z</time></trkpt><trkpt lat="41.5282467" lon="13.182753"><ele>247.0</ele><time>2026-04-18T15:06:29.138Z</time></trkpt><trkpt lat="41.5283441" lon="13.1826688"><ele>244.0</ele><time>2026-04-18T15:06:30.138Z</time></trkpt><trkpt lat="41.5284559" lon="13.1825701"><ele>244.0</ele><time>2026-04-18T15:06:31.138Z</time></trkpt><trkpt lat="41.5285619" lon="13.1824591"><ele>244.0</ele><time>2026-04-18T15:06:32.138Z</time></trkpt><trkpt lat="41.5286638" lon="13.1823501"><ele>244.0</ele><time>2026-04-18T15:06:33.138Z</time></trkpt><trkpt lat="41.5287501" lon="13.1822486"><ele>244.0</ele><time>2026-04-18T15:06:34.138Z</time></trkpt><trkpt lat="41.5288143" lon="13.1821672"><ele>243.2</ele><time>2026-04-18T15:06:35.137Z</time></trkpt><trkpt lat="41.5288213" lon="13.1820501"><ele>242.39999999999998</ele><time>2026-04-18T15:06:37.138Z</time></trkpt><trkpt lat="41.5286935" lon="13.1820211"><ele>241.6</ele><time>2026-04-18T15:06:39.138Z</time></trkpt><trkpt lat="41.5286042" lon="13.1820787"><ele>240.8</ele><time>2026-04-18T15:06:40.138Z</time></trkpt><trkpt lat="41.5284978" lon="13.1821697"><ele>240.0</ele><time>2026-04-18T15:06:41.138Z</time></trkpt><trkpt lat="41.5283978" lon="13.1822511"><ele>236.4</ele><time>2026-04-18T15:06:42.138Z</time></trkpt><trkpt lat="41.5283126" lon="13.1823054"><ele>232.8</ele><time>2026-04-18T15:06:43.138Z</time></trkpt><trkpt lat="41.528242" lon="13.1823283"><ele>229.2</ele><time>2026-04-18T15:06:44.138Z</time></trkpt><trkpt lat="41.5281753" lon="13.1822504"><ele>225.6</ele><time>2026-04-18T15:06:46.138Z</time></trkpt><trkpt lat="41.5282531" lon="13.182086"><ele>222.0</ele><time>2026-04-18T15:06:48.138Z</time></trkpt><trkpt lat="41.5283521" lon="13.1819769"><ele>222.0</ele><time>2026-04-18T15:06:49.138Z</time></trkpt><trkpt lat="41.5284552" lon="13.1818489"><ele>222.0</ele><time>2026-04-18T15:06:50.138Z</time></trkpt><trkpt lat="41.5285605" lon="13.1817046"><ele>222.0</ele><time>2026-04-18T15:06:51.138Z</time></trkpt><trkpt lat="41.5286599" lon="13.1815434"><ele>222.0</ele><time>2026-04-18T15:06:52.138Z</time></trkpt><trkpt lat="41.5287547" lon="13.1813657"><ele>220.66666666666669</ele><time>2026-04-18T15:06:53.138Z</time></trkpt><trkpt lat="41.5288472" lon="13.1811763"><ele>219.33333333333334</ele><time>2026-04-18T15:06:54.138Z</time></trkpt><trkpt lat="41.5289373" lon="13.1809804"><ele>218.0</ele><time>2026-04-18T15:06:55.138Z</time></trkpt><trkpt lat="41.5290239" lon="13.1807867"><ele>212.33333333333334</ele><time>2026-04-18T15:06:56.138Z</time></trkpt><trkpt lat="41.5291108" lon="13.1806079"><ele>206.66666666666669</ele><time>2026-04-18T15:06:57.138Z</time></trkpt><trkpt lat="41.529192" lon="13.180433"><ele>201.0</ele><time>2026-04-18T15:06:58.137Z</time></trkpt><trkpt lat="41.5292673" lon="13.1802552"><ele>201.0</ele><time>2026-04-18T15:06:59.138Z</time></trkpt><trkpt lat="41.5293385" lon="13.1800828"><ele>201.0</ele><time>2026-04-18T15:07:00.138Z</time></trkpt><trkpt lat="41.5293972" lon="13.1799228"><ele>201.0</ele><time>2026-04-18T15:07:01.138Z</time></trkpt><trkpt lat="41.5294502" lon="13.179778"><ele>201.0</ele><time>2026-04-18T15:07:02.138Z</time></trkpt><trkpt lat="41.5294952" lon="13.1796511"><ele>200.16666666666666</ele><time>2026-04-18T15:07:03.137Z</time></trkpt><trkpt lat="41.5295274" lon="13.1795581"><ele>199.33333333333331</ele><time>2026-04-18T15:07:04.138Z</time></trkpt><trkpt lat="41.5295571" lon="13.1794453"><ele>198.5</ele><time>2026-04-18T15:07:06.138Z</time></trkpt><trkpt lat="41.529536" lon="13.1793585"><ele>197.66666666666666</ele><time>2026-04-18T15:07:09.138Z</time></trkpt><trkpt lat="41.5294244" lon="13.179267"><ele>196.83333333333331</ele><time>2026-04-18T15:07:11.138Z</time></trkpt><trkpt lat="41.5293673" lon="13.179203"><ele>196.0</ele><time>2026-04-18T15:07:12.138Z</time></trkpt><trkpt lat="41.5293223" lon="13.179139"><ele>195.99999999999997</ele><time>2026-04-18T15:07:13.138Z</time></trkpt><trkpt lat="41.5292745" lon="13.1790647"><ele>196.0</ele><time>2026-04-18T15:07:14.138Z</time></trkpt><trkpt lat="41.5292209" lon="13.1789795"><ele>196.0</ele><time>2026-04-18T15:07:15.137Z</time></trkpt><trkpt lat="41.5291681" lon="13.1788876"><ele>196.0</ele><time>2026-04-18T15:07:16.138Z</time></trkpt><trkpt lat="41.5291243" lon="13.1787835"><ele>195.99999999999997</ele><time>2026-04-18T15:07:17.138Z</time></trkpt><trkpt lat="41.5290978" lon="13.178672"><ele>196.0</ele><time>2026-04-18T15:07:18.138Z</time></trkpt><trkpt lat="41.5290811" lon="13.1785634"><ele>195.66666666666666</ele><time>2026-04-18T15:07:19.138Z</time></trkpt><trkpt lat="41.5290769" lon="13.1784597"><ele>195.33333333333331</ele><time>2026-04-18T15:07:20.138Z</time></trkpt><trkpt lat="41.5290585" lon="13.1783665"><ele>195.0</ele><time>2026-04-18T15:07:21.138Z</time></trkpt><trkpt lat="41.529011" lon="13.1782969"><ele>194.66666666666669</ele><time>2026-04-18T15:07:22.137Z</time></trkpt><trkpt lat="41.5289268" lon="13.1782782"><ele>194.33333333333334</ele><time>2026-04-18T15:07:23.138Z</time></trkpt><trkpt lat="41.5288488" lon="13.1782997"><ele>194.0</ele><time>2026-04-18T15:07:24.138Z</time></trkpt><trkpt lat="41.5287842" lon="13.1783811"><ele>194.00000000000003</ele><time>2026-04-18T15:07:25.138Z</time></trkpt><trkpt lat="41.5287463" lon="13.1784876"><ele>194.0</ele><time>2026-04-18T15:07:26.138Z</time></trkpt><trkpt lat="41.5287365" lon="13.1785976"><ele>194.0</ele><time>2026-04-18T15:07:27.138Z</time></trkpt><trkpt lat="41.5287731" lon="13.1786861"><ele>194.0</ele><time>2026-04-18T15:07:28.138Z</time></trkpt><trkpt lat="41.5288081" lon="13.178777"><ele>194.00000000000003</ele><time>2026-04-18T15:07:29.138Z</time></trkpt><trkpt lat="41.5288472" lon="13.1788725"><ele>194.0</ele><time>2026-04-18T15:07:30.138Z</time></trkpt><trkpt lat="41.528865" lon="13.1789578"><ele>194.39999999999998</ele><time>2026-04-18T15:07:31.138Z</time></trkpt><trkpt lat="41.5287941" lon="13.1790571"><ele>194.8</ele><time>2026-04-18T15:07:33.138Z</time></trkpt><trkpt lat="41.5287179" lon="13.1790171"><ele>195.2</ele><time>2026-04-18T15:07:34.137Z</time></trkpt><trkpt lat="41.5286496" lon="13.1788942"><ele>195.60000000000002</ele><time>2026-04-18T15:07:35.138Z</time></trkpt><trkpt lat="41.5285907" lon="13.1787587"><ele>196.0</ele><time>2026-04-18T15:07:36.138Z</time></trkpt><trkpt lat="41.5285236" lon="13.1786167"><ele>192.0</ele><time>2026-04-18T15:07:37.138Z</time></trkpt><trkpt lat="41.5284467" lon="13.1784715"><ele>188.0</ele><time>2026-04-18T15:07:38.138Z</time></trkpt><trkpt lat="41.5283607" lon="13.1783307"><ele>184.0</ele><time>2026-04-18T15:07:39.138Z</time></trkpt><trkpt lat="41.5282771" lon="13.1781878"><ele>180.0</ele><time>2026-04-18T15:07:40.138Z</time></trkpt><trkpt lat="41.5281996" lon="13.1780468"><ele>178.25</ele><time>2026-04-18T15:07:41.137Z</time></trkpt><trkpt lat="41.5281274" lon="13.1779071"><ele>176.5</ele><time>2026-04-18T15:07:42.138Z</time></trkpt><trkpt lat="41.528076" lon="13.177759"><ele>174.75</ele><time>2026-04-18T15:07:43.138Z</time></trkpt><trkpt lat="41.5280417" lon="13.1776085"><ele>173.0</ele><time>2026-04-18T15:07:44.138Z</time></trkpt><trkpt lat="41.5280198" lon="13.1774528"><ele>171.8</ele><time>2026-04-18T15:07:45.137Z</time></trkpt><trkpt lat="41.5279978" lon="13.177301"><ele>170.60000000000002</ele><time>2026-04-18T15:07:46.138Z</time></trkpt><trkpt lat="41.5279689" lon="13.1771689"><ele>169.39999999999998</ele><time>2026-04-18T15:07:47.138Z</time></trkpt><trkpt lat="41.5279248" lon="13.1770648"><ele>168.2</ele><time>2026-04-18T15:07:48.138Z</time></trkpt><trkpt lat="41.5278578" lon="13.1770159"><ele>167.0</ele><time>2026-04-18T15:07:49.138Z</time></trkpt><trkpt lat="41.5277734" lon="13.1770299"><ele>164.75</ele><time>2026-04-18T15:07:50.138Z</time></trkpt><trkpt lat="41.5276894" lon="13.1771007"><ele>162.5</ele><time>2026-04-18T15:07:51.138Z</time></trkpt><trkpt lat="41.5275936" lon="13.1771891"><ele>160.25</ele><time>2026-04-18T15:07:52.138Z</time></trkpt><trkpt lat="41.5274889" lon="13.1772876"><ele>158.0</ele><time>2026-04-18T15:07:53.137Z</time></trkpt><trkpt lat="41.5273801" lon="13.1773327"><ele>158.0</ele><time>2026-04-18T15:07:54.138Z</time></trkpt><trkpt lat="41.5272737" lon="13.177317"><ele>158.0</ele><time>2026-04-18T15:07:55.138Z</time></trkpt><trkpt lat="41.5271639" lon="13.1772564"><ele>158.0</ele><time>2026-04-18T15:07:56.137Z</time></trkpt><trkpt lat="41.5270494" lon="13.1771345"><ele>158.0</ele><time>2026-04-18T15:07:57.138Z</time></trkpt><trkpt lat="41.5269253" lon="13.176993"><ele>157.66666666666666</ele><time>2026-04-18T15:07:58.138Z</time></trkpt><trkpt lat="41.5267903" lon="13.1768522"><ele>157.33333333333334</ele><time>2026-04-18T15:07:59.138Z</time></trkpt><trkpt lat="41.5266524" lon="13.1767031"><ele>157.0</ele><time>2026-04-18T15:08:00.138Z</time></trkpt><trkpt lat="41.5265105" lon="13.1765484"><ele>155.0</ele><time>2026-04-18T15:08:01.138Z</time></trkpt><trkpt lat="41.5263692" lon="13.1763873"><ele>153.0</ele><time>2026-04-18T15:08:02.137Z</time></trkpt><trkpt lat="41.5262239" lon="13.1762292"><ele>151.0</ele><time>2026-04-18T15:08:03.138Z</time></trkpt><trkpt lat="41.5260762" lon="13.1760785"><ele>151.0</ele><time>2026-04-18T15:08:04.137Z</time></trkpt><trkpt lat="41.5259288" lon="13.1759287"><ele>151.0</ele><time>2026-04-18T15:08:05.138Z</time></trkpt><trkpt lat="41.5257823" lon="13.1757933"><ele>151.0</ele><time>2026-04-18T15:08:06.138Z</time></trkpt><trkpt lat="41.5256285" lon="13.1756926"><ele>150.33333333333334</ele><time>2026-04-18T15:08:07.138Z</time></trkpt><trkpt lat="41.5254628" lon="13.1756089"><ele>149.66666666666666</ele><time>2026-04-18T15:08:08.138Z</time></trkpt><trkpt lat="41.5252877" lon="13.1755278"><ele>149.0</ele><time>2026-04-18T15:08:09.138Z</time></trkpt><trkpt lat="41.5250966" lon="13.1754306"><ele>145.66666666666666</ele><time>2026-04-18T15:08:10.137Z</time></trkpt><trkpt lat="41.5249062" lon="13.175295"><ele>142.33333333333334</ele><time>2026-04-18T15:08:11.137Z</time></trkpt><trkpt lat="41.5247242" lon="13.1751533"><ele>139.0</ele><time>2026-04-18T15:08:12.138Z</time></trkpt><trkpt lat="41.5245533" lon="13.1750043"><ele>139.0</ele><time>2026-04-18T15:08:13.138Z</time></trkpt><trkpt lat="41.5243747" lon="13.1748724"><ele>139.0</ele><time>2026-04-18T15:08:14.138Z</time></trkpt><trkpt lat="41.5241812" lon="13.1747518"><ele>139.0</ele><time>2026-04-18T15:08:15.137Z</time></trkpt><trkpt lat="41.523977" lon="13.1746536"><ele>136.5</ele><time>2026-04-18T15:08:16.138Z</time></trkpt><trkpt lat="41.5237609" lon="13.1745651"><ele>134.0</ele><time>2026-04-18T15:08:17.138Z</time></trkpt><trkpt lat="41.5235334" lon="13.1744653"><ele>131.0</ele><time>2026-04-18T15:08:18.138Z</time></trkpt><trkpt lat="41.5233097" lon="13.1743664"><ele>128.0</ele><time>2026-04-18T15:08:19.138Z</time></trkpt><trkpt lat="41.5230869" lon="13.1742708"><ele>126.5</ele><time>2026-04-18T15:08:20.137Z</time></trkpt><trkpt lat="41.5228697" lon="13.1741727"><ele>125.0</ele><time>2026-04-18T15:08:21.138Z</time></trkpt><trkpt lat="41.5226554" lon="13.174079"><ele>123.0</ele><time>2026-04-18T15:08:22.138Z</time></trkpt><trkpt lat="41.5224364" lon="13.1739855"><ele>121.0</ele><time>2026-04-18T15:08:23.137Z</time></trkpt><trkpt lat="41.5222174" lon="13.1738878"><ele>120.33333333333334</ele><time>2026-04-18T15:08:24.138Z</time></trkpt><trkpt lat="41.52201" lon="13.1737913"><ele>119.66666666666666</ele><time>2026-04-18T15:08:25.138Z</time></trkpt><trkpt lat="41.5218121" lon="13.173698"><ele>119.0</ele><time>2026-04-18T15:08:26.138Z</time></trkpt><trkpt lat="41.5216423" lon="13.1736125"><ele>119.0</ele><time>2026-04-18T15:08:27.138Z</time></trkpt><trkpt lat="41.5214899" lon="13.1735354"><ele>119.0</ele><time>2026-04-18T15:08:28.138Z</time></trkpt><trkpt lat="41.5213506" lon="13.1734659"><ele>119.0</ele><time>2026-04-18T15:08:29.138Z</time></trkpt><trkpt lat="41.5212285" lon="13.1733657"><ele>119.33333333333333</ele><time>2026-04-18T15:08:30.138Z</time></trkpt><trkpt lat="41.5211236" lon="13.1732346"><ele>119.66666666666666</ele><time>2026-04-18T15:08:31.137Z</time></trkpt><trkpt lat="41.5210273" lon="13.1730799"><ele>120.0</ele><time>2026-04-18T15:08:32.137Z</time></trkpt><trkpt lat="41.5209126" lon="13.1729393"><ele>120.0</ele><time>2026-04-18T15:08:33.137Z</time></trkpt><trkpt lat="41.5207703" lon="13.1728307"><ele>120.0</ele><time>2026-04-18T15:08:34.138Z</time></trkpt><trkpt lat="41.520608" lon="13.1727456"><ele>120.0</ele><time>2026-04-18T15:08:35.137Z</time></trkpt><trkpt lat="41.5204453" lon="13.1726739"><ele>119.33333333333334</ele><time>2026-04-18T15:08:36.138Z</time></trkpt><trkpt lat="41.5202794" lon="13.1726253"><ele>118.66666666666667</ele><time>2026-04-18T15:08:37.138Z</time></trkpt><trkpt lat="41.5201096" lon="13.1726018"><ele>118.0</ele><time>2026-04-18T15:08:38.138Z</time></trkpt><trkpt lat="41.5199411" lon="13.1725774"><ele>118.0</ele><time>2026-04-18T15:08:39.138Z</time></trkpt><trkpt lat="41.5197737" lon="13.1725487"><ele>118.0</ele><time>2026-04-18T15:08:40.138Z</time></trkpt><trkpt lat="41.5196116" lon="13.1724891"><ele>118.0</ele><time>2026-04-18T15:08:41.138Z</time></trkpt><trkpt lat="41.5194556" lon="13.1723891"><ele>119.0</ele><time>2026-04-18T15:08:42.137Z</time></trkpt><trkpt lat="41.5192916" lon="13.1722628"><ele>120.0</ele><time>2026-04-18T15:08:43.138Z</time></trkpt><trkpt lat="41.5191285" lon="13.1721224"><ele>121.0</ele><time>2026-04-18T15:08:44.138Z</time></trkpt><trkpt lat="41.518966" lon="13.1719823"><ele>121.0</ele><time>2026-04-18T15:08:45.138Z</time></trkpt><trkpt lat="41.5188116" lon="13.1718382"><ele>121.0</ele><time>2026-04-18T15:08:46.138Z</time></trkpt><trkpt lat="41.5186704" lon="13.1716853"><ele>121.0</ele><time>2026-04-18T15:08:47.138Z</time></trkpt><trkpt lat="41.5185495" lon="13.1715211"><ele>119.66666666666667</ele><time>2026-04-18T15:08:48.138Z</time></trkpt><trkpt lat="41.51844" lon="13.1713607"><ele>118.33333333333334</ele><time>2026-04-18T15:08:49.138Z</time></trkpt><trkpt lat="41.5183323" lon="13.1712086"><ele>117.0</ele><time>2026-04-18T15:08:50.138Z</time></trkpt><trkpt lat="41.518223" lon="13.1710623"><ele>117.0</ele><time>2026-04-18T15:08:51.138Z</time></trkpt><trkpt lat="41.5181141" lon="13.1709262"><ele>117.0</ele><time>2026-04-18T15:08:52.138Z</time></trkpt><trkpt lat="41.518002" lon="13.1707917"><ele>117.0</ele><time>2026-04-18T15:08:53.138Z</time></trkpt><trkpt lat="41.5178903" lon="13.1706618"><ele>117.0</ele><time>2026-04-18T15:08:54.138Z</time></trkpt><trkpt lat="41.5177773" lon="13.1705514"><ele>114.75</ele><time>2026-04-18T15:08:55.138Z</time></trkpt><trkpt lat="41.517656" lon="13.1704608"><ele>112.5</ele><time>2026-04-18T15:08:56.137Z</time></trkpt><trkpt lat="41.5175219" lon="13.1704145"><ele>110.25</ele><time>2026-04-18T15:08:57.138Z</time></trkpt><trkpt lat="41.5173684" lon="13.1704136"><ele>108.0</ele><time>2026-04-18T15:08:58.138Z</time></trkpt><trkpt lat="41.5172008" lon="13.1704257"><ele>106.33333333333334</ele><time>2026-04-18T15:08:59.138Z</time></trkpt><trkpt lat="41.5170416" lon="13.170447"><ele>104.66666666666667</ele><time>2026-04-18T15:09:00.138Z</time></trkpt><trkpt lat="41.5168863" lon="13.1704495"><ele>103.0</ele><time>2026-04-18T15:09:01.137Z</time></trkpt><trkpt lat="41.5167193" lon="13.1704572"><ele>103.0</ele><time>2026-04-18T15:09:02.137Z</time></trkpt><trkpt lat="41.5165354" lon="13.1704565"><ele>103.0</ele><time>2026-04-18T15:09:03.138Z</time></trkpt><trkpt lat="41.5163556" lon="13.170474"><ele>103.0</ele><time>2026-04-18T15:09:04.138Z</time></trkpt><trkpt lat="41.5161739" lon="13.1705019"><ele>101.66666666666667</ele><time>2026-04-18T15:09:05.138Z</time></trkpt><trkpt lat="41.51599" lon="13.1705499"><ele>100.33333333333334</ele><time>2026-04-18T15:09:06.138Z</time></trkpt><trkpt lat="41.5157988" lon="13.1706092"><ele>99.0</ele><time>2026-04-18T15:09:07.138Z</time></trkpt><trkpt lat="41.5156132" lon="13.1706618"><ele>99.33333333333334</ele><time>2026-04-18T15:09:08.138Z</time></trkpt><trkpt lat="41.5154232" lon="13.1707084"><ele>99.66666666666667</ele><time>2026-04-18T15:09:09.138Z</time></trkpt><trkpt lat="41.5152344" lon="13.1707506"><ele>100.0</ele><time>2026-04-18T15:09:10.138Z</time></trkpt><trkpt lat="41.515046" lon="13.1707807"><ele>98.0</ele><time>2026-04-18T15:09:11.138Z</time></trkpt><trkpt lat="41.5148557" lon="13.170814"><ele>96.0</ele><time>2026-04-18T15:09:12.138Z</time></trkpt><trkpt lat="41.5146676" lon="13.1708481"><ele>94.0</ele><time>2026-04-18T15:09:13.138Z</time></trkpt><trkpt lat="41.5144829" lon="13.1708794"><ele>92.66666666666666</ele><time>2026-04-18T15:09:14.138Z</time></trkpt><trkpt lat="41.5143066" lon="13.1709062"><ele>91.33333333333333</ele><time>2026-04-18T15:09:15.138Z</time></trkpt><trkpt lat="41.5141393" lon="13.1709284"><ele>90.0</ele><time>2026-04-18T15:09:16.138Z</time></trkpt><trkpt lat="41.5139751" lon="13.1709548"><ele>90.0</ele><time>2026-04-18T15:09:17.138Z</time></trkpt><trkpt lat="41.513814" lon="13.1709778"><ele>90.0</ele><time>2026-04-18T15:09:18.138Z</time></trkpt><trkpt lat="41.5136555" lon="13.1710036"><ele>90.0</ele><time>2026-04-18T15:09:19.137Z</time></trkpt><trkpt lat="41.5135001" lon="13.1710487"><ele>89.66666666666667</ele><time>2026-04-18T15:09:20.138Z</time></trkpt><trkpt lat="41.5133428" lon="13.1711341"><ele>89.33333333333334</ele><time>2026-04-18T15:09:21.138Z</time></trkpt><trkpt lat="41.5131889" lon="13.1712624"><ele>89.0</ele><time>2026-04-18T15:09:22.138Z</time></trkpt><trkpt lat="41.5130249" lon="13.1714205"><ele>88.0</ele><time>2026-04-18T15:09:23.138Z</time></trkpt><trkpt lat="41.5128668" lon="13.171586"><ele>87.0</ele><time>2026-04-18T15:09:24.138Z</time></trkpt><trkpt lat="41.5127045" lon="13.1717631"><ele>86.0</ele><time>2026-04-18T15:09:25.138Z</time></trkpt><trkpt lat="41.5125371" lon="13.1719407"><ele>86.0</ele><time>2026-04-18T15:09:26.138Z</time></trkpt><trkpt lat="41.5123658" lon="13.1721187"><ele>86.0</ele><time>2026-04-18T15:09:27.138Z</time></trkpt><trkpt lat="41.5121943" lon="13.1722955"><ele>86.0</ele><time>2026-04-18T15:09:28.138Z</time></trkpt><trkpt lat="41.5120186" lon="13.1724702"><ele>84.33333333333334</ele><time>2026-04-18T15:09:29.138Z</time></trkpt><trkpt lat="41.5118524" lon="13.1726373"><ele>82.66666666666667</ele><time>2026-04-18T15:09:30.138Z</time></trkpt><trkpt lat="41.511693" lon="13.172799"><ele>81.0</ele><time>2026-04-18T15:09:31.138Z</time></trkpt><trkpt lat="41.5115379" lon="13.172953"><ele>81.0</ele><time>2026-04-18T15:09:32.138Z</time></trkpt><trkpt lat="41.5113787" lon="13.1731027"><ele>81.0</ele><time>2026-04-18T15:09:33.138Z</time></trkpt><trkpt lat="41.5112129" lon="13.1732517"><ele>81.0</ele><time>2026-04-18T15:09:34.138Z</time></trkpt><trkpt lat="41.5110361" lon="13.173395"><ele>79.66666666666667</ele><time>2026-04-18T15:09:35.138Z</time></trkpt><trkpt lat="41.5108609" lon="13.1735212"><ele>78.33333333333334</ele><time>2026-04-18T15:09:36.138Z</time></trkpt><trkpt lat="41.5106866" lon="13.1736357"><ele>77.0</ele><time>2026-04-18T15:09:37.138Z</time></trkpt><trkpt lat="41.5105121" lon="13.1737444"><ele>76.33333333333334</ele><time>2026-04-18T15:09:38.138Z</time></trkpt><trkpt lat="41.5103384" lon="13.1738438"><ele>75.66666666666667</ele><time>2026-04-18T15:09:39.138Z</time></trkpt><trkpt lat="41.5101624" lon="13.1739369"><ele>75.0</ele><time>2026-04-18T15:09:40.138Z</time></trkpt><trkpt lat="41.5099877" lon="13.1740178"><ele>74.66666666666667</ele><time>2026-04-18T15:09:41.137Z</time></trkpt><trkpt lat="41.5098082" lon="13.174095"><ele>74.33333333333334</ele><time>2026-04-18T15:09:42.138Z</time></trkpt><trkpt lat="41.5096286" lon="13.1741684"><ele>74.0</ele><time>2026-04-18T15:09:43.138Z</time></trkpt><trkpt lat="41.5094476" lon="13.1742444"><ele>73.66666666666667</ele><time>2026-04-18T15:09:44.137Z</time></trkpt><trkpt lat="41.5092702" lon="13.1743167"><ele>73.33333333333333</ele><time>2026-04-18T15:09:45.138Z</time></trkpt><trkpt lat="41.5090885" lon="13.174393"><ele>73.0</ele><time>2026-04-18T15:09:46.137Z</time></trkpt><trkpt lat="41.5089096" lon="13.174467"><ele>72.0</ele><time>2026-04-18T15:09:47.138Z</time></trkpt><trkpt lat="41.5087278" lon="13.1745396"><ele>71.0</ele><time>2026-04-18T15:09:48.138Z</time></trkpt><trkpt lat="41.5085445" lon="13.1746195"><ele>70.0</ele><time>2026-04-18T15:09:49.138Z</time></trkpt><trkpt lat="41.508367" lon="13.1747004"><ele>70.0</ele><time>2026-04-18T15:09:50.138Z</time></trkpt><trkpt lat="41.5081915" lon="13.1747798"><ele>70.0</ele><time>2026-04-18T15:09:51.138Z</time></trkpt><trkpt lat="41.5080169" lon="13.1748683"><ele>70.0</ele><time>2026-04-18T15:09:52.138Z</time></trkpt><trkpt lat="41.507845" lon="13.1749756"><ele>68.66666666666666</ele><time>2026-04-18T15:09:53.138Z</time></trkpt><trkpt lat="41.5076743" lon="13.1750805"><ele>67.33333333333333</ele><time>2026-04-18T15:09:54.138Z</time></trkpt><trkpt lat="41.5075065" lon="13.1751952"><ele>66.0</ele><time>2026-04-18T15:09:55.138Z</time></trkpt><trkpt lat="41.50734" lon="13.1753139"><ele>66.0</ele><time>2026-04-18T15:09:56.138Z</time></trkpt><trkpt lat="41.5071747" lon="13.1754374"><ele>66.0</ele><time>2026-04-18T15:09:57.138Z</time></trkpt><trkpt lat="41.507012" lon="13.1755612"><ele>66.0</ele><time>2026-04-18T15:09:58.138Z</time></trkpt><trkpt lat="41.5068599" lon="13.175684"><ele>64.66666666666667</ele><time>2026-04-18T15:09:59.138Z</time></trkpt><trkpt lat="41.5067114" lon="13.1758034"><ele>63.333333333333336</ele><time>2026-04-18T15:10:00.137Z</time></trkpt><trkpt lat="41.5065638" lon="13.1759162"><ele>62.0</ele><time>2026-04-18T15:10:01.137Z</time></trkpt><trkpt lat="41.5064127" lon="13.1760245"><ele>62.0</ele><time>2026-04-18T15:10:02.138Z</time></trkpt><trkpt lat="41.5062609" lon="13.1761296"><ele>62.0</ele><time>2026-04-18T15:10:03.138Z</time></trkpt><trkpt lat="41.5061084" lon="13.1762298"><ele>62.0</ele><time>2026-04-18T15:10:04.138Z</time></trkpt><trkpt lat="41.5059608" lon="13.1763284"><ele>61.66666666666667</ele><time>2026-04-18T15:10:05.138Z</time></trkpt><trkpt lat="41.5058161" lon="13.1764336"><ele>61.33333333333333</ele><time>2026-04-18T15:10:06.138Z</time></trkpt><trkpt lat="41.5056725" lon="13.1765402"><ele>61.0</ele><time>2026-04-18T15:10:07.138Z</time></trkpt><trkpt lat="41.5055237" lon="13.1766472"><ele>60.0</ele><time>2026-04-18T15:10:08.138Z</time></trkpt><trkpt lat="41.5053585" lon="13.1767421"><ele>59.0</ele><time>2026-04-18T15:10:09.138Z</time></trkpt><trkpt lat="41.5051798" lon="13.1768259"><ele>58.0</ele><time>2026-04-18T15:10:10.138Z</time></trkpt><trkpt lat="41.5049946" lon="13.1769054"><ele>58.0</ele><time>2026-04-18T15:10:11.137Z</time></trkpt><trkpt lat="41.5048058" lon="13.1769863"><ele>58.0</ele><time>2026-04-18T15:10:12.138Z</time></trkpt><trkpt lat="41.5046076" lon="13.1770605"><ele>58.0</ele><time>2026-04-18T15:10:13.137Z</time></trkpt><trkpt lat="41.5044133" lon="13.1771365"><ele>57.666666666666664</ele><time>2026-04-18T15:10:14.138Z</time></trkpt><trkpt lat="41.5042186" lon="13.1772164"><ele>57.33333333333333</ele><time>2026-04-18T15:10:15.138Z</time></trkpt><trkpt lat="41.504021" lon="13.1772943"><ele>57.0</ele><time>2026-04-18T15:10:16.138Z</time></trkpt><trkpt lat="41.503826" lon="13.1773632"><ele>56.0</ele><time>2026-04-18T15:10:17.137Z</time></trkpt><trkpt lat="41.5036376" lon="13.1774348"><ele>55.0</ele><time>2026-04-18T15:10:18.137Z</time></trkpt><trkpt lat="41.5034533" lon="13.1775052"><ele>54.0</ele><time>2026-04-18T15:10:19.138Z</time></trkpt><trkpt lat="41.5032785" lon="13.1775794"><ele>54.0</ele><time>2026-04-18T15:10:20.138Z</time></trkpt><trkpt lat="41.5031138" lon="13.1776521"><ele>54.0</ele><time>2026-04-18T15:10:21.137Z</time></trkpt><trkpt lat="41.5029567" lon="13.1777215"><ele>54.0</ele><time>2026-04-18T15:10:22.138Z</time></trkpt><trkpt lat="41.5028083" lon="13.1777853"><ele>53.25</ele><time>2026-04-18T15:10:23.137Z</time></trkpt><trkpt lat="41.5026682" lon="13.1778441"><ele>52.5</ele><time>2026-04-18T15:10:24.138Z</time></trkpt><trkpt lat="41.5025299" lon="13.1779118"><ele>51.75</ele><time>2026-04-18T15:10:25.138Z</time></trkpt><trkpt lat="41.5023976" lon="13.1779748"><ele>51.0</ele><time>2026-04-18T15:10:26.137Z</time></trkpt><trkpt lat="41.5022707" lon="13.1780386"><ele>51.0</ele><time>2026-04-18T15:10:27.138Z</time></trkpt><trkpt lat="41.5021482" lon="13.1780946"><ele>51.0</ele><time>2026-04-18T15:10:28.138Z</time></trkpt><trkpt lat="41.5020401" lon="13.1781505"><ele>51.0</ele><time>2026-04-18T15:10:29.138Z</time></trkpt><trkpt lat="41.5019478" lon="13.1782051"><ele>51.0</ele><time>2026-04-18T15:10:30.138Z</time></trkpt><trkpt lat="41.5018719" lon="13.1782564"><ele>51.0</ele><time>2026-04-18T15:10:31.137Z</time></trkpt><trkpt lat="41.501811" lon="13.1783004"><ele>50.666666666666664</ele><time>2026-04-18T15:10:32.138Z</time></trkpt><trkpt lat="41.5017388" lon="13.1783873"><ele>50.33333333333333</ele><time>2026-04-18T15:10:34.137Z</time></trkpt><trkpt lat="41.5017099" lon="13.1784858"><ele>50.0</ele><time>2026-04-18T15:10:37.138Z</time></trkpt><trkpt lat="41.5017611" lon="13.1785653"><ele>49.666666666666664</ele><time>2026-04-18T15:11:38.137Z</time></trkpt><trkpt lat="41.5017366" lon="13.1784713"><ele>49.33333333333333</ele><time>2026-04-18T15:11:41.138Z</time></trkpt><trkpt lat="41.5016355" lon="13.1784908"><ele>49.0</ele><time>2026-04-18T15:12:05.138Z</time></trkpt><trkpt lat="41.5015488" lon="13.1785291"><ele>49.0</ele><time>2026-04-18T15:12:06.138Z</time></trkpt><trkpt lat="41.5014462" lon="13.1785918"><ele>49.0</ele><time>2026-04-18T15:12:07.137Z</time></trkpt><trkpt lat="41.5013366" lon="13.1786722"><ele>49.0</ele><time>2026-04-18T15:12:08.138Z</time></trkpt><trkpt lat="41.5012323" lon="13.1787426"><ele>49.0</ele><time>2026-04-18T15:12:09.138Z</time></trkpt><trkpt lat="41.5011495" lon="13.1787934"><ele>49.0</ele><time>2026-04-18T15:12:10.138Z</time></trkpt><trkpt lat="41.5010749" lon="13.1788875"><ele>48.99999999999999</ele><time>2026-04-18T15:12:12.138Z</time></trkpt><trkpt lat="41.5010604" lon="13.1790349"><ele>49.0</ele><time>2026-04-18T15:12:14.138Z</time></trkpt><trkpt lat="41.5010625" lon="13.1791355"><ele>49.0</ele><time>2026-04-18T15:12:15.138Z</time></trkpt><trkpt lat="41.5010648" lon="13.1792461"><ele>49.0</ele><time>2026-04-18T15:12:16.138Z</time></trkpt><trkpt lat="41.5010692" lon="13.1793569"><ele>48.99999999999999</ele><time>2026-04-18T15:12:17.138Z</time></trkpt><trkpt lat="41.5010769" lon="13.17946"><ele>49.0</ele><time>2026-04-18T15:12:18.138Z</time></trkpt><trkpt lat="41.5010866" lon="13.1795509"><ele>48.99999999999999</ele><time>2026-04-18T15:12:19.138Z</time></trkpt><trkpt lat="41.5011125" lon="13.1796767"><ele>49.0</ele><time>2026-04-18T15:12:21.138Z</time></trkpt><trkpt lat="41.5011911" lon="13.1797382"><ele>49.0</ele><time>2026-04-18T15:12:24.138Z</time></trkpt><trkpt lat="41.5012644" lon="13.1797224"><ele>49.0</ele><time>2026-04-18T15:12:26.138Z</time></trkpt><trkpt lat="41.5013462" lon="13.1797418"><ele>48.99999999999999</ele><time>2026-04-18T15:12:29.138Z</time></trkpt><trkpt lat="41.5014118" lon="13.1797023"><ele>49.0</ele><time>2026-04-18T15:12:32.138Z</time></trkpt><trkpt lat="41.5013755" lon="13.1796098"><ele>49.2</ele><time>2026-04-18T15:12:35.138Z</time></trkpt><trkpt lat="41.5014408" lon="13.179504"><ele>49.400000000000006</ele><time>2026-04-18T15:12:38.138Z</time></trkpt><trkpt lat="41.5015078" lon="13.1794769"><ele>49.6</ele><time>2026-04-18T15:12:40.138Z</time></trkpt><trkpt lat="41.5014222" lon="13.1794342"><ele>49.8</ele><time>2026-04-18T16:31:14.134Z</time></trkpt><trkpt lat="41.5013699" lon="13.1795517"><ele>50.0</ele><time>2026-04-18T16:31:16.134Z</time></trkpt><trkpt lat="41.5013142" lon="13.1796654"><ele>49.8</ele><time>2026-04-18T16:31:18.134Z</time></trkpt><trkpt lat="41.5012469" lon="13.1796999"><ele>49.6</ele><time>2026-04-18T16:31:20.134Z</time></trkpt><trkpt lat="41.5011753" lon="13.1797097"><ele>49.400000000000006</ele><time>2026-04-18T16:31:23.134Z</time></trkpt><trkpt lat="41.501097" lon="13.1796398"><ele>49.2</ele><time>2026-04-18T16:31:26.134Z</time></trkpt><trkpt lat="41.5010733" lon="13.1794868"><ele>49.0</ele><time>2026-04-18T16:31:28.134Z</time></trkpt><trkpt lat="41.5010744" lon="13.1793295"><ele>48.99999999999999</ele><time>2026-04-18T16:31:30.134Z</time></trkpt><trkpt lat="41.5010782" lon="13.1791995"><ele>49.0</ele><time>2026-04-18T16:31:32.133Z</time></trkpt><trkpt lat="41.5010892" lon="13.1790858"><ele>49.0</ele><time>2026-04-18T16:31:34.134Z</time></trkpt><trkpt lat="41.5011018" lon="13.1789662"><ele>49.0</ele><time>2026-04-18T16:31:36.134Z</time></trkpt><trkpt lat="41.5010964" lon="13.1788793"><ele>48.99999999999999</ele><time>2026-04-18T16:31:39.134Z</time></trkpt><trkpt lat="41.5010219" lon="13.1788638"><ele>49.0</ele><time>2026-04-18T16:31:54.134Z</time></trkpt><trkpt lat="41.5009555" lon="13.1788957"><ele>49.0</ele><time>2026-04-18T16:31:55.134Z</time></trkpt><trkpt lat="41.500885" lon="13.1789558"><ele>49.0</ele><time>2026-04-18T16:31:56.134Z</time></trkpt><trkpt lat="41.5007913" lon="13.1790332"><ele>49.0</ele><time>2026-04-18T16:31:57.134Z</time></trkpt><trkpt lat="41.5006928" lon="13.179111"><ele>49.0</ele><time>2026-04-18T16:31:58.133Z</time></trkpt><trkpt lat="41.5005854" lon="13.1792005"><ele>49.0</ele><time>2026-04-18T16:31:59.134Z</time></trkpt><trkpt lat="41.5004691" lon="13.1792956"><ele>47.666666666666664</ele><time>2026-04-18T16:32:00.134Z</time></trkpt><trkpt lat="41.5003376" lon="13.1793949"><ele>46.33333333333333</ele><time>2026-04-18T16:32:01.134Z</time></trkpt><trkpt lat="41.5001964" lon="13.179506"><ele>45.0</ele><time>2026-04-18T16:32:02.134Z</time></trkpt><trkpt lat="41.5000489" lon="13.1796032"><ele>45.0</ele><time>2026-04-18T16:32:03.133Z</time></trkpt><trkpt lat="41.4998924" lon="13.1796897"><ele>45.0</ele><time>2026-04-18T16:32:04.134Z</time></trkpt><trkpt lat="41.4997347" lon="13.1797807"><ele>45.0</ele><time>2026-04-18T16:32:05.134Z</time></trkpt><trkpt lat="41.4995735" lon="13.1798709"><ele>44.333333333333336</ele><time>2026-04-18T16:32:06.134Z</time></trkpt><trkpt lat="41.4994098" lon="13.1799555"><ele>43.66666666666667</ele><time>2026-04-18T16:32:07.134Z</time></trkpt><trkpt lat="41.4992429" lon="13.1800421"><ele>43.0</ele><time>2026-04-18T16:32:08.133Z</time></trkpt><trkpt lat="41.4990766" lon="13.1801322"><ele>43.0</ele><time>2026-04-18T16:32:09.133Z</time></trkpt><trkpt lat="41.4989096" lon="13.1802148"><ele>43.0</ele><time>2026-04-18T16:32:10.134Z</time></trkpt><trkpt lat="41.4987382" lon="13.1802907"><ele>43.0</ele><time>2026-04-18T16:32:11.133Z</time></trkpt><trkpt lat="41.498563" lon="13.18037"><ele>42.333333333333336</ele><time>2026-04-18T16:32:12.134Z</time></trkpt><trkpt lat="41.4983883" lon="13.1804456"><ele>41.666666666666664</ele><time>2026-04-18T16:32:13.134Z</time></trkpt><trkpt lat="41.4982104" lon="13.1805167"><ele>41.0</ele><time>2026-04-18T16:32:14.133Z</time></trkpt><trkpt lat="41.4980323" lon="13.1805944"><ele>41.0</ele><time>2026-04-18T16:32:15.134Z</time></trkpt><trkpt lat="41.4978548" lon="13.1806738"><ele>41.0</ele><time>2026-04-18T16:32:16.134Z</time></trkpt><trkpt lat="41.4976767" lon="13.1807367"><ele>41.0</ele><time>2026-04-18T16:32:17.134Z</time></trkpt><trkpt lat="41.497498" lon="13.1808204"><ele>41.0</ele><time>2026-04-18T16:32:18.134Z</time></trkpt><trkpt lat="41.4973258" lon="13.1809115"><ele>41.0</ele><time>2026-04-18T16:32:19.134Z</time></trkpt><trkpt lat="41.4971578" lon="13.1810179"><ele>41.0</ele><time>2026-04-18T16:32:20.134Z</time></trkpt><trkpt lat="41.4969884" lon="13.1811179"><ele>40.33333333333333</ele><time>2026-04-18T16:32:21.134Z</time></trkpt><trkpt lat="41.4968222" lon="13.1812263"><ele>39.666666666666664</ele><time>2026-04-18T16:32:22.134Z</time></trkpt><trkpt lat="41.4966361" lon="13.1813016"><ele>39.0</ele><time>2026-04-18T16:32:23.134Z</time></trkpt><trkpt lat="41.4964593" lon="13.1814024"><ele>39.0</ele><time>2026-04-18T16:32:24.133Z</time></trkpt><trkpt lat="41.4962856" lon="13.1815134"><ele>39.0</ele><time>2026-04-18T16:32:25.133Z</time></trkpt><trkpt lat="41.496089" lon="13.1816064"><ele>39.0</ele><time>2026-04-18T16:32:26.134Z</time></trkpt><trkpt lat="41.495901" lon="13.1817182"><ele>38.666666666666664</ele><time>2026-04-18T16:32:27.134Z</time></trkpt><trkpt lat="41.4956979" lon="13.1818031"><ele>38.33333333333333</ele><time>2026-04-18T16:32:28.133Z</time></trkpt><trkpt lat="41.4955122" lon="13.1819159"><ele>38.0</ele><time>2026-04-18T16:32:29.134Z</time></trkpt><trkpt lat="41.4953046" lon="13.1820056"><ele>37.666666666666664</ele><time>2026-04-18T16:32:30.133Z</time></trkpt><trkpt lat="41.4951095" lon="13.1821299"><ele>37.333333333333336</ele><time>2026-04-18T16:32:31.134Z</time></trkpt><trkpt lat="41.4949137" lon="13.182235"><ele>37.0</ele><time>2026-04-18T16:32:32.133Z</time></trkpt><trkpt lat="41.4947121" lon="13.1823172"><ele>37.333333333333336</ele><time>2026-04-18T16:32:33.133Z</time></trkpt><trkpt lat="41.4945257" lon="13.1824339"><ele>37.666666666666664</ele><time>2026-04-18T16:32:34.134Z</time></trkpt><trkpt lat="41.4943068" lon="13.1825101"><ele>38.0</ele><time>2026-04-18T16:32:35.134Z</time></trkpt><trkpt lat="41.4940908" lon="13.1826096"><ele>38.0</ele><time>2026-04-18T16:32:36.134Z</time></trkpt><trkpt lat="41.4939101" lon="13.1827478"><ele>38.0</ele><time>2026-04-18T16:32:37.134Z</time></trkpt><trkpt lat="41.4937273" lon="13.1828422"><ele>38.0</ele><time>2026-04-18T16:32:38.134Z</time></trkpt><trkpt lat="41.493521" lon="13.1829219"><ele>37.666666666666664</ele><time>2026-04-18T16:32:39.134Z</time></trkpt><trkpt lat="41.4933222" lon="13.1829893"><ele>37.333333333333336</ele><time>2026-04-18T16:32:40.134Z</time></trkpt><trkpt lat="41.4931377" lon="13.1830623"><ele>37.0</ele><time>2026-04-18T16:32:41.134Z</time></trkpt><trkpt lat="41.4929606" lon="13.1831419"><ele>37.66666666666667</ele><time>2026-04-18T16:32:42.134Z</time></trkpt><trkpt lat="41.4927941" lon="13.1832222"><ele>38.333333333333336</ele><time>2026-04-18T16:32:43.134Z</time></trkpt><trkpt lat="41.4926442" lon="13.1832942"><ele>39.0</ele><time>2026-04-18T16:32:44.134Z</time></trkpt><trkpt lat="41.4924975" lon="13.1833606"><ele>39.0</ele><time>2026-04-18T16:32:45.134Z</time></trkpt><trkpt lat="41.4923444" lon="13.183427"><ele>39.0</ele><time>2026-04-18T16:32:46.134Z</time></trkpt><trkpt lat="41.4921852" lon="13.1834992"><ele>39.0</ele><time>2026-04-18T16:32:47.134Z</time></trkpt><trkpt lat="41.4920309" lon="13.183572"><ele>38.0</ele><time>2026-04-18T16:32:48.133Z</time></trkpt><trkpt lat="41.4918795" lon="13.1836423"><ele>37.0</ele><time>2026-04-18T16:32:49.134Z</time></trkpt><trkpt lat="41.4917302" lon="13.1837129"><ele>36.0</ele><time>2026-04-18T16:32:50.134Z</time></trkpt><trkpt lat="41.4915931" lon="13.1837853"><ele>36.0</ele><time>2026-04-18T16:32:51.134Z</time></trkpt><trkpt lat="41.4914652" lon="13.1838566"><ele>36.0</ele><time>2026-04-18T16:32:52.133Z</time></trkpt><trkpt lat="41.4913469" lon="13.1839227"><ele>36.0</ele><time>2026-04-18T16:32:53.134Z</time></trkpt><trkpt lat="41.4912362" lon="13.1839755"><ele>36.0</ele><time>2026-04-18T16:32:54.133Z</time></trkpt><trkpt lat="41.4911421" lon="13.1839916"><ele>36.2</ele><time>2026-04-18T16:32:55.134Z</time></trkpt><trkpt lat="41.4910523" lon="13.1839493"><ele>36.400000000000006</ele><time>2026-04-18T16:32:56.134Z</time></trkpt><trkpt lat="41.4909842" lon="13.1838555"><ele>36.6</ele><time>2026-04-18T16:32:57.134Z</time></trkpt><trkpt lat="41.4909221" lon="13.183725"><ele>36.800000000000004</ele><time>2026-04-18T16:32:58.134Z</time></trkpt><trkpt lat="41.4908707" lon="13.183572"><ele>37.0</ele><time>2026-04-18T16:32:59.134Z</time></trkpt><trkpt lat="41.4908129" lon="13.1834052"><ele>37.0</ele><time>2026-04-18T16:33:00.133Z</time></trkpt><trkpt lat="41.4907425" lon="13.1832339"><ele>37.0</ele><time>2026-04-18T16:33:01.133Z</time></trkpt><trkpt lat="41.4906665" lon="13.1830571"><ele>37.0</ele><time>2026-04-18T16:33:02.134Z</time></trkpt><trkpt lat="41.4905798" lon="13.1828913"><ele>36.5</ele><time>2026-04-18T16:33:03.134Z</time></trkpt><trkpt lat="41.4904832" lon="13.1827407"><ele>36.0</ele><time>2026-04-18T16:33:04.134Z</time></trkpt><trkpt lat="41.4903816" lon="13.1826064"><ele>35.5</ele><time>2026-04-18T16:33:05.134Z</time></trkpt><trkpt lat="41.4902768" lon="13.1824998"><ele>35.0</ele><time>2026-04-18T16:33:06.134Z</time></trkpt><trkpt lat="41.490169" lon="13.1824044"><ele>35.2</ele><time>2026-04-18T16:33:07.134Z</time></trkpt><trkpt lat="41.4900669" lon="13.1823152"><ele>35.4</ele><time>2026-04-18T16:33:08.133Z</time></trkpt><trkpt lat="41.4899619" lon="13.1822547"><ele>35.6</ele><time>2026-04-18T16:33:09.134Z</time></trkpt><trkpt lat="41.4898542" lon="13.1822246"><ele>35.8</ele><time>2026-04-18T16:33:10.134Z</time></trkpt><trkpt lat="41.4897591" lon="13.1822081"><ele>36.0</ele><time>2026-04-18T16:33:11.133Z</time></trkpt><trkpt lat="41.4896805" lon="13.1822045"><ele>36.0</ele><time>2026-04-18T16:33:12.134Z</time></trkpt><trkpt lat="41.4895849" lon="13.1821868"><ele>36.0</ele><time>2026-04-18T16:33:14.133Z</time></trkpt><trkpt lat="41.4895387" lon="13.182062"><ele>36.0</ele><time>2026-04-18T16:33:20.133Z</time></trkpt><trkpt lat="41.4895508" lon="13.1819644"><ele>36.0</ele><time>2026-04-18T16:33:21.133Z</time></trkpt><trkpt lat="41.4895699" lon="13.1818365"><ele>36.0</ele><time>2026-04-18T16:33:22.133Z</time></trkpt><trkpt lat="41.4895823" lon="13.1816875"><ele>36.0</ele><time>2026-04-18T16:33:23.133Z</time></trkpt><trkpt lat="41.4895988" lon="13.1815203"><ele>36.0</ele><time>2026-04-18T16:33:24.133Z</time></trkpt><trkpt lat="41.4896116" lon="13.1813312"><ele>36.0</ele><time>2026-04-18T16:33:25.132Z</time></trkpt><trkpt lat="41.4896196" lon="13.1811337"><ele>36.0</ele><time>2026-04-18T16:33:26.133Z</time></trkpt><trkpt lat="41.4896296" lon="13.1809203"><ele>35.666666666666664</ele><time>2026-04-18T16:33:27.133Z</time></trkpt><trkpt lat="41.4896372" lon="13.1806908"><ele>35.33333333333333</ele><time>2026-04-18T16:33:28.133Z</time></trkpt><trkpt lat="41.4896484" lon="13.1804517"><ele>35.0</ele><time>2026-04-18T16:33:29.133Z</time></trkpt><trkpt lat="41.4896564" lon="13.1801991"><ele>35.0</ele><time>2026-04-18T16:33:30.133Z</time></trkpt><trkpt lat="41.4896707" lon="13.1799452"><ele>35.0</ele><time>2026-04-18T16:33:31.132Z</time></trkpt><trkpt lat="41.4896806" lon="13.1796838"><ele>35.0</ele><time>2026-04-18T16:33:32.132Z</time></trkpt><trkpt lat="41.4896927" lon="13.179415"><ele>35.33333333333333</ele><time>2026-04-18T16:33:33.133Z</time></trkpt><trkpt lat="41.4897041" lon="13.1791431"><ele>35.666666666666664</ele><time>2026-04-18T16:33:34.133Z</time></trkpt><trkpt lat="41.4897173" lon="13.178861"><ele>36.0</ele><time>2026-04-18T16:33:35.133Z</time></trkpt><trkpt lat="41.4897316" lon="13.1785728"><ele>36.333333333333336</ele><time>2026-04-18T16:33:36.133Z</time></trkpt><trkpt lat="41.4897439" lon="13.1782759"><ele>36.66666666666667</ele><time>2026-04-18T16:33:37.133Z</time></trkpt><trkpt lat="41.4897604" lon="13.1779801"><ele>37.0</ele><time>2026-04-18T16:33:38.133Z</time></trkpt><trkpt lat="41.4897713" lon="13.1776764"><ele>37.5</ele><time>2026-04-18T16:33:39.133Z</time></trkpt><trkpt lat="41.4897833" lon="13.1773708"><ele>38.0</ele><time>2026-04-18T16:33:40.133Z</time></trkpt><trkpt lat="41.4897888" lon="13.1770696"><ele>38.0</ele><time>2026-04-18T16:33:41.133Z</time></trkpt><trkpt lat="41.4897931" lon="13.1767681"><ele>38.0</ele><time>2026-04-18T16:33:42.133Z</time></trkpt><trkpt lat="41.4897931" lon="13.1764623"><ele>38.0</ele><time>2026-04-18T16:33:43.133Z</time></trkpt><trkpt lat="41.4897898" lon="13.1761531"><ele>38.0</ele><time>2026-04-18T16:33:44.133Z</time></trkpt><trkpt lat="41.4897874" lon="13.1758488"><ele>39.0</ele><time>2026-04-18T16:33:45.133Z</time></trkpt><trkpt lat="41.4897827" lon="13.1755424"><ele>40.0</ele><time>2026-04-18T16:33:46.133Z</time></trkpt><trkpt lat="41.4897761" lon="13.1752328"><ele>40.0</ele><time>2026-04-18T16:33:47.133Z</time></trkpt><trkpt lat="41.489771" lon="13.1749305"><ele>40.0</ele><time>2026-04-18T16:33:48.133Z</time></trkpt><trkpt lat="41.4897656" lon="13.1746267"><ele>40.0</ele><time>2026-04-18T16:33:49.133Z</time></trkpt><trkpt lat="41.4897606" lon="13.1743248"><ele>40.0</ele><time>2026-04-18T16:33:50.133Z</time></trkpt><trkpt lat="41.4897488" lon="13.174022"><ele>40.0</ele><time>2026-04-18T16:33:51.133Z</time></trkpt><trkpt lat="41.489732" lon="13.1737205"><ele>40.0</ele><time>2026-04-18T16:33:52.133Z</time></trkpt><trkpt lat="41.4897159" lon="13.1734207"><ele>40.0</ele><time>2026-04-18T16:33:53.133Z</time></trkpt><trkpt lat="41.4896955" lon="13.1731143"><ele>40.0</ele><time>2026-04-18T16:33:54.133Z</time></trkpt><trkpt lat="41.4896765" lon="13.172811"><ele>40.0</ele><time>2026-04-18T16:33:55.133Z</time></trkpt><trkpt lat="41.4896531" lon="13.1725038"><ele>40.0</ele><time>2026-04-18T16:33:56.133Z</time></trkpt><trkpt lat="41.4896273" lon="13.1721981"><ele>40.0</ele><time>2026-04-18T16:33:57.132Z</time></trkpt><trkpt lat="41.4895988" lon="13.1718893"><ele>40.0</ele><time>2026-04-18T16:33:58.133Z</time></trkpt><trkpt lat="41.4895644" lon="13.171585"><ele>39.0</ele><time>2026-04-18T16:33:59.133Z</time></trkpt><trkpt lat="41.489532" lon="13.1712716"><ele>38.0</ele><time>2026-04-18T16:34:00.133Z</time></trkpt><trkpt lat="41.4895035" lon="13.1709612"><ele>39.0</ele><time>2026-04-18T16:34:01.132Z</time></trkpt><trkpt lat="41.4894753" lon="13.1706476"><ele>40.0</ele><time>2026-04-18T16:34:02.133Z</time></trkpt><trkpt lat="41.4894456" lon="13.1703381"><ele>40.0</ele><time>2026-04-18T16:34:03.133Z</time></trkpt><trkpt lat="41.4894166" lon="13.1700289"><ele>40.0</ele><time>2026-04-18T16:34:04.132Z</time></trkpt><trkpt lat="41.4893878" lon="13.1697168"><ele>40.5</ele><time>2026-04-18T16:34:05.133Z</time></trkpt><trkpt lat="41.4893585" lon="13.169406"><ele>41.0</ele><time>2026-04-18T16:34:06.133Z</time></trkpt><trkpt lat="41.4893243" lon="13.1690937"><ele>41.5</ele><time>2026-04-18T16:34:07.132Z</time></trkpt><trkpt lat="41.4892946" lon="13.1687804"><ele>42.0</ele><time>2026-04-18T16:34:08.133Z</time></trkpt><trkpt lat="41.4892601" lon="13.1684707"><ele>42.0</ele><time>2026-04-18T16:34:09.132Z</time></trkpt><trkpt lat="41.4892264" lon="13.1681651"><ele>42.0</ele><time>2026-04-18T16:34:10.133Z</time></trkpt><trkpt lat="41.4891952" lon="13.1678608"><ele>42.0</ele><time>2026-04-18T16:34:11.132Z</time></trkpt><trkpt lat="41.4891669" lon="13.1675595"><ele>42.0</ele><time>2026-04-18T16:34:12.132Z</time></trkpt><trkpt lat="41.4891391" lon="13.1672586"><ele>42.5</ele><time>2026-04-18T16:34:13.133Z</time></trkpt><trkpt lat="41.4891103" lon="13.1669587"><ele>43.0</ele><time>2026-04-18T16:34:14.133Z</time></trkpt><trkpt lat="41.4890835" lon="13.1666618"><ele>43.0</ele><time>2026-04-18T16:34:15.133Z</time></trkpt><trkpt lat="41.4890559" lon="13.1663892"><ele>43.0</ele><time>2026-04-18T16:34:16.133Z</time></trkpt><trkpt lat="41.4890272" lon="13.166133"><ele>43.0</ele><time>2026-04-18T16:34:17.133Z</time></trkpt><trkpt lat="41.4890039" lon="13.1659051"><ele>43.0</ele><time>2026-04-18T16:34:18.132Z</time></trkpt><trkpt lat="41.4889844" lon="13.1656869"><ele>43.0</ele><time>2026-04-18T16:34:19.133Z</time></trkpt><trkpt lat="41.4889664" lon="13.1654681"><ele>43.0</ele><time>2026-04-18T16:34:20.133Z</time></trkpt><trkpt lat="41.4889516" lon="13.1652505"><ele>43.0</ele><time>2026-04-18T16:34:21.133Z</time></trkpt><trkpt lat="41.4889348" lon="13.1650211"><ele>43.0</ele><time>2026-04-18T16:34:22.133Z</time></trkpt><trkpt lat="41.4889152" lon="13.164776"><ele>43.0</ele><time>2026-04-18T16:34:23.133Z</time></trkpt><trkpt lat="41.4888927" lon="13.1645207"><ele>43.0</ele><time>2026-04-18T16:34:24.133Z</time></trkpt><trkpt lat="41.4888646" lon="13.1642546"><ele>43.0</ele><time>2026-04-18T16:34:25.133Z</time></trkpt><trkpt lat="41.4888358" lon="13.1639805"><ele>43.0</ele><time>2026-04-18T16:34:26.133Z</time></trkpt><trkpt lat="41.4888022" lon="13.1637006"><ele>43.0</ele><time>2026-04-18T16:34:27.133Z</time></trkpt><trkpt lat="41.4887732" lon="13.1634155"><ele>43.0</ele><time>2026-04-18T16:34:28.133Z</time></trkpt><trkpt lat="41.488747" lon="13.1631354"><ele>43.0</ele><time>2026-04-18T16:34:29.133Z</time></trkpt><trkpt lat="41.4887232" lon="13.162848"><ele>43.0</ele><time>2026-04-18T16:34:30.133Z</time></trkpt><trkpt lat="41.4887043" lon="13.1625568"><ele>43.0</ele><time>2026-04-18T16:34:31.133Z</time></trkpt><trkpt lat="41.4886894" lon="13.1622626"><ele>43.0</ele><time>2026-04-18T16:34:32.133Z</time></trkpt><trkpt lat="41.4886794" lon="13.1619614"><ele>43.0</ele><time>2026-04-18T16:34:33.132Z</time></trkpt><trkpt lat="41.4886652" lon="13.1616613"><ele>43.0</ele><time>2026-04-18T16:34:34.133Z</time></trkpt><trkpt lat="41.488649" lon="13.1613456"><ele>42.0</ele><time>2026-04-18T16:34:35.132Z</time></trkpt><trkpt lat="41.4886283" lon="13.1610376"><ele>41.0</ele><time>2026-04-18T16:34:36.133Z</time></trkpt><trkpt lat="41.4886055" lon="13.1607205"><ele>41.5</ele><time>2026-04-18T16:34:37.133Z</time></trkpt><trkpt lat="41.4885809" lon="13.1603962"><ele>42.0</ele><time>2026-04-18T16:34:38.133Z</time></trkpt><trkpt lat="41.4885546" lon="13.160071"><ele>42.0</ele><time>2026-04-18T16:34:39.133Z</time></trkpt><trkpt lat="41.4885286" lon="13.1597433"><ele>42.0</ele><time>2026-04-18T16:34:40.133Z</time></trkpt><trkpt lat="41.4885039" lon="13.1594138"><ele>42.0</ele><time>2026-04-18T16:34:41.133Z</time></trkpt><trkpt lat="41.4884733" lon="13.1590837"><ele>42.0</ele><time>2026-04-18T16:34:42.133Z</time></trkpt><trkpt lat="41.4884456" lon="13.1587555"><ele>42.0</ele><time>2026-04-18T16:34:43.133Z</time></trkpt><trkpt lat="41.4884142" lon="13.1584309"><ele>42.0</ele><time>2026-04-18T16:34:44.133Z</time></trkpt><trkpt lat="41.4883823" lon="13.1581037"><ele>42.0</ele><time>2026-04-18T16:34:45.133Z</time></trkpt><trkpt lat="41.488349" lon="13.1577751"><ele>42.0</ele><time>2026-04-18T16:34:46.133Z</time></trkpt><trkpt lat="41.4883184" lon="13.1574484"><ele>41.5</ele><time>2026-04-18T16:34:47.133Z</time></trkpt><trkpt lat="41.4882886" lon="13.1571182"><ele>41.0</ele><time>2026-04-18T16:34:48.133Z</time></trkpt><trkpt lat="41.4882576" lon="13.1567884"><ele>41.0</ele><time>2026-04-18T16:34:49.133Z</time></trkpt><trkpt lat="41.4882287" lon="13.1564598"><ele>41.0</ele><time>2026-04-18T16:34:50.133Z</time></trkpt><trkpt lat="41.4882019" lon="13.1561387"><ele>41.0</ele><time>2026-04-18T16:34:51.133Z</time></trkpt><trkpt lat="41.4881769" lon="13.155813"><ele>41.0</ele><time>2026-04-18T16:34:52.133Z</time></trkpt><trkpt lat="41.4881474" lon="13.1554985"><ele>40.666666666666664</ele><time>2026-04-18T16:34:53.133Z</time></trkpt><trkpt lat="41.4881258" lon="13.1552018"><ele>40.333333333333336</ele><time>2026-04-18T16:34:54.133Z</time></trkpt><trkpt lat="41.4880993" lon="13.154926"><ele>40.0</ele><time>2026-04-18T16:34:55.133Z</time></trkpt><trkpt lat="41.4880824" lon="13.1546707"><ele>40.0</ele><time>2026-04-18T16:34:56.133Z</time></trkpt><trkpt lat="41.4880682" lon="13.1544268"><ele>40.0</ele><time>2026-04-18T16:34:57.133Z</time></trkpt><trkpt lat="41.4880498" lon="13.1542031"><ele>40.0</ele><time>2026-04-18T16:34:58.133Z</time></trkpt><trkpt lat="41.4880287" lon="13.1539859"><ele>40.25</ele><time>2026-04-18T16:34:59.133Z</time></trkpt><trkpt lat="41.4880106" lon="13.1537838"><ele>40.5</ele><time>2026-04-18T16:35:00.133Z</time></trkpt><trkpt lat="41.4879914" lon="13.1535978"><ele>40.75</ele><time>2026-04-18T16:35:01.133Z</time></trkpt><trkpt lat="41.4879749" lon="13.1534227"><ele>41.0</ele><time>2026-04-18T16:35:02.133Z</time></trkpt><trkpt lat="41.4879647" lon="13.1532701"><ele>41.0</ele><time>2026-04-18T16:35:03.133Z</time></trkpt><trkpt lat="41.4879505" lon="13.1531342"><ele>41.0</ele><time>2026-04-18T16:35:04.133Z</time></trkpt><trkpt lat="41.4879375" lon="13.1530046"><ele>41.0</ele><time>2026-04-18T16:35:05.133Z</time></trkpt><trkpt lat="41.4879292" lon="13.1528822"><ele>41.0</ele><time>2026-04-18T16:35:06.132Z</time></trkpt><trkpt lat="41.487923" lon="13.1527684"><ele>41.0</ele><time>2026-04-18T16:35:07.133Z</time></trkpt><trkpt lat="41.4879135" lon="13.1526467"><ele>41.0</ele><time>2026-04-18T16:35:08.133Z</time></trkpt><trkpt lat="41.4879016" lon="13.1525244"><ele>41.0</ele><time>2026-04-18T16:35:09.133Z</time></trkpt><trkpt lat="41.4878871" lon="13.152413"><ele>41.0</ele><time>2026-04-18T16:35:10.133Z</time></trkpt><trkpt lat="41.4878773" lon="13.1523152"><ele>41.0</ele><time>2026-04-18T16:35:11.133Z</time></trkpt><trkpt lat="41.4878713" lon="13.1522314"><ele>41.0</ele><time>2026-04-18T16:35:12.133Z</time></trkpt><trkpt lat="41.4878602" lon="13.1521243"><ele>41.0</ele><time>2026-04-18T16:35:14.133Z</time></trkpt><trkpt lat="41.487849" lon="13.1520148"><ele>41.0</ele><time>2026-04-18T16:35:17.133Z</time></trkpt><trkpt lat="41.4878418" lon="13.1519188"><ele>41.0</ele><time>2026-04-18T16:35:19.133Z</time></trkpt><trkpt lat="41.4878298" lon="13.1517953"><ele>41.0</ele><time>2026-04-18T16:35:21.133Z</time></trkpt><trkpt lat="41.4878213" lon="13.1517013"><ele>41.0</ele><time>2026-04-18T16:35:22.133Z</time></trkpt><trkpt lat="41.4878165" lon="13.1515868"><ele>41.0</ele><time>2026-04-18T16:35:23.133Z</time></trkpt><trkpt lat="41.4878066" lon="13.1514673"><ele>41.0</ele><time>2026-04-18T16:35:24.133Z</time></trkpt><trkpt lat="41.4877945" lon="13.1513417"><ele>41.0</ele><time>2026-04-18T16:35:25.133Z</time></trkpt><trkpt lat="41.4877812" lon="13.1511978"><ele>41.0</ele><time>2026-04-18T16:35:26.132Z</time></trkpt><trkpt lat="41.4877701" lon="13.1510348"><ele>41.0</ele><time>2026-04-18T16:35:27.133Z</time></trkpt><trkpt lat="41.4877544" lon="13.1508664"><ele>41.0</ele><time>2026-04-18T16:35:28.133Z</time></trkpt><trkpt lat="41.4877424" lon="13.1506939"><ele>41.25</ele><time>2026-04-18T16:35:29.133Z</time></trkpt><trkpt lat="41.4877226" lon="13.1505005"><ele>41.5</ele><time>2026-04-18T16:35:30.133Z</time></trkpt><trkpt lat="41.4877013" lon="13.1503027"><ele>41.75</ele><time>2026-04-18T16:35:31.133Z</time></trkpt><trkpt lat="41.4876813" lon="13.1500998"><ele>42.0</ele><time>2026-04-18T16:35:32.133Z</time></trkpt><trkpt lat="41.4876615" lon="13.1498884"><ele>42.666666666666664</ele><time>2026-04-18T16:35:33.132Z</time></trkpt><trkpt lat="41.4876456" lon="13.1496728"><ele>43.33333333333333</ele><time>2026-04-18T16:35:34.133Z</time></trkpt><trkpt lat="41.4876266" lon="13.1494458"><ele>44.0</ele><time>2026-04-18T16:35:35.133Z</time></trkpt><trkpt lat="41.4876071" lon="13.1492156"><ele>43.33333333333333</ele><time>2026-04-18T16:35:36.132Z</time></trkpt><trkpt lat="41.4875864" lon="13.1489819"><ele>42.666666666666664</ele><time>2026-04-18T16:35:37.132Z</time></trkpt><trkpt lat="41.4875659" lon="13.1487513"><ele>42.0</ele><time>2026-04-18T16:35:38.133Z</time></trkpt><trkpt lat="41.4875448" lon="13.1485222"><ele>42.0</ele><time>2026-04-18T16:35:39.133Z</time></trkpt><trkpt lat="41.4875278" lon="13.1482958"><ele>42.0</ele><time>2026-04-18T16:35:40.133Z</time></trkpt><trkpt lat="41.4875083" lon="13.148093"><ele>42.0</ele><time>2026-04-18T16:35:41.133Z</time></trkpt><trkpt lat="41.4874907" lon="13.1479258"><ele>42.0</ele><time>2026-04-18T16:35:42.133Z</time></trkpt><trkpt lat="41.4874839" lon="13.1477908"><ele>42.0</ele><time>2026-04-18T16:35:43.133Z</time></trkpt><trkpt lat="41.4874945" lon="13.1476845"><ele>42.0</ele><time>2026-04-18T16:35:44.133Z</time></trkpt><trkpt lat="41.4875078" lon="13.1476008"><ele>42.0</ele><time>2026-04-18T16:35:45.133Z</time></trkpt><trkpt lat="41.4875311" lon="13.14746"><ele>42.0</ele><time>2026-04-18T16:35:47.133Z</time></trkpt><trkpt lat="41.4875328" lon="13.1473374"><ele>42.0</ele><time>2026-04-18T16:35:49.133Z</time></trkpt><trkpt lat="41.4875163" lon="13.1472252"><ele>41.8</ele><time>2026-04-18T16:35:51.133Z</time></trkpt><trkpt lat="41.4874845" lon="13.14713"><ele>41.6</ele><time>2026-04-18T16:35:53.132Z</time></trkpt><trkpt lat="41.4873999" lon="13.1469847"><ele>41.4</ele><time>2026-04-18T16:36:51.133Z</time></trkpt><trkpt lat="41.4873948" lon="13.1468954"><ele>41.199999999999996</ele><time>2026-04-18T16:36:52.133Z</time></trkpt><trkpt lat="41.4873878" lon="13.1467892"><ele>41.0</ele><time>2026-04-18T16:36:53.133Z</time></trkpt><trkpt lat="41.4873811" lon="13.1466538"><ele>40.75</ele><time>2026-04-18T16:36:54.133Z</time></trkpt><trkpt lat="41.4873668" lon="13.1465088"><ele>40.5</ele><time>2026-04-18T16:36:55.133Z</time></trkpt><trkpt lat="41.4873523" lon="13.1463463"><ele>40.25</ele><time>2026-04-18T16:36:56.133Z</time></trkpt><trkpt lat="41.4873336" lon="13.146177"><ele>40.0</ele><time>2026-04-18T16:36:57.133Z</time></trkpt><trkpt lat="41.4873151" lon="13.1459974"><ele>40.0</ele><time>2026-04-18T16:36:58.133Z</time></trkpt><trkpt lat="41.4872982" lon="13.1458142"><ele>40.0</ele><time>2026-04-18T16:36:59.133Z</time></trkpt><trkpt lat="41.4872803" lon="13.1456231"><ele>40.0</ele><time>2026-04-18T16:37:00.133Z</time></trkpt><trkpt lat="41.4872582" lon="13.145418"><ele>40.0</ele><time>2026-04-18T16:37:01.133Z</time></trkpt><trkpt lat="41.487238" lon="13.1452084"><ele>40.333333333333336</ele><time>2026-04-18T16:37:02.133Z</time></trkpt><trkpt lat="41.4872206" lon="13.1449916"><ele>40.666666666666664</ele><time>2026-04-18T16:37:03.133Z</time></trkpt><trkpt lat="41.4872005" lon="13.1447694"><ele>41.0</ele><time>2026-04-18T16:37:04.133Z</time></trkpt><trkpt lat="41.4871819" lon="13.1445433"><ele>41.0</ele><time>2026-04-18T16:37:05.133Z</time></trkpt><trkpt lat="41.4871585" lon="13.1443122"><ele>41.0</ele><time>2026-04-18T16:37:06.133Z</time></trkpt><trkpt lat="41.4871389" lon="13.1440808"><ele>41.0</ele><time>2026-04-18T16:37:07.133Z</time></trkpt><trkpt lat="41.4871162" lon="13.1438545"><ele>40.666666666666664</ele><time>2026-04-18T16:37:08.133Z</time></trkpt><trkpt lat="41.4870965" lon="13.1436218"><ele>40.333333333333336</ele><time>2026-04-18T16:37:09.133Z</time></trkpt><trkpt lat="41.4870764" lon="13.1433947"><ele>40.0</ele><time>2026-04-18T16:37:10.133Z</time></trkpt><trkpt lat="41.4870594" lon="13.14316"><ele>40.0</ele><time>2026-04-18T16:37:11.133Z</time></trkpt><trkpt lat="41.4870375" lon="13.142934"><ele>40.0</ele><time>2026-04-18T16:37:12.132Z</time></trkpt><trkpt lat="41.4870175" lon="13.1427093"><ele>40.0</ele><time>2026-04-18T16:37:13.133Z</time></trkpt><trkpt lat="41.4869967" lon="13.1424864"><ele>40.333333333333336</ele><time>2026-04-18T16:37:14.133Z</time></trkpt><trkpt lat="41.486977" lon="13.1422626"><ele>40.666666666666664</ele><time>2026-04-18T16:37:15.133Z</time></trkpt><trkpt lat="41.4869519" lon="13.142042"><ele>41.0</ele><time>2026-04-18T16:37:16.133Z</time></trkpt><trkpt lat="41.4869347" lon="13.1418133"><ele>41.0</ele><time>2026-04-18T16:37:17.133Z</time></trkpt><trkpt lat="41.4869157" lon="13.1415824"><ele>41.0</ele><time>2026-04-18T16:37:18.133Z</time></trkpt><trkpt lat="41.4868975" lon="13.1413485"><ele>41.0</ele><time>2026-04-18T16:37:19.133Z</time></trkpt><trkpt lat="41.4868768" lon="13.1411155"><ele>40.666666666666664</ele><time>2026-04-18T16:37:20.133Z</time></trkpt><trkpt lat="41.4868564" lon="13.1408757"><ele>40.333333333333336</ele><time>2026-04-18T16:37:21.133Z</time></trkpt><trkpt lat="41.4868389" lon="13.1406333"><ele>40.0</ele><time>2026-04-18T16:37:22.133Z</time></trkpt><trkpt lat="41.4868215" lon="13.1403901"><ele>40.0</ele><time>2026-04-18T16:37:23.133Z</time></trkpt><trkpt lat="41.486799" lon="13.1401451"><ele>40.0</ele><time>2026-04-18T16:37:24.133Z</time></trkpt><trkpt lat="41.4867784" lon="13.1399063"><ele>40.0</ele><time>2026-04-18T16:37:25.133Z</time></trkpt><trkpt lat="41.4867559" lon="13.1396727"><ele>40.0</ele><time>2026-04-18T16:37:26.133Z</time></trkpt><trkpt lat="41.4867329" lon="13.1394443"><ele>40.0</ele><time>2026-04-18T16:37:27.133Z</time></trkpt><trkpt lat="41.4867112" lon="13.1392146"><ele>40.0</ele><time>2026-04-18T16:37:28.133Z</time></trkpt><trkpt lat="41.4866931" lon="13.1389926"><ele>40.0</ele><time>2026-04-18T16:37:29.133Z</time></trkpt><trkpt lat="41.4866724" lon="13.1387671"><ele>40.0</ele><time>2026-04-18T16:37:30.133Z</time></trkpt><trkpt lat="41.4866467" lon="13.1385372"><ele>40.0</ele><time>2026-04-18T16:37:31.133Z</time></trkpt><trkpt lat="41.4866199" lon="13.1383056"><ele>40.333333333333336</ele><time>2026-04-18T16:37:32.133Z</time></trkpt><trkpt lat="41.4865926" lon="13.1380751"><ele>40.666666666666664</ele><time>2026-04-18T16:37:33.132Z</time></trkpt><trkpt lat="41.4865717" lon="13.1378419"><ele>41.0</ele><time>2026-04-18T16:37:34.133Z</time></trkpt><trkpt lat="41.4865499" lon="13.1376142"><ele>41.0</ele><time>2026-04-18T16:37:35.133Z</time></trkpt><trkpt lat="41.4865275" lon="13.1373878"><ele>41.0</ele><time>2026-04-18T16:37:36.132Z</time></trkpt><trkpt lat="41.4865113" lon="13.137176"><ele>41.0</ele><time>2026-04-18T16:37:37.133Z</time></trkpt><trkpt lat="41.4864921" lon="13.1369647"><ele>40.666666666666664</ele><time>2026-04-18T16:37:38.133Z</time></trkpt><trkpt lat="41.4864719" lon="13.1367509"><ele>40.333333333333336</ele><time>2026-04-18T16:37:39.133Z</time></trkpt><trkpt lat="41.4864527" lon="13.1365314"><ele>40.0</ele><time>2026-04-18T16:37:40.133Z</time></trkpt><trkpt lat="41.4864289" lon="13.1363053"><ele>40.0</ele><time>2026-04-18T16:37:41.133Z</time></trkpt><trkpt lat="41.4864123" lon="13.1360844"><ele>40.0</ele><time>2026-04-18T16:37:42.133Z</time></trkpt><trkpt lat="41.4863931" lon="13.1358629"><ele>40.0</ele><time>2026-04-18T16:37:43.133Z</time></trkpt><trkpt lat="41.4863731" lon="13.1356451"><ele>41.0</ele><time>2026-04-18T16:37:44.133Z</time></trkpt><trkpt lat="41.48635" lon="13.1354249"><ele>42.0</ele><time>2026-04-18T16:37:45.133Z</time></trkpt><trkpt lat="41.4863306" lon="13.1352013"><ele>43.0</ele><time>2026-04-18T16:37:46.132Z</time></trkpt><trkpt lat="41.4863163" lon="13.1349861"><ele>43.0</ele><time>2026-04-18T16:37:47.133Z</time></trkpt><trkpt lat="41.4862996" lon="13.134783"><ele>43.0</ele><time>2026-04-18T16:37:48.133Z</time></trkpt><trkpt lat="41.4862831" lon="13.1345754"><ele>43.0</ele><time>2026-04-18T16:37:49.133Z</time></trkpt><trkpt lat="41.4862656" lon="13.1343736"><ele>43.0</ele><time>2026-04-18T16:37:50.132Z</time></trkpt><trkpt lat="41.4862444" lon="13.1341756"><ele>43.0</ele><time>2026-04-18T16:37:51.133Z</time></trkpt><trkpt lat="41.4862217" lon="13.1339753"><ele>43.0</ele><time>2026-04-18T16:37:52.133Z</time></trkpt><trkpt lat="41.4862032" lon="13.1337749"><ele>43.0</ele><time>2026-04-18T16:37:53.133Z</time></trkpt><trkpt lat="41.4861884" lon="13.1335737"><ele>43.0</ele><time>2026-04-18T16:37:54.133Z</time></trkpt><trkpt lat="41.4861717" lon="13.1333708"><ele>43.0</ele><time>2026-04-18T16:37:55.133Z</time></trkpt><trkpt lat="41.4861567" lon="13.1331661"><ele>42.66666666666667</ele><time>2026-04-18T16:37:56.133Z</time></trkpt><trkpt lat="41.4861378" lon="13.1329657"><ele>42.333333333333336</ele><time>2026-04-18T16:37:57.133Z</time></trkpt><trkpt lat="41.4861177" lon="13.1327626"><ele>42.0</ele><time>2026-04-18T16:37:58.132Z</time></trkpt><trkpt lat="41.4861002" lon="13.1325539"><ele>42.0</ele><time>2026-04-18T16:37:59.133Z</time></trkpt><trkpt lat="41.4860715" lon="13.1323465"><ele>42.0</ele><time>2026-04-18T16:38:00.133Z</time></trkpt><trkpt lat="41.4860323" lon="13.1321377"><ele>42.0</ele><time>2026-04-18T16:38:01.133Z</time></trkpt><trkpt lat="41.4859868" lon="13.1319248"><ele>42.0</ele><time>2026-04-18T16:38:02.133Z</time></trkpt><trkpt lat="41.48594" lon="13.1317121"><ele>42.0</ele><time>2026-04-18T16:38:03.132Z</time></trkpt><trkpt lat="41.4858889" lon="13.1314998"><ele>42.0</ele><time>2026-04-18T16:38:04.132Z</time></trkpt><trkpt lat="41.4858386" lon="13.1312828"><ele>42.666666666666664</ele><time>2026-04-18T16:38:05.133Z</time></trkpt><trkpt lat="41.4857908" lon="13.1310654"><ele>43.33333333333333</ele><time>2026-04-18T16:38:06.133Z</time></trkpt><trkpt lat="41.4857391" lon="13.1308475"><ele>44.0</ele><time>2026-04-18T16:38:07.133Z</time></trkpt><trkpt lat="41.4856912" lon="13.1306285"><ele>44.33333333333333</ele><time>2026-04-18T16:38:08.133Z</time></trkpt><trkpt lat="41.4856457" lon="13.1304133"><ele>44.666666666666664</ele><time>2026-04-18T16:38:09.133Z</time></trkpt><trkpt lat="41.4856005" lon="13.1301957"><ele>45.0</ele><time>2026-04-18T16:38:10.133Z</time></trkpt><trkpt lat="41.4855558" lon="13.1299791"><ele>45.333333333333336</ele><time>2026-04-18T16:38:11.133Z</time></trkpt><trkpt lat="41.4855083" lon="13.1297627"><ele>45.66666666666667</ele><time>2026-04-18T16:38:12.133Z</time></trkpt><trkpt lat="41.4854592" lon="13.1295475"><ele>46.0</ele><time>2026-04-18T16:38:13.133Z</time></trkpt><trkpt lat="41.4854026" lon="13.1293388"><ele>46.66666666666667</ele><time>2026-04-18T16:38:14.133Z</time></trkpt><trkpt lat="41.4853332" lon="13.1291317"><ele>47.333333333333336</ele><time>2026-04-18T16:38:15.133Z</time></trkpt><trkpt lat="41.4852563" lon="13.128929"><ele>48.0</ele><time>2026-04-18T16:38:16.133Z</time></trkpt><trkpt lat="41.4851703" lon="13.1287321"><ele>48.0</ele><time>2026-04-18T16:38:17.133Z</time></trkpt><trkpt lat="41.4850843" lon="13.1285337"><ele>48.0</ele><time>2026-04-18T16:38:18.133Z</time></trkpt><trkpt lat="41.484994" lon="13.1283392"><ele>48.0</ele><time>2026-04-18T16:38:19.133Z</time></trkpt><trkpt lat="41.4849051" lon="13.1281385"><ele>48.0</ele><time>2026-04-18T16:38:20.133Z</time></trkpt><trkpt lat="41.48482" lon="13.1279384"><ele>48.0</ele><time>2026-04-18T16:38:21.132Z</time></trkpt><trkpt lat="41.4847352" lon="13.1277372"><ele>48.0</ele><time>2026-04-18T16:38:22.133Z</time></trkpt><trkpt lat="41.4846591" lon="13.1275271"><ele>50.66666666666667</ele><time>2026-04-18T16:38:23.132Z</time></trkpt><trkpt lat="41.48458" lon="13.1273137"><ele>53.333333333333336</ele><time>2026-04-18T16:38:24.133Z</time></trkpt><trkpt lat="41.4845066" lon="13.1271001"><ele>56.0</ele><time>2026-04-18T16:38:25.133Z</time></trkpt><trkpt lat="41.4844402" lon="13.1268807"><ele>56.0</ele><time>2026-04-18T16:38:26.133Z</time></trkpt><trkpt lat="41.4843805" lon="13.1266599"><ele>56.0</ele><time>2026-04-18T16:38:27.133Z</time></trkpt><trkpt lat="41.4843298" lon="13.1264337"><ele>56.0</ele><time>2026-04-18T16:38:28.133Z</time></trkpt><trkpt lat="41.4842851" lon="13.1262048"><ele>54.0</ele><time>2026-04-18T16:38:29.133Z</time></trkpt><trkpt lat="41.4842465" lon="13.1259704"><ele>52.0</ele><time>2026-04-18T16:38:30.133Z</time></trkpt><trkpt lat="41.4842097" lon="13.1257331"><ele>50.0</ele><time>2026-04-18T16:38:31.133Z</time></trkpt><trkpt lat="41.484172" lon="13.1254916"><ele>50.0</ele><time>2026-04-18T16:38:32.133Z</time></trkpt><trkpt lat="41.4841296" lon="13.1252541"><ele>50.0</ele><time>2026-04-18T16:38:33.133Z</time></trkpt><trkpt lat="41.4840828" lon="13.1250146"><ele>50.0</ele><time>2026-04-18T16:38:34.133Z</time></trkpt><trkpt lat="41.4840364" lon="13.1247742"><ele>50.66666666666667</ele><time>2026-04-18T16:38:35.132Z</time></trkpt><trkpt lat="41.4839896" lon="13.1245358"><ele>51.33333333333333</ele><time>2026-04-18T16:38:36.132Z</time></trkpt><trkpt lat="41.4839448" lon="13.1242987"><ele>52.0</ele><time>2026-04-18T16:38:37.132Z</time></trkpt><trkpt lat="41.4839009" lon="13.1240651"><ele>53.0</ele><time>2026-04-18T16:38:38.133Z</time></trkpt><trkpt lat="41.4838613" lon="13.1238428"><ele>54.0</ele><time>2026-04-18T16:38:39.133Z</time></trkpt><trkpt lat="41.483822" lon="13.123644"><ele>55.0</ele><time>2026-04-18T16:38:40.133Z</time></trkpt><trkpt lat="41.4837745" lon="13.1234604"><ele>55.0</ele><time>2026-04-18T16:38:41.133Z</time></trkpt><trkpt lat="41.4837214" lon="13.1232813"><ele>55.0</ele><time>2026-04-18T16:38:42.133Z</time></trkpt><trkpt lat="41.4836615" lon="13.1231099"><ele>55.0</ele><time>2026-04-18T16:38:43.133Z</time></trkpt><trkpt lat="41.4835941" lon="13.1229389"><ele>55.0</ele><time>2026-04-18T16:38:44.133Z</time></trkpt><trkpt lat="41.4835211" lon="13.1227734"><ele>55.0</ele><time>2026-04-18T16:38:45.133Z</time></trkpt><trkpt lat="41.4834454" lon="13.1225974"><ele>55.0</ele><time>2026-04-18T16:38:46.133Z</time></trkpt><trkpt lat="41.4833708" lon="13.1224209"><ele>55.0</ele><time>2026-04-18T16:38:47.133Z</time></trkpt><trkpt lat="41.4832999" lon="13.1222353"><ele>56.0</ele><time>2026-04-18T16:38:48.133Z</time></trkpt><trkpt lat="41.4832294" lon="13.1220469"><ele>57.0</ele><time>2026-04-18T16:38:49.133Z</time></trkpt><trkpt lat="41.483159" lon="13.121859"><ele>58.0</ele><time>2026-04-18T16:38:50.133Z</time></trkpt><trkpt lat="41.4830893" lon="13.1216632"><ele>58.0</ele><time>2026-04-18T16:38:51.133Z</time></trkpt><trkpt lat="41.4830226" lon="13.1214678"><ele>58.0</ele><time>2026-04-18T16:38:52.133Z</time></trkpt><trkpt lat="41.4829562" lon="13.1212683"><ele>58.0</ele><time>2026-04-18T16:38:53.132Z</time></trkpt><trkpt lat="41.48289" lon="13.121063"><ele>58.0</ele><time>2026-04-18T16:38:54.133Z</time></trkpt><trkpt lat="41.4828292" lon="13.1208566"><ele>58.0</ele><time>2026-04-18T16:38:55.133Z</time></trkpt><trkpt lat="41.4827719" lon="13.1206439"><ele>58.0</ele><time>2026-04-18T16:38:56.133Z</time></trkpt><trkpt lat="41.4827197" lon="13.1204202"><ele>58.0</ele><time>2026-04-18T16:38:57.133Z</time></trkpt><trkpt lat="41.4826552" lon="13.1201998"><ele>58.0</ele><time>2026-04-18T16:38:58.133Z</time></trkpt><trkpt lat="41.4825782" lon="13.1199816"><ele>58.0</ele><time>2026-04-18T16:38:59.133Z</time></trkpt><trkpt lat="41.4824963" lon="13.1197706"><ele>58.33333333333333</ele><time>2026-04-18T16:39:00.132Z</time></trkpt><trkpt lat="41.4824016" lon="13.1195569"><ele>58.66666666666667</ele><time>2026-04-18T16:39:01.133Z</time></trkpt><trkpt lat="41.4823068" lon="13.1193468"><ele>59.0</ele><time>2026-04-18T16:39:02.133Z</time></trkpt><trkpt lat="41.4822051" lon="13.1191305"><ele>58.66666666666667</ele><time>2026-04-18T16:39:03.132Z</time></trkpt><trkpt lat="41.4821037" lon="13.1189137"><ele>58.33333333333333</ele><time>2026-04-18T16:39:04.133Z</time></trkpt><trkpt lat="41.481994" lon="13.1187043"><ele>58.0</ele><time>2026-04-18T16:39:05.133Z</time></trkpt><trkpt lat="41.4818829" lon="13.1184903"><ele>57.666666666666664</ele><time>2026-04-18T16:39:06.133Z</time></trkpt><trkpt lat="41.4817717" lon="13.1182748"><ele>57.33333333333333</ele><time>2026-04-18T16:39:07.133Z</time></trkpt><trkpt lat="41.4816631" lon="13.1180592"><ele>57.0</ele><time>2026-04-18T16:39:08.133Z</time></trkpt><trkpt lat="41.4815559" lon="13.1178486"><ele>57.0</ele><time>2026-04-18T16:39:09.133Z</time></trkpt><trkpt lat="41.4814458" lon="13.1176336"><ele>57.0</ele><time>2026-04-18T16:39:10.133Z</time></trkpt><trkpt lat="41.4813289" lon="13.1174287"><ele>57.0</ele><time>2026-04-18T16:39:11.133Z</time></trkpt><trkpt lat="41.4812079" lon="13.1172314"><ele>56.0</ele><time>2026-04-18T16:39:12.133Z</time></trkpt><trkpt lat="41.4810818" lon="13.1170319"><ele>55.0</ele><time>2026-04-18T16:39:13.133Z</time></trkpt><trkpt lat="41.4809587" lon="13.1168369"><ele>54.0</ele><time>2026-04-18T16:39:14.132Z</time></trkpt><trkpt lat="41.4808319" lon="13.1166451"><ele>54.33333333333333</ele><time>2026-04-18T16:39:15.132Z</time></trkpt><trkpt lat="41.4807065" lon="13.1164474"><ele>54.666666666666664</ele><time>2026-04-18T16:39:16.133Z</time></trkpt><trkpt lat="41.4805809" lon="13.1162488"><ele>55.0</ele><time>2026-04-18T16:39:17.132Z</time></trkpt><trkpt lat="41.4804537" lon="13.1160582"><ele>54.0</ele><time>2026-04-18T16:39:18.133Z</time></trkpt><trkpt lat="41.480325" lon="13.11587"><ele>53.0</ele><time>2026-04-18T16:39:19.133Z</time></trkpt><trkpt lat="41.4801967" lon="13.1156799"><ele>52.0</ele><time>2026-04-18T16:39:20.132Z</time></trkpt><trkpt lat="41.4800732" lon="13.1154894"><ele>52.0</ele><time>2026-04-18T16:39:21.133Z</time></trkpt><trkpt lat="41.4799491" lon="13.1153062"><ele>52.0</ele><time>2026-04-18T16:39:22.133Z</time></trkpt><trkpt lat="41.4798243" lon="13.1151165"><ele>52.0</ele><time>2026-04-18T16:39:23.132Z</time></trkpt><trkpt lat="41.4796995" lon="13.1149232"><ele>51.33333333333333</ele><time>2026-04-18T16:39:24.133Z</time></trkpt><trkpt lat="41.4795734" lon="13.1147285"><ele>50.66666666666667</ele><time>2026-04-18T16:39:25.133Z</time></trkpt><trkpt lat="41.4794506" lon="13.1145263"><ele>50.0</ele><time>2026-04-18T16:39:26.133Z</time></trkpt><trkpt lat="41.4793333" lon="13.1143145"><ele>50.0</ele><time>2026-04-18T16:39:27.133Z</time></trkpt><trkpt lat="41.4792226" lon="13.1141032"><ele>50.0</ele><time>2026-04-18T16:39:28.133Z</time></trkpt><trkpt lat="41.4791144" lon="13.1138868"><ele>50.0</ele><time>2026-04-18T16:39:29.133Z</time></trkpt><trkpt lat="41.479004" lon="13.11367"><ele>49.66666666666667</ele><time>2026-04-18T16:39:30.133Z</time></trkpt><trkpt lat="41.4788874" lon="13.1134636"><ele>49.33333333333333</ele><time>2026-04-18T16:39:31.132Z</time></trkpt><trkpt lat="41.4787638" lon="13.1132606"><ele>49.0</ele><time>2026-04-18T16:39:32.133Z</time></trkpt><trkpt lat="41.4786383" lon="13.1130603"><ele>48.666666666666664</ele><time>2026-04-18T16:39:33.133Z</time></trkpt><trkpt lat="41.4785137" lon="13.1128539"><ele>48.33333333333333</ele><time>2026-04-18T16:39:34.133Z</time></trkpt><trkpt lat="41.478387" lon="13.1126566"><ele>48.0</ele><time>2026-04-18T16:39:35.133Z</time></trkpt><trkpt lat="41.4782632" lon="13.1124703"><ele>48.33333333333333</ele><time>2026-04-18T16:39:36.133Z</time></trkpt><trkpt lat="41.4781433" lon="13.1122859"><ele>48.666666666666664</ele><time>2026-04-18T16:39:37.133Z</time></trkpt><trkpt lat="41.4780263" lon="13.1121086"><ele>49.0</ele><time>2026-04-18T16:39:38.133Z</time></trkpt><trkpt lat="41.4779165" lon="13.1119366"><ele>47.666666666666664</ele><time>2026-04-18T16:39:39.133Z</time></trkpt><trkpt lat="41.4778014" lon="13.1117711"><ele>46.33333333333333</ele><time>2026-04-18T16:39:40.133Z</time></trkpt><trkpt lat="41.4776907" lon="13.1116041"><ele>45.0</ele><time>2026-04-18T16:39:41.133Z</time></trkpt><trkpt lat="41.4775709" lon="13.1114546"><ele>45.0</ele><time>2026-04-18T16:39:42.133Z</time></trkpt><trkpt lat="41.4774513" lon="13.1113063"><ele>45.0</ele><time>2026-04-18T16:39:43.132Z</time></trkpt><trkpt lat="41.4773318" lon="13.1111756"><ele>45.0</ele><time>2026-04-18T16:39:44.133Z</time></trkpt><trkpt lat="41.4772209" lon="13.1110627"><ele>45.0</ele><time>2026-04-18T16:39:45.132Z</time></trkpt><trkpt lat="41.4771185" lon="13.1109673"><ele>45.0</ele><time>2026-04-18T16:39:46.132Z</time></trkpt><trkpt lat="41.4770245" lon="13.1108708"><ele>45.0</ele><time>2026-04-18T16:39:47.133Z</time></trkpt><trkpt lat="41.476927" lon="13.1107869"><ele>45.0</ele><time>2026-04-18T16:39:48.133Z</time></trkpt><trkpt lat="41.4768326" lon="13.1107013"><ele>44.25</ele><time>2026-04-18T16:39:49.133Z</time></trkpt><trkpt lat="41.4767345" lon="13.1106118"><ele>43.5</ele><time>2026-04-18T16:39:50.133Z</time></trkpt><trkpt lat="41.4766342" lon="13.1105156"><ele>42.75</ele><time>2026-04-18T16:39:51.133Z</time></trkpt><trkpt lat="41.4765317" lon="13.1104134"><ele>42.0</ele><time>2026-04-18T16:39:52.132Z</time></trkpt><trkpt lat="41.4764269" lon="13.1103109"><ele>42.0</ele><time>2026-04-18T16:39:53.133Z</time></trkpt><trkpt lat="41.4763209" lon="13.1102035"><ele>42.0</ele><time>2026-04-18T16:39:54.133Z</time></trkpt><trkpt lat="41.4762135" lon="13.1100894"><ele>42.0</ele><time>2026-04-18T16:39:55.133Z</time></trkpt><trkpt lat="41.4761066" lon="13.109968"><ele>42.0</ele><time>2026-04-18T16:39:56.133Z</time></trkpt><trkpt lat="41.4759972" lon="13.1098488"><ele>41.0</ele><time>2026-04-18T16:39:57.133Z</time></trkpt><trkpt lat="41.4758884" lon="13.1097232"><ele>40.0</ele><time>2026-04-18T16:39:58.133Z</time></trkpt><trkpt lat="41.4757838" lon="13.1095943"><ele>39.0</ele><time>2026-04-18T16:39:59.133Z</time></trkpt><trkpt lat="41.4756837" lon="13.10947"><ele>38.0</ele><time>2026-04-18T16:40:00.132Z</time></trkpt><trkpt lat="41.4755867" lon="13.1093458"><ele>38.0</ele><time>2026-04-18T16:40:01.133Z</time></trkpt><trkpt lat="41.475492" lon="13.109206"><ele>38.0</ele><time>2026-04-18T16:40:02.133Z</time></trkpt><trkpt lat="41.4753844" lon="13.1090747"><ele>38.0</ele><time>2026-04-18T16:40:03.133Z</time></trkpt><trkpt lat="41.47528" lon="13.1089501"><ele>38.0</ele><time>2026-04-18T16:40:04.133Z</time></trkpt><trkpt lat="41.4751777" lon="13.1088302"><ele>36.75</ele><time>2026-04-18T16:40:05.133Z</time></trkpt><trkpt lat="41.4750773" lon="13.1087163"><ele>35.5</ele><time>2026-04-18T16:40:06.133Z</time></trkpt><trkpt lat="41.4749786" lon="13.1086071"><ele>34.25</ele><time>2026-04-18T16:40:07.133Z</time></trkpt><trkpt lat="41.4748804" lon="13.1085013"><ele>33.0</ele><time>2026-04-18T16:40:08.133Z</time></trkpt><trkpt lat="41.4747822" lon="13.108401"><ele>33.0</ele><time>2026-04-18T16:40:09.133Z</time></trkpt><trkpt lat="41.4746869" lon="13.1083072"><ele>33.0</ele><time>2026-04-18T16:40:10.133Z</time></trkpt><trkpt lat="41.4746002" lon="13.1082267"><ele>33.0</ele><time>2026-04-18T16:40:11.133Z</time></trkpt><trkpt lat="41.4745204" lon="13.1081654"><ele>33.0</ele><time>2026-04-18T16:40:12.133Z</time></trkpt><trkpt lat="41.4744288" lon="13.1081546"><ele>33.0</ele><time>2026-04-18T16:40:13.133Z</time></trkpt><trkpt lat="41.4743434" lon="13.1081414"><ele>31.799999999999997</ele><time>2026-04-18T16:40:14.133Z</time></trkpt><trkpt lat="41.474251" lon="13.1081279"><ele>30.599999999999998</ele><time>2026-04-18T16:40:15.133Z</time></trkpt><trkpt lat="41.474152" lon="13.1080895"><ele>29.400000000000002</ele><time>2026-04-18T16:40:16.133Z</time></trkpt><trkpt lat="41.4740423" lon="13.1080346"><ele>28.200000000000003</ele><time>2026-04-18T16:40:17.133Z</time></trkpt><trkpt lat="41.4739332" lon="13.1079514"><ele>27.0</ele><time>2026-04-18T16:40:18.133Z</time></trkpt><trkpt lat="41.4738055" lon="13.10789"><ele>26.5</ele><time>2026-04-18T16:40:19.133Z</time></trkpt><trkpt lat="41.4736709" lon="13.1078303"><ele>26.0</ele><time>2026-04-18T16:40:20.133Z</time></trkpt><trkpt lat="41.4735363" lon="13.1077721"><ele>25.5</ele><time>2026-04-18T16:40:21.133Z</time></trkpt><trkpt lat="41.4734061" lon="13.1077151"><ele>25.0</ele><time>2026-04-18T16:40:22.133Z</time></trkpt><trkpt lat="41.4732778" lon="13.1076603"><ele>25.0</ele><time>2026-04-18T16:40:23.133Z</time></trkpt><trkpt lat="41.4731526" lon="13.107605"><ele>25.0</ele><time>2026-04-18T16:40:24.133Z</time></trkpt><trkpt lat="41.4730172" lon="13.1075481"><ele>25.0</ele><time>2026-04-18T16:40:25.133Z</time></trkpt><trkpt lat="41.4728699" lon="13.1074902"><ele>25.0</ele><time>2026-04-18T16:40:26.133Z</time></trkpt><trkpt lat="41.4727247" lon="13.1074287"><ele>22.0</ele><time>2026-04-18T16:40:27.133Z</time></trkpt><trkpt lat="41.4725816" lon="13.1073705"><ele>19.0</ele><time>2026-04-18T16:40:28.133Z</time></trkpt><trkpt lat="41.4724461" lon="13.1073134"><ele>16.0</ele><time>2026-04-18T16:40:29.133Z</time></trkpt><trkpt lat="41.4723153" lon="13.1072633"><ele>13.0</ele><time>2026-04-18T16:40:30.133Z</time></trkpt><trkpt lat="41.4721886" lon="13.1072138"><ele>13.25</ele><time>2026-04-18T16:40:31.133Z</time></trkpt><trkpt lat="41.4720687" lon="13.1071611"><ele>13.5</ele><time>2026-04-18T16:40:32.133Z</time></trkpt><trkpt lat="41.4719554" lon="13.10711"><ele>13.75</ele><time>2026-04-18T16:40:33.133Z</time></trkpt><trkpt lat="41.471847" lon="13.1070562"><ele>14.0</ele><time>2026-04-18T16:40:34.133Z</time></trkpt><trkpt lat="41.4717454" lon="13.1070013"><ele>14.0</ele><time>2026-04-18T16:40:35.133Z</time></trkpt><trkpt lat="41.4716516" lon="13.1069385"><ele>13.999999999999998</ele><time>2026-04-18T16:40:36.133Z</time></trkpt><trkpt lat="41.4715654" lon="13.1068686"><ele>13.999999999999998</ele><time>2026-04-18T16:40:37.133Z</time></trkpt><trkpt lat="41.4714784" lon="13.1067949"><ele>14.0</ele><time>2026-04-18T16:40:38.133Z</time></trkpt><trkpt lat="41.4713854" lon="13.1067414"><ele>14.0</ele><time>2026-04-18T16:40:39.133Z</time></trkpt><trkpt lat="41.4712867" lon="13.1067138"><ele>13.75</ele><time>2026-04-18T16:40:40.132Z</time></trkpt><trkpt lat="41.471171" lon="13.1067029"><ele>13.5</ele><time>2026-04-18T16:40:41.133Z</time></trkpt><trkpt lat="41.4710463" lon="13.1066837"><ele>13.25</ele><time>2026-04-18T16:40:42.133Z</time></trkpt><trkpt lat="41.4709262" lon="13.106627"><ele>13.0</ele><time>2026-04-18T16:40:43.133Z</time></trkpt><trkpt lat="41.4708073" lon="13.1065516"><ele>13.0</ele><time>2026-04-18T16:40:44.133Z</time></trkpt><trkpt lat="41.4706931" lon="13.106453"><ele>13.0</ele><time>2026-04-18T16:40:45.133Z</time></trkpt><trkpt lat="41.4705843" lon="13.1063366"><ele>13.0</ele><time>2026-04-18T16:40:46.133Z</time></trkpt><trkpt lat="41.4704737" lon="13.1062139"><ele>13.0</ele><time>2026-04-18T16:40:47.133Z</time></trkpt><trkpt lat="41.4703609" lon="13.1060852"><ele>13.333333333333332</ele><time>2026-04-18T16:40:48.132Z</time></trkpt><trkpt lat="41.4702457" lon="13.105955"><ele>13.666666666666668</ele><time>2026-04-18T16:40:49.133Z</time></trkpt><trkpt lat="41.4701265" lon="13.1058202"><ele>14.0</ele><time>2026-04-18T16:40:50.133Z</time></trkpt><trkpt lat="41.4699968" lon="13.105677"><ele>13.333333333333334</ele><time>2026-04-18T16:40:51.133Z</time></trkpt><trkpt lat="41.4698552" lon="13.1055047"><ele>12.666666666666668</ele><time>2026-04-18T16:40:52.133Z</time></trkpt><trkpt lat="41.4697151" lon="13.1053746"><ele>12.0</ele><time>2026-04-18T16:40:53.133Z</time></trkpt><trkpt lat="41.4695677" lon="13.1052566"><ele>12.0</ele><time>2026-04-18T16:40:54.133Z</time></trkpt><trkpt lat="41.4694196" lon="13.1051288"><ele>12.0</ele><time>2026-04-18T16:40:55.133Z</time></trkpt><trkpt lat="41.4692659" lon="13.1049997"><ele>12.0</ele><time>2026-04-18T16:40:56.132Z</time></trkpt><trkpt lat="41.4691103" lon="13.1048645"><ele>12.0</ele><time>2026-04-18T16:40:57.133Z</time></trkpt><trkpt lat="41.4689546" lon="13.1047276"><ele>12.0</ele><time>2026-04-18T16:40:58.133Z</time></trkpt><trkpt lat="41.4687975" lon="13.10459"><ele>12.0</ele><time>2026-04-18T16:40:59.133Z</time></trkpt><trkpt lat="41.4686405" lon="13.104454"><ele>12.0</ele><time>2026-04-18T16:41:00.133Z</time></trkpt><trkpt lat="41.4684851" lon="13.1043131"><ele>12.0</ele><time>2026-04-18T16:41:01.133Z</time></trkpt><trkpt lat="41.468332" lon="13.1041739"><ele>12.0</ele><time>2026-04-18T16:41:02.132Z</time></trkpt><trkpt lat="41.4681794" lon="13.1040337"><ele>11.333333333333334</ele><time>2026-04-18T16:41:03.133Z</time></trkpt><trkpt lat="41.4680234" lon="13.1039025"><ele>10.666666666666668</ele><time>2026-04-18T16:41:04.133Z</time></trkpt><trkpt lat="41.4678696" lon="13.1037747"><ele>10.0</ele><time>2026-04-18T16:41:05.133Z</time></trkpt><trkpt lat="41.4677147" lon="13.1036477"><ele>10.0</ele><time>2026-04-18T16:41:06.133Z</time></trkpt><trkpt lat="41.4675552" lon="13.1035298"><ele>10.0</ele><time>2026-04-18T16:41:07.133Z</time></trkpt><trkpt lat="41.4673915" lon="13.1034165"><ele>10.0</ele><time>2026-04-18T16:41:08.132Z</time></trkpt><trkpt lat="41.4672246" lon="13.1033064"><ele>9.333333333333334</ele><time>2026-04-18T16:41:09.133Z</time></trkpt><trkpt lat="41.4670569" lon="13.1031996"><ele>8.666666666666666</ele><time>2026-04-18T16:41:10.133Z</time></trkpt><trkpt lat="41.4668884" lon="13.1030901"><ele>8.0</ele><time>2026-04-18T16:41:11.133Z</time></trkpt><trkpt lat="41.4667194" lon="13.1029792"><ele>8.0</ele><time>2026-04-18T16:41:12.133Z</time></trkpt><trkpt lat="41.466556" lon="13.1028486"><ele>8.0</ele><time>2026-04-18T16:41:13.133Z</time></trkpt><trkpt lat="41.4663989" lon="13.1027041"><ele>8.0</ele><time>2026-04-18T16:41:14.133Z</time></trkpt><trkpt lat="41.4662454" lon="13.1025502"><ele>7.666666666666666</ele><time>2026-04-18T16:41:15.133Z</time></trkpt><trkpt lat="41.4660991" lon="13.1023915"><ele>7.333333333333334</ele><time>2026-04-18T16:41:16.133Z</time></trkpt><trkpt lat="41.4659551" lon="13.1022259"><ele>7.0</ele><time>2026-04-18T16:41:17.133Z</time></trkpt><trkpt lat="41.4658116" lon="13.1020552"><ele>7.0</ele><time>2026-04-18T16:41:18.133Z</time></trkpt><trkpt lat="41.4656666" lon="13.1018838"><ele>7.0</ele><time>2026-04-18T16:41:19.133Z</time></trkpt><trkpt lat="41.4655209" lon="13.1017176"><ele>7.0</ele><time>2026-04-18T16:41:20.133Z</time></trkpt><trkpt lat="41.4653776" lon="13.1015444"><ele>6.666666666666667</ele><time>2026-04-18T16:41:21.133Z</time></trkpt><trkpt lat="41.4652323" lon="13.1013773"><ele>6.333333333333334</ele><time>2026-04-18T16:41:22.133Z</time></trkpt><trkpt lat="41.4650878" lon="13.1012075"><ele>6.0</ele><time>2026-04-18T16:41:23.133Z</time></trkpt><trkpt lat="41.4649436" lon="13.1010419"><ele>6.0</ele><time>2026-04-18T16:41:24.133Z</time></trkpt><trkpt lat="41.4647997" lon="13.1008769"><ele>6.0</ele><time>2026-04-18T16:41:25.133Z</time></trkpt><trkpt lat="41.464656" lon="13.1007153"><ele>6.0</ele><time>2026-04-18T16:41:26.133Z</time></trkpt><trkpt lat="41.4645146" lon="13.100557"><ele>5.666666666666667</ele><time>2026-04-18T16:41:27.133Z</time></trkpt><trkpt lat="41.4643739" lon="13.1003998"><ele>5.333333333333334</ele><time>2026-04-18T16:41:28.132Z</time></trkpt><trkpt lat="41.4642365" lon="13.1002448"><ele>5.0</ele><time>2026-04-18T16:41:29.133Z</time></trkpt><trkpt lat="41.4641001" lon="13.1000925"><ele>5.0</ele><time>2026-04-18T16:41:30.133Z</time></trkpt><trkpt lat="41.463962" lon="13.0999421"><ele>5.0</ele><time>2026-04-18T16:41:31.133Z</time></trkpt><trkpt lat="41.4638274" lon="13.0997945"><ele>5.0</ele><time>2026-04-18T16:41:32.133Z</time></trkpt><trkpt lat="41.463696" lon="13.0996418"><ele>5.0</ele><time>2026-04-18T16:41:33.132Z</time></trkpt><trkpt lat="41.4635645" lon="13.0994903"><ele>5.0</ele><time>2026-04-18T16:41:34.133Z</time></trkpt><trkpt lat="41.4634352" lon="13.0993367"><ele>5.0</ele><time>2026-04-18T16:41:35.133Z</time></trkpt><trkpt lat="41.4633103" lon="13.0991822"><ele>4.666666666666667</ele><time>2026-04-18T16:41:36.133Z</time></trkpt><trkpt lat="41.4631905" lon="13.0990304"><ele>4.333333333333333</ele><time>2026-04-18T16:41:37.133Z</time></trkpt><trkpt lat="41.4630734" lon="13.0988857"><ele>4.0</ele><time>2026-04-18T16:41:38.132Z</time></trkpt><trkpt lat="41.4629643" lon="13.098752"><ele>3.75</ele><time>2026-04-18T16:41:39.133Z</time></trkpt><trkpt lat="41.4628559" lon="13.0986356"><ele>3.5</ele><time>2026-04-18T16:41:40.133Z</time></trkpt><trkpt lat="41.4627464" lon="13.0985411"><ele>3.25</ele><time>2026-04-18T16:41:41.133Z</time></trkpt><trkpt lat="41.46264" lon="13.098462"><ele>3.0</ele><time>2026-04-18T16:41:42.133Z</time></trkpt><trkpt lat="41.4625261" lon="13.0983922"><ele>3.0</ele><time>2026-04-18T16:41:43.133Z</time></trkpt><trkpt lat="41.4624049" lon="13.098329"><ele>3.0</ele><time>2026-04-18T16:41:44.132Z</time></trkpt><trkpt lat="41.4622793" lon="13.098248"><ele>3.0</ele><time>2026-04-18T16:41:45.133Z</time></trkpt><trkpt lat="41.4621465" lon="13.0981466"><ele>3.0</ele><time>2026-04-18T16:41:46.133Z</time></trkpt><trkpt lat="41.4620176" lon="13.0980133"><ele>2.0</ele><time>2026-04-18T16:41:47.133Z</time></trkpt><trkpt lat="41.4618903" lon="13.0978603"><ele>1.0</ele><time>2026-04-18T16:41:48.133Z</time></trkpt><trkpt lat="41.4617656" lon="13.097689"><ele>0.0</ele><time>2026-04-18T16:41:49.133Z</time></trkpt><trkpt lat="41.4616396" lon="13.0975105"><ele>0.3333333333333333</ele><time>2026-04-18T16:41:50.132Z</time></trkpt><trkpt lat="41.4615116" lon="13.0973312"><ele>0.6666666666666666</ele><time>2026-04-18T16:41:51.132Z</time></trkpt><trkpt lat="41.4613834" lon="13.0971438"><ele>1.0</ele><time>2026-04-18T16:41:52.133Z</time></trkpt><trkpt lat="41.4612506" lon="13.096951"><ele>0.3333333333333333</ele><time>2026-04-18T16:41:53.132Z</time></trkpt><trkpt lat="41.4611161" lon="13.0967594"><ele>-0.3333333333333333</ele><time>2026-04-18T16:41:54.133Z</time></trkpt><trkpt lat="41.460983" lon="13.0965682"><ele>-1.0</ele><time>2026-04-18T16:41:55.133Z</time></trkpt><trkpt lat="41.4608471" lon="13.0963819"><ele>-1.0</ele><time>2026-04-18T16:41:56.133Z</time></trkpt><trkpt lat="41.4607082" lon="13.0961956"><ele>-1.0</ele><time>2026-04-18T16:41:57.133Z</time></trkpt><trkpt lat="41.4605743" lon="13.0960065"><ele>-1.0</ele><time>2026-04-18T16:41:58.133Z</time></trkpt><trkpt lat="41.4604383" lon="13.0958177"><ele>-1.3333333333333333</ele><time>2026-04-18T16:41:59.133Z</time></trkpt><trkpt lat="41.4603051" lon="13.0956336"><ele>-1.6666666666666665</ele><time>2026-04-18T16:42:00.133Z</time></trkpt><trkpt lat="41.4601718" lon="13.095452"><ele>-2.0</ele><time>2026-04-18T16:42:01.133Z</time></trkpt><trkpt lat="41.4600404" lon="13.0952735"><ele>-2.0</ele><time>2026-04-18T16:42:02.133Z</time></trkpt><trkpt lat="41.4599073" lon="13.0950945"><ele>-2.0</ele><time>2026-04-18T16:42:03.133Z</time></trkpt><trkpt lat="41.459773" lon="13.0949131"><ele>-2.0</ele><time>2026-04-18T16:42:04.133Z</time></trkpt><trkpt lat="41.4596385" lon="13.0947252"><ele>-1.6666666666666665</ele><time>2026-04-18T16:42:05.133Z</time></trkpt><trkpt lat="41.4595034" lon="13.0945365"><ele>-1.3333333333333333</ele><time>2026-04-18T16:42:06.133Z</time></trkpt><trkpt lat="41.4593694" lon="13.0943413"><ele>-1.0</ele><time>2026-04-18T16:42:07.133Z</time></trkpt><trkpt lat="41.4592296" lon="13.0941466"><ele>-0.6666666666666666</ele><time>2026-04-18T16:42:08.133Z</time></trkpt><trkpt lat="41.4590889" lon="13.0939492"><ele>-0.3333333333333333</ele><time>2026-04-18T16:42:09.133Z</time></trkpt><trkpt lat="41.4589449" lon="13.0937524"><ele>0.0</ele><time>2026-04-18T16:42:10.133Z</time></trkpt><trkpt lat="41.4588037" lon="13.0935558"><ele>0.0</ele><time>2026-04-18T16:42:11.133Z</time></trkpt><trkpt lat="41.4586611" lon="13.0933552"><ele>0.0</ele><time>2026-04-18T16:42:12.133Z</time></trkpt><trkpt lat="41.4585154" lon="13.0931601"><ele>0.0</ele><time>2026-04-18T16:42:13.133Z</time></trkpt><trkpt lat="41.458372" lon="13.0929617"><ele>0.0</ele><time>2026-04-18T16:42:14.133Z</time></trkpt><trkpt lat="41.4582279" lon="13.0927596"><ele>0.0</ele><time>2026-04-18T16:42:15.133Z</time></trkpt><trkpt lat="41.458085" lon="13.0925565"><ele>0.0</ele><time>2026-04-18T16:42:16.133Z</time></trkpt><trkpt lat="41.4579426" lon="13.092355"><ele>0.0</ele><time>2026-04-18T16:42:17.133Z</time></trkpt><trkpt lat="41.4577986" lon="13.0921598"><ele>0.0</ele><time>2026-04-18T16:42:18.133Z</time></trkpt><trkpt lat="41.457659" lon="13.091967"><ele>0.0</ele><time>2026-04-18T16:42:19.133Z</time></trkpt><trkpt lat="41.4575221" lon="13.0917754"><ele>0.0</ele><time>2026-04-18T16:42:20.133Z</time></trkpt><trkpt lat="41.4573823" lon="13.0915827"><ele>0.0</ele><time>2026-04-18T16:42:21.133Z</time></trkpt><trkpt lat="41.4572437" lon="13.0913897"><ele>0.0</ele><time>2026-04-18T16:42:22.132Z</time></trkpt><trkpt lat="41.4571077" lon="13.0911964"><ele>0.0</ele><time>2026-04-18T16:42:23.133Z</time></trkpt><trkpt lat="41.4569681" lon="13.0910062"><ele>0.0</ele><time>2026-04-18T16:42:24.133Z</time></trkpt><trkpt lat="41.4568275" lon="13.090814"><ele>0.0</ele><time>2026-04-18T16:42:25.133Z</time></trkpt><trkpt lat="41.4566895" lon="13.0906197"><ele>-0.3333333333333333</ele><time>2026-04-18T16:42:26.133Z</time></trkpt><trkpt lat="41.4565505" lon="13.0904275"><ele>-0.6666666666666666</ele><time>2026-04-18T16:42:27.132Z</time></trkpt><trkpt lat="41.4564133" lon="13.0902385"><ele>-1.0</ele><time>2026-04-18T16:42:28.133Z</time></trkpt><trkpt lat="41.4562771" lon="13.090052"><ele>-1.0</ele><time>2026-04-18T16:42:29.133Z</time></trkpt><trkpt lat="41.4561438" lon="13.0898665"><ele>-1.0</ele><time>2026-04-18T16:42:30.133Z</time></trkpt><trkpt lat="41.4560116" lon="13.0896822"><ele>-1.0</ele><time>2026-04-18T16:42:31.133Z</time></trkpt><trkpt lat="41.4558824" lon="13.0894941"><ele>-1.0</ele><time>2026-04-18T16:42:32.133Z</time></trkpt><trkpt lat="41.4557481" lon="13.0893087"><ele>-1.0</ele><time>2026-04-18T16:42:33.133Z</time></trkpt><trkpt lat="41.455613" lon="13.0891212"><ele>-1.0</ele><time>2026-04-18T16:42:34.133Z</time></trkpt><trkpt lat="41.4554758" lon="13.0889326"><ele>-1.3333333333333333</ele><time>2026-04-18T16:42:35.133Z</time></trkpt><trkpt lat="41.4553386" lon="13.0887399"><ele>-1.6666666666666665</ele><time>2026-04-18T16:42:36.132Z</time></trkpt><trkpt lat="41.4551993" lon="13.0885453"><ele>-2.0</ele><time>2026-04-18T16:42:37.133Z</time></trkpt><trkpt lat="41.4550589" lon="13.0883509"><ele>-1.3333333333333333</ele><time>2026-04-18T16:42:38.133Z</time></trkpt><trkpt lat="41.4549175" lon="13.0881582"><ele>-0.6666666666666666</ele><time>2026-04-18T16:42:39.133Z</time></trkpt><trkpt lat="41.4547749" lon="13.0879634"><ele>0.0</ele><time>2026-04-18T16:42:40.132Z</time></trkpt><trkpt lat="41.4546319" lon="13.0877646"><ele>0.0</ele><time>2026-04-18T16:42:41.132Z</time></trkpt><trkpt lat="41.4544891" lon="13.0875627"><ele>0.0</ele><time>2026-04-18T16:42:42.133Z</time></trkpt><trkpt lat="41.4543397" lon="13.0873592"><ele>0.0</ele><time>2026-04-18T16:42:43.133Z</time></trkpt><trkpt lat="41.4541852" lon="13.0871486"><ele>0.5</ele><time>2026-04-18T16:42:44.132Z</time></trkpt><trkpt lat="41.4540261" lon="13.0869319"><ele>1.0</ele><time>2026-04-18T16:42:45.133Z</time></trkpt><trkpt lat="41.453865" lon="13.0867053"><ele>0.0</ele><time>2026-04-18T16:42:46.132Z</time></trkpt><trkpt lat="41.4536974" lon="13.0864738"><ele>-1.0</ele><time>2026-04-18T16:42:47.133Z</time></trkpt><trkpt lat="41.453531" lon="13.0862375"><ele>-1.0</ele><time>2026-04-18T16:42:48.133Z</time></trkpt><trkpt lat="41.4533585" lon="13.0860022"><ele>-1.0</ele><time>2026-04-18T16:42:49.133Z</time></trkpt><trkpt lat="41.4531861" lon="13.0857602"><ele>-1.5</ele><time>2026-04-18T16:42:50.133Z</time></trkpt><trkpt lat="41.4530069" lon="13.0855219"><ele>-2.0</ele><time>2026-04-18T16:42:51.132Z</time></trkpt><trkpt lat="41.4528298" lon="13.0852818"><ele>-2.0</ele><time>2026-04-18T16:42:52.133Z</time></trkpt><trkpt lat="41.4526516" lon="13.0850325"><ele>-2.0</ele><time>2026-04-18T16:42:53.133Z</time></trkpt><trkpt lat="41.452469" lon="13.0847771"><ele>-1.0</ele><time>2026-04-18T16:42:54.133Z</time></trkpt><trkpt lat="41.4522838" lon="13.0845152"><ele>0.0</ele><time>2026-04-18T16:42:55.133Z</time></trkpt><trkpt lat="41.4520955" lon="13.0842448"><ele>0.0</ele><time>2026-04-18T16:42:56.133Z</time></trkpt><trkpt lat="41.4518999" lon="13.0839814"><ele>0.0</ele><time>2026-04-18T16:42:57.133Z</time></trkpt><trkpt lat="41.4516987" lon="13.0837077"><ele>0.0</ele><time>2026-04-18T16:42:58.133Z</time></trkpt><trkpt lat="41.4515001" lon="13.0834231"><ele>0.0</ele><time>2026-04-18T16:42:59.133Z</time></trkpt><trkpt lat="41.4512963" lon="13.0831436"><ele>0.0</ele><time>2026-04-18T16:43:00.133Z</time></trkpt><trkpt lat="41.4510965" lon="13.0828614"><ele>0.0</ele><time>2026-04-18T16:43:01.132Z</time></trkpt><trkpt lat="41.4508979" lon="13.0825849"><ele>0.5</ele><time>2026-04-18T16:43:02.132Z</time></trkpt><trkpt lat="41.4506994" lon="13.0823088"><ele>1.0</ele><time>2026-04-18T16:43:03.133Z</time></trkpt><trkpt lat="41.4505001" lon="13.0820312"><ele>0.0</ele><time>2026-04-18T16:43:04.133Z</time></trkpt><trkpt lat="41.4502988" lon="13.0817509"><ele>-1.0</ele><time>2026-04-18T16:43:05.133Z</time></trkpt><trkpt lat="41.4500955" lon="13.0814671"><ele>-1.0</ele><time>2026-04-18T16:43:06.133Z</time></trkpt><trkpt lat="41.4498983" lon="13.081192"><ele>-1.0</ele><time>2026-04-18T16:43:07.133Z</time></trkpt><trkpt lat="41.4497134" lon="13.0809401"><ele>-2.0</ele><time>2026-04-18T16:43:08.133Z</time></trkpt><trkpt lat="41.4495437" lon="13.0806994"><ele>-3.0</ele><time>2026-04-18T16:43:09.133Z</time></trkpt><trkpt lat="41.4493868" lon="13.0804765"><ele>-3.0</ele><time>2026-04-18T16:43:10.133Z</time></trkpt><trkpt lat="41.4492407" lon="13.080269"><ele>-3.0</ele><time>2026-04-18T16:43:11.133Z</time></trkpt><trkpt lat="41.4490963" lon="13.0800691"><ele>-3.0</ele><time>2026-04-18T16:43:12.133Z</time></trkpt><trkpt lat="41.4489571" lon="13.0798747"><ele>-2.3333333333333335</ele><time>2026-04-18T16:43:13.133Z</time></trkpt><trkpt lat="41.4488126" lon="13.0796773"><ele>-1.6666666666666665</ele><time>2026-04-18T16:43:14.133Z</time></trkpt><trkpt lat="41.4486632" lon="13.0794715"><ele>-1.0</ele><time>2026-04-18T16:43:15.133Z</time></trkpt><trkpt lat="41.4485016" lon="13.0792531"><ele>-0.5</ele><time>2026-04-18T16:43:16.133Z</time></trkpt><trkpt lat="41.4483333" lon="13.0790151"><ele>0.0</ele><time>2026-04-18T16:43:17.133Z</time></trkpt><trkpt lat="41.4481577" lon="13.0787672"><ele>0.0</ele><time>2026-04-18T16:43:18.133Z</time></trkpt><trkpt lat="41.4479737" lon="13.07851"><ele>0.0</ele><time>2026-04-18T16:43:19.133Z</time></trkpt><trkpt lat="41.4477847" lon="13.0782419"><ele>0.5</ele><time>2026-04-18T16:43:20.133Z</time></trkpt><trkpt lat="41.4475907" lon="13.077971"><ele>1.0</ele><time>2026-04-18T16:43:21.133Z</time></trkpt><trkpt lat="41.4473886" lon="13.0776979"><ele>1.0</ele><time>2026-04-18T16:43:22.132Z</time></trkpt><trkpt lat="41.447187" lon="13.0774199"><ele>1.0</ele><time>2026-04-18T16:43:23.133Z</time></trkpt><trkpt lat="41.4469868" lon="13.0771367"><ele>1.5</ele><time>2026-04-18T16:43:24.133Z</time></trkpt><trkpt lat="41.446785" lon="13.0768557"><ele>2.0</ele><time>2026-04-18T16:43:25.133Z</time></trkpt><trkpt lat="41.4465813" lon="13.076575"><ele>2.5</ele><time>2026-04-18T16:43:26.133Z</time></trkpt><trkpt lat="41.4463782" lon="13.0762948"><ele>3.0</ele><time>2026-04-18T16:43:27.133Z</time></trkpt><trkpt lat="41.4461772" lon="13.0760118"><ele>3.0</ele><time>2026-04-18T16:43:28.133Z</time></trkpt><trkpt lat="41.4459754" lon="13.0757343"><ele>3.0</ele><time>2026-04-18T16:43:29.133Z</time></trkpt><trkpt lat="41.4457716" lon="13.0754555"><ele>3.0</ele><time>2026-04-18T16:43:30.133Z</time></trkpt><trkpt lat="41.4455647" lon="13.0751743"><ele>3.0</ele><time>2026-04-18T16:43:31.133Z</time></trkpt><trkpt lat="41.4453575" lon="13.0748906"><ele>2.0</ele><time>2026-04-18T16:43:32.133Z</time></trkpt><trkpt lat="41.4451523" lon="13.0746006"><ele>1.0</ele><time>2026-04-18T16:43:33.133Z</time></trkpt><trkpt lat="41.4449459" lon="13.0743147"><ele>1.5</ele><time>2026-04-18T16:43:34.133Z</time></trkpt><trkpt lat="41.4447427" lon="13.0740244"><ele>2.0</ele><time>2026-04-18T16:43:35.132Z</time></trkpt><trkpt lat="41.4445405" lon="13.0737499"><ele>2.0</ele><time>2026-04-18T16:43:36.133Z</time></trkpt><trkpt lat="41.4443425" lon="13.0734774"><ele>2.0</ele><time>2026-04-18T16:43:37.133Z</time></trkpt><trkpt lat="41.4441502" lon="13.0732066"><ele>2.0</ele><time>2026-04-18T16:43:38.133Z</time></trkpt><trkpt lat="41.4439578" lon="13.0729489"><ele>2.0</ele><time>2026-04-18T16:43:39.133Z</time></trkpt><trkpt lat="41.4437741" lon="13.0726893"><ele>3.0</ele><time>2026-04-18T16:43:40.133Z</time></trkpt><trkpt lat="41.443595" lon="13.0724317"><ele>4.0</ele><time>2026-04-18T16:43:41.133Z</time></trkpt><trkpt lat="41.4434134" lon="13.0721823"><ele>4.0</ele><time>2026-04-18T16:43:42.133Z</time></trkpt><trkpt lat="41.4432347" lon="13.0719406"><ele>4.0</ele><time>2026-04-18T16:43:43.133Z</time></trkpt><trkpt lat="41.4430557" lon="13.0716997"><ele>3.0</ele><time>2026-04-18T16:43:44.133Z</time></trkpt><trkpt lat="41.4428788" lon="13.0714623"><ele>2.0</ele><time>2026-04-18T16:43:45.133Z</time></trkpt><trkpt lat="41.4427065" lon="13.0712304"><ele>2.0</ele><time>2026-04-18T16:43:46.133Z</time></trkpt><trkpt lat="41.4425446" lon="13.0710058"><ele>2.0</ele><time>2026-04-18T16:43:47.133Z</time></trkpt><trkpt lat="41.4423946" lon="13.0707873"><ele>2.0</ele><time>2026-04-18T16:43:48.133Z</time></trkpt><trkpt lat="41.4422512" lon="13.0705873"><ele>2.0</ele><time>2026-04-18T16:43:49.133Z</time></trkpt><trkpt lat="41.4421157" lon="13.0704044"><ele>2.0</ele><time>2026-04-18T16:43:50.133Z</time></trkpt><trkpt lat="41.4419877" lon="13.0702235"><ele>2.0</ele><time>2026-04-18T16:43:51.133Z</time></trkpt><trkpt lat="41.4418592" lon="13.0700522"><ele>2.0</ele><time>2026-04-18T16:43:52.133Z</time></trkpt><trkpt lat="41.4417376" lon="13.0698824"><ele>2.0</ele><time>2026-04-18T16:43:53.133Z</time></trkpt><trkpt lat="41.4416176" lon="13.0697108"><ele>2.333333333333333</ele><time>2026-04-18T16:43:54.133Z</time></trkpt><trkpt lat="41.4414981" lon="13.0695394"><ele>2.6666666666666665</ele><time>2026-04-18T16:43:55.133Z</time></trkpt><trkpt lat="41.4413785" lon="13.0693736"><ele>3.0</ele><time>2026-04-18T16:43:56.133Z</time></trkpt><trkpt lat="41.4412581" lon="13.0692141"><ele>2.6666666666666665</ele><time>2026-04-18T16:43:57.133Z</time></trkpt><trkpt lat="41.4411428" lon="13.0690592"><ele>2.333333333333333</ele><time>2026-04-18T16:43:58.133Z</time></trkpt><trkpt lat="41.4410394" lon="13.0689037"><ele>2.0</ele><time>2026-04-18T16:43:59.133Z</time></trkpt><trkpt lat="41.440938" lon="13.068767"><ele>2.0</ele><time>2026-04-18T16:44:00.133Z</time></trkpt><trkpt lat="41.4408439" lon="13.0686429"><ele>2.0</ele><time>2026-04-18T16:44:01.133Z</time></trkpt><trkpt lat="41.4407562" lon="13.0685168"><ele>2.0</ele><time>2026-04-18T16:44:02.133Z</time></trkpt><trkpt lat="41.4406697" lon="13.0683989"><ele>2.0</ele><time>2026-04-18T16:44:03.133Z</time></trkpt><trkpt lat="41.4405884" lon="13.0682853"><ele>2.0</ele><time>2026-04-18T16:44:04.133Z</time></trkpt><trkpt lat="41.4405093" lon="13.068174"><ele>2.0</ele><time>2026-04-18T16:44:05.133Z</time></trkpt><trkpt lat="41.4404332" lon="13.0680648"><ele>2.0</ele><time>2026-04-18T16:44:06.133Z</time></trkpt><trkpt lat="41.4403557" lon="13.067962"><ele>2.0</ele><time>2026-04-18T16:44:07.133Z</time></trkpt><trkpt lat="41.4402851" lon="13.0678674"><ele>2.0</ele><time>2026-04-18T16:44:08.133Z</time></trkpt><trkpt lat="41.4402199" lon="13.0677741"><ele>2.1666666666666665</ele><time>2026-04-18T16:44:09.133Z</time></trkpt><trkpt lat="41.4401572" lon="13.0676825"><ele>2.333333333333333</ele><time>2026-04-18T16:44:10.133Z</time></trkpt><trkpt lat="41.4400945" lon="13.067593"><ele>2.5</ele><time>2026-04-18T16:44:11.133Z</time></trkpt><trkpt lat="41.4400362" lon="13.0675121"><ele>2.6666666666666665</ele><time>2026-04-18T16:44:12.133Z</time></trkpt><trkpt lat="41.4399792" lon="13.0674438"><ele>2.8333333333333335</ele><time>2026-04-18T16:44:13.133Z</time></trkpt><trkpt lat="41.4399151" lon="13.0673855"><ele>3.0</ele><time>2026-04-18T16:44:14.133Z</time></trkpt><trkpt lat="41.4398497" lon="13.0673558"><ele>3.0</ele><time>2026-04-18T16:44:15.133Z</time></trkpt><trkpt lat="41.439787" lon="13.0673888"><ele>3.0</ele><time>2026-04-18T16:44:16.132Z</time></trkpt><trkpt lat="41.4397245" lon="13.0674647"><ele>3.0</ele><time>2026-04-18T16:44:17.133Z</time></trkpt><trkpt lat="41.4396758" lon="13.0675894"><ele>3.0</ele><time>2026-04-18T16:44:18.133Z</time></trkpt><trkpt lat="41.439636" lon="13.067737"><ele>3.0</ele><time>2026-04-18T16:44:19.133Z</time></trkpt><trkpt lat="41.4396" lon="13.0679211"><ele>3.0</ele><time>2026-04-18T16:44:20.133Z</time></trkpt><trkpt lat="41.4395713" lon="13.0681254"><ele>3.0</ele><time>2026-04-18T16:44:21.133Z</time></trkpt><trkpt lat="41.4395416" lon="13.0683262"><ele>3.0</ele><time>2026-04-18T16:44:22.133Z</time></trkpt><trkpt lat="41.439496" lon="13.0685314"><ele>3.0</ele><time>2026-04-18T16:44:23.132Z</time></trkpt><trkpt lat="41.4394208" lon="13.0687403"><ele>3.0</ele><time>2026-04-18T16:44:24.133Z</time></trkpt><trkpt lat="41.4393149" lon="13.0689374"><ele>3.0</ele><time>2026-04-18T16:44:25.133Z</time></trkpt><trkpt lat="41.4391897" lon="13.0691401"><ele>3.333333333333333</ele><time>2026-04-18T16:44:26.133Z</time></trkpt><trkpt lat="41.4390536" lon="13.0693535"><ele>3.6666666666666665</ele><time>2026-04-18T16:44:27.133Z</time></trkpt><trkpt lat="41.4389193" lon="13.0695751"><ele>4.0</ele><time>2026-04-18T16:44:28.133Z</time></trkpt><trkpt lat="41.4387669" lon="13.0698094"><ele>3.5</ele><time>2026-04-18T16:44:29.133Z</time></trkpt><trkpt lat="41.4386141" lon="13.070054"><ele>3.0</ele><time>2026-04-18T16:44:30.133Z</time></trkpt><trkpt lat="41.4384582" lon="13.0703077"><ele>3.0</ele><time>2026-04-18T16:44:31.133Z</time></trkpt><trkpt lat="41.4382935" lon="13.070572"><ele>3.0</ele><time>2026-04-18T16:44:32.133Z</time></trkpt><trkpt lat="41.4381242" lon="13.0708444"><ele>2.5</ele><time>2026-04-18T16:44:33.132Z</time></trkpt><trkpt lat="41.4379629" lon="13.0711048"><ele>2.0</ele><time>2026-04-18T16:44:34.133Z</time></trkpt><trkpt lat="41.4378008" lon="13.0713598"><ele>2.0</ele><time>2026-04-18T16:44:35.133Z</time></trkpt><trkpt lat="41.4376503" lon="13.0716017"><ele>2.0</ele><time>2026-04-18T16:44:36.132Z</time></trkpt><trkpt lat="41.4375099" lon="13.071821"><ele>2.333333333333333</ele><time>2026-04-18T16:44:37.133Z</time></trkpt><trkpt lat="41.437382" lon="13.0720379"><ele>2.6666666666666665</ele><time>2026-04-18T16:44:38.132Z</time></trkpt><trkpt lat="41.4372674" lon="13.0722681"><ele>3.0</ele><time>2026-04-18T16:44:39.133Z</time></trkpt><trkpt lat="41.4371623" lon="13.0725187"><ele>3.0</ele><time>2026-04-18T16:44:40.133Z</time></trkpt><trkpt lat="41.4370634" lon="13.0727788"><ele>3.0</ele><time>2026-04-18T16:44:41.133Z</time></trkpt><trkpt lat="41.4369739" lon="13.0730472"><ele>3.0</ele><time>2026-04-18T16:44:42.133Z</time></trkpt><trkpt lat="41.436886" lon="13.0733117"><ele>3.0</ele><time>2026-04-18T16:44:43.133Z</time></trkpt><trkpt lat="41.4367982" lon="13.0735711"><ele>3.0</ele><time>2026-04-18T16:44:44.133Z</time></trkpt><trkpt lat="41.4367135" lon="13.0738223"><ele>3.0</ele><time>2026-04-18T16:44:45.132Z</time></trkpt><trkpt lat="41.436632" lon="13.0740579"><ele>3.0</ele><time>2026-04-18T16:44:46.133Z</time></trkpt><trkpt lat="41.436544" lon="13.0742911"><ele>3.0</ele><time>2026-04-18T16:44:47.133Z</time></trkpt><trkpt lat="41.4364373" lon="13.074514"><ele>3.0</ele><time>2026-04-18T16:44:48.133Z</time></trkpt><trkpt lat="41.4362965" lon="13.074719"><ele>2.3333333333333335</ele><time>2026-04-18T16:44:49.133Z</time></trkpt><trkpt lat="41.4361373" lon="13.0749069"><ele>1.6666666666666665</ele><time>2026-04-18T16:44:50.133Z</time></trkpt><trkpt lat="41.4359613" lon="13.0750741"><ele>1.0</ele><time>2026-04-18T16:44:51.133Z</time></trkpt><trkpt lat="41.4357812" lon="13.0752465"><ele>1.0</ele><time>2026-04-18T16:44:52.133Z</time></trkpt><trkpt lat="41.4355953" lon="13.075428"><ele>1.0</ele><time>2026-04-18T16:44:53.133Z</time></trkpt><trkpt lat="41.4354006" lon="13.0756205"><ele>1.5</ele><time>2026-04-18T16:44:54.133Z</time></trkpt><trkpt lat="41.435207" lon="13.0758143"><ele>2.0</ele><time>2026-04-18T16:44:55.132Z</time></trkpt><trkpt lat="41.4350149" lon="13.0760088"><ele>2.0</ele><time>2026-04-18T16:44:56.133Z</time></trkpt><trkpt lat="41.4348217" lon="13.0762005"><ele>2.0</ele><time>2026-04-18T16:44:57.133Z</time></trkpt><trkpt lat="41.4346235" lon="13.0764025"><ele>2.5</ele><time>2026-04-18T16:44:58.133Z</time></trkpt><trkpt lat="41.4344263" lon="13.0766052"><ele>3.0</ele><time>2026-04-18T16:44:59.133Z</time></trkpt><trkpt lat="41.4342298" lon="13.0768146"><ele>3.0</ele><time>2026-04-18T16:45:00.133Z</time></trkpt><trkpt lat="41.4340288" lon="13.0770332"><ele>3.0</ele><time>2026-04-18T16:45:01.133Z</time></trkpt><trkpt lat="41.4338198" lon="13.0772556"><ele>1.5</ele><time>2026-04-18T16:45:02.133Z</time></trkpt><trkpt lat="41.4336018" lon="13.0774696"><ele>0.0</ele><time>2026-04-18T16:45:03.132Z</time></trkpt><trkpt lat="41.433374" lon="13.0776949"><ele>0.0</ele><time>2026-04-18T16:45:04.133Z</time></trkpt><trkpt lat="41.4331433" lon="13.0779148"><ele>0.0</ele><time>2026-04-18T16:45:05.133Z</time></trkpt><trkpt lat="41.4329128" lon="13.0781324"><ele>0.0</ele><time>2026-04-18T16:45:06.133Z</time></trkpt><trkpt lat="41.4326887" lon="13.0783439"><ele>0.0</ele><time>2026-04-18T16:45:07.133Z</time></trkpt><trkpt lat="41.4324676" lon="13.0785621"><ele>0.0</ele><time>2026-04-18T16:45:08.132Z</time></trkpt><trkpt lat="41.4322585" lon="13.0787796"><ele>0.0</ele><time>2026-04-18T16:45:09.133Z</time></trkpt><trkpt lat="41.4320663" lon="13.0789852"><ele>0.0</ele><time>2026-04-18T16:45:10.133Z</time></trkpt><trkpt lat="41.4318885" lon="13.0791871"><ele>0.0</ele><time>2026-04-18T16:45:11.133Z</time></trkpt><trkpt lat="41.4317333" lon="13.0793827"><ele>0.0</ele><time>2026-04-18T16:45:12.133Z</time></trkpt><trkpt lat="41.4315886" lon="13.0795694"><ele>0.0</ele><time>2026-04-18T16:45:13.133Z</time></trkpt><trkpt lat="41.4314586" lon="13.0797421"><ele>0.0</ele><time>2026-04-18T16:45:14.133Z</time></trkpt><trkpt lat="41.4313455" lon="13.0798958"><ele>0.0</ele><time>2026-04-18T16:45:15.133Z</time></trkpt><trkpt lat="41.4312445" lon="13.0800289"><ele>0.2</ele><time>2026-04-18T16:45:16.133Z</time></trkpt><trkpt lat="41.431157" lon="13.0801437"><ele>0.4</ele><time>2026-04-18T16:45:17.133Z</time></trkpt><trkpt lat="41.431093" lon="13.0802231"><ele>0.6000000000000001</ele><time>2026-04-18T16:45:18.133Z</time></trkpt><trkpt lat="41.4309824" lon="13.0802796"><ele>0.8</ele><time>2026-04-18T16:45:20.133Z</time></trkpt><trkpt lat="41.4309178" lon="13.0802243"><ele>1.0</ele><time>2026-04-18T16:45:21.133Z</time></trkpt><trkpt lat="41.4308373" lon="13.080128"><ele>1.0</ele><time>2026-04-18T16:45:22.133Z</time></trkpt><trkpt lat="41.4307465" lon="13.0799819"><ele>1.0</ele><time>2026-04-18T16:45:23.133Z</time></trkpt><trkpt lat="41.4306334" lon="13.0798245"><ele>1.0</ele><time>2026-04-18T16:45:24.133Z</time></trkpt><trkpt lat="41.4305045" lon="13.0796658"><ele>0.6666666666666666</ele><time>2026-04-18T16:45:25.133Z</time></trkpt><trkpt lat="41.4303757" lon="13.0794908"><ele>0.3333333333333333</ele><time>2026-04-18T16:45:26.133Z</time></trkpt><trkpt lat="41.4302412" lon="13.0792989"><ele>0.0</ele><time>2026-04-18T16:45:27.132Z</time></trkpt><trkpt lat="41.4300977" lon="13.0790992"><ele>0.0</ele><time>2026-04-18T16:45:28.133Z</time></trkpt><trkpt lat="41.4299458" lon="13.0788858"><ele>0.0</ele><time>2026-04-18T16:45:29.133Z</time></trkpt><trkpt lat="41.4297899" lon="13.0786684"><ele>0.0</ele><time>2026-04-18T16:45:30.133Z</time></trkpt><trkpt lat="41.4296259" lon="13.078445"><ele>0.5</ele><time>2026-04-18T16:45:31.133Z</time></trkpt><trkpt lat="41.4294538" lon="13.0782119"><ele>1.0</ele><time>2026-04-18T16:45:32.133Z</time></trkpt><trkpt lat="41.4292813" lon="13.0779705"><ele>1.0</ele><time>2026-04-18T16:45:33.133Z</time></trkpt><trkpt lat="41.4290999" lon="13.0777172"><ele>1.0</ele><time>2026-04-18T16:45:34.132Z</time></trkpt><trkpt lat="41.4289156" lon="13.0774661"><ele>0.5</ele><time>2026-04-18T16:45:35.133Z</time></trkpt><trkpt lat="41.4287262" lon="13.0772063"><ele>0.0</ele><time>2026-04-18T16:45:36.133Z</time></trkpt><trkpt lat="41.4285355" lon="13.0769431"><ele>0.0</ele><time>2026-04-18T16:45:37.133Z</time></trkpt><trkpt lat="41.4283424" lon="13.076677"><ele>0.0</ele><time>2026-04-18T16:45:38.133Z</time></trkpt><trkpt lat="41.4281489" lon="13.0764063"><ele>0.5</ele><time>2026-04-18T16:45:39.132Z</time></trkpt><trkpt lat="41.4279567" lon="13.076133"><ele>1.0</ele><time>2026-04-18T16:45:40.133Z</time></trkpt><trkpt lat="41.4277601" lon="13.0758663"><ele>1.5</ele><time>2026-04-18T16:45:41.133Z</time></trkpt><trkpt lat="41.4275639" lon="13.0756033"><ele>2.0</ele><time>2026-04-18T16:45:42.133Z</time></trkpt><trkpt lat="41.4273754" lon="13.0753409"><ele>2.0</ele><time>2026-04-18T16:45:43.133Z</time></trkpt><trkpt lat="41.4271876" lon="13.0750828"><ele>2.0</ele><time>2026-04-18T16:45:44.133Z</time></trkpt><trkpt lat="41.4270006" lon="13.0748267"><ele>2.0</ele><time>2026-04-18T16:45:45.133Z</time></trkpt><trkpt lat="41.4268151" lon="13.0745651"><ele>2.0</ele><time>2026-04-18T16:45:46.133Z</time></trkpt><trkpt lat="41.4266229" lon="13.0742988"><ele>1.5</ele><time>2026-04-18T16:45:47.133Z</time></trkpt><trkpt lat="41.4264209" lon="13.0740232"><ele>1.0</ele><time>2026-04-18T16:45:48.133Z</time></trkpt><trkpt lat="41.4262128" lon="13.0737489"><ele>1.0</ele><time>2026-04-18T16:45:49.133Z</time></trkpt><trkpt lat="41.4260064" lon="13.0734596"><ele>1.0</ele><time>2026-04-18T16:45:50.133Z</time></trkpt><trkpt lat="41.4257987" lon="13.0731711"><ele>1.0</ele><time>2026-04-18T16:45:51.133Z</time></trkpt><trkpt lat="41.4255912" lon="13.0728785"><ele>1.0</ele><time>2026-04-18T16:45:52.133Z</time></trkpt><trkpt lat="41.4253804" lon="13.0725875"><ele>2.0</ele><time>2026-04-18T16:45:53.132Z</time></trkpt><trkpt lat="41.4251681" lon="13.0722972"><ele>3.0</ele><time>2026-04-18T16:45:54.133Z</time></trkpt><trkpt lat="41.4249556" lon="13.0720049"><ele>3.0</ele><time>2026-04-18T16:45:55.132Z</time></trkpt><trkpt lat="41.4247429" lon="13.0717058"><ele>3.0</ele><time>2026-04-18T16:45:56.133Z</time></trkpt><trkpt lat="41.4245258" lon="13.0714033"><ele>3.0</ele><time>2026-04-18T16:45:57.132Z</time></trkpt><trkpt lat="41.4243084" lon="13.0710975"><ele>3.0</ele><time>2026-04-18T16:45:58.133Z</time></trkpt><trkpt lat="41.4240887" lon="13.0707943"><ele>2.5</ele><time>2026-04-18T16:45:59.132Z</time></trkpt><trkpt lat="41.4238666" lon="13.0704926"><ele>2.0</ele><time>2026-04-18T16:46:00.133Z</time></trkpt><trkpt lat="41.423645" lon="13.0701862"><ele>2.0</ele><time>2026-04-18T16:46:01.133Z</time></trkpt><trkpt lat="41.4234218" lon="13.0698807"><ele>2.0</ele><time>2026-04-18T16:46:02.133Z</time></trkpt><trkpt lat="41.4231991" lon="13.0695725"><ele>2.5</ele><time>2026-04-18T16:46:03.133Z</time></trkpt><trkpt lat="41.4229742" lon="13.0692612"><ele>3.0</ele><time>2026-04-18T16:46:04.133Z</time></trkpt><trkpt lat="41.4227486" lon="13.0689466"><ele>2.0</ele><time>2026-04-18T16:46:05.133Z</time></trkpt><trkpt lat="41.4225208" lon="13.0686324"><ele>1.0</ele><time>2026-04-18T16:46:06.133Z</time></trkpt><trkpt lat="41.4222929" lon="13.0683195"><ele>1.5</ele><time>2026-04-18T16:46:07.133Z</time></trkpt><trkpt lat="41.4220686" lon="13.0680024"><ele>2.0</ele><time>2026-04-18T16:46:08.133Z</time></trkpt><trkpt lat="41.4218411" lon="13.0676901"><ele>1.5</ele><time>2026-04-18T16:46:09.133Z</time></trkpt><trkpt lat="41.4216137" lon="13.0673774"><ele>1.0</ele><time>2026-04-18T16:46:10.133Z</time></trkpt><trkpt lat="41.4213858" lon="13.0670632"><ele>1.0</ele><time>2026-04-18T16:46:11.133Z</time></trkpt><trkpt lat="41.4211584" lon="13.0667426"><ele>1.0</ele><time>2026-04-18T16:46:12.133Z</time></trkpt><trkpt lat="41.4209278" lon="13.0664278"><ele>1.5</ele><time>2026-04-18T16:46:13.133Z</time></trkpt><trkpt lat="41.4206976" lon="13.0661106"><ele>2.0</ele><time>2026-04-18T16:46:14.133Z</time></trkpt><trkpt lat="41.4204694" lon="13.0657915"><ele>2.5</ele><time>2026-04-18T16:46:15.133Z</time></trkpt><trkpt lat="41.4202412" lon="13.0654836"><ele>3.0</ele><time>2026-04-18T16:46:16.133Z</time></trkpt><trkpt lat="41.420024" lon="13.0651761"><ele>3.0</ele><time>2026-04-18T16:46:17.133Z</time></trkpt><trkpt lat="41.4198121" lon="13.0648804"><ele>3.0</ele><time>2026-04-18T16:46:18.133Z</time></trkpt><trkpt lat="41.4196074" lon="13.0645999"><ele>3.0</ele><time>2026-04-18T16:46:19.132Z</time></trkpt><trkpt lat="41.4194145" lon="13.0643324"><ele>3.0</ele><time>2026-04-18T16:46:20.132Z</time></trkpt><trkpt lat="41.4192337" lon="13.0640889"><ele>3.0</ele><time>2026-04-18T16:46:21.133Z</time></trkpt><trkpt lat="41.419068" lon="13.0638537"><ele>3.0</ele><time>2026-04-18T16:46:22.132Z</time></trkpt><trkpt lat="41.4189119" lon="13.0636393"><ele>3.0</ele><time>2026-04-18T16:46:23.133Z</time></trkpt><trkpt lat="41.4187637" lon="13.0634355"><ele>3.0</ele><time>2026-04-18T16:46:24.133Z</time></trkpt><trkpt lat="41.418626" lon="13.0632547"><ele>3.0</ele><time>2026-04-18T16:46:25.133Z</time></trkpt><trkpt lat="41.418495" lon="13.0630803"><ele>2.6666666666666665</ele><time>2026-04-18T16:46:26.133Z</time></trkpt><trkpt lat="41.4183745" lon="13.0629066"><ele>2.333333333333333</ele><time>2026-04-18T16:46:27.133Z</time></trkpt><trkpt lat="41.4182637" lon="13.0627446"><ele>2.0</ele><time>2026-04-18T16:46:28.132Z</time></trkpt><trkpt lat="41.418155" lon="13.0625898"><ele>2.0</ele><time>2026-04-18T16:46:29.133Z</time></trkpt><trkpt lat="41.4180506" lon="13.0624459"><ele>2.0</ele><time>2026-04-18T16:46:30.133Z</time></trkpt><trkpt lat="41.4179536" lon="13.0623139"><ele>2.0</ele><time>2026-04-18T16:46:31.133Z</time></trkpt><trkpt lat="41.4178618" lon="13.0621869"><ele>2.0</ele><time>2026-04-18T16:46:32.133Z</time></trkpt><trkpt lat="41.4177801" lon="13.0620736"><ele>2.1666666666666665</ele><time>2026-04-18T16:46:33.133Z</time></trkpt><trkpt lat="41.417708" lon="13.06198"><ele>2.333333333333333</ele><time>2026-04-18T16:46:34.133Z</time></trkpt><trkpt lat="41.4176452" lon="13.0619018"><ele>2.5</ele><time>2026-04-18T16:46:35.133Z</time></trkpt><trkpt lat="41.4175958" lon="13.0618393"><ele>2.6666666666666665</ele><time>2026-04-18T16:46:36.133Z</time></trkpt><trkpt lat="41.4175232" lon="13.061736"><ele>2.8333333333333335</ele><time>2026-04-18T16:46:38.133Z</time></trkpt><trkpt lat="41.4174805" lon="13.061664"><ele>3.0</ele><time>2026-04-18T16:46:40.133Z</time></trkpt><trkpt lat="41.4174276" lon="13.0615807"><ele>3.0</ele><time>2026-04-18T16:47:01.133Z</time></trkpt><trkpt lat="41.4173587" lon="13.0614964"><ele>3.0</ele><time>2026-04-18T16:47:03.133Z</time></trkpt><trkpt lat="41.4173108" lon="13.0614397"><ele>3.0</ele><time>2026-04-18T16:47:04.133Z</time></trkpt><trkpt lat="41.4172526" lon="13.0613763"><ele>3.0</ele><time>2026-04-18T16:47:05.133Z</time></trkpt><trkpt lat="41.4171825" lon="13.0612973"><ele>3.0</ele><time>2026-04-18T16:47:06.132Z</time></trkpt><trkpt lat="41.4171041" lon="13.0612015"><ele>3.0</ele><time>2026-04-18T16:47:07.133Z</time></trkpt><trkpt lat="41.4170189" lon="13.0610873"><ele>3.25</ele><time>2026-04-18T16:47:08.133Z</time></trkpt><trkpt lat="41.4169234" lon="13.0609592"><ele>3.5</ele><time>2026-04-18T16:47:09.132Z</time></trkpt><trkpt lat="41.4168229" lon="13.0608185"><ele>3.75</ele><time>2026-04-18T16:47:10.133Z</time></trkpt><trkpt lat="41.416714" lon="13.0606737"><ele>4.0</ele><time>2026-04-18T16:47:11.133Z</time></trkpt><trkpt lat="41.4166026" lon="13.0605159"><ele>4.0</ele><time>2026-04-18T16:47:12.133Z</time></trkpt><trkpt lat="41.4164816" lon="13.06035"><ele>4.0</ele><time>2026-04-18T16:47:13.132Z</time></trkpt><trkpt lat="41.4163576" lon="13.0601784"><ele>4.0</ele><time>2026-04-18T16:47:14.133Z</time></trkpt><trkpt lat="41.4162371" lon="13.0600034"><ele>4.0</ele><time>2026-04-18T16:47:15.133Z</time></trkpt><trkpt lat="41.416112" lon="13.0598285"><ele>4.0</ele><time>2026-04-18T16:47:16.133Z</time></trkpt><trkpt lat="41.4159818" lon="13.0596438"><ele>4.0</ele><time>2026-04-18T16:47:17.133Z</time></trkpt><trkpt lat="41.415845" lon="13.0594656"><ele>4.0</ele><time>2026-04-18T16:47:18.132Z</time></trkpt><trkpt lat="41.4157097" lon="13.0592858"><ele>4.0</ele><time>2026-04-18T16:47:19.133Z</time></trkpt><trkpt lat="41.4155802" lon="13.0590977"><ele>4.0</ele><time>2026-04-18T16:47:20.133Z</time></trkpt><trkpt lat="41.4154514" lon="13.0589144"><ele>4.666666666666666</ele><time>2026-04-18T16:47:21.133Z</time></trkpt><trkpt lat="41.4153258" lon="13.0587393"><ele>5.333333333333333</ele><time>2026-04-18T16:47:22.133Z</time></trkpt><trkpt lat="41.4151986" lon="13.0585623"><ele>6.0</ele><time>2026-04-18T16:47:23.133Z</time></trkpt><trkpt lat="41.4150749" lon="13.0583896"><ele>5.333333333333333</ele><time>2026-04-18T16:47:24.132Z</time></trkpt><trkpt lat="41.4149508" lon="13.0582164"><ele>4.666666666666666</ele><time>2026-04-18T16:47:25.133Z</time></trkpt><trkpt lat="41.4148318" lon="13.0580507"><ele>4.0</ele><time>2026-04-18T16:47:26.133Z</time></trkpt><trkpt lat="41.4147154" lon="13.0578808"><ele>4.0</ele><time>2026-04-18T16:47:27.133Z</time></trkpt><trkpt lat="41.4146023" lon="13.0577183"><ele>4.0</ele><time>2026-04-18T16:47:28.133Z</time></trkpt><trkpt lat="41.4144936" lon="13.0575585"><ele>4.0</ele><time>2026-04-18T16:47:29.133Z</time></trkpt><trkpt lat="41.4143891" lon="13.057412"><ele>4.0</ele><time>2026-04-18T16:47:30.133Z</time></trkpt><trkpt lat="41.4142877" lon="13.0572696"><ele>4.0</ele><time>2026-04-18T16:47:31.132Z</time></trkpt><trkpt lat="41.4141898" lon="13.0571424"><ele>4.0</ele><time>2026-04-18T16:47:32.133Z</time></trkpt><trkpt lat="41.4141002" lon="13.0570187"><ele>4.0</ele><time>2026-04-18T16:47:33.133Z</time></trkpt><trkpt lat="41.4140223" lon="13.0568976"><ele>4.0</ele><time>2026-04-18T16:47:34.133Z</time></trkpt><trkpt lat="41.4139442" lon="13.0567878"><ele>4.0</ele><time>2026-04-18T16:47:35.133Z</time></trkpt><trkpt lat="41.4138655" lon="13.0566883"><ele>4.0</ele><time>2026-04-18T16:47:36.133Z</time></trkpt><trkpt lat="41.4137878" lon="13.0565943"><ele>4.0</ele><time>2026-04-18T16:47:37.132Z</time></trkpt><trkpt lat="41.4137132" lon="13.0565016"><ele>4.0</ele><time>2026-04-18T16:47:38.133Z</time></trkpt><trkpt lat="41.4136444" lon="13.0564054"><ele>3.9999999999999996</ele><time>2026-04-18T16:47:39.132Z</time></trkpt><trkpt lat="41.4135801" lon="13.0563109"><ele>4.0</ele><time>2026-04-18T16:47:40.133Z</time></trkpt><trkpt lat="41.4135131" lon="13.0562178"><ele>4.0</ele><time>2026-04-18T16:47:41.133Z</time></trkpt><trkpt lat="41.4134505" lon="13.0561344"><ele>4.0</ele><time>2026-04-18T16:47:42.132Z</time></trkpt><trkpt lat="41.4133979" lon="13.0560561"><ele>3.9999999999999996</ele><time>2026-04-18T16:47:43.133Z</time></trkpt><trkpt lat="41.4133552" lon="13.0559929"><ele>4.0</ele><time>2026-04-18T16:47:44.133Z</time></trkpt><trkpt lat="41.413292" lon="13.0559124"><ele>4.0</ele><time>2026-04-18T16:47:46.133Z</time></trkpt><trkpt lat="41.4132383" lon="13.0558431"><ele>4.0</ele><time>2026-04-18T16:47:49.133Z</time></trkpt><trkpt lat="41.4131987" lon="13.055773"><ele>4.0</ele><time>2026-04-18T16:47:52.132Z</time></trkpt><trkpt lat="41.4131224" lon="13.0556647"><ele>4.0</ele><time>2026-04-18T16:47:54.133Z</time></trkpt><trkpt lat="41.413041" lon="13.0555631"><ele>4.0</ele><time>2026-04-18T16:47:55.133Z</time></trkpt><trkpt lat="41.4129339" lon="13.0554086"><ele>4.333333333333333</ele><time>2026-04-18T16:47:56.133Z</time></trkpt><trkpt lat="41.4128157" lon="13.055248"><ele>4.666666666666667</ele><time>2026-04-18T16:47:57.133Z</time></trkpt><trkpt lat="41.4126979" lon="13.0550889"><ele>5.0</ele><time>2026-04-18T16:47:58.132Z</time></trkpt><trkpt lat="41.4125843" lon="13.0549284"><ele>5.0</ele><time>2026-04-18T16:47:59.133Z</time></trkpt><trkpt lat="41.4124685" lon="13.0547672"><ele>5.0</ele><time>2026-04-18T16:48:00.133Z</time></trkpt><trkpt lat="41.412348" lon="13.0546064"><ele>5.0</ele><time>2026-04-18T16:48:01.133Z</time></trkpt><trkpt lat="41.4122259" lon="13.0544466"><ele>5.666666666666667</ele><time>2026-04-18T16:48:02.133Z</time></trkpt><trkpt lat="41.4121089" lon="13.0542817"><ele>6.333333333333334</ele><time>2026-04-18T16:48:03.133Z</time></trkpt><trkpt lat="41.4119929" lon="13.0541226"><ele>7.0</ele><time>2026-04-18T16:48:04.133Z</time></trkpt><trkpt lat="41.4118749" lon="13.0539628"><ele>7.0</ele><time>2026-04-18T16:48:05.133Z</time></trkpt><trkpt lat="41.4117564" lon="13.0538032"><ele>7.0</ele><time>2026-04-18T16:48:06.133Z</time></trkpt><trkpt lat="41.4116407" lon="13.0536509"><ele>7.0</ele><time>2026-04-18T16:48:07.133Z</time></trkpt><trkpt lat="41.4115301" lon="13.0534958"><ele>7.0</ele><time>2026-04-18T16:48:08.133Z</time></trkpt><trkpt lat="41.4114255" lon="13.0533427"><ele>7.0</ele><time>2026-04-18T16:48:09.133Z</time></trkpt><trkpt lat="41.4113286" lon="13.0531986"><ele>7.0</ele><time>2026-04-18T16:48:10.133Z</time></trkpt><trkpt lat="41.411233" lon="13.0530603"><ele>7.0</ele><time>2026-04-18T16:48:11.133Z</time></trkpt><trkpt lat="41.4111346" lon="13.0529268"><ele>7.0</ele><time>2026-04-18T16:48:12.133Z</time></trkpt><trkpt lat="41.4110452" lon="13.0527921"><ele>7.0</ele><time>2026-04-18T16:48:13.133Z</time></trkpt><trkpt lat="41.4109517" lon="13.0526593"><ele>7.0</ele><time>2026-04-18T16:48:14.133Z</time></trkpt><trkpt lat="41.4108563" lon="13.0525344"><ele>7.0</ele><time>2026-04-18T16:48:15.133Z</time></trkpt><trkpt lat="41.4107589" lon="13.0524057"><ele>7.0</ele><time>2026-04-18T16:48:16.132Z</time></trkpt><trkpt lat="41.4106673" lon="13.0522757"><ele>7.0</ele><time>2026-04-18T16:48:17.133Z</time></trkpt><trkpt lat="41.4105796" lon="13.0521588"><ele>7.0</ele><time>2026-04-18T16:48:18.133Z</time></trkpt><trkpt lat="41.4105" lon="13.0520476"><ele>7.0</ele><time>2026-04-18T16:48:19.133Z</time></trkpt><trkpt lat="41.4104223" lon="13.0519428"><ele>6.8</ele><time>2026-04-18T16:48:20.133Z</time></trkpt><trkpt lat="41.4103531" lon="13.0518402"><ele>6.6</ele><time>2026-04-18T16:48:21.132Z</time></trkpt><trkpt lat="41.4102856" lon="13.0517411"><ele>6.3999999999999995</ele><time>2026-04-18T16:48:22.132Z</time></trkpt><trkpt lat="41.4102193" lon="13.0516428"><ele>6.199999999999999</ele><time>2026-04-18T16:48:23.133Z</time></trkpt><trkpt lat="41.4101469" lon="13.051543"><ele>6.0</ele><time>2026-04-18T16:48:24.133Z</time></trkpt><trkpt lat="41.4100725" lon="13.0514396"><ele>6.0</ele><time>2026-04-18T16:48:25.133Z</time></trkpt><trkpt lat="41.4099976" lon="13.0513375"><ele>6.0</ele><time>2026-04-18T16:48:26.133Z</time></trkpt><trkpt lat="41.4099145" lon="13.0512339"><ele>6.0</ele><time>2026-04-18T16:48:27.133Z</time></trkpt><trkpt lat="41.4098284" lon="13.0511205"><ele>6.0</ele><time>2026-04-18T16:48:28.133Z</time></trkpt><trkpt lat="41.4097418" lon="13.0510014"><ele>6.75</ele><time>2026-04-18T16:48:29.133Z</time></trkpt><trkpt lat="41.4096508" lon="13.0508731"><ele>7.5</ele><time>2026-04-18T16:48:30.133Z</time></trkpt><trkpt lat="41.4095539" lon="13.0507402"><ele>8.25</ele><time>2026-04-18T16:48:31.133Z</time></trkpt><trkpt lat="41.4094582" lon="13.0505976"><ele>9.0</ele><time>2026-04-18T16:48:32.133Z</time></trkpt><trkpt lat="41.4093578" lon="13.0504635"><ele>9.0</ele><time>2026-04-18T16:48:33.133Z</time></trkpt><trkpt lat="41.4092548" lon="13.050325"><ele>9.0</ele><time>2026-04-18T16:48:34.133Z</time></trkpt><trkpt lat="41.4091561" lon="13.0501841"><ele>9.0</ele><time>2026-04-18T16:48:35.133Z</time></trkpt><trkpt lat="41.4090611" lon="13.0500504"><ele>9.0</ele><time>2026-04-18T16:48:36.133Z</time></trkpt><trkpt lat="41.4089694" lon="13.0499353"><ele>9.0</ele><time>2026-04-18T16:48:37.133Z</time></trkpt><trkpt lat="41.4088837" lon="13.0498265"><ele>9.0</ele><time>2026-04-18T16:48:38.133Z</time></trkpt><trkpt lat="41.4087984" lon="13.0497151"><ele>9.0</ele><time>2026-04-18T16:48:39.133Z</time></trkpt><trkpt lat="41.408707" lon="13.0495963"><ele>9.0</ele><time>2026-04-18T16:48:40.133Z</time></trkpt><trkpt lat="41.4086105" lon="13.0494632"><ele>8.0</ele><time>2026-04-18T16:48:41.133Z</time></trkpt><trkpt lat="41.4085039" lon="13.0493224"><ele>7.0</ele><time>2026-04-18T16:48:42.133Z</time></trkpt><trkpt lat="41.408391" lon="13.0491764"><ele>6.0</ele><time>2026-04-18T16:48:43.133Z</time></trkpt><trkpt lat="41.4082853" lon="13.0490243"><ele>6.0</ele><time>2026-04-18T16:48:44.133Z</time></trkpt><trkpt lat="41.4081809" lon="13.0488724"><ele>6.0</ele><time>2026-04-18T16:48:45.133Z</time></trkpt><trkpt lat="41.4080786" lon="13.0487233"><ele>6.0</ele><time>2026-04-18T16:48:46.133Z</time></trkpt><trkpt lat="41.4079815" lon="13.0485825"><ele>6.0</ele><time>2026-04-18T16:48:47.133Z</time></trkpt><trkpt lat="41.4078907" lon="13.0484527"><ele>6.0</ele><time>2026-04-18T16:48:48.133Z</time></trkpt><trkpt lat="41.4078028" lon="13.0483374"><ele>6.0</ele><time>2026-04-18T16:48:49.132Z</time></trkpt><trkpt lat="41.4077183" lon="13.04822"><ele>6.0</ele><time>2026-04-18T16:48:50.133Z</time></trkpt><trkpt lat="41.4076408" lon="13.0481143"><ele>6.0</ele><time>2026-04-18T16:48:51.132Z</time></trkpt><trkpt lat="41.4075692" lon="13.0480098"><ele>6.0</ele><time>2026-04-18T16:48:52.132Z</time></trkpt><trkpt lat="41.4074987" lon="13.0479136"><ele>6.0</ele><time>2026-04-18T16:48:53.133Z</time></trkpt><trkpt lat="41.4074345" lon="13.047828"><ele>6.0</ele><time>2026-04-18T16:48:54.133Z</time></trkpt><trkpt lat="41.4073721" lon="13.0477456"><ele>6.0</ele><time>2026-04-18T16:48:55.132Z</time></trkpt><trkpt lat="41.4073142" lon="13.0476625"><ele>6.0</ele><time>2026-04-18T16:48:56.132Z</time></trkpt><trkpt lat="41.40726" lon="13.0475849"><ele>6.0</ele><time>2026-04-18T16:48:57.133Z</time></trkpt><trkpt lat="41.4072064" lon="13.0475124"><ele>6.0</ele><time>2026-04-18T16:48:58.133Z</time></trkpt><trkpt lat="41.4071598" lon="13.0474451"><ele>6.0</ele><time>2026-04-18T16:48:59.133Z</time></trkpt><trkpt lat="41.4070891" lon="13.0473395"><ele>6.0</ele><time>2026-04-18T16:49:01.133Z</time></trkpt><trkpt lat="41.4070637" lon="13.0472359"><ele>6.0</ele><time>2026-04-18T16:49:04.132Z</time></trkpt><trkpt lat="41.4070107" lon="13.0470876"><ele>6.0</ele><time>2026-04-18T16:49:07.133Z</time></trkpt><trkpt lat="41.4069304" lon="13.047128"><ele>6.0</ele><time>2026-04-18T16:49:09.133Z</time></trkpt><trkpt lat="41.4068503" lon="13.0472849"><ele>6.0</ele><time>2026-04-18T16:49:11.132Z</time></trkpt><trkpt lat="41.4067855" lon="13.0473887"><ele>6.0</ele><time>2026-04-18T16:49:12.133Z</time></trkpt><trkpt lat="41.4067057" lon="13.0474853"><ele>6.0</ele><time>2026-04-18T16:49:13.133Z</time></trkpt><trkpt lat="41.4066157" lon="13.0475996"><ele>6.25</ele><time>2026-04-18T16:49:14.133Z</time></trkpt><trkpt lat="41.4065217" lon="13.0477113"><ele>6.5</ele><time>2026-04-18T16:49:15.133Z</time></trkpt><trkpt lat="41.4064172" lon="13.0478364"><ele>6.75</ele><time>2026-04-18T16:49:16.133Z</time></trkpt><trkpt lat="41.4063077" lon="13.0479708"><ele>7.0</ele><time>2026-04-18T16:49:17.133Z</time></trkpt><trkpt lat="41.4061972" lon="13.0481076"><ele>7.0</ele><time>2026-04-18T16:49:18.133Z</time></trkpt><trkpt lat="41.4060915" lon="13.0482337"><ele>7.0</ele><time>2026-04-18T16:49:19.133Z</time></trkpt><trkpt lat="41.4059888" lon="13.0483465"><ele>7.0</ele><time>2026-04-18T16:49:20.133Z</time></trkpt><trkpt lat="41.4058915" lon="13.048439"><ele>7.0</ele><time>2026-04-18T16:49:21.133Z</time></trkpt><trkpt lat="41.4058049" lon="13.0485261"><ele>7.0</ele><time>2026-04-18T16:49:22.133Z</time></trkpt><trkpt lat="41.4057461" lon="13.0486213"><ele>6.999999999999999</ele><time>2026-04-18T16:49:23.133Z</time></trkpt><trkpt lat="41.4057074" lon="13.0487379"><ele>6.999999999999999</ele><time>2026-04-18T16:49:24.133Z</time></trkpt><trkpt lat="41.405663" lon="13.0488708"><ele>7.0</ele><time>2026-04-18T16:49:25.133Z</time></trkpt><trkpt lat="41.4055784" lon="13.0490139"><ele>7.0</ele><time>2026-04-18T16:49:26.133Z</time></trkpt><trkpt lat="41.4054732" lon="13.0491531"><ele>7.0</ele><time>2026-04-18T16:49:27.133Z</time></trkpt><trkpt lat="41.4053747" lon="13.0492764"><ele>6.999999999999999</ele><time>2026-04-18T16:49:28.132Z</time></trkpt><trkpt lat="41.4052972" lon="13.0493785"><ele>6.999999999999999</ele><time>2026-04-18T16:49:29.133Z</time></trkpt><trkpt lat="41.405237" lon="13.0494663"><ele>7.0</ele><time>2026-04-18T16:49:30.133Z</time></trkpt><trkpt lat="41.4052033" lon="13.0495372"><ele>7.0</ele><time>2026-04-18T16:49:31.133Z</time></trkpt><trkpt lat="41.4052694" lon="13.0496853"><ele>7.0</ele><time>2026-04-18T16:49:33.133Z</time></trkpt><trkpt lat="41.4053653" lon="13.0497994"><ele>7.0</ele><time>2026-04-18T16:49:34.133Z</time></trkpt><trkpt lat="41.4054727" lon="13.0499388"><ele>7.0</ele><time>2026-04-18T16:49:35.133Z</time></trkpt><trkpt lat="41.4055725" lon="13.0500815"><ele>7.0</ele><time>2026-04-18T16:49:36.132Z</time></trkpt><trkpt lat="41.4056792" lon="13.0502314"><ele>6.333333333333334</ele><time>2026-04-18T16:49:37.133Z</time></trkpt><trkpt lat="41.4057903" lon="13.0503807"><ele>5.666666666666667</ele><time>2026-04-18T16:49:38.133Z</time></trkpt><trkpt lat="41.4059058" lon="13.0505242"><ele>5.0</ele><time>2026-04-18T16:49:39.133Z</time></trkpt><trkpt lat="41.4060113" lon="13.0506495"><ele>5.0</ele><time>2026-04-18T16:49:40.133Z</time></trkpt><trkpt lat="41.4061041" lon="13.0507689"><ele>5.0</ele><time>2026-04-18T16:49:41.133Z</time></trkpt><trkpt lat="41.4061683" lon="13.0508723"><ele>5.0</ele><time>2026-04-18T16:49:42.133Z</time></trkpt><trkpt lat="41.4062073" lon="13.0509589"><ele>5.0</ele><time>2026-04-18T16:49:43.133Z</time></trkpt><trkpt lat="41.4061604" lon="13.0511065"><ele>5.0</ele><time>2026-04-18T16:49:45.133Z</time></trkpt><trkpt lat="41.4060879" lon="13.0511956"><ele>4.8</ele><time>2026-04-18T16:49:46.133Z</time></trkpt><trkpt lat="41.4059895" lon="13.0512878"><ele>4.6</ele><time>2026-04-18T16:49:47.132Z</time></trkpt><trkpt lat="41.4058937" lon="13.0513866"><ele>4.4</ele><time>2026-04-18T16:49:48.133Z</time></trkpt><trkpt lat="41.4058145" lon="13.0514774"><ele>4.2</ele><time>2026-04-18T16:49:49.133Z</time></trkpt><trkpt lat="41.405753" lon="13.0515534"><ele>4.0</ele><time>2026-04-18T16:49:50.133Z</time></trkpt><trkpt lat="41.4056834" lon="13.0516439"><ele>4.0</ele><time>2026-04-18T16:49:52.133Z</time></trkpt><trkpt lat="41.4057772" lon="13.0517622"><ele>4.0</ele><time>2026-04-18T16:50:55.133Z</time></trkpt><trkpt lat="41.405818" lon="13.0518437"><ele>4.0</ele><time>2026-04-18T16:50:59.133Z</time></trkpt><trkpt lat="41.4055699" lon="13.0517596"><ele>4.0</ele><time>2026-04-18T16:51:21.133Z</time></trkpt><trkpt lat="41.4056352" lon="13.0516869"><ele>4.0</ele><time>2026-04-18T16:54:50.133Z</time></trkpt><trkpt lat="41.4056133" lon="13.0515983"><ele>4.0</ele><time>2026-04-18T16:55:04.133Z</time></trkpt></trkseg></trk></gpx>